@Sonygps/ver1.0/wgs-84/gps-cs3.0 $GPGGA,152452,5407.9653,N,01930.9744,E,1,03,01.9,-0034.2,M,034.3,M,00,0000*5A $GPGSA,A,2,14,17,09,,,,,,,,,,02.1,01.9,01.0*03 $GPGSV,3,1,12,09,74,155,38,27,65,147,00,25,60,077,46,17,31,051,38*74 $GPGSV,3,2,12,14,25,316,39,12,55,256,31,30,19,258,32,04,18,103,36*78 $GPGSV,3,3,12,26,13,184,00,15,09,185,23,02,04,139,00,22,03,277,00*7D $GPRMC,152452,A,5407.9653,N,01930.9744,E,000.0,113.6,170610,,,A*7B $GPVTG,113.6,T,,M,000.0,N,000.1,K,N*06 $GPGGA,152506,5408.0057,N,01930.9729,E,1,07,01.2,00094.9,M,034.3,M,00,0000*46 $GPGSA,A,3,27,14,17,09,04,30,12,,,,,,02.0,01.2,01.5*0C $GPGSV,3,1,12,09,73,155,39,27,65,147,24,25,60,077,45,12,55,256,33*7E $GPGSV,3,2,12,17,31,051,37,14,25,316,39,30,19,258,29,04,18,103,36*76 $GPGSV,3,3,12,26,13,184,27,15,09,185,21,02,04,139,00,22,03,277,24*7C $GPRMC,152506,A,5408.0057,N,01930.9729,E,000.0,058.0,170610,,,A*7C $GPVTG,058.0,T,,M,000.0,N,000.1,K,A*01 $GPGGA,152521,5408.0062,N,01930.9732,E,1,07,01.2,00095.8,M,034.3,M,00,0000*4F $GPGSA,A,3,27,14,17,09,04,30,12,,,,,,02.0,01.2,01.5*0C $GPGSV,3,1,12,09,73,155,38,27,65,147,22,25,60,077,44,12,55,256,33*78 $GPGSV,3,2,12,17,31,051,36,14,25,316,39,30,19,258,32,04,18,103,37*7C $GPGSV,3,3,12,26,13,184,21,15,09,185,21,02,04,139,00,22,03,277,25*7B $GPRMC,152521,A,5408.0062,N,01930.9732,E,000.0,069.0,170610,,,A*77 $GPVTG,069.0,T,,M,000.0,N,000.1,K,A*03 $GPGGA,152536,5408.0062,N,01930.9734,E,1,06,01.2,00096.4,M,034.3,M,00,0000*41 $GPGSA,A,3,14,17,09,04,30,12,,,,,,,02.1,01.2,01.7*0A $GPGSV,3,1,12,09,73,155,39,27,65,147,00,25,60,077,44,12,55,256,33*79 $GPGSV,3,2,12,17,31,051,36,14,25,316,39,30,19,258,32,04,18,103,37*7C $GPGSV,3,3,12,26,13,184,22,15,09,185,19,02,04,139,00,22,03,277,00*74 $GPRMC,152536,A,5408.0062,N,01930.9734,E,000.0,037.6,170610,,,A*7A $GPVTG,037.6,T,,M,000.0,N,000.1,K,A*0E $GPGGA,152547,5408.0050,N,01930.9728,E,1,07,01.2,00097.3,M,034.3,M,00,0000*4C $GPGSA,A,3,27,14,17,09,04,30,12,,,,,,02.0,01.2,01.6*0F $GPGSV,3,1,12,09,73,155,42,27,65,147,38,25,59,077,45,12,55,256,41*70 $GPGSV,3,2,12,17,30,051,42,14,25,316,40,30,20,258,36,04,18,103,38*71 $GPGSV,3,3,12,26,13,184,00,15,08,185,20,02,04,139,00,22,02,277,00*7E $GPRMC,152547,A,5408.0050,N,01930.9728,E,000.1,332.0,170610,,,A*71 $GPVTG,332.0,T,,M,000.1,N,000.3,K,A*0D $GPGGA,152606,5408.0077,N,01930.9727,E,1,07,01.2,00102.0,M,034.3,M,00,0000*4E $GPGSA,A,3,27,09,14,04,17,30,12,,,,,,02.0,01.2,01.6*0F $GPGSV,3,1,12,09,73,155,39,27,65,147,41,25,59,077,45,12,56,256,30*77 $GPGSV,3,2,12,17,30,051,38,14,25,316,39,30,20,258,37,04,18,103,39*72 $GPGSV,3,3,12,26,13,184,28,15,08,185,29,02,04,139,34,22,02,277,26*7E $GPRMC,152606,A,5408.0077,N,01930.9727,E,000.1,026.5,170610,,,A*7E $GPVTG,026.5,T,,M,000.1,N,000.2,K,A*0F $GPGGA,152617,5408.0091,N,01930.9738,E,1,07,01.2,00106.6,M,034.3,M,00,0000*4A $GPGSA,A,3,27,09,14,04,17,30,12,,,,,,02.0,01.2,01.6*0F $GPGSV,3,1,12,09,73,155,38,27,65,147,40,25,59,077,46,12,56,256,33*77 $GPGSV,3,2,12,17,30,051,38,14,25,316,40,30,20,258,36,04,18,103,40*73 $GPGSV,3,3,12,26,13,184,21,15,08,185,21,02,05,139,34,22,02,277,24*7C $GPRMC,152617,A,5408.0091,N,01930.9738,E,000.1,028.1,170610,,,A*72 $GPVTG,028.1,T,,M,000.1,N,000.2,K,A*05 $GPGGA,152636,5408.0082,N,01930.9716,E,1,07,01.2,00103.2,M,034.3,M,00,0000*46 $GPGSA,A,3,14,12,30,27,09,17,04,,,,,,02.0,01.2,01.6*0F $GPGSV,3,1,12,09,73,155,33,27,64,147,31,25,59,077,45,12,56,257,38*72 $GPGSV,3,2,12,17,30,051,43,14,25,316,29,30,20,258,41,04,18,102,44*75 $GPGSV,3,3,12,26,13,184,29,15,08,185,30,02,05,139,41,22,02,277,25*77 $GPRMC,152636,A,5408.0082,N,01930.9716,E,000.1,034.8,170610,,,A*7B $GPVTG,034.8,T,,M,000.1,N,000.2,K,A*01 $GPGGA,152647,5408.0062,N,01930.9738,E,1,07,01.2,00099.0,M,034.3,M,00,0000*42 $GPGSA,A,3,14,12,30,27,09,17,04,,,,,,02.0,01.2,01.6*0F $GPGSV,3,1,12,09,73,155,36,27,64,147,34,25,59,077,38,12,56,257,39*79 $GPGSV,3,2,12,17,30,051,29,14,26,316,42,30,20,258,45,04,18,102,42*75 $GPGSV,3,3,12,26,13,184,33,15,08,185,32,02,05,139,39,22,02,277,00*76 $GPRMC,152647,A,5408.0062,N,01930.9738,E,002.0,312.2,170610,,,A*71 $GPVTG,312.2,T,,M,002.0,N,003.7,K,A*09 $GPGGA,152706,5407.9908,N,01930.9696,E,1,07,01.2,00097.4,M,034.3,M,00,0000*4A $GPGSA,A,3,04,09,12,30,27,14,17,,,,,,02.0,01.2,01.6*0F $GPGSV,3,1,12,09,73,155,35,27,64,147,29,25,59,077,47,12,56,257,38*7F $GPGSV,3,2,12,17,30,051,24,14,26,315,26,30,20,258,37,04,18,102,49*77 $GPGSV,3,3,12,26,13,184,31,15,08,185,33,02,05,139,38,22,02,277,00*74 $GPRMC,152706,A,5407.9908,N,01930.9696,E,000.2,003.1,170610,,,A*73 $GPVTG,003.1,T,,M,000.2,N,000.3,K,A*0E $GPGGA,152717,5407.9963,N,01930.9696,E,1,05,07.3,00100.2,M,034.3,M,00,0000*4B $GPGSA,A,3,04,09,12,30,27,,,,,,,,07.5,07.3,01.8*05 $GPGSV,3,1,12,09,73,155,37,27,64,147,29,25,59,077,45,12,56,257,30*77 $GPGSV,3,2,12,17,30,051,00,14,26,315,00,30,20,258,30,04,18,102,47*7C $GPGSV,3,3,12,26,13,184,32,15,08,185,30,02,05,139,31,22,02,277,00*7D $GPRMC,152717,A,5407.9963,N,01930.9696,E,001.9,003.8,170610,,,A*7D $GPVTG,003.8,T,,M,001.9,N,003.5,K,A*08 $GPGGA,152736,5408.0165,N,01930.9694,E,1,07,01.2,00102.4,M,034.3,M,00,0000*43 $GPGSA,A,3,12,14,30,17,04,09,27,,,,,,02.0,01.2,01.6*0F $GPGSV,3,1,12,09,72,155,34,27,64,147,39,12,56,257,33,17,30,051,38*77 $GPGSV,3,2,12,14,26,315,25,30,20,259,35,04,19,102,48,26,12,184,00*7A $GPGSV,3,3,12,15,08,185,35,02,05,139,41,22,02,277,00,32,00,008,00*7C $GPRMC,152736,A,5408.0165,N,01930.9694,E,000.2,041.4,170610,,,A*74 $GPVTG,041.4,T,,M,000.2,N,000.4,K,A*0A $GPGGA,152747,5408.0166,N,01930.9731,E,1,07,01.2,00108.8,M,034.3,M,00,0000*4E $GPGSA,A,3,12,14,30,17,04,09,27,,,,,,02.0,01.2,01.6*0F $GPGSV,3,1,12,09,72,155,32,27,64,147,40,12,56,257,30,17,30,051,36*72 $GPGSV,3,2,12,14,26,315,29,30,20,259,35,04,19,102,50,26,12,184,00*7F $GPGSV,3,3,12,15,08,185,34,02,05,139,42,22,02,277,00,32,00,008,00*7E $GPRMC,152747,A,5408.0166,N,01930.9731,E,000.2,038.4,170610,,,A*71 $GPVTG,038.4,T,,M,000.2,N,000.4,K,A*04 $GPGGA,152806,5408.0193,N,01930.9761,E,1,07,01.2,00100.7,M,034.3,M,00,0000*4C $GPGSA,A,3,04,27,17,09,14,12,30,,,,,,02.0,01.2,01.6*0F $GPGSV,3,1,12,09,72,154,34,27,64,147,36,12,56,257,33,17,30,051,40*76 $GPGSV,3,2,12,14,26,315,27,30,20,259,34,04,19,102,27,26,12,184,35*76 $GPGSV,3,3,12,15,08,185,38,02,05,139,45,22,02,276,00,32,00,008,00*74 $GPRMC,152806,A,5408.0193,N,01930.9761,E,002.1,078.9,170610,,,A*7C $GPVTG,078.9,T,,M,002.1,N,004.0,K,A*0C $GPGGA,152821,5408.0150,N,01930.9820,E,1,04,02.5,00100.0,M,034.3,M,00,0000*4C $GPGSA,A,3,27,14,12,30,,,,,,,,,04.6,02.5,03.8*0C $GPGSV,3,1,12,09,72,154,15,27,64,147,13,12,57,257,20,17,29,051,00*7D $GPGSV,3,2,12,14,26,315,17,30,20,259,35,04,19,102,00,26,12,184,00*77 $GPGSV,3,3,12,15,07,185,17,02,05,139,18,22,02,276,00,32,00,008,00*7E $GPRMC,152821,A,5408.0150,N,01930.9820,E,002.6,127.5,170610,,,A*7C $GPVTG,127.5,T,,M,002.6,N,004.9,K,A*05 $GPGGA,152836,5408.0220,N,01930.9705,E,1,07,01.2,00096.7,M,034.3,M,00,0000*48 $GPGSA,A,3,17,27,09,14,12,30,04,,,,,,02.1,01.2,01.6*0E $GPGSV,3,1,12,09,72,154,30,27,64,147,25,12,57,257,38,17,29,051,41*73 $GPGSV,3,2,12,14,26,315,40,30,20,259,35,04,19,102,24,26,12,184,33*73 $GPGSV,3,3,12,15,07,185,30,02,05,139,24,22,02,276,20,32,00,008,00*76 $GPRMC,152836,A,5408.0220,N,01930.9705,E,002.8,307.5,170610,,,A*78 $GPVTG,307.5,T,,M,002.8,N,005.3,K,A*00 $GPGGA,152847,5408.0217,N,01930.9632,E,1,07,01.2,00090.8,M,034.3,M,00,0000*46 $GPGSA,A,3,17,27,09,14,12,30,04,,,,,,02.1,01.2,01.6*0E $GPGSV,3,1,12,09,72,154,37,27,64,147,33,12,57,257,41,17,29,051,34*7F $GPGSV,3,2,12,14,26,315,31,30,20,259,31,04,19,102,23,26,12,184,30*75 $GPGSV,3,3,12,15,07,185,36,02,05,139,30,22,02,276,20,32,00,008,00*75 $GPRMC,152847,A,5408.0217,N,01930.9632,E,001.3,222.0,170610,,,A*74 $GPVTG,222.0,T,,M,001.3,N,002.4,K,A*0B $GPGGA,152906,5408.0169,N,01930.9657,E,1,07,01.2,00100.5,M,034.3,M,00,0000*4E $GPGSA,A,3,09,27,12,30,14,17,04,,,,,,02.1,01.2,01.6*0E $GPGSV,3,1,12,09,72,154,37,27,63,147,35,12,57,257,34,17,29,051,45*7A $GPGSV,3,2,12,14,26,315,30,30,21,259,34,04,19,102,47,26,12,184,34*76 $GPGSV,3,3,12,15,07,185,35,02,06,139,42,22,02,276,00,32,00,008,00*72 $GPRMC,152906,A,5408.0169,N,01930.9657,E,001.9,229.3,170610,,,A*7B $GPVTG,229.3,T,,M,001.9,N,003.5,K,A*09 $GPGGA,152917,5408.0121,N,01930.9567,E,1,07,01.2,00097.3,M,034.3,M,00,0000*4B $GPGSA,A,3,09,27,12,30,14,17,04,,,,,,02.1,01.2,01.6*0E $GPGSV,3,1,12,09,72,154,34,27,63,147,33,12,57,257,36,17,29,051,40*78 $GPGSV,3,2,12,14,26,315,32,30,21,259,41,04,19,102,36,26,12,184,35*71 $GPGSV,3,3,12,15,07,185,39,02,06,139,40,22,02,276,23,32,00,008,00*7D $GPRMC,152917,A,5408.0121,N,01930.9567,E,002.5,153.4,170610,,,A*71 $GPVTG,153.4,T,,M,002.5,N,004.6,K,A*0B $GPGGA,152936,5408.0030,N,01930.9495,E,1,07,01.2,00092.4,M,034.3,M,00,0000*47 $GPGSA,A,3,14,27,17,30,09,04,12,,,,,,02.1,01.2,01.7*0F $GPGSV,3,1,12,09,71,154,39,27,63,147,37,12,57,257,34,17,29,051,37*70 $GPGSV,3,2,12,14,26,315,35,30,21,259,36,04,19,101,45,26,12,184,36*72 $GPGSV,3,3,12,15,07,185,37,02,06,138,41,22,01,276,00,32,01,008,00*70 $GPRMC,152936,A,5408.0030,N,01930.9495,E,002.5,272.1,170610,,,A*7A $GPVTG,272.1,T,,M,002.5,N,004.6,K,A*0E $GPGGA,152947,5408.0023,N,01930.9496,E,1,07,01.2,00091.5,M,034.3,M,00,0000*42 $GPGSA,A,3,14,27,17,30,09,04,12,,,,,,02.1,01.2,01.7*0F $GPGSV,3,1,12,09,71,154,36,27,63,147,28,12,57,257,44,17,29,050,34*74 $GPGSV,3,2,12,14,26,315,41,30,21,259,46,04,19,101,32,26,11,184,38*7B $GPGSV,3,3,12,15,07,185,30,02,06,138,30,22,01,276,00,19,01,092,00*7B $GPRMC,152947,A,5408.0023,N,01930.9496,E,000.1,030.6,170610,,,A*78 $GPVTG,030.6,T,,M,000.1,N,000.2,K,A*0B $GPGGA,153006,5408.0031,N,01930.9501,E,1,07,01.2,00095.5,M,034.3,M,00,0000*47 $GPGSA,A,3,30,12,14,09,04,17,27,,,,,,02.1,01.2,01.7*0F $GPGSV,3,1,12,09,71,154,38,27,63,147,29,12,57,258,43,17,29,050,34*73 $GPGSV,3,2,12,14,26,314,42,30,21,259,47,04,19,101,36,26,11,184,30*74 $GPGSV,3,3,12,15,07,185,31,02,06,138,30,22,01,276,00,19,01,092,00*7A $GPRMC,153006,A,5408.0031,N,01930.9501,E,000.1,018.2,170610,,,A*77 $GPVTG,018.2,T,,M,000.1,N,000.1,K,A*06 $GPGGA,153017,5408.0035,N,01930.9503,E,1,07,01.2,00093.9,M,034.3,M,00,0000*4B $GPGSA,A,3,30,12,14,09,04,17,27,,,,,,02.1,01.2,01.7*0F $GPGSV,3,1,12,09,71,154,37,27,63,147,30,12,58,258,42,17,29,050,30*7E $GPGSV,3,2,12,14,27,314,41,30,21,259,47,04,19,101,31,26,11,184,41*77 $GPGSV,3,3,12,15,07,185,45,02,06,138,38,22,01,276,00,19,01,091,00*72 $GPRMC,153017,A,5408.0035,N,01930.9503,E,000.1,036.7,170610,,,A*78 $GPVTG,036.7,T,,M,000.1,N,000.2,K,A*0C $GPGGA,153036,5408.0052,N,01930.9522,E,1,07,01.2,00101.5,M,034.3,M,00,0000*4C $GPGSA,A,3,30,12,14,04,09,17,27,,,,,,02.1,01.2,01.7*0F $GPGSV,3,1,12,09,71,154,33,27,63,147,22,12,58,258,43,17,29,050,30*78 $GPGSV,3,2,12,14,27,314,40,30,21,259,50,04,20,101,36,26,11,184,41*7D $GPGSV,3,3,12,15,07,185,45,02,06,138,37,22,01,276,00,19,01,091,00*7D $GPRMC,153036,A,5408.0052,N,01930.9522,E,000.1,012.4,170610,,,A*7C $GPVTG,012.4,T,,M,000.1,N,000.2,K,A*09 $GPGGA,153047,5408.0056,N,01930.9516,E,1,07,01.2,00101.5,M,034.3,M,00,0000*49 $GPGSA,A,3,30,12,14,04,09,17,27,,,,,,02.1,01.2,01.7*0F $GPGSV,3,1,12,09,71,154,38,27,62,147,38,12,58,258,43,17,29,050,30*79 $GPGSV,3,2,12,14,27,314,40,30,21,259,47,04,20,101,27,26,11,184,40*7A $GPGSV,3,3,12,15,06,184,46,02,06,138,38,22,01,276,31,19,01,091,00*73 $GPRMC,153047,A,5408.0056,N,01930.9516,E,000.9,046.4,170610,,,A*70 $GPVTG,046.4,T,,M,000.9,N,001.7,K,A*04 $GPGGA,153106,5408.0176,N,01930.9514,E,1,06,01.6,00102.3,M,034.3,M,00,0000*4C $GPGSA,A,3,09,27,04,12,17,30,,,,,,,02.4,01.6,01.7*0B $GPGSV,3,1,12,09,71,154,35,27,62,147,30,12,58,258,41,17,28,050,29*77 $GPGSV,3,2,12,14,27,314,00,30,22,259,48,04,20,101,29,26,11,184,43*7F $GPGSV,3,3,12,15,06,184,36,02,06,138,00,22,01,275,00,19,01,091,00*7E $GPRMC,153106,A,5408.0176,N,01930.9514,E,000.6,047.6,170610,,,A*79 $GPVTG,047.6,T,,M,000.6,N,001.1,K,A*0E $GPGGA,153117,5408.0176,N,01930.9527,E,1,07,01.2,00099.5,M,034.3,M,00,0000*4C $GPGSA,A,3,09,27,04,12,17,30,14,,,,,,02.1,01.2,01.7*0F $GPGSV,3,1,12,09,70,153,32,27,62,147,34,12,58,258,40,17,28,050,38*73 $GPGSV,3,2,12,14,27,314,37,30,22,259,50,04,20,101,33,26,11,184,36*7B $GPGSV,3,3,12,02,06,138,00,15,06,184,30,19,01,091,00,22,01,275,00*78 $GPRMC,153117,A,5408.0176,N,01930.9527,E,001.3,113.5,170610,,,A*7E $GPVTG,113.5,T,,M,001.3,N,002.5,K,A*0E $GPGGA,153136,5408.0138,N,01930.9574,E,1,07,01.2,00098.5,M,034.3,M,00,0000*42 $GPGSA,A,3,30,12,17,04,14,27,09,,,,,,02.1,01.2,01.7*0F $GPGSV,3,1,12,09,70,153,42,27,62,147,39,12,58,258,36,17,28,050,37*77 $GPGSV,3,2,12,14,27,314,28,30,22,259,42,04,20,101,44,26,11,184,41*76 $GPGSV,3,3,12,02,06,138,32,15,06,184,34,19,01,091,00,22,01,275,00*7D $GPRMC,153136,A,5408.0138,N,01930.9574,E,002.3,301.8,170610,,,A*7E $GPVTG,301.8,T,,M,002.3,N,004.4,K,A*06 $GPGGA,153147,5408.0188,N,01930.9491,E,1,07,01.2,00098.4,M,034.3,M,00,0000*44 $GPGSA,A,3,30,12,17,04,14,27,09,,,,,,02.1,01.2,01.7*0F $GPGSV,3,1,12,09,70,153,40,27,62,147,36,12,58,258,32,17,28,050,31*78 $GPGSV,3,2,12,14,27,314,36,30,22,260,38,04,20,101,28,26,11,184,34*76 $GPGSV,3,3,12,02,07,138,34,15,06,184,39,19,01,091,00,32,01,007,00*71 $GPRMC,153147,A,5408.0188,N,01930.9491,E,002.1,341.9,170610,,,A*7E $GPVTG,341.9,T,,M,002.1,N,004.0,K,A*05 $GPGGA,153206,5408.0196,N,01930.9495,E,1,07,01.2,00094.1,M,034.3,M,00,0000*40 $GPGSA,A,3,09,27,17,30,12,14,04,,,,,,02.2,01.2,01.7*0C $GPGSV,3,1,12,09,70,153,41,27,62,147,33,12,58,258,27,17,28,050,37*7E $GPGSV,3,2,12,14,27,314,27,30,22,260,23,04,20,100,23,26,10,184,31*72 $GPGSV,3,3,12,02,07,138,32,15,06,184,27,19,01,091,00,32,01,007,00*78 $GPRMC,153206,A,5408.0196,N,01930.9495,E,000.3,176.3,170610,,,A*7F $GPVTG,176.3,T,,M,000.3,N,000.6,K,A*0B $GPGGA,153217,5408.0217,N,01930.9535,E,1,07,01.2,00095.8,M,034.3,M,00,0000*49 $GPGSA,A,3,09,27,17,30,12,14,04,,,,,,02.2,01.2,01.7*0C $GPGSV,3,1,12,09,70,153,36,27,62,147,38,12,58,258,31,17,28,050,42*70 $GPGSV,3,2,12,14,27,314,32,30,22,260,32,04,20,100,27,26,10,184,31*72 $GPGSV,3,3,12,02,07,138,29,15,06,184,27,19,01,091,00,32,01,007,21*71 $GPRMC,153217,A,5408.0217,N,01930.9535,E,006.4,006.8,170610,,,A*72 $GPVTG,006.8,T,,M,006.4,N,011.8,K,A*09 $GPGGA,153236,5408.0143,N,01930.9511,E,1,07,01.2,00099.1,M,034.3,M,00,0000*4B $GPGSA,A,3,12,27,09,17,04,30,14,,,,,,02.2,01.2,01.8*03 $GPGSV,3,1,12,09,70,153,42,27,62,147,39,12,58,258,43,17,28,050,37*75 $GPGSV,3,2,12,14,27,314,30,30,22,260,35,04,20,100,33,26,10,184,42*76 $GPGSV,3,3,12,02,07,138,34,15,06,184,42,19,01,091,00,32,01,007,00*7D $GPRMC,153236,A,5408.0143,N,01930.9511,E,002.4,345.2,170610,,,A*7F $GPVTG,345.2,T,,M,002.4,N,004.5,K,A*0A $GPGGA,153247,5408.0171,N,01930.9489,E,1,07,01.2,00105.8,M,034.3,M,00,0000*41 $GPGSA,A,3,12,27,09,17,04,30,14,,,,,,02.2,01.2,01.8*03 $GPGSV,3,1,12,09,70,153,42,27,61,147,40,12,59,258,27,17,28,050,40*7B $GPGSV,3,2,12,14,27,313,28,30,22,260,37,04,20,100,33,26,10,184,36*79 $GPGSV,3,3,12,02,07,138,35,15,06,184,39,19,01,091,00,32,01,007,00*70 $GPRMC,153247,A,5408.0171,N,01930.9489,E,000.1,026.3,170610,,,A*78 $GPVTG,026.3,T,,M,000.1,N,000.2,K,A*09 $GPGGA,153306,5408.0218,N,01930.9506,E,1,07,01.2,00112.8,M,034.3,M,00,0000*49 $GPGSA,A,3,09,27,30,17,04,12,14,,,,,,02.2,01.2,01.8*03 $GPGSV,3,1,12,09,69,153,42,27,61,147,41,12,59,258,34,17,28,050,37*70 $GPGSV,3,2,12,14,27,313,25,30,22,260,42,04,20,100,35,26,10,184,32*74 $GPGSV,3,3,12,02,07,138,36,15,06,184,36,19,02,091,00,32,01,007,00*7F $GPRMC,153306,A,5408.0218,N,01930.9506,E,000.1,015.7,170610,,,A*72 $GPVTG,015.7,T,,M,000.1,N,000.2,K,A*0D $GPGGA,153317,5408.0227,N,01930.9527,E,1,07,01.2,00117.9,M,034.3,M,00,0000*42 $GPGSA,A,3,09,27,30,17,04,12,14,,,,,,02.2,01.2,01.8*03 $GPGSV,3,1,12,09,69,153,41,27,61,147,39,12,59,259,31,17,28,050,38*77 $GPGSV,3,2,12,14,27,313,27,30,22,260,43,04,20,100,32,26,10,184,37*75 $GPGSV,3,3,12,02,07,138,35,15,05,184,38,19,02,091,00,32,01,007,00*71 $GPRMC,153317,A,5408.0227,N,01930.9527,E,000.0,059.6,170610,,,A*75 $GPVTG,059.6,T,,M,000.0,N,000.1,K,A*06 $GPGGA,153336,5407.9888,N,01930.9824,E,1,07,01.3,00111.2,M,034.3,M,00,0000*4A $GPGSA,A,3,12,30,27,04,14,17,09,,,,,,02.2,01.3,01.8*02 $GPGSV,3,1,12,09,69,153,43,27,61,147,40,12,59,259,47,17,28,050,28*7B $GPGSV,3,2,12,14,27,313,29,30,23,260,44,04,20,100,32,26,10,184,40*7D $GPGSV,3,3,12,02,07,138,37,15,05,184,39,19,02,091,00,32,01,007,00*72 $GPRMC,153336,A,5407.9888,N,01930.9824,E,000.1,118.1,170610,,,A*73 $GPVTG,118.1,T,,M,000.1,N,000.2,K,A*07 $GPGGA,153347,5407.9851,N,01930.9824,E,1,07,01.3,00104.2,M,034.3,M,00,0000*4C $GPGSA,A,3,12,30,27,04,14,17,09,,,,,,02.2,01.3,01.8*02 $GPGSV,3,1,12,09,69,153,42,27,61,147,43,12,59,259,47,14,27,313,36*7E $GPGSV,3,2,12,17,27,050,23,30,23,260,43,04,20,100,34,26,10,183,40*76 $GPGSV,3,3,12,02,07,138,36,15,05,184,38,19,02,090,00,32,01,006,00*72 $GPRMC,153347,A,5407.9851,N,01930.9824,E,000.1,046.4,170610,,,A*7E $GPVTG,046.4,T,,M,000.1,N,000.3,K,A*09 $GPGGA,153406,5407.9780,N,01930.9797,E,1,07,01.3,00106.0,M,034.3,M,00,0000*4A $GPGSA,A,3,12,30,09,27,04,17,14,,,,,,02.2,01.3,01.8*02 $GPGSV,3,1,12,09,69,153,40,27,61,147,41,12,59,259,45,14,28,313,24*70 $GPGSV,3,2,12,17,27,050,28,30,23,260,46,04,20,100,35,26,10,183,41*78 $GPGSV,3,3,12,02,07,137,36,15,05,184,39,19,02,090,00,32,01,006,00*7C $GPRMC,153406,A,5407.9780,N,01930.9797,E,000.1,031.4,170610,,,A*78 $GPVTG,031.4,T,,M,000.1,N,000.3,K,A*09 $GPGGA,153417,5407.9764,N,01930.9793,E,1,07,01.3,00100.9,M,034.3,M,00,0000*4B $GPGSA,A,3,12,30,09,27,04,17,14,,,,,,02.2,01.3,01.8*02 $GPGSV,3,1,12,09,69,153,41,27,61,147,41,12,59,259,46,14,28,313,25*73 $GPGSV,3,2,12,17,27,050,26,30,23,260,46,04,21,100,33,26,09,183,40*78 $GPGSV,3,3,12,02,07,137,36,15,05,184,39,19,02,090,00,32,01,006,00*7C $GPRMC,153417,A,5407.9764,N,01930.9793,E,000.0,108.9,170610,,,A*71 $GPVTG,108.9,T,,M,000.0,N,000.1,K,A*0C $GPGGA,153437,5407.9823,N,01930.9816,E,1,07,01.3,00108.2,M,034.3,M,00,0000*44 $GPGSA,A,3,12,30,09,27,14,04,17,,,,,,02.2,01.3,01.8*02 $GPGSV,3,1,12,09,69,153,40,27,61,147,40,12,59,259,42,14,28,313,35*76 $GPGSV,3,2,12,17,27,050,27,30,23,260,41,04,21,099,32,26,09,183,00*7A $GPGSV,3,3,12,02,08,137,00,15,05,184,38,19,02,090,00,32,01,006,00*77 $GPRMC,153437,A,5407.9823,N,01930.9816,E,000.8,358.3,170610,,,A*78 $GPVTG,358.3,T,,M,000.8,N,001.5,K,A*0C $GPGGA,153451,5407.9848,N,01930.9808,E,1,07,01.3,00101.6,M,034.3,M,00,0000*4B $GPGSA,A,3,12,30,09,27,14,04,17,,,,,,02.2,01.3,01.8*02 $GPGSV,3,1,12,09,69,153,41,27,61,147,41,12,59,259,45,14,28,313,32*76 $GPGSV,3,2,12,17,27,050,30,30,23,260,46,04,21,099,34,26,09,183,37*79 $GPGSV,3,3,12,02,08,137,35,15,05,184,40,19,02,090,00,32,01,006,00*7E $GPRMC,153451,A,5407.9848,N,01930.9808,E,000.1,066.5,170610,,,A*7B $GPVTG,066.5,T,,M,000.1,N,000.2,K,A*0B $GPGGA,153506,5407.9865,N,01930.9810,E,1,10,00.8,00100.0,M,034.3,M,00,0000*45 $GPGSA,A,3,12,30,09,27,14,04,17,15,26,02,,,01.4,00.8,01.1*06 $GPGSV,3,1,12,09,68,153,39,27,60,147,42,12,60,259,46,14,28,313,31*70 $GPGSV,3,2,12,17,27,050,31,30,23,260,45,04,21,099,33,26,09,183,37*7C $GPGSV,3,3,12,02,08,137,30,15,05,184,40,19,02,090,00,32,01,006,00*7B $GPRMC,153506,A,5407.9865,N,01930.9810,E,000.0,103.4,170610,,,A*7C $GPVTG,103.4,T,,M,000.0,N,000.1,K,A*0A $GPGGA,153517,5407.9854,N,01930.9812,E,1,10,00.8,00098.0,M,034.3,M,00,0000*45 $GPGSA,A,3,12,30,09,27,14,04,17,15,26,02,,,01.4,00.8,01.1*06 $GPGSV,3,1,12,09,68,153,41,27,60,147,41,12,60,259,45,14,28,313,32*7C $GPGSV,3,2,12,17,27,050,30,30,23,260,45,04,21,099,31,26,09,183,35*7D $GPGSV,3,3,12,02,08,137,31,15,05,184,40,19,02,090,00,32,02,006,00*79 $GPRMC,153517,A,5407.9854,N,01930.9812,E,000.0,089.5,170610,,,A*7E $GPVTG,089.5,T,,M,000.0,N,000.1,K,A*08 $GPGGA,153536,5407.9514,N,01931.0182,E,1,10,00.8,00094.0,M,034.3,M,00,0000*4B $GPGSA,A,3,12,30,09,27,15,14,26,02,17,04,,,01.4,00.8,01.1*06 $GPGSV,3,1,12,09,68,153,40,27,60,147,41,12,60,259,48,14,28,313,31*73 $GPGSV,3,2,12,17,27,049,31,30,23,260,44,04,21,099,31,26,09,183,37*77 $GPGSV,3,3,12,02,08,137,39,15,05,184,37,19,02,090,00,32,02,006,00*71 $GPRMC,153536,A,5407.9514,N,01931.0182,E,023.3,146.2,170610,,,A*7B $GPVTG,146.2,T,,M,023.3,N,043.1,K,A*08 $GPGGA,153547,5407.8965,N,01931.1312,E,1,10,00.8,00091.6,M,034.3,M,00,0000*4F $GPGSA,A,3,12,30,09,27,15,14,26,02,17,04,,,01.4,00.8,01.1*06 $GPGSV,3,1,12,09,68,153,40,27,60,148,41,12,60,259,38,14,28,312,35*7E $GPGSV,3,2,12,17,27,049,42,30,24,260,40,04,21,099,33,26,09,183,43*71 $GPGSV,3,3,12,02,08,137,41,15,04,184,39,19,02,090,00,32,02,006,00*71 $GPRMC,153547,A,5407.8965,N,01931.1312,E,028.6,124.1,170610,,,A*75 $GPVTG,124.1,T,,M,028.6,N,053.0,K,A*01 $GPGGA,153606,5407.7646,N,01931.1662,E,1,10,00.8,00085.7,M,034.3,M,00,0000*4E $GPGSA,A,3,09,17,12,14,15,30,26,27,04,02,,,01.4,00.8,01.1*06 $GPGSV,3,1,12,09,68,153,42,12,60,259,44,27,60,148,36,14,28,312,41*74 $GPGSV,3,2,12,17,27,049,36,30,24,260,41,04,21,099,34,26,09,183,40*77 $GPGSV,3,3,12,02,08,137,35,15,04,184,43,19,02,090,00,32,02,006,00*7F $GPRMC,153606,A,5407.7646,N,01931.1662,E,030.6,186.9,170610,,,A*79 $GPVTG,186.9,T,,M,030.6,N,056.8,K,A*05 $GPGGA,153616,5407.6621,N,01931.1439,E,1,10,00.8,00082.4,M,034.3,M,00,0000*47 $GPGSA,A,3,09,17,12,14,15,30,26,27,04,02,,,01.4,00.8,01.1*06 $GPGSV,3,1,12,09,68,153,36,12,60,259,46,27,60,148,35,14,28,312,42*75 $GPGSV,3,2,12,17,26,049,32,30,24,261,39,04,21,099,32,26,09,183,40*7A $GPGSV,3,3,12,02,08,137,35,15,04,184,40,19,03,090,00,32,02,006,00*7D $GPRMC,153616,A,5407.6621,N,01931.1439,E,036.1,187.9,170610,,,A*74 $GPVTG,187.9,T,,M,036.1,N,067.0,K,A*0F $GPGGA,153635,5407.4527,N,01931.0941,E,1,09,00.8,00080.7,M,034.3,M,00,0000*4B $GPGSA,A,3,12,26,14,30,09,04,27,02,17,,,,01.5,00.8,01.2*00 $GPGSV,3,1,12,09,68,153,38,12,60,259,46,27,60,148,33,14,28,312,41*7E $GPGSV,3,2,12,17,26,049,33,30,24,261,37,04,21,099,31,26,09,183,42*74 $GPGSV,3,3,12,02,08,137,35,15,04,184,41,19,03,090,00,32,02,006,23*7D $GPRMC,153635,A,5407.4527,N,01931.0941,E,039.1,188.5,170610,,,A*7D $GPVTG,188.5,T,,M,039.1,N,072.5,K,A*02 $GPGGA,153646,5407.3303,N,01931.0694,E,1,09,00.8,00080.2,M,034.3,M,00,0000*4A $GPGSA,A,3,12,26,14,30,09,04,27,02,17,,,,01.5,00.8,01.2*00 $GPGSV,3,1,12,09,68,153,38,12,60,259,46,27,60,148,33,14,28,312,40*7F $GPGSV,3,2,12,17,26,049,38,30,24,261,39,04,21,099,29,26,09,183,41*7B $GPGSV,3,3,12,02,08,137,37,15,04,184,41,19,03,090,00,32,02,006,17*78 $GPRMC,153646,A,5407.3303,N,01931.0694,E,041.3,182.7,170610,,,A*7C $GPVTG,182.7,T,,M,041.3,N,076.5,K,A*03 $GPGGA,153701,5407.1394,N,01931.0560,E,1,09,00.8,00074.6,M,034.3,M,00,0000*43 $GPGSA,A,3,12,30,02,26,09,14,27,04,17,,,,01.5,00.8,01.2*00 $GPGSV,3,1,12,09,68,153,35,12,60,259,37,27,60,148,33,14,28,312,32*71 $GPGSV,3,2,12,17,26,049,33,30,24,261,38,04,21,099,29,26,09,183,34*73 $GPGSV,3,3,12,02,08,137,38,15,04,184,25,19,03,090,00,32,02,006,00*73 $GPRMC,153701,A,5407.1394,N,01931.0560,E,046.7,182.9,170610,,,A*77 $GPVTG,182.9,T,,M,046.7,N,086.6,K,A*02 $GPGGA,153716,5406.9796,N,01931.0273,E,1,09,00.8,00063.1,M,034.3,M,00,0000*4E $GPGSA,A,3,12,14,30,09,04,27,17,26,02,,,,01.5,00.8,01.2*00 $GPGSV,3,1,12,09,68,153,34,12,60,259,35,27,60,148,32,14,28,312,34*75 $GPGSV,3,2,12,17,26,049,32,30,24,261,36,04,21,099,31,26,09,183,33*72 $GPGSV,3,3,12,02,08,137,26,15,04,184,00,19,03,090,00,32,02,006,00*7B $GPRMC,153716,A,5406.9796,N,01931.0273,E,039.5,184.2,170610,,,A*7C $GPVTG,184.2,T,,M,039.5,N,073.2,K,A*0B $GPGGA,153731,5406.9314,N,01931.0381,E,1,08,00.9,00049.1,M,034.3,M,00,0000*41 $GPGSA,A,3,17,30,04,09,27,12,14,26,,,,,01.6,00.9,01.3*01 $GPGSV,3,1,12,09,68,153,38,12,60,259,37,27,60,148,27,14,28,312,28*72 $GPGSV,3,2,12,17,26,049,40,30,24,261,39,04,21,099,38,26,09,183,31*73 $GPGSV,3,3,12,02,08,137,00,15,04,184,00,19,03,090,00,32,02,006,00*7F $GPRMC,153731,A,5406.9314,N,01931.0381,E,010.0,178.7,170610,,,A*73 $GPVTG,178.7,T,,M,010.0,N,018.6,K,A*0A $GPGGA,153746,5407.0097,N,01931.0533,E,1,06,01.6,00041.4,M,034.3,M,00,0000*43 $GPGSA,A,3,04,09,17,27,30,12,,,,,,,02.5,01.6,01.9*04 $GPGSV,3,1,12,09,68,153,32,12,60,259,24,27,60,148,33,14,28,312,00*75 $GPGSV,3,2,12,17,26,049,37,30,24,261,26,04,21,099,36,26,09,183,00*71 $GPGSV,3,3,12,02,08,137,00,15,04,184,00,19,03,090,00,32,02,006,00*7F $GPRMC,153746,A,5407.0097,N,01931.0533,E,003.6,032.2,170610,,,A*72 $GPVTG,032.2,T,,M,003.6,N,006.8,K,N*0A $GPGGA,153801,5407.1546,N,01931.0419,E,1,08,01.0,00039.1,M,034.3,M,00,0000*4C $GPGSA,A,3,02,12,14,17,04,09,27,30,,,,,01.7,01.0,01.3*0E $GPGSV,3,1,12,09,68,153,38,12,60,259,39,27,60,148,36,14,28,312,38*7D $GPGSV,3,2,12,17,26,049,38,30,24,261,34,04,21,099,33,26,09,183,00*78 $GPGSV,3,3,12,02,08,137,42,15,04,184,00,19,03,090,00,32,02,006,17*7F $GPRMC,153801,A,5407.1546,N,01931.0419,E,030.2,002.8,170610,,,A*72 $GPVTG,002.8,T,,M,030.2,N,055.9,K,N*00 $GPGGA,153816,5407.1580,N,01931.0493,E,1,09,00.8,00044.3,M,034.3,M,00,0000*42 $GPGSA,A,3,12,17,02,09,27,14,04,30,26,,,,01.5,00.8,01.2*00 $GPGSV,3,1,12,09,68,153,40,12,60,259,40,27,60,148,37,14,28,312,38*7D $GPGSV,3,2,12,17,26,049,38,30,24,261,30,04,21,099,34,26,09,183,25*7C $GPGSV,3,3,12,02,08,137,39,15,04,184,00,19,03,090,00,32,02,006,00*75 $GPRMC,153816,A,5407.1580,N,01931.0493,E,003.2,208.7,170610,,,A*7B $GPVTG,208.7,T,,M,003.2,N,006.1,K,A*06 $GPGGA,153831,5407.2120,N,01931.0517,E,1,08,01.0,00060.1,M,034.3,M,00,0000*4B $GPGSA,A,3,17,12,04,27,02,09,14,30,,,,,01.7,01.0,01.3*0E $GPGSV,3,1,12,09,68,153,26,12,60,259,41,27,60,148,34,14,28,312,31*76 $GPGSV,3,2,12,17,26,049,40,30,24,261,25,04,21,099,38,26,09,183,00*7C $GPGSV,3,3,12,02,08,137,32,15,04,184,00,19,03,090,00,32,02,006,00*7E $GPRMC,153831,A,5407.2120,N,01931.0517,E,019.0,000.6,170610,,,A*7C $GPVTG,000.6,T,,M,019.0,N,035.2,K,A*07 $GPGGA,153846,5407.3619,N,01931.0641,E,1,09,00.8,00062.2,M,034.3,M,00,0000*4E $GPGSA,A,3,12,09,27,02,14,17,26,04,30,,,,01.5,00.8,01.2*00 $GPGSV,3,1,12,09,68,153,39,12,60,259,41,27,60,148,38,14,28,312,35*70 $GPGSV,3,2,12,17,26,049,36,30,24,261,30,04,21,099,30,26,09,183,33*71 $GPGSV,3,3,12,02,08,137,37,15,04,184,27,19,03,090,00,32,02,006,41*7B $GPRMC,153846,A,5407.3619,N,01931.0641,E,028.6,005.1,170610,,,A*76 $GPVTG,005.1,T,,M,028.6,N,052.9,K,A*0B $GPGGA,153901,5407.4624,N,01931.0922,E,1,09,00.8,00070.5,M,034.3,M,00,0000*4B $GPGSA,A,3,12,17,27,09,02,14,26,30,04,,,,01.5,00.8,01.2*00 $GPGSV,3,1,12,09,68,153,39,12,60,259,41,27,60,148,38,14,28,312,35*70 $GPGSV,3,2,12,17,26,049,39,30,24,261,28,04,21,099,30,26,09,183,34*70 $GPGSV,3,3,12,02,08,137,36,15,04,184,31,19,03,090,00,32,02,006,33*78 $GPRMC,153901,A,5407.4624,N,01931.0922,E,025.2,013.3,170610,,,A*7B $GPVTG,013.3,T,,M,025.2,N,046.7,K,A*0C $GPGGA,153916,5407.4733,N,01931.1036,E,1,09,00.8,00072.1,M,034.3,M,00,0000*41 $GPGSA,A,3,09,02,27,26,04,14,17,30,12,,,,01.5,00.8,01.2*00 $GPGSV,3,1,12,09,66,152,44,12,62,260,28,27,58,148,41,14,29,311,36*76 $GPGSV,3,2,12,17,25,049,36,30,25,261,34,04,22,098,37,02,09,136,41*7F $GPGSV,3,3,12,26,07,183,40,15,03,184,33,19,03,089,00,32,02,005,23*70 $GPRMC,153916,A,5407.4733,N,01931.1036,E,002.0,213.9,170610,,,A*78 $GPVTG,213.9,T,,M,002.0,N,003.7,K,A*02 $GPGGA,153931,5407.4705,N,01931.1037,E,1,09,00.8,00071.0,M,034.3,M,00,0000*42 $GPGSA,A,3,09,02,27,26,04,14,17,30,12,,,,01.5,00.8,01.2*00 $GPGSV,3,1,12,09,66,152,44,12,62,260,26,27,58,148,41,14,29,311,37*79 $GPGSV,3,2,12,17,25,049,37,30,25,261,34,04,22,098,37,02,09,136,43*7C $GPGSV,3,3,12,26,07,183,41,19,03,089,00,15,03,184,35,32,02,005,00*76 $GPRMC,153931,A,5407.4705,N,01931.1037,E,000.5,193.5,170610,,,A*79 $GPVTG,193.5,T,,M,000.5,N,000.9,K,A*0F $GPGGA,153946,5407.4690,N,01931.1051,E,1,09,00.8,00073.2,M,034.3,M,00,0000*4F $GPGSA,A,3,09,02,27,26,14,17,04,30,12,,,,01.5,00.8,01.2*00 $GPGSV,3,1,12,09,66,152,44,12,62,260,27,27,58,148,41,14,29,311,37*78 $GPGSV,3,2,12,17,25,049,36,30,25,261,36,04,22,098,37,02,09,136,43*7F $GPGSV,3,3,12,26,07,183,41,19,03,089,00,15,03,184,33,32,02,005,00*70 $GPRMC,153946,A,5407.4690,N,01931.1051,E,001.1,193.1,170610,,,A*75 $GPVTG,193.1,T,,M,001.1,N,002.1,K,A*04 $GPGGA,154001,5407.4674,N,01931.1028,E,1,09,00.8,00071.2,M,034.3,M,00,0000*44 $GPGSA,A,3,09,02,27,26,04,14,17,30,12,,,,01.5,00.8,01.2*00 $GPGSV,3,1,12,09,66,152,45,12,62,260,28,27,58,148,41,14,29,311,36*77 $GPGSV,3,2,12,17,25,049,37,30,25,261,36,04,22,098,37,02,09,136,43*7E $GPGSV,3,3,12,26,07,183,41,19,03,089,00,15,03,184,31,32,02,005,26*76 $GPRMC,154001,A,5407.4674,N,01931.1028,E,000.7,163.3,170610,,,A*76 $GPVTG,163.3,T,,M,000.7,N,001.3,K,A*0F $GPGGA,154016,5407.4669,N,01931.1026,E,1,09,00.8,00068.2,M,034.3,M,00,0000*48 $GPGSA,A,3,09,02,27,26,04,14,17,30,12,,,,01.5,00.8,01.2*00 $GPGSV,3,1,12,09,66,152,45,12,62,260,20,27,58,148,41,14,29,311,36*7F $GPGSV,3,2,12,17,25,049,37,30,25,261,35,04,22,098,37,02,09,136,43*7D $GPGSV,3,3,12,26,07,183,40,19,03,089,00,15,03,184,30,32,02,005,27*77 $GPRMC,154016,A,5407.4669,N,01931.1026,E,000.3,203.4,170610,,,A*74 $GPVTG,203.4,T,,M,000.3,N,000.7,K,A*0C $GPGGA,154036,5407.4707,N,01931.1057,E,1,09,00.8,00071.1,M,034.3,M,00,0000*4E $GPGSA,A,3,09,02,27,26,30,04,14,17,12,,,,01.5,00.8,01.2*00 $GPGSV,3,1,12,09,66,152,40,12,62,261,42,27,58,148,44,14,29,311,38*74 $GPGSV,3,2,12,30,25,261,32,17,25,049,37,04,22,097,39,02,10,136,45*75 $GPGSV,3,3,12,26,07,183,39,15,03,184,34,19,04,088,00,32,02,004,20*7D $GPRMC,154036,A,5407.4707,N,01931.1057,E,005.2,122.1,170610,,,A*78 $GPVTG,122.1,T,,M,005.2,N,009.6,K,A*05 $GPGGA,154046,5407.4433,N,01931.1450,E,1,09,00.8,00072.1,M,034.3,M,00,0000*4D $GPGSA,A,3,09,02,27,26,30,04,14,17,12,,,,01.5,00.8,01.2*00 $GPGSV,3,1,12,09,65,152,40,12,62,261,46,27,58,148,42,14,29,311,26*7A $GPGSV,3,2,12,30,26,262,46,17,25,049,36,04,22,097,37,02,10,136,44*78 $GPGSV,3,3,12,26,07,183,41,19,04,088,00,15,02,184,35,32,02,004,32*71 $GPRMC,154046,A,5407.4433,N,01931.1450,E,019.6,139.5,170610,,,A*7F $GPVTG,139.5,T,,M,019.6,N,036.3,K,A*0B $GPGGA,154106,5407.3783,N,01931.2757,E,1,09,00.8,00070.0,M,034.3,M,00,0000*43 $GPGSA,A,3,26,02,12,27,30,09,14,17,04,,,,01.5,00.8,01.2*00 $GPGSV,3,1,12,09,65,152,40,12,62,261,41,27,58,148,37,14,29,310,27*7F $GPGSV,3,2,12,30,26,262,43,17,25,049,38,04,22,097,39,02,10,136,40*79 $GPGSV,3,3,12,26,07,183,39,15,02,184,41,19,04,088,00,32,02,004,33*7C $GPRMC,154106,A,5407.3783,N,01931.2757,E,018.5,137.6,170610,,,A*7D $GPVTG,137.6,T,,M,018.5,N,034.3,K,A*06 $GPGGA,154116,5407.3410,N,01931.3324,E,1,09,00.8,00066.9,M,034.3,M,00,0000*44 $GPGSA,A,3,26,02,12,27,30,09,14,17,04,,,,01.5,00.8,01.2*00 $GPGSV,3,1,12,09,65,152,38,12,62,261,41,27,57,148,41,14,29,310,26*7F $GPGSV,3,2,12,30,26,262,44,17,25,049,31,04,22,097,39,02,10,136,41*76 $GPGSV,3,3,12,26,07,183,28,19,04,088,00,32,02,004,29,15,02,184,21*71 $GPRMC,154116,A,5407.3410,N,01931.3324,E,013.1,135.2,170610,,,A*7D $GPVTG,135.2,T,,M,013.1,N,024.4,K,A*09 $GPGGA,154136,5407.2801,N,01931.3665,E,1,09,00.8,00072.3,M,034.3,M,00,0000*44 $GPGSA,A,3,09,30,17,12,27,14,04,02,26,,,,01.5,00.8,01.2*00 $GPGSV,3,1,12,09,65,152,42,12,63,261,40,27,57,148,33,14,29,310,40*77 $GPGSV,3,2,12,30,26,262,44,17,24,049,38,04,23,097,28,02,10,136,39*70 $GPGSV,3,3,12,26,07,183,35,15,02,184,35,19,04,088,00,32,02,004,00*73 $GPRMC,154136,A,5407.2801,N,01931.3665,E,018.4,183.1,170610,,,A*72 $GPVTG,183.1,T,,M,018.4,N,034.0,K,A*0C $GPGGA,154146,5407.2240,N,01931.3636,E,1,09,00.8,00070.2,M,034.3,M,00,0000*49 $GPGSA,A,3,09,30,17,12,27,14,04,02,26,,,,01.5,00.8,01.2*00 $GPGSV,3,1,12,09,65,152,36,12,63,261,40,27,57,148,34,14,29,310,40*73 $GPGSV,3,2,12,30,26,262,43,17,24,049,35,04,23,097,30,02,10,136,38*72 $GPGSV,3,3,12,26,06,183,41,19,04,088,00,32,03,004,00,15,02,184,35*70 $GPRMC,154146,A,5407.2240,N,01931.3636,E,021.1,180.2,170610,,,A*73 $GPVTG,180.2,T,,M,021.1,N,039.0,K,A*0E $GPGGA,154201,5407.1460,N,01931.3549,E,1,08,01.0,00077.0,M,034.3,M,00,0000*48 $GPGSA,A,3,09,27,14,12,30,17,04,02,,,,,01.8,01.0,01.4*06 $GPGSV,3,1,12,09,65,152,38,12,63,261,34,27,57,148,35,14,29,310,35*7D $GPGSV,3,2,12,30,26,262,33,17,24,049,30,04,23,097,28,02,10,136,22*72 $GPGSV,3,3,12,26,06,183,00,19,04,088,00,32,03,004,00,15,02,184,15*77 $GPRMC,154201,A,5407.1460,N,01931.3549,E,014.8,168.0,170610,,,A*74 $GPVTG,168.0,T,,M,014.8,N,027.5,K,A*0F $GPGGA,154216,5407.1229,N,01931.3717,E,1,07,01.0,00082.2,M,034.3,M,00,0000*4B $GPGSA,A,3,30,09,12,14,17,26,27,,,,,,01.7,01.0,01.3*0C $GPGSV,3,1,12,09,65,152,39,12,63,261,38,27,57,148,36,14,29,310,38*7E $GPGSV,3,2,12,30,26,262,40,17,24,049,36,04,23,097,00,02,10,136,00*7A $GPGSV,3,3,12,26,06,183,35,19,04,088,00,32,03,004,00,15,02,184,37*71 $GPRMC,154216,A,5407.1229,N,01931.3717,E,007.7,160.5,170610,,,A*70 $GPVTG,160.5,T,,M,007.7,N,014.4,K,A*0E $GPGGA,154231,5407.1288,N,01931.3602,E,1,09,00.8,00107.2,M,034.3,M,00,0000*4B $GPGSA,A,3,12,09,27,14,17,04,02,30,26,,,,01.5,00.8,01.2*00 $GPGSV,3,1,12,09,65,152,41,12,63,261,44,27,57,148,39,14,29,310,38*75 $GPGSV,3,2,12,30,26,262,31,17,24,049,36,04,23,097,31,02,10,136,31*7C $GPGSV,3,3,12,26,06,183,26,19,04,088,00,32,03,004,00,15,02,184,32*76 $GPRMC,154231,A,5407.1288,N,01931.3602,E,000.2,184.9,170610,,,A*7F $GPVTG,184.9,T,,M,000.2,N,000.4,K,A*0F $GPGGA,154246,5407.1294,N,01931.3598,E,1,08,01.0,00107.6,M,034.3,M,00,0000*4A $GPGSA,A,3,12,09,14,17,27,30,04,02,,,,,01.8,01.0,01.4*06 $GPGSV,3,1,12,09,65,152,40,12,63,261,43,27,57,148,36,14,29,310,39*7D $GPGSV,3,2,12,30,26,262,35,17,24,049,39,04,23,097,31,02,10,136,28*7F $GPGSV,3,3,12,26,06,183,00,19,04,088,00,32,03,004,00,15,02,184,27*76 $GPRMC,154246,A,5407.1294,N,01931.3598,E,000.0,158.3,170610,,,A*7B $GPVTG,158.3,T,,M,000.0,N,000.1,K,A*03 $GPGGA,154301,5407.1313,N,01931.3607,E,1,08,01.0,00108.8,M,034.3,M,00,0000*42 $GPGSA,A,3,12,09,17,27,14,04,30,02,,,,,01.8,01.0,01.4*06 $GPGSV,3,1,12,09,65,152,40,12,63,261,43,27,57,148,38,14,29,310,38*72 $GPGSV,3,2,12,30,26,262,32,17,24,049,39,04,23,097,35,02,10,136,26*72 $GPGSV,3,3,12,26,06,183,00,19,04,088,00,32,03,004,00,15,02,184,31*71 $GPRMC,154301,A,5407.1313,N,01931.3607,E,000.2,016.9,170610,,,A*71 $GPVTG,016.9,T,,M,000.2,N,000.5,K,A*04 $GPGGA,154316,5407.1332,N,01931.3616,E,1,09,00.8,00115.5,M,034.3,M,00,0000*4E $GPGSA,A,3,12,09,14,17,27,30,04,02,26,,,,01.5,00.8,01.2*00 $GPGSV,3,1,12,09,65,152,39,12,63,261,43,27,57,148,37,14,29,310,39*72 $GPGSV,3,2,12,30,26,262,35,17,24,049,39,04,23,097,35,02,10,136,27*74 $GPGSV,3,3,12,26,06,183,27,19,04,088,00,32,03,004,00,15,02,184,24*70 $GPRMC,154316,A,5407.1332,N,01931.3616,E,000.0,236.0,170610,,,A*7F $GPVTG,236.0,T,,M,000.0,N,000.1,K,A*0B $GPGGA,154331,5407.1325,N,01931.3602,E,1,08,01.0,00114.7,M,034.3,M,00,0000*43 $GPGSA,A,3,12,17,09,14,27,30,04,02,,,,,01.8,01.0,01.4*06 $GPGSV,3,1,12,09,65,152,39,12,63,261,44,27,57,148,37,14,29,310,36*7A $GPGSV,3,2,12,30,26,262,34,17,24,049,39,04,23,097,30,02,10,136,29*7E $GPGSV,3,3,12,26,06,183,00,19,04,088,00,32,03,004,00,15,02,184,00*73 $GPRMC,154331,A,5407.1325,N,01931.3602,E,000.5,308.5,170610,,,A*75 $GPVTG,308.5,T,,M,000.5,N,000.9,K,A*0F $GPGGA,154346,5407.1291,N,01931.3651,E,1,08,00.9,00107.8,M,034.3,M,00,0000*4E $GPGSA,A,3,27,30,09,12,14,04,26,17,,,,,01.6,00.9,01.3*01 $GPGSV,3,1,12,09,65,152,38,12,63,261,38,27,57,148,39,14,29,310,37*7F $GPGSV,3,2,12,30,26,262,40,17,24,049,34,04,23,097,33,02,10,136,00*78 $GPGSV,3,3,12,26,06,183,32,19,04,088,00,32,03,004,00,15,02,184,00*72 $GPRMC,154346,A,5407.1291,N,01931.3651,E,000.9,064.4,170610,,,A*79 $GPVTG,064.4,T,,M,000.9,N,001.8,K,A*0B $GPGGA,154401,5407.0839,N,01931.3569,E,1,06,01.0,00093.2,M,034.3,M,00,0000*4B $GPGSA,A,3,12,30,14,09,17,26,,,,,,,01.8,01.0,01.4*01 $GPGSV,3,1,12,09,65,152,34,12,63,261,44,27,57,148,22,14,29,310,41*73 $GPGSV,3,2,12,30,26,262,41,17,24,049,34,04,23,097,00,02,10,136,00*79 $GPGSV,3,3,12,26,06,183,29,19,04,088,00,32,03,004,00,15,02,184,20*7A $GPRMC,154401,A,5407.0839,N,01931.3569,E,015.3,207.4,170610,,,A*75 $GPVTG,207.4,T,,M,015.3,N,028.4,K,A*05 $GPGGA,154416,5407.0233,N,01931.3127,E,1,09,00.8,00083.5,M,034.3,M,00,0000*43 $GPGSA,A,3,12,30,14,09,27,04,17,26,02,,,,01.5,00.8,01.2*00 $GPGSV,3,1,12,09,65,152,36,12,63,261,44,27,57,148,36,14,29,310,40*75 $GPGSV,3,2,12,30,26,262,40,17,24,049,36,04,23,097,36,02,10,136,29*74 $GPGSV,3,3,12,26,06,183,34,19,04,088,00,32,03,004,00,15,02,184,33*74 $GPRMC,154416,A,5407.0233,N,01931.3127,E,014.4,202.9,170610,,,A*73 $GPVTG,202.9,T,,M,014.4,N,026.7,K,A*06 $GPGGA,154431,5406.9668,N,01931.2987,E,1,08,00.9,00073.6,M,034.3,M,00,0000*4B $GPGSA,A,3,30,09,12,27,14,26,02,17,,,,,01.5,00.9,01.2*05 $GPGSV,3,1,12,09,65,152,39,12,63,261,40,27,57,148,39,14,29,310,38*7E $GPGSV,3,2,12,30,26,262,40,17,24,049,28,04,23,097,00,02,10,136,37*71 $GPGSV,3,3,12,26,06,183,38,19,04,088,00,32,03,004,23,15,02,184,39*73 $GPRMC,154431,A,5406.9668,N,01931.2987,E,014.7,173.0,170610,,,A*78 $GPVTG,173.0,T,,M,014.7,N,027.3,K,A*0C $GPGGA,154446,5406.8988,N,01931.3376,E,1,09,00.8,00067.2,M,034.3,M,00,0000*4F $GPGSA,A,3,12,09,30,27,04,26,02,14,17,,,,01.5,00.8,01.2*00 $GPGSV,3,1,12,12,64,262,42,09,63,152,41,27,56,148,39,14,30,309,37*7F $GPGSV,3,2,12,30,27,262,42,04,23,095,40,17,23,048,33,02,11,135,38*75 $GPGSV,3,3,12,26,05,183,38,15,01,183,38,19,05,087,00,32,03,003,34*7A $GPRMC,154446,A,5406.8988,N,01931.3376,E,016.5,157.1,170610,,,A*7A $GPVTG,157.1,T,,M,016.5,N,030.6,K,A*08 $GPGGA,154507,5406.8573,N,01931.3656,E,1,08,01.0,00059.5,M,034.3,M,00,0000*46 $GPGSA,A,3,30,26,09,27,17,12,04,02,,,,,01.6,01.0,01.2*0F $GPGSV,3,1,12,12,64,262,34,09,63,152,40,27,56,148,40,14,30,309,00*75 $GPGSV,3,2,12,30,27,263,42,04,23,095,31,17,23,048,37,02,11,135,26*79 $GPGSV,3,3,12,26,05,183,41,15,01,183,45,19,05,087,00,32,03,003,00*79 $GPRMC,154507,A,5406.8573,N,01931.3656,E,000.1,092.1,170610,,,A*7A $GPVTG,092.1,T,,M,000.1,N,000.3,K,A*05 $GPGGA,154521,5406.8332,N,01931.3880,E,1,09,00.8,00048.7,M,034.3,M,00,0000*4E $GPGSA,A,3,30,26,09,27,17,12,04,02,14,,,,01.5,00.8,01.2*00 $GPGSV,3,1,12,12,64,262,45,09,63,152,43,27,56,148,42,14,30,309,34*75 $GPGSV,3,2,12,30,27,263,45,04,23,095,40,17,23,048,36,02,11,135,33*7D $GPGSV,3,3,12,26,05,183,40,15,01,183,42,19,05,087,00,32,03,003,00*7F $GPRMC,154521,A,5406.8332,N,01931.3880,E,011.1,158.5,170610,,,A*7B $GPVTG,158.5,T,,M,011.1,N,020.6,K,A*01 $GPGGA,154536,5406.8021,N,01931.4039,E,1,09,00.8,00043.9,M,034.3,M,00,0000*41 $GPGSA,A,3,30,26,09,27,17,12,04,14,02,,,,01.5,00.8,01.2*00 $GPGSV,3,1,12,12,64,262,39,09,63,152,41,27,55,148,34,14,30,309,41*7C $GPGSV,3,2,12,30,27,263,46,04,24,095,30,17,23,048,32,02,12,135,33*79 $GPGSV,3,3,12,19,05,087,00,26,05,183,41,32,03,002,00,15,01,183,37*7D $GPRMC,154536,A,5406.8021,N,01931.4039,E,005.3,198.5,170610,,,A*7A $GPVTG,198.5,T,,M,005.3,N,009.9,K,A*0E $GPGGA,154545,5406.8006,N,01931.4029,E,1,08,00.9,00043.6,M,034.3,M,00,0000*4E $GPGSA,A,3,30,26,09,27,17,12,04,14,,,,,01.6,00.9,01.3*01 $GPGSV,3,1,12,12,64,262,32,09,63,152,36,27,55,148,35,14,30,309,28*79 $GPGSV,3,2,12,30,27,263,30,04,24,095,23,17,23,048,36,02,12,135,00*7E $GPGSV,3,3,12,19,05,087,00,26,05,183,29,32,03,002,00,15,01,183,28*7D $GPRMC,154545,A,5406.8006,N,01931.4029,E,000.9,349.5,170610,,,A*7B $GPVTG,349.5,T,,M,000.9,N,001.8,K,A*06 $GPGGA,154600,5406.7923,N,01931.4068,E,1,08,00.9,00044.1,M,034.3,M,00,0000*48 $GPGSA,A,3,09,04,02,27,17,26,30,14,,,,,01.6,00.9,01.4*07 $GPGSV,3,1,12,12,64,262,00,09,63,152,43,27,55,148,40,14,30,309,35*74 $GPGSV,3,2,12,30,27,263,36,04,24,095,39,17,23,048,38,02,12,135,40*79 $GPGSV,3,3,12,19,05,087,00,26,05,183,37,32,03,002,00,15,01,183,34*7F $GPRMC,154600,A,5406.7923,N,01931.4068,E,001.0,212.7,170610,,,A*78 $GPVTG,212.7,T,,M,001.0,N,002.0,K,A*08 $GPGGA,154615,5406.7921,N,01931.4045,E,1,09,00.8,00045.6,M,034.3,M,00,0000*47 $GPGSA,A,3,09,27,02,04,26,30,17,14,12,,,,01.5,00.8,01.2*00 $GPGSV,3,1,12,12,64,262,28,09,63,152,42,27,55,148,40,14,30,309,32*78 $GPGSV,3,2,12,30,27,263,36,04,24,095,40,17,23,048,36,02,12,135,40*79 $GPGSV,3,3,12,19,05,087,00,26,05,183,38,32,03,002,00,15,01,183,36*72 $GPRMC,154615,A,5406.7921,N,01931.4045,E,000.7,255.7,170610,,,A*74 $GPVTG,255.7,T,,M,000.7,N,001.3,K,A*0D $GPGGA,154630,5406.7836,N,01931.4048,E,1,08,01.1,00047.2,M,034.3,M,00,0000*45 $GPGSA,A,3,27,04,09,02,30,12,14,26,,,,,01.7,01.1,01.3*0D $GPGSV,3,1,12,12,64,262,35,09,63,152,39,27,55,148,40,14,30,309,27*7C $GPGSV,3,2,12,30,27,263,27,04,24,095,37,17,23,048,00,02,12,135,35*7E $GPGSV,3,3,12,19,05,087,00,26,05,183,23,32,03,002,00,15,01,183,36*78 $GPRMC,154630,A,5406.7836,N,01931.4048,E,002.9,182.9,170610,,,A*72 $GPVTG,182.9,T,,M,002.9,N,005.4,K,A*05 $GPGGA,154645,5406.7746,N,01931.4025,E,1,09,00.8,00052.3,M,034.3,M,00,0000*48 $GPGSA,A,3,04,09,27,26,14,30,12,17,02,,,,01.5,00.8,01.2*00 $GPGSV,3,1,12,12,64,262,36,09,63,152,41,27,55,148,40,14,30,309,27*70 $GPGSV,3,2,12,30,27,263,32,04,24,095,40,17,23,048,31,02,12,135,35*78 $GPGSV,3,3,12,19,05,087,00,26,05,183,36,32,03,002,00,15,01,183,41*7C $GPRMC,154645,A,5406.7746,N,01931.4025,E,002.4,199.1,170610,,,A*7C $GPVTG,199.1,T,,M,002.4,N,004.4,K,A*0B $GPGGA,154700,5406.7725,N,01931.3952,E,1,07,01.0,00054.9,M,034.3,M,00,0000*48 $GPGSA,A,3,09,27,17,14,26,30,12,,,,,,01.6,01.0,01.3*0D $GPGSV,3,1,12,12,64,262,28,09,63,152,40,27,55,148,42,14,30,309,28*73 $GPGSV,3,2,12,30,27,263,24,04,24,095,00,17,23,048,39,02,12,135,00*75 $GPGSV,3,3,12,19,05,087,00,26,05,183,30,32,03,002,00,15,01,183,37*7B $GPRMC,154700,A,5406.7725,N,01931.3952,E,001.8,198.0,170610,,,A*78 $GPVTG,198.0,T,,M,001.8,N,003.4,K,A*03 $GPGGA,154715,5406.7717,N,01931.3969,E,1,07,00.9,00052.0,M,034.3,M,00,0000*42 $GPGSA,A,3,09,26,04,17,30,12,14,,,,,,01.7,00.9,01.4*02 $GPGSV,3,1,12,12,64,262,26,09,63,152,33,27,55,148,00,14,30,309,24*73 $GPGSV,3,2,12,30,27,263,29,04,24,095,32,17,23,048,29,02,12,135,00*78 $GPGSV,3,3,12,19,05,087,00,26,05,183,34,32,03,002,00,15,01,183,35*7D $GPRMC,154715,A,5406.7717,N,01931.3969,E,000.2,184.3,170610,,,A*70 $GPVTG,184.3,T,,M,000.2,N,000.3,K,A*02 $GPGGA,154730,5406.7726,N,01931.3843,E,1,08,01.0,00050.4,M,034.3,M,00,0000*4F $GPGSA,A,3,02,27,14,09,12,30,04,17,,,,,01.9,01.0,01.5*06 $GPGSV,3,1,12,12,64,262,38,09,63,152,38,27,55,148,37,14,30,309,34*72 $GPGSV,3,2,12,30,27,263,35,04,24,095,29,17,23,048,28,02,12,135,39*74 $GPGSV,3,3,12,19,05,087,00,26,05,183,38,32,03,002,00,15,01,183,37*73 $GPRMC,154730,A,5406.7726,N,01931.3843,E,002.8,322.9,170610,,,A*70 $GPVTG,322.9,T,,M,002.8,N,005.2,K,A*0A $GPGGA,154745,5406.7736,N,01931.3663,E,1,08,01.0,00047.6,M,034.3,M,00,0000*44 $GPGSA,A,3,09,27,02,12,14,30,04,17,,,,,01.9,01.0,01.5*06 $GPGSV,3,1,12,12,64,262,40,09,63,152,41,27,55,148,37,14,30,309,29*7F $GPGSV,3,2,12,30,27,263,30,04,24,095,36,17,23,048,32,02,12,135,34*79 $GPGSV,3,3,12,19,05,087,00,26,05,183,37,32,03,002,00,15,01,183,36*7D $GPRMC,154745,A,5406.7736,N,01931.3663,E,002.5,254.4,170610,,,A*7F $GPVTG,254.4,T,,M,002.5,N,004.7,K,A*0E $GPGGA,154800,5406.7724,N,01931.3573,E,1,07,01.5,00047.5,M,034.3,M,00,0000*42 $GPGSA,A,3,02,09,30,27,12,04,14,,,,,,02.2,01.5,01.5*0D $GPGSV,3,1,12,12,64,262,36,09,63,152,38,27,55,148,38,14,30,309,32*75 $GPGSV,3,2,12,30,27,263,39,04,24,095,34,17,23,048,00,02,12,135,41*71 $GPGSV,3,3,12,19,05,087,00,26,05,183,42,32,03,002,00,15,01,183,20*78 $GPRMC,154800,A,5406.7724,N,01931.3573,E,003.0,237.1,170610,,,A*74 $GPVTG,237.1,T,,M,003.0,N,005.6,K,A*0A $GPGGA,154815,5406.7699,N,01931.3583,E,1,07,01.2,00048.5,M,034.3,M,00,0000*46 $GPGSA,A,3,02,09,27,04,12,17,30,,,,,,02.0,01.2,01.6*08 $GPGSV,3,1,12,12,64,262,36,09,63,152,41,27,55,148,39,14,30,309,00*7B $GPGSV,3,2,12,30,27,263,28,04,24,095,39,17,23,048,32,02,12,135,42*7E $GPGSV,3,3,12,19,05,087,00,26,05,183,39,32,03,002,00,15,01,183,28*7C $GPRMC,154815,A,5406.7699,N,01931.3583,E,001.0,115.4,170610,,,A*7C $GPVTG,115.4,T,,M,001.0,N,001.8,K,A*04 $GPGGA,154830,5406.7710,N,01931.3569,E,1,07,01.2,00047.6,M,034.3,M,00,0000*49 $GPGSA,A,3,09,27,02,04,17,12,30,,,,,,02.0,01.2,01.6*08 $GPGSV,3,1,12,12,64,262,29,09,63,152,42,27,55,148,39,14,30,309,00*76 $GPGSV,3,2,12,30,27,263,25,04,24,095,39,17,23,048,36,02,12,135,39*7B $GPGSV,3,3,12,19,05,087,00,26,05,183,33,32,03,002,00,15,01,183,37*78 $GPRMC,154830,A,5406.7710,N,01931.3569,E,000.2,281.6,170610,,,A*70 $GPVTG,281.6,T,,M,000.2,N,000.4,K,A*06 $GPGGA,154845,5406.7700,N,01931.3567,E,1,07,01.2,00050.8,M,034.3,M,00,0000*4C $GPGSA,A,3,09,27,04,02,17,30,12,,,,,,02.0,01.2,01.6*08 $GPGSV,3,1,11,12,66,263,26,09,62,152,42,27,54,149,38,14,31,307,00*76 $GPGSV,3,2,11,30,29,263,28,04,24,094,38,17,22,048,37,02,13,134,38*7A $GPGSV,3,3,11,19,06,086,00,26,04,183,32,32,03,001,00,,,,*41 $GPRMC,154845,A,5406.7700,N,01931.3567,E,000.7,222.6,170610,,,A*71 $GPVTG,222.6,T,,M,000.7,N,001.3,K,A*0C $GPGGA,154900,5406.7727,N,01931.3539,E,1,06,01.9,00050.5,M,034.3,M,00,0000*45 $GPGSA,A,3,09,27,04,02,17,12,,,,,,,03.3,01.9,02.7*00 $GPGSV,3,1,11,12,66,263,28,09,62,152,42,27,54,149,38,14,31,307,00*78 $GPGSV,3,2,11,30,29,263,00,04,24,094,39,17,22,048,37,02,13,134,37*7E $GPGSV,3,3,11,19,06,086,00,26,04,183,34,32,03,001,00,,,,*47 $GPRMC,154900,A,5406.7727,N,01931.3539,E,001.3,288.2,170610,,,A*7E $GPVTG,288.2,T,,M,001.3,N,002.5,K,A*08 $GPGGA,154915,5406.7721,N,01931.3533,E,1,06,01.9,00051.5,M,034.3,M,00,0000*4C $GPGSA,A,3,09,27,04,02,12,17,,,,,,,03.4,01.9,02.7*07 $GPGSV,3,1,11,12,66,263,34,09,62,152,42,27,54,149,39,14,31,307,00*74 $GPGSV,3,2,11,30,29,263,00,04,24,094,38,17,22,048,35,02,13,134,37*7D $GPGSV,3,3,11,19,06,086,00,26,04,183,39,32,03,001,00,,,,*4A $GPRMC,154915,A,5406.7721,N,01931.3533,E,000.6,150.5,170610,,,A*73 $GPVTG,150.5,T,,M,000.6,N,001.2,K,A*09 $GPGGA,154930,5406.7730,N,01931.3523,E,1,07,01.2,00050.1,M,034.3,M,00,0000*45 $GPGSA,A,3,09,27,02,04,17,12,30,,,,,,02.0,01.2,01.6*08 $GPGSV,3,1,11,12,66,263,33,09,62,152,42,27,54,149,40,14,31,307,00*7D $GPGSV,3,2,11,30,29,263,26,04,24,094,37,17,22,048,34,02,13,134,40*77 $GPGSV,3,3,11,19,06,086,00,26,04,183,38,32,03,001,00,,,,*4B $GPRMC,154930,A,5406.7730,N,01931.3523,E,000.2,062.8,170610,,,A*7C $GPVTG,062.8,T,,M,000.2,N,000.4,K,A*07 $GPGGA,154945,5406.7724,N,01931.3623,E,1,06,02.0,00058.8,M,034.3,M,00,0000*40 $GPGSA,A,3,09,02,27,04,17,12,,,,,,,03.4,02.0,02.7*0D $GPGSV,3,1,11,12,66,263,32,09,62,152,42,27,54,149,40,14,31,307,00*7C $GPGSV,3,2,11,30,29,263,00,04,24,094,38,17,22,048,35,02,13,134,42*7F $GPGSV,3,3,11,19,06,086,00,26,04,183,37,32,03,001,15,,,,*40 $GPRMC,154945,A,5406.7724,N,01931.3623,E,000.5,208.9,170610,,,A*70 $GPVTG,208.9,T,,M,000.5,N,001.0,K,A*0A $GPGGA,155000,5406.7705,N,01931.3567,E,1,06,01.2,00049.4,M,034.3,M,00,0000*44 $GPGSA,A,3,04,17,09,02,27,30,,,,,,,02.2,01.2,01.8*07 $GPGSV,3,1,11,12,66,263,00,09,62,152,39,27,54,149,34,14,31,307,00*72 $GPGSV,3,2,11,30,29,263,28,04,24,094,38,17,22,048,38,02,13,134,39*74 $GPGSV,3,3,11,19,06,086,00,26,04,183,31,32,03,001,27,,,,*47 $GPRMC,155000,A,5406.7705,N,01931.3567,E,002.2,200.3,170610,,,A*7E $GPVTG,200.3,T,,M,002.2,N,004.2,K,A*0A $GPGGA,155015,5406.7588,N,01931.3413,E,1,07,01.2,00040.3,M,034.3,M,00,0000*4A $GPGSA,A,3,17,04,09,27,02,30,12,,,,,,02.0,01.2,01.6*08 $GPGSV,3,1,11,12,66,263,32,09,62,152,41,27,54,149,39,14,31,307,00*71 $GPGSV,3,2,11,30,29,263,29,04,24,094,40,17,22,048,40,02,13,134,38*74 $GPGSV,3,3,11,19,06,086,00,26,04,183,31,32,03,001,00,,,,*42 $GPRMC,155015,A,5406.7588,N,01931.3413,E,003.2,197.0,170610,,,A*70 $GPVTG,197.0,T,,M,003.2,N,005.9,K,A*0F $GPGGA,155030,5406.7423,N,01931.3348,E,1,07,01.2,00029.6,M,034.3,M,00,0000*4E $GPGSA,A,3,09,27,02,17,04,30,12,,,,,,02.0,01.2,01.6*08 $GPGSV,3,1,11,12,66,263,34,09,62,152,39,27,54,149,41,14,31,307,00*77 $GPGSV,3,2,11,30,29,263,30,04,24,094,38,17,22,048,39,02,13,134,41*73 $GPGSV,3,3,11,19,06,086,00,26,04,183,40,32,03,001,00,,,,*44 $GPRMC,155030,A,5406.7423,N,01931.3348,E,005.8,213.6,170610,,,A*7B $GPVTG,213.6,T,,M,005.8,N,010.7,K,A*00 $GPGGA,155045,5406.7366,N,01931.3358,E,1,07,01.4,00032.8,M,034.3,M,00,0000*49 $GPGSA,A,3,04,14,17,30,09,27,12,,,,,,02.9,01.4,02.5*00 $GPGSV,3,1,11,12,66,263,32,09,62,152,36,27,54,149,34,14,31,307,39*76 $GPGSV,3,2,11,30,29,263,35,04,24,094,40,17,22,048,39,02,13,134,00*7C $GPGSV,3,3,11,19,06,086,00,26,04,183,00,32,03,001,40,,,,*44 $GPRMC,155045,A,5406.7366,N,01931.3358,E,000.9,199.1,170610,,,A*7C $GPVTG,199.1,T,,M,000.9,N,001.8,K,A*0D $GPGGA,155100,5406.7351,N,01931.3364,E,1,08,01.0,00029.6,M,034.3,M,00,0000*4D $GPGSA,A,3,04,14,17,12,09,30,27,02,,,,,01.9,01.0,01.6*05 $GPGSV,3,1,11,12,66,263,36,09,62,152,36,27,54,149,28,14,31,307,40*71 $GPGSV,3,2,11,30,29,263,33,04,24,094,41,17,22,048,39,02,13,134,25*7C $GPGSV,3,3,11,19,06,086,00,26,04,183,00,32,03,001,41,,,,*45 $GPRMC,155100,A,5406.7351,N,01931.3364,E,000.1,133.3,170610,,,A*7D $GPVTG,133.3,T,,M,000.1,N,000.2,K,A*0C $GPGGA,155115,5406.7350,N,01931.3378,E,1,08,01.0,00028.8,M,034.3,M,00,0000*4A $GPGSA,A,3,04,14,17,09,12,30,27,02,,,,,01.9,01.0,01.6*05 $GPGSV,3,1,11,12,66,263,35,09,62,152,37,27,54,149,33,14,31,307,39*77 $GPGSV,3,2,11,30,29,263,33,04,24,094,40,17,22,048,39,02,13,134,26*7E $GPGSV,3,3,11,19,06,086,00,26,04,183,00,32,03,001,37,,,,*44 $GPRMC,155115,A,5406.7350,N,01931.3378,E,000.4,026.6,170610,,,A*70 $GPVTG,026.6,T,,M,000.4,N,000.8,K,A*03 $GPGGA,155130,5406.7369,N,01931.3423,E,1,08,01.0,00025.8,M,034.3,M,00,0000*43 $GPGSA,A,3,17,04,30,14,09,02,27,12,,,,,02.0,01.0,01.6*0F $GPGSV,3,1,11,12,66,263,31,09,62,152,33,27,54,149,31,14,31,307,37*7B $GPGSV,3,2,11,30,29,263,36,04,24,094,38,17,22,048,40,02,13,134,32*7F $GPGSV,3,3,11,19,06,086,00,26,04,183,00,32,03,001,40,,,,*44 $GPRMC,155130,A,5406.7369,N,01931.3423,E,002.8,075.3,170610,,,A*79 $GPVTG,075.3,T,,M,002.8,N,005.2,K,A*01 $GPGGA,155145,5406.7405,N,01931.3657,E,1,08,01.0,00031.9,M,034.3,M,00,0000*49 $GPGSA,A,3,14,17,30,27,12,04,09,02,,,,,02.0,01.0,01.6*0F $GPGSV,3,1,11,12,67,265,34,09,60,152,34,27,53,149,34,14,32,306,39*72 $GPGSV,3,2,11,30,30,264,37,04,25,092,34,17,21,047,36,02,14,134,28*7B $GPGSV,3,3,11,19,07,085,00,32,04,000,00,26,02,183,00,,,,*42 $GPRMC,155145,A,5406.7405,N,01931.3657,E,003.2,074.5,170610,,,A*7B $GPVTG,074.5,T,,M,003.2,N,006.0,K,A*0C $GPGGA,155206,5406.7346,N,01931.3684,E,1,05,01.4,00028.2,M,034.3,M,00,0000*49 $GPGSA,A,3,04,17,12,02,14,,,,,,,,03.0,01.4,02.6*06 $GPGSV,3,1,11,12,67,265,19,09,60,152,00,27,52,149,00,14,32,306,28*7C $GPGSV,3,2,11,30,30,264,00,04,25,092,20,17,20,047,16,02,14,133,14*71 $GPGSV,3,3,11,26,02,182,21,19,07,085,00,32,04,000,00,,,,*40 $GPRMC,155206,A,5406.7346,N,01931.3684,E,000.8,003.2,170610,,,A*7F $GPVTG,003.2,T,,M,000.8,N,001.4,K,A*01 $GPGGA,155221,5406.7377,N,01931.3677,E,1,05,02.8,00042.7,M,034.3,M,00,0000*44 $GPGSA,A,3,04,17,12,09,14,,,,,,,,05.6,02.8,04.8*0A $GPGSV,3,1,11,12,67,265,19,09,60,152,14,27,52,149,00,14,32,306,27*76 $GPGSV,3,2,11,30,30,264,00,04,25,092,19,17,20,047,17,02,14,133,00*7F $GPGSV,3,3,11,26,02,182,14,19,07,085,00,32,04,000,00,,,,*46 $GPRMC,155221,A,5406.7377,N,01931.3677,E,001.1,022.1,170610,,,A*7C $GPVTG,022.1,T,,M,001.1,N,002.0,K,A*0E $GPGGA,155236,5406.7393,N,01931.3696,E,1,06,01.2,00047.6,M,034.3,M,00,0000*49 $GPGSA,A,3,04,17,12,30,02,14,,,,,,,02.6,01.2,02.3*01 $GPGSV,3,1,11,12,67,265,20,09,60,152,18,27,52,149,00,14,32,306,22*75 $GPGSV,3,2,11,30,30,264,15,04,25,092,24,17,20,047,17,02,14,133,19*7D $GPGSV,3,3,11,26,02,182,00,19,07,085,00,32,04,000,00,,,,*43 $GPRMC,155236,A,5406.7393,N,01931.3696,E,001.1,005.9,170610,,,A*72 $GPVTG,005.9,T,,M,001.1,N,002.0,K,A*03 $GPGGA,155251,5406.7365,N,01931.3704,E,1,06,01.1,00040.9,M,034.3,M,00,0000*40 $GPGSA,A,3,04,17,30,02,09,14,,,,,,,02.5,01.1,02.2*0A $GPGSV,3,1,11,12,67,265,00,09,60,152,17,27,52,149,00,14,32,306,23*79 $GPGSV,3,2,11,30,30,264,14,04,25,092,20,17,20,047,18,02,14,133,20*7D $GPGSV,3,3,11,26,02,182,00,19,07,085,00,32,04,000,00,,,,*43 $GPRMC,155251,A,5406.7365,N,01931.3704,E,000.4,195.8,170610,,,A*7D $GPVTG,195.8,T,,M,000.4,N,000.8,K,A*04 $GPGGA,155305,5406.7375,N,01931.3740,E,1,08,01.0,00041.5,M,034.3,M,00,0000*43 $GPGSA,A,3,04,17,12,30,02,09,27,14,,,,,02.0,01.0,01.7*0E $GPGSV,3,1,11,12,67,265,35,09,60,152,35,27,52,149,35,14,32,306,41*7D $GPGSV,3,2,11,30,30,264,36,04,25,092,37,17,20,047,41,02,14,133,33*75 $GPGSV,3,3,11,26,02,182,20,19,07,085,00,32,04,000,00,,,,*41 $GPRMC,155305,A,5406.7375,N,01931.3740,E,000.9,095.3,170610,,,A*7B $GPVTG,095.3,T,,M,000.9,N,001.7,K,A*0D $GPGGA,155316,5406.7432,N,01931.3777,E,1,07,01.5,00043.0,M,034.3,M,00,0000*4C $GPGSA,A,3,14,12,30,17,09,27,04,,,,,,03.0,01.5,02.6*0A $GPGSV,3,1,11,12,67,265,37,09,60,152,34,27,52,149,29,14,32,306,41*73 $GPGSV,3,2,11,30,30,264,38,04,25,092,27,17,20,047,35,02,14,133,00*79 $GPGSV,3,3,11,19,07,085,00,32,04,000,00,26,02,182,31,,,,*41 $GPRMC,155316,A,5406.7432,N,01931.3777,E,005.1,017.0,170610,,,A*7D $GPVTG,017.0,T,,M,005.1,N,009.5,K,A*03 $GPGGA,155331,5406.7735,N,01931.4058,E,1,07,01.5,00047.5,M,034.3,M,00,0000*41 $GPGSA,A,3,30,12,14,09,27,02,04,,,,,,02.3,01.5,01.7*0E $GPGSV,3,1,11,12,67,265,41,09,60,152,34,27,52,149,32,14,32,306,38*76 $GPGSV,3,2,11,30,30,264,40,04,25,092,27,17,20,047,00,02,14,133,23*71 $GPGSV,3,3,11,19,07,085,00,32,04,000,27,26,02,182,30,,,,*45 $GPRMC,155331,A,5406.7735,N,01931.4058,E,008.1,047.2,170610,,,A*7B $GPVTG,047.2,T,,M,008.1,N,015.1,K,A*00 $GPGGA,155346,5406.8055,N,01931.4054,E,1,05,02.7,00075.4,M,034.3,M,00,0000*40 $GPGSA,A,3,30,14,12,27,09,,,,,,,,04.6,02.7,03.7*08 $GPGSV,3,1,11,12,67,265,37,09,60,152,29,27,52,149,32,14,32,306,38*7B $GPGSV,3,2,11,30,30,264,40,04,25,092,00,17,20,047,00,02,14,133,00*75 $GPGSV,3,3,11,19,07,085,00,32,04,000,00,26,02,182,30,,,,*40 $GPRMC,155346,A,5406.8055,N,01931.4054,E,005.1,010.3,170610,,,A*77 $GPVTG,010.3,T,,M,005.1,N,009.4,K,A*06 $GPGGA,155406,5406.8069,N,01931.4072,E,1,08,01.1,00058.0,M,034.3,M,00,0000*4B $GPGSA,A,3,09,27,30,14,04,17,12,02,,,,,02.0,01.1,01.7*0F $GPGSV,3,1,12,12,68,265,28,09,59,152,36,27,51,149,29,14,32,305,26*78 $GPGSV,3,2,12,30,31,264,30,04,25,091,20,17,20,047,15,02,15,133,20*76 $GPGSV,3,3,12,26,01,182,22,19,08,084,00,32,04,000,00,20,00,023,00*7E $GPRMC,155406,A,5406.8069,N,01931.4072,E,001.8,017.8,170610,,,A*7E $GPVTG,017.8,T,,M,001.8,N,003.4,K,A*0D $GPGGA,155421,5406.7780,N,01931.4107,E,1,08,01.1,00047.7,M,034.3,M,00,0000*4B $GPGSA,A,3,09,27,30,14,04,17,12,02,,,,,02.0,01.1,01.7*0F $GPGSV,3,1,12,12,68,265,27,09,59,152,34,27,51,149,33,14,32,305,23*7B $GPGSV,3,2,12,30,31,265,30,04,26,091,28,17,20,047,28,02,15,133,29*7B $GPGSV,3,3,12,19,08,084,00,32,04,000,00,26,01,182,19,20,00,022,00*77 $GPRMC,155421,A,5406.7780,N,01931.4107,E,011.9,187.6,170610,,,A*71 $GPVTG,187.6,T,,M,011.9,N,022.1,K,A*0D $GPGGA,155433,5406.7371,N,01931.4065,E,1,08,01.1,00046.6,M,034.3,M,00,0000*47 $GPGSA,A,3,09,27,30,14,04,17,12,02,,,,,02.0,01.1,01.7*0F $GPGSV,3,1,12,12,68,265,40,09,59,152,35,27,51,149,38,14,32,305,40*75 $GPGSV,3,2,12,30,31,265,45,04,26,091,29,17,20,047,26,02,15,133,28*77 $GPGSV,3,3,12,19,08,084,00,32,04,000,00,26,01,182,28,20,00,022,00*75 $GPRMC,155433,A,5406.7371,N,01931.4065,E,014.1,174.9,170610,,,A*73 $GPVTG,174.9,T,,M,014.1,N,026.1,K,A*07 $GPGGA,155448,5406.6938,N,01931.4222,E,1,08,01.1,00041.6,M,034.3,M,00,0000*4B $GPGSA,A,3,12,09,30,27,17,04,02,14,,,,,02.0,01.1,01.7*0F $GPGSV,3,1,12,12,68,265,36,09,59,152,36,27,51,149,33,14,32,305,29*73 $GPGSV,3,2,12,30,31,265,35,04,26,091,26,17,20,047,24,02,15,133,27*72 $GPGSV,3,3,12,19,08,084,00,32,04,000,00,26,01,182,00,20,00,022,00*7F $GPRMC,155448,A,5406.6938,N,01931.4222,E,008.6,159.3,170610,,,A*77 $GPVTG,159.3,T,,M,008.6,N,016.0,K,A*0A $GPGGA,155503,5406.6464,N,01931.4569,E,1,08,01.1,00034.8,M,034.3,M,00,0000*45 $GPGSA,A,3,09,27,30,12,04,17,02,14,,,,,02.0,01.1,01.7*0F $GPGSV,3,1,12,12,68,265,37,09,59,152,38,27,51,149,40,14,32,305,26*77 $GPGSV,3,2,12,30,31,265,37,04,26,091,31,17,20,047,27,02,15,133,23*71 $GPGSV,3,3,12,19,08,084,00,32,04,000,00,26,01,182,00,20,00,022,00*7F $GPRMC,155503,A,5406.6464,N,01931.4569,E,014.1,157.0,170610,,,A*72 $GPVTG,157.0,T,,M,014.1,N,026.2,K,A*0C $GPGGA,155521,5406.5699,N,01931.4753,E,1,08,01.1,00022.5,M,034.3,M,00,0000*47 $GPGSA,A,3,09,30,27,12,17,02,14,04,,,,,02.1,01.1,01.7*0E $GPGSV,3,1,12,12,69,266,40,09,58,152,35,27,51,149,33,14,32,304,41*7D $GPGSV,3,2,12,30,31,265,39,04,26,091,31,17,19,047,27,02,15,133,28*7E $GPGSV,3,3,12,26,01,182,33,19,08,084,00,32,04,359,00,20,00,022,00*70 $GPRMC,155521,A,5406.5699,N,01931.4753,E,014.5,184.0,170610,,,A*70 $GPVTG,184.0,T,,M,014.5,N,026.9,K,A*0D $GPGGA,155536,5406.5187,N,01931.4598,E,1,08,01.1,00019.5,M,034.3,M,00,0000*44 $GPGSA,A,3,09,30,27,12,17,02,14,04,,,,,02.1,01.1,01.7*0E $GPGSV,3,1,12,12,69,266,40,09,58,152,37,27,51,149,30,14,32,304,44*79 $GPGSV,3,2,12,30,31,265,33,04,26,091,34,17,19,047,38,02,15,133,40*71 $GPGSV,3,3,12,26,01,182,30,19,08,084,00,32,04,359,00,20,00,022,00*73 $GPRMC,155536,A,5406.5187,N,01931.4598,E,008.7,194.1,170610,,,A*74 $GPVTG,194.1,T,,M,008.7,N,016.1,K,A*09 $GPGGA,155547,5406.4746,N,01931.4355,E,1,08,01.1,00018.8,M,034.3,M,00,0000*43 $GPGSA,A,3,09,30,27,12,17,02,14,04,,,,,02.1,01.1,01.7*0E $GPGSV,3,1,12,12,69,266,43,09,58,152,36,27,51,149,36,14,32,304,46*7F $GPGSV,3,2,12,30,31,265,44,04,26,091,36,17,19,047,31,02,15,133,35*78 $GPGSV,3,3,12,26,01,182,24,19,08,084,00,32,04,359,00,20,00,022,00*76 $GPRMC,155547,A,5406.4746,N,01931.4355,E,013.2,203.6,170610,,,A*7A $GPVTG,203.6,T,,M,013.2,N,024.5,K,A*09 $GPGGA,155602,5406.4733,N,01931.4263,E,1,07,01.5,00013.7,M,034.3,M,00,0000*48 $GPGSA,A,3,30,12,14,02,09,04,27,,,,,,02.3,01.5,01.8*01 $GPGSV,3,1,12,12,69,266,39,09,58,152,35,27,51,149,36,14,32,304,38*78 $GPGSV,3,2,12,30,31,265,40,04,26,091,28,17,19,047,00,02,15,133,33*77 $GPGSV,3,3,12,19,08,084,00,32,04,359,00,26,01,182,00,20,00,022,00*70 $GPRMC,155602,A,5406.4733,N,01931.4263,E,000.3,057.0,170610,,,A*78 $GPVTG,057.0,T,,M,000.3,N,000.6,K,A*0A $GPGGA,155617,5406.4667,N,01931.4237,E,1,07,01.5,00016.2,M,034.3,M,00,0000*4D $GPGSA,A,3,30,09,27,12,14,02,04,,,,,,02.3,01.5,01.8*01 $GPGSV,3,1,12,12,69,266,38,09,58,152,40,27,51,149,37,14,32,304,30*72 $GPGSV,3,2,12,30,31,265,42,04,26,091,25,17,19,047,00,02,15,133,30*7B $GPGSV,3,3,12,19,08,084,00,32,04,359,00,26,01,182,33,20,00,022,00*70 $GPRMC,155617,A,5406.4667,N,01931.4237,E,002.5,220.3,170610,,,A*78 $GPVTG,220.3,T,,M,002.5,N,004.6,K,A*0B $GPGGA,155632,5406.4687,N,01931.4234,E,1,07,01.1,00024.7,M,034.3,M,00,0000*47 $GPGSA,A,3,17,30,12,14,09,04,02,,,,,,02.2,01.1,01.8*07 $GPGSV,3,1,12,12,69,266,40,09,58,152,34,27,51,149,00,14,32,304,38*72 $GPGSV,3,2,12,30,31,265,38,04,26,091,33,17,19,047,41,02,15,133,31*75 $GPGSV,3,3,12,19,08,084,00,32,04,359,00,26,01,182,22,20,00,022,00*70 $GPRMC,155632,A,5406.4687,N,01931.4234,E,002.6,006.3,170610,,,A*77 $GPVTG,006.3,T,,M,002.6,N,004.8,K,A*00 $GPGGA,155647,5406.4747,N,01931.4255,E,1,08,01.1,00023.3,M,034.3,M,00,0000*43 $GPGSA,A,3,09,27,30,12,14,04,02,17,,,,,02.1,01.1,01.8*01 $GPGSV,3,1,12,12,69,266,39,09,58,152,41,27,51,149,43,14,32,304,26*76 $GPGSV,3,2,12,30,31,265,40,04,26,091,32,17,19,047,25,02,15,133,23*7A $GPGSV,3,3,12,19,08,084,00,32,04,359,00,26,01,182,39,20,00,022,00*7A $GPRMC,155647,A,5406.4747,N,01931.4255,E,000.5,189.5,170610,,,A*7E $GPVTG,189.5,T,,M,000.5,N,000.9,K,A*04 $GPGGA,155702,5406.4730,N,01931.4248,E,1,08,01.1,00026.4,M,034.3,M,00,0000*4D $GPGSA,A,3,12,14,27,09,30,04,17,02,,,,,02.1,01.1,01.8*01 $GPGSV,3,1,12,12,69,266,41,09,58,152,38,27,51,149,37,14,32,304,39*7A $GPGSV,3,2,12,30,31,265,37,04,26,091,36,17,19,047,33,02,15,133,33*78 $GPGSV,3,3,12,19,08,084,00,32,04,359,00,26,01,182,28,20,00,022,00*7A $GPRMC,155702,A,5406.4730,N,01931.4248,E,001.0,023.9,170610,,,A*7B $GPVTG,023.9,T,,M,001.0,N,001.9,K,A*0C $GPGGA,155717,5406.4758,N,01931.4330,E,1,08,01.1,00031.4,M,034.3,M,00,0000*4F $GPGSA,A,3,12,30,09,27,14,04,17,02,,,,,02.1,01.1,01.8*01 $GPGSV,3,1,12,12,70,267,42,09,57,152,39,27,50,149,39,14,33,303,36*78 $GPGSV,3,2,12,30,32,265,33,04,26,090,32,17,18,047,31,02,16,132,25*7C $GPGSV,3,3,12,19,08,083,00,32,04,358,00,26,00,182,00,20,00,021,00*74 $GPRMC,155717,A,5406.4758,N,01931.4330,E,002.1,038.4,170610,,,A*7A $GPVTG,038.4,T,,M,002.1,N,003.9,K,A*0B $GPGGA,155732,5406.4498,N,01931.4263,E,1,07,01.5,00021.1,M,034.3,M,00,0000*4F $GPGSA,A,3,09,27,14,04,12,30,02,,,,,,02.4,01.5,01.8*06 $GPGSV,3,1,12,12,70,267,22,09,57,152,35,27,50,149,32,14,33,303,31*7E $GPGSV,3,2,12,30,32,265,27,04,26,090,31,17,18,047,00,02,16,132,26*7B $GPGSV,3,3,12,19,08,083,00,32,04,358,00,26,00,182,00,20,00,021,00*74 $GPRMC,155732,A,5406.4498,N,01931.4263,E,006.5,160.8,170610,,,A*75 $GPVTG,160.8,T,,M,006.5,N,012.0,K,A*02 $GPGGA,155747,5406.4452,N,01931.5324,E,1,08,01.1,00007.4,M,034.3,M,00,0000*42 $GPGSA,A,3,14,02,12,17,09,27,30,04,,,,,02.1,01.1,01.8*01 $GPGSV,3,1,12,12,70,267,40,09,57,152,38,27,50,149,39,14,33,303,42*78 $GPGSV,3,2,12,30,32,265,39,04,26,090,28,17,18,047,39,02,16,132,39*78 $GPGSV,3,3,12,19,08,083,00,32,04,358,00,26,00,182,34,20,00,021,00*73 $GPRMC,155747,A,5406.4452,N,01931.5324,E,016.4,110.1,170610,,,A*7C $GPVTG,110.1,T,,M,016.4,N,030.3,K,A*0F $GPGGA,155802,5406.4315,N,01931.6602,E,1,08,01.1,00006.6,M,034.3,M,00,0000*49 $GPGSA,A,3,02,30,14,04,12,17,09,27,,,,,02.1,01.1,01.8*01 $GPGSV,3,1,12,12,70,267,36,09,57,152,33,27,50,149,30,14,33,303,40*79 $GPGSV,3,2,12,30,32,265,41,04,26,090,40,17,18,047,28,02,16,132,41*76 $GPGSV,3,3,12,19,08,083,00,32,04,358,00,26,00,182,21,20,00,021,00*77 $GPRMC,155802,A,5406.4315,N,01931.6602,E,013.9,105.2,170610,,,A*7B $GPVTG,105.2,T,,M,013.9,N,025.7,K,A*00 $GPGGA,155817,5406.4277,N,01931.8325,E,1,08,01.1,00010.0,M,034.3,M,00,0000*47 $GPGSA,A,3,02,12,14,04,30,17,09,27,,,,,02.1,01.1,01.8*01 $GPGSV,3,1,12,12,70,267,40,09,57,152,32,27,50,149,32,14,33,303,40*7B $GPGSV,3,2,12,30,32,265,39,04,26,090,40,17,18,047,36,02,16,132,41*76 $GPGSV,3,3,12,19,08,083,00,32,04,358,34,26,00,182,00,20,00,021,00*73 $GPRMC,155817,A,5406.4277,N,01931.8325,E,027.4,100.1,170610,,,A*78 $GPVTG,100.1,T,,M,027.4,N,050.7,K,A*0E $GPGGA,155832,5406.4260,N,01932.1095,E,1,08,01.1,00011.3,M,034.3,M,00,0000*46 $GPGSA,A,3,04,02,30,14,12,09,27,17,,,,,02.1,01.1,01.8*01 $GPGSV,3,1,12,12,70,267,38,09,57,152,36,27,50,149,29,14,33,303,40*7A $GPGSV,3,2,12,30,32,265,42,04,26,090,41,17,18,047,31,02,16,132,41*7C $GPGSV,3,3,12,19,08,083,00,32,04,358,29,26,00,182,26,20,00,021,00*7B $GPRMC,155832,A,5406.4260,N,01932.1095,E,040.6,088.7,170610,,,A*7F $GPVTG,088.7,T,,M,040.6,N,075.1,K,A*0B $GPGGA,155847,5406.4638,N,01932.3904,E,1,08,01.1,00012.6,M,034.3,M,00,0000*48 $GPGSA,A,3,02,27,12,30,04,09,17,14,,,,,02.1,01.1,01.8*01 $GPGSV,3,1,12,12,70,267,41,09,57,152,34,27,50,149,40,14,33,303,31*7F $GPGSV,3,2,12,30,32,265,39,04,26,090,40,17,18,047,32,02,16,132,41*72 $GPGSV,3,3,12,19,08,083,00,32,04,358,00,26,00,182,00,20,00,021,00*74 $GPRMC,155847,A,5406.4638,N,01932.3904,E,034.7,073.6,170610,,,A*70 $GPVTG,073.6,T,,M,034.7,N,064.3,K,A*0E $GPGGA,155902,5406.4590,N,01932.5929,E,1,08,01.1,00015.2,M,034.3,M,00,0000*43 $GPGSA,A,3,12,17,09,14,30,27,04,02,,,,,02.1,01.1,01.8*01 $GPGSV,3,1,12,12,70,267,42,09,57,152,39,27,50,149,36,14,33,303,41*77 $GPGSV,3,2,12,30,32,265,40,04,26,090,35,17,18,047,40,02,16,132,33*7E $GPGSV,3,3,12,19,08,083,00,32,04,358,00,26,00,182,34,20,00,021,00*73 $GPRMC,155902,A,5406.4590,N,01932.5929,E,030.9,101.8,170610,,,A*78 $GPVTG,101.8,T,,M,030.9,N,057.3,K,A*0E $GPGGA,155917,5406.4542,N,01932.6952,E,1,08,01.1,00023.1,M,034.3,M,00,0000*41 $GPGSA,A,3,17,12,09,14,02,04,30,27,,,,,02.2,01.1,01.8*02 $GPGSV,3,1,12,12,70,267,43,09,57,152,37,27,50,149,28,14,33,303,39*78 $GPGSV,3,2,12,30,32,265,37,04,26,090,36,17,18,047,42,02,16,132,38*74 $GPGSV,3,3,12,19,08,083,00,32,04,358,28,26,00,182,00,20,00,021,00*7E $GPRMC,155917,A,5406.4542,N,01932.6952,E,006.7,045.2,170610,,,A*7C $GPVTG,045.2,T,,M,006.7,N,012.5,K,A*09 $GPGGA,155932,5406.5129,N,01932.6819,E,1,08,01.1,00029.0,M,034.3,M,00,0000*4B $GPGSA,A,3,17,30,02,14,12,04,27,09,,,,,02.2,01.1,01.8*02 $GPGSV,3,1,12,12,70,267,31,09,57,152,35,27,50,149,34,14,33,303,37*7C $GPGSV,3,2,12,30,32,265,40,04,26,090,33,17,18,047,42,02,16,132,38*71 $GPGSV,3,3,12,19,08,083,00,32,04,358,40,26,00,182,00,20,00,021,00*70 $GPRMC,155932,A,5406.5129,N,01932.6819,E,012.3,359.2,170610,,,A*72 $GPVTG,359.2,T,,M,012.3,N,022.8,K,A*08 $GPGGA,155947,5406.5782,N,01932.6763,E,1,08,01.1,00035.3,M,034.3,M,00,0000*42 $GPGSA,A,3,17,30,12,14,09,27,02,04,,,,,02.2,01.1,01.9*03 $GPGSV,3,1,12,12,70,267,40,09,57,152,32,27,50,149,30,14,33,303,37*79 $GPGSV,3,2,12,30,32,265,39,04,26,090,25,17,18,047,42,02,16,132,32*72 $GPGSV,3,3,12,19,08,083,00,32,04,358,30,26,00,182,22,20,00,021,00*77 $GPRMC,155947,A,5406.5782,N,01932.6763,E,014.8,348.8,170610,,,A*72 $GPVTG,348.8,T,,M,014.8,N,027.5,K,A*07 $GPGGA,160002,5406.5962,N,01932.6704,E,1,08,01.1,00023.9,M,034.3,M,00,0000*40 $GPGSA,A,3,30,09,27,04,02,12,14,17,,,,,02.2,01.1,01.9*03 $GPGSV,3,1,12,12,70,267,37,09,57,152,43,27,50,149,41,14,33,303,31*7F $GPGSV,3,2,12,30,32,265,42,04,26,090,38,17,18,047,26,02,16,132,38*7A $GPGSV,3,3,12,19,08,083,00,32,04,358,00,26,00,182,00,20,00,021,00*74 $GPRMC,160002,A,5406.5962,N,01932.6704,E,002.1,074.2,170610,,,A*75 $GPVTG,074.2,T,,M,002.1,N,004.0,K,A*0B $GPGGA,160017,5406.5562,N,01932.6841,E,1,08,01.1,00035.0,M,034.3,M,00,0000*48 $GPGSA,A,3,12,04,09,14,27,30,17,02,,,,,02.2,01.1,01.9*03 $GPGSV,3,1,12,12,71,268,40,09,56,152,38,27,48,150,36,30,34,266,33*7C $GPGSV,3,2,12,14,33,302,38,04,27,089,39,17,17,047,36,02,17,132,33*7C $GPGSV,3,3,12,19,09,082,00,32,05,357,23,20,00,020,00,29,00,212,00*7F $GPRMC,160017,A,5406.5562,N,01932.6841,E,014.9,179.0,170610,,,A*72 $GPVTG,179.0,T,,M,014.9,N,027.6,K,A*0D $GPGGA,160032,5406.4963,N,01932.6880,E,1,08,01.1,00031.4,M,034.3,M,00,0000*4E $GPGSA,A,3,09,27,30,14,04,17,02,12,,,,,02.2,01.1,01.9*03 $GPGSV,3,1,12,12,71,268,34,09,56,152,41,27,48,150,39,30,34,266,38*75 $GPGSV,3,2,12,14,33,302,38,04,27,089,39,17,17,047,35,02,17,132,37*7B $GPGSV,3,3,12,19,09,082,00,32,05,357,32,20,00,020,00,29,00,212,25*78 $GPRMC,160032,A,5406.4963,N,01932.6880,E,010.7,176.1,170610,,,A*70 $GPVTG,176.1,T,,M,010.7,N,019.8,K,A*0A $GPGGA,160047,5406.4456,N,01932.6938,E,1,08,01.1,00024.0,M,034.3,M,00,0000*45 $GPGSA,A,3,30,12,14,09,27,04,17,02,,,,,02.2,01.1,01.9*03 $GPGSV,3,1,12,12,71,268,37,09,56,152,32,27,48,150,35,30,34,266,39*7F $GPGSV,3,2,12,14,33,302,39,04,27,089,37,17,17,047,34,02,17,132,31*73 $GPGSV,3,3,12,19,09,082,00,32,05,357,39,20,00,020,00,29,00,212,00*74 $GPRMC,160047,A,5406.4456,N,01932.6938,E,010.0,176.2,170610,,,A*7F $GPVTG,176.2,T,,M,010.0,N,018.6,K,A*01 $GPGGA,160102,5406.4800,N,01932.8375,E,1,08,01.1,00017.3,M,034.3,M,00,0000*44 $GPGSA,A,3,04,09,12,17,02,27,14,30,,,,,02.2,01.1,01.9*03 $GPGSV,3,1,12,12,71,268,40,09,56,152,41,27,48,150,39,30,34,266,39*77 $GPGSV,3,2,12,14,33,302,38,04,27,089,41,17,17,047,39,02,17,132,39*76 $GPGSV,3,3,12,19,09,082,00,32,05,357,32,20,00,020,00,29,00,212,00*7F $GPRMC,160102,A,5406.4800,N,01932.8375,E,013.9,065.5,170610,,,A*73 $GPVTG,065.5,T,,M,013.9,N,025.8,K,N*00 $GPGGA,160117,5406.5765,N,01933.0032,E,1,07,01.5,00015.2,M,034.3,M,00,0000*4C $GPGSA,A,3,02,04,12,30,27,14,09,,,,,,02.5,01.5,01.9*06 $GPGSV,3,1,12,12,71,268,40,09,56,152,26,27,48,150,37,30,34,266,39*78 $GPGSV,3,2,12,14,33,302,38,04,27,089,40,17,17,047,00,02,17,132,41*72 $GPGSV,3,3,12,19,09,082,00,32,05,357,00,20,00,020,00,29,00,212,25*79 $GPRMC,160117,A,5406.5765,N,01933.0032,E,026.3,050.0,170610,,,A*7C $GPVTG,050.0,T,,M,026.3,N,048.7,K,N*0B $GPGGA,160132,5406.5997,N,01933.2366,E,1,08,01.1,00014.0,M,034.3,M,00,0000*40 $GPGSA,A,3,02,04,30,12,14,27,09,17,,,,,02.2,01.1,01.9*03 $GPGSV,3,1,12,12,71,268,40,09,56,152,34,27,48,150,37,30,34,266,42*77 $GPGSV,3,2,12,14,33,302,37,04,27,089,41,17,17,047,30,02,17,132,44*7A $GPGSV,3,3,12,19,09,082,00,32,05,357,00,20,00,020,00,29,00,212,36*7B $GPRMC,160132,A,5406.5997,N,01933.2366,E,036.8,081.8,170610,,,A*76 $GPVTG,081.8,T,,M,036.8,N,068.2,K,A*0D $GPGGA,160147,5406.6210,N,01933.4657,E,1,08,01.1,00005.0,M,034.3,M,00,0000*44 $GPGSA,A,3,02,04,27,12,09,30,14,17,,,,,02.2,01.1,01.9*03 $GPGSV,3,1,12,12,71,268,39,09,56,152,32,27,48,150,38,30,34,266,35*70 $GPGSV,3,2,12,14,33,302,31,04,27,089,42,17,17,047,27,02,17,132,41*7C $GPGSV,3,3,12,19,09,082,00,32,05,357,32,20,00,020,00,29,00,212,23*7E $GPRMC,160147,A,5406.6210,N,01933.4657,E,028.8,077.3,170610,,,A*7F $GPVTG,077.3,T,,M,028.8,N,053.4,K,A*0E $GPGGA,160202,5406.6603,N,01933.5555,E,1,08,01.1,-0007.7,M,034.3,M,00,0000*58 $GPGSA,A,3,04,09,12,30,27,02,17,14,,,,,02.2,01.1,01.9*03 $GPGSV,3,1,12,12,71,268,40,09,56,152,42,27,48,150,37,30,34,266,38*7B $GPGSV,3,2,12,14,33,302,27,04,27,089,42,17,17,047,26,02,17,132,36*7A $GPGSV,3,3,12,19,09,082,00,32,05,357,00,20,00,020,00,29,00,212,00*7E $GPRMC,160202,A,5406.6603,N,01933.5555,E,017.2,026.0,170610,,,A*7A $GPVTG,026.0,T,,M,017.2,N,031.9,K,A*06 $GPGGA,160217,5406.6903,N,01933.5720,E,1,08,01.1,-0002.9,M,034.3,M,00,0000*58 $GPGSA,A,3,09,27,14,04,12,17,30,02,,,,,02.2,01.1,01.9*03 $GPGSV,3,1,12,12,71,268,41,09,56,152,41,27,48,150,40,30,34,266,35*74 $GPGSV,3,2,12,14,33,302,39,04,27,089,39,17,17,047,40,02,17,132,31*7E $GPGSV,3,3,12,19,09,082,00,32,05,357,00,20,00,020,00,29,00,212,00*7E $GPRMC,160217,A,5406.6903,N,01933.5720,E,005.2,342.2,170610,,,A*71 $GPVTG,342.2,T,,M,005.2,N,009.7,K,A*03 $GPGGA,160232,5406.7307,N,01933.5506,E,1,08,01.1,-0004.9,M,034.3,M,00,0000*50 $GPGSA,A,3,17,12,30,14,09,27,02,04,,,,,02.2,01.1,01.9*03 $GPGSV,3,1,12,12,71,268,40,09,56,152,31,27,48,150,33,30,34,266,38*7B $GPGSV,3,2,12,14,33,302,35,04,27,089,32,17,17,047,41,02,17,132,26*7E $GPGSV,3,3,12,19,09,082,00,32,05,357,00,20,00,020,00,29,00,212,00*7E $GPRMC,160232,A,5406.7307,N,01933.5506,E,015.0,356.6,170610,,,A*7D $GPVTG,356.6,T,,M,015.0,N,027.8,K,A*02 $GPGGA,160247,5406.7965,N,01933.5468,E,1,07,01.5,00007.3,M,034.3,M,00,0000*4A $GPGSA,A,3,12,27,09,17,30,14,04,,,,,,03.2,01.5,02.8*06 $GPGSV,3,1,12,12,71,268,37,09,56,152,34,27,48,150,38,30,34,266,36*7B $GPGSV,3,2,12,14,33,302,33,04,27,089,34,17,17,047,35,02,17,132,00*79 $GPGSV,3,3,12,19,09,082,00,32,05,357,22,20,00,020,00,29,00,212,00*7E $GPRMC,160247,A,5406.7965,N,01933.5468,E,008.1,000.2,170610,,,A*71 $GPVTG,000.2,T,,M,008.1,N,015.0,K,A*02 $GPGGA,160306,5406.8038,N,01933.5498,E,1,08,01.1,00020.8,M,034.3,M,00,0000*4A $GPGSA,A,3,09,30,02,14,27,04,17,12,,,,,02.3,01.1,01.9*02 $GPGSV,3,1,12,12,72,269,31,09,54,152,27,27,47,150,26,30,35,267,32*7B $GPGSV,3,2,12,14,33,301,32,04,27,087,37,02,18,131,30,17,16,047,42*78 $GPGSV,3,3,12,19,10,081,00,32,05,356,00,20,01,019,00,29,01,212,00*7E $GPRMC,160306,A,5406.8038,N,01933.5498,E,001.5,013.4,170610,,,A*7D $GPVTG,013.4,T,,M,001.5,N,002.9,K,A*04 $GPGGA,160315,5406.8080,N,01933.5520,E,1,08,01.1,00024.3,M,034.3,M,00,0000*46 $GPGSA,A,3,09,30,02,14,27,04,17,12,,,,,02.3,01.1,02.0*08 $GPGSV,3,1,12,12,72,269,26,09,54,152,27,27,47,150,26,30,35,267,36*79 $GPGSV,3,2,12,14,33,301,38,04,27,087,37,02,18,131,31,17,16,047,35*73 $GPGSV,3,3,12,19,10,081,00,32,05,356,18,20,01,019,00,29,01,212,00*77 $GPRMC,160315,A,5406.8080,N,01933.5520,E,000.9,351.5,170610,,,A*77 $GPVTG,351.5,T,,M,000.9,N,001.7,K,A*00 $GPGGA,160330,5406.8100,N,01933.5488,E,1,05,01.9,00022.4,M,034.3,M,00,0000*4F $GPGSA,A,3,04,09,02,12,14,,,,,,,,03.0,01.9,02.3*01 $GPGSV,3,1,12,12,72,269,32,09,54,152,37,27,47,150,00,30,35,267,00*7C $GPGSV,3,2,12,14,33,301,30,04,27,087,38,02,18,131,34,17,16,047,00*77 $GPGSV,3,3,12,19,10,081,00,32,05,356,00,20,01,019,00,29,01,212,00*7E $GPRMC,160330,A,5406.8100,N,01933.5488,E,001.2,254.1,170610,,,A*70 $GPVTG,254.1,T,,M,001.2,N,002.3,K,A*0D $GPGGA,160345,5406.8102,N,01933.5533,E,1,05,01.9,00020.0,M,034.3,M,00,0000*48 $GPGSA,A,3,04,09,12,02,14,,,,,,,,03.0,01.9,02.3*01 $GPGSV,3,1,12,12,72,269,35,09,54,152,37,27,47,150,00,30,35,267,00*7B $GPGSV,3,2,12,14,33,301,29,04,27,087,37,02,18,131,34,17,16,047,00*70 $GPGSV,3,3,12,19,10,081,00,32,05,356,00,20,01,019,00,29,01,212,00*7E $GPRMC,160345,A,5406.8102,N,01933.5533,E,000.4,043.6,170610,,,A*75 $GPVTG,043.6,T,,M,000.4,N,000.7,K,A*0F $GPGGA,160400,5406.8104,N,01933.5551,E,1,06,01.7,00022.6,M,034.3,M,00,0000*45 $GPGSA,A,3,14,04,30,12,09,17,,,,,,,03.4,01.7,02.9*06 $GPGSV,3,1,12,12,72,269,35,09,54,152,29,27,47,150,00,30,35,267,36*71 $GPGSV,3,2,12,14,33,301,39,04,27,087,37,02,18,131,00,17,16,047,26*72 $GPGSV,3,3,12,19,10,081,00,32,05,356,00,20,01,019,00,29,01,212,00*7E $GPRMC,160400,A,5406.8104,N,01933.5551,E,000.3,295.8,170610,,,A*71 $GPVTG,295.8,T,,M,000.3,N,000.7,K,A*0F $GPGGA,160422,5406.8098,N,01933.5444,E,1,06,01.7,00030.5,M,034.3,M,00,0000*44 $GPGSA,A,3,09,27,02,04,12,30,,,,,,,02.7,01.7,02.1*08 $GPGSV,3,1,12,12,73,270,26,09,53,152,43,27,46,150,40,30,35,267,31*73 $GPGSV,3,2,12,14,34,300,00,04,28,087,29,02,18,131,27,17,16,047,21*7C $GPGSV,3,3,12,19,10,081,00,32,05,356,00,29,01,212,00,20,01,019,00*7E $GPRMC,160422,A,5406.8098,N,01933.5444,E,001.2,109.0,170610,,,A*7E $GPVTG,109.0,T,,M,001.2,N,002.3,K,A*07 $GPGGA,160433,5406.8071,N,01933.5528,E,1,08,01.1,00024.7,M,034.3,M,00,0000*47 $GPGSA,A,3,09,27,02,04,12,30,17,14,,,,,02.3,01.1,02.0*08 $GPGSV,3,1,12,12,73,270,31,09,53,152,39,27,46,150,36,30,35,267,33*7B $GPGSV,3,2,12,14,34,300,28,04,28,087,35,02,18,131,33,17,16,047,26*79 $GPGSV,3,3,12,19,10,081,00,32,05,356,00,29,01,212,21,20,01,019,00*7D $GPRMC,160433,A,5406.8071,N,01933.5528,E,001.9,176.6,170610,,,A*77 $GPVTG,176.6,T,,M,001.9,N,003.5,K,A*05 $GPGGA,160448,5406.8068,N,01933.5555,E,1,07,01.2,00027.3,M,034.3,M,00,0000*42 $GPGSA,A,3,02,04,27,09,17,30,14,,,,,,03.0,01.2,02.8*02 $GPGSV,3,1,12,12,73,270,00,09,53,152,37,27,46,150,39,30,35,267,28*72 $GPGSV,3,2,12,14,34,300,23,04,28,087,39,02,18,131,41,17,16,047,33*7F $GPGSV,3,3,12,19,10,081,00,32,05,356,00,29,01,212,00,20,01,019,00*7E $GPRMC,160448,A,5406.8068,N,01933.5555,E,000.6,347.5,170610,,,A*74 $GPVTG,347.5,T,,M,000.6,N,001.2,K,A*0D $GPGGA,160503,5406.8070,N,01933.5520,E,1,07,01.2,00032.8,M,034.3,M,00,0000*48 $GPGSA,A,3,02,04,09,27,30,14,17,,,,,,03.1,01.2,02.8*03 $GPGSV,3,1,12,12,73,270,00,09,53,152,40,27,46,150,36,30,35,267,30*74 $GPGSV,3,2,12,14,34,300,28,04,28,087,40,02,18,131,41,17,16,047,28*70 $GPGSV,3,3,12,19,10,081,00,32,05,356,00,29,01,212,00,20,01,019,00*7E $GPRMC,160503,A,5406.8070,N,01933.5520,E,002.1,274.7,170610,,,A*77 $GPVTG,274.7,T,,M,002.1,N,003.9,K,A*02 $GPGGA,160522,5406.8061,N,01933.5560,E,1,07,01.2,00027.7,M,034.3,M,00,0000*44 $GPGSA,A,3,02,09,04,27,14,17,30,,,,,,03.1,01.2,02.8*03 $GPGSV,3,1,12,12,73,270,00,09,53,152,39,27,46,150,35,30,36,267,27*7C $GPGSV,3,2,12,14,34,300,29,04,28,086,42,02,19,130,47,17,15,047,27*78 $GPGSV,3,3,12,19,11,080,00,32,05,356,00,29,02,212,00,20,01,019,00*7D $GPRMC,160522,A,5406.8061,N,01933.5560,E,000.1,039.4,170610,,,A*7A $GPVTG,039.4,T,,M,000.1,N,000.2,K,A*00 $GPGGA,160537,5406.8020,N,01933.5566,E,1,08,01.1,00024.7,M,034.3,M,00,0000*4C $GPGSA,A,3,02,09,04,27,14,17,30,12,,,,,02.3,01.1,02.0*08 $GPGSV,3,1,12,12,73,270,33,09,53,152,32,27,46,150,28,30,36,267,33*7E $GPGSV,3,2,12,14,34,300,32,04,28,086,31,02,19,130,37,17,15,047,30*77 $GPGSV,3,3,12,19,11,080,00,32,05,356,19,29,02,212,18,20,01,019,00*7C $GPRMC,160537,A,5406.8020,N,01933.5566,E,001.3,026.4,170610,,,A*70 $GPVTG,026.4,T,,M,001.3,N,002.4,K,A*09 $GPGGA,160547,5406.8034,N,01933.5563,E,1,08,01.1,00025.0,M,034.3,M,00,0000*4D $GPGSA,A,3,02,09,04,27,14,17,30,12,,,,,02.3,01.1,02.0*08 $GPGSV,3,1,12,12,73,270,42,09,53,152,19,27,46,150,31,30,36,267,46*7B $GPGSV,3,2,12,14,34,300,46,04,28,086,34,02,19,130,31,17,15,047,38*7F $GPGSV,3,3,12,19,11,080,00,32,05,356,21,29,02,212,00,20,01,019,00*7E $GPRMC,160547,A,5406.8034,N,01933.5563,E,000.1,022.0,170610,,,A*74 $GPVTG,022.0,T,,M,000.1,N,000.3,K,A*0F $GPGGA,160602,5406.8029,N,01933.5584,E,1,08,01.1,00027.2,M,034.3,M,00,0000*4A $GPGSA,A,3,14,30,12,02,17,04,09,27,,,,,02.3,01.1,02.0*08 $GPGSV,3,1,12,12,73,270,40,09,53,152,30,27,46,150,28,30,36,267,40*7C $GPGSV,3,2,12,14,34,300,41,04,28,086,34,02,19,130,36,17,15,047,34*73 $GPGSV,3,3,12,19,11,080,00,32,05,356,00,29,02,212,00,20,01,019,00*7D $GPRMC,160602,A,5406.8029,N,01933.5584,E,000.3,112.5,170610,,,A*76 $GPVTG,112.5,T,,M,000.3,N,000.6,K,A*0F $GPGGA,160617,5406.8057,N,01933.5619,E,1,08,01.1,00037.2,M,034.3,M,00,0000*41 $GPGSA,A,3,14,30,12,27,02,17,09,04,,,,,02.3,01.1,02.0*08 $GPGSV,3,1,12,12,74,270,38,09,53,152,33,27,46,150,37,30,36,267,39*77 $GPGSV,3,2,12,14,34,299,41,04,28,086,31,02,19,130,33,17,15,047,34*72 $GPGSV,3,3,12,19,11,080,00,32,05,355,00,29,02,212,00,20,01,018,00*7F $GPRMC,160617,A,5406.8057,N,01933.5619,E,000.3,107.2,170610,,,A*7F $GPVTG,107.2,T,,M,000.3,N,000.5,K,A*0F $GPGGA,160637,5406.8035,N,01933.5567,E,1,08,01.1,00028.1,M,034.3,M,00,0000*40 $GPGSA,A,3,09,27,12,30,04,02,17,14,,,,,02.3,01.1,02.0*08 $GPGSV,3,1,12,12,74,271,41,09,52,152,34,27,45,150,38,30,36,267,42*7E $GPGSV,3,2,12,14,34,299,38,04,28,086,42,02,19,130,40,17,15,047,32*7A $GPGSV,3,3,12,19,11,080,00,32,05,355,22,29,02,212,23,20,01,018,00*7E $GPRMC,160637,A,5406.8035,N,01933.5567,E,006.9,174.0,170610,,,A*79 $GPVTG,174.0,T,,M,006.9,N,012.8,K,A*0B $GPGGA,160646,5406.7834,N,01933.5544,E,1,08,01.1,00021.1,M,034.3,M,00,0000*48 $GPGSA,A,3,09,27,12,30,04,02,17,14,,,,,02.4,01.1,02.0*0F $GPGSV,3,1,12,12,74,271,36,09,52,152,43,27,45,150,41,30,36,267,39*7C $GPGSV,3,2,12,14,34,299,39,04,28,086,38,02,19,130,35,17,15,047,29*7E $GPGSV,3,3,12,19,11,080,00,32,05,355,22,29,02,212,25,20,01,018,00*78 $GPRMC,160646,A,5406.7834,N,01933.5544,E,005.5,195.6,170610,,,A*7E $GPVTG,195.6,T,,M,005.5,N,010.3,K,A*04 $GPGGA,160701,5406.7529,N,01933.5527,E,1,08,01.1,00016.4,M,034.3,M,00,0000*4F $GPGSA,A,3,04,02,09,14,27,12,30,17,,,,,02.4,01.1,02.0*0F $GPGSV,3,1,12,12,74,271,34,09,52,152,32,27,45,150,36,30,36,267,33*72 $GPGSV,3,2,12,14,34,299,34,04,28,086,39,02,19,130,35,17,15,047,24*7F $GPGSV,3,3,12,19,11,080,00,32,05,355,00,29,02,212,30,20,01,018,00*7C $GPRMC,160701,A,5406.7529,N,01933.5527,E,006.6,171.4,170610,,,A*70 $GPVTG,171.4,T,,M,006.6,N,012.3,K,A*0E $GPGGA,160716,5406.6896,N,01933.5676,E,1,08,01.1,00014.1,M,034.3,M,00,0000*41 $GPGSA,A,3,04,30,17,12,09,02,14,27,,,,,02.4,01.1,02.1*0E $GPGSV,3,1,12,12,74,271,40,09,52,152,38,27,45,150,29,30,36,267,40*71 $GPGSV,3,2,12,14,34,299,31,04,28,086,41,02,19,130,37,17,15,047,39*7B $GPGSV,3,3,12,19,11,080,00,32,05,355,00,29,02,212,00,20,01,018,00*7F $GPRMC,160716,A,5406.6896,N,01933.5676,E,014.0,160.2,170610,,,A*7A $GPVTG,160.2,T,,M,014.0,N,026.0,K,A*09 $GPGGA,160731,5406.7032,N,01933.6349,E,1,07,01.2,00028.1,M,034.3,M,00,0000*4A $GPGSA,A,3,02,12,27,09,30,17,04,,,,,,02.5,01.2,02.1*09 $GPGSV,3,1,12,12,74,271,43,09,52,152,40,27,45,150,40,30,36,267,36*73 $GPGSV,3,2,12,14,34,299,00,04,28,086,31,02,19,130,41,17,15,047,32*74 $GPGSV,3,3,12,19,11,080,00,32,05,355,00,29,02,212,28,20,01,018,00*75 $GPRMC,160731,A,5406.7032,N,01933.6349,E,010.3,100.5,170610,,,A*74 $GPVTG,100.5,T,,M,010.3,N,019.2,K,A*01 $GPGGA,160746,5406.7281,N,01933.7137,E,1,07,01.2,00033.0,M,034.3,M,00,0000*41 $GPGSA,A,3,02,12,09,30,04,14,17,,,,,,02.4,01.2,02.1*08 $GPGSV,3,1,12,12,74,271,43,09,52,152,39,27,45,150,00,30,36,267,37*78 $GPGSV,3,2,12,14,34,299,36,04,28,086,37,02,19,130,42,17,15,047,28*7F $GPGSV,3,3,12,19,11,080,00,32,05,355,26,29,02,212,33,20,01,018,00*7B $GPRMC,160746,A,5406.7281,N,01933.7137,E,011.3,063.6,170610,,,A*72 $GPVTG,063.6,T,,M,011.3,N,021.0,K,A*0E $GPGGA,160801,5406.7523,N,01933.8014,E,1,07,01.5,00043.3,M,034.3,M,00,0000*4E $GPGSA,A,3,02,12,09,04,27,30,14,,,,,,02.6,01.5,02.1*0E $GPGSV,3,1,12,12,74,271,43,09,52,152,41,27,45,150,37,30,36,267,32*76 $GPGSV,3,2,12,14,34,299,30,04,28,086,40,02,19,130,41,17,15,047,00*70 $GPGSV,3,3,12,19,11,080,00,32,05,355,36,29,02,212,00,20,01,018,00*7A $GPRMC,160801,A,5406.7523,N,01933.8014,E,014.2,074.8,170610,,,A*72 $GPVTG,074.8,T,,M,014.2,N,026.3,K,A*06 $GPGGA,160816,5406.7921,N,01933.9208,E,1,07,01.2,00047.9,M,034.3,M,00,0000*41 $GPGSA,A,3,02,12,04,30,09,27,17,,,,,,02.5,01.2,02.1*09 $GPGSV,3,1,12,12,74,271,43,09,52,152,33,27,45,150,30,30,36,267,36*70 $GPGSV,3,2,12,14,34,299,00,04,28,086,40,02,19,130,41,17,15,047,27*76 $GPGSV,3,3,12,19,11,080,00,32,05,355,37,29,02,212,00,20,01,018,00*7B $GPRMC,160816,A,5406.7921,N,01933.9208,E,015.4,058.3,170610,,,A*76 $GPVTG,058.3,T,,M,015.4,N,028.5,K,A*0C $GPGGA,160831,5406.8110,N,01934.0290,E,1,08,01.1,00050.6,M,034.3,M,00,0000*4B $GPGSA,A,3,12,02,04,09,27,30,14,17,,,,,02.4,01.1,02.1*0E $GPGSV,3,1,12,12,74,271,44,09,52,152,35,27,45,150,36,30,36,267,36*77 $GPGSV,3,2,12,14,34,299,28,04,28,086,43,02,19,130,42,17,15,047,26*7D $GPGSV,3,3,12,19,11,080,00,32,05,355,20,29,02,212,00,20,01,018,00*7D $GPRMC,160831,A,5406.8110,N,01934.0290,E,013.8,073.7,170610,,,A*7E $GPVTG,073.7,T,,M,013.8,N,025.5,K,A*06 $GPGGA,160846,5406.8374,N,01934.0674,E,1,08,01.1,00051.5,M,034.3,M,00,0000*47 $GPGSA,A,3,04,12,09,02,27,17,30,14,,,,,02.4,01.1,02.1*0E $GPGSV,3,1,12,12,74,271,42,09,52,152,42,27,45,150,39,30,36,267,37*7F $GPGSV,3,2,12,14,34,299,37,04,28,086,44,02,19,130,40,17,15,047,38*79 $GPGSV,3,3,12,19,11,080,00,32,05,355,00,29,02,212,00,20,01,018,24*79 $GPRMC,160846,A,5406.8374,N,01934.0674,E,006.0,003.0,170610,,,A*7C $GPVTG,003.0,T,,M,006.0,N,011.1,K,A*09 $GPGGA,160901,5406.8340,N,01934.0655,E,1,08,01.1,00053.2,M,034.3,M,00,0000*44 $GPGSA,A,3,04,12,02,09,27,14,17,30,,,,,02.4,01.1,02.1*0E $GPGSV,3,1,12,12,74,271,42,09,52,152,42,27,45,150,40,30,36,267,34*72 $GPGSV,3,2,12,14,34,299,38,04,28,086,42,02,19,130,41,17,15,047,36*7F $GPGSV,3,3,12,19,11,080,00,32,05,355,00,29,02,212,00,20,01,018,00*7F $GPRMC,160901,A,5406.8340,N,01934.0655,E,000.9,189.4,170610,,,A*72 $GPVTG,189.4,T,,M,000.9,N,001.8,K,A*09 $GPGGA,160916,5406.8319,N,01934.0618,E,1,08,01.1,00047.9,M,034.3,M,00,0000*49 $GPGSA,A,3,04,12,02,09,27,14,17,30,,,,,02.4,01.1,02.1*0E $GPGSV,3,1,12,12,75,272,42,09,51,152,41,27,44,151,39,30,37,268,32*76 $GPGSV,3,2,12,14,34,298,38,04,28,084,41,02,20,129,43,17,14,047,37*7F $GPGSV,3,3,12,19,12,079,00,32,05,354,00,29,03,212,00,20,02,017,00*76 $GPRMC,160916,A,5406.8319,N,01934.0618,E,000.8,204.8,170610,,,A*7A $GPVTG,204.8,T,,M,000.8,N,001.4,K,A*0E $GPGGA,160931,5406.8284,N,01934.0591,E,1,08,01.1,00046.8,M,034.3,M,00,0000*4B $GPGSA,A,3,04,12,09,02,27,14,17,30,,,,,02.4,01.1,02.1*0E $GPGSV,3,1,12,12,75,272,42,09,51,152,42,27,44,151,39,30,37,268,33*74 $GPGSV,3,2,12,14,34,298,39,04,28,084,42,02,20,129,41,17,14,047,37*7F $GPGSV,3,3,12,19,12,079,00,32,05,354,00,29,03,212,00,20,02,017,00*76 $GPRMC,160931,A,5406.8284,N,01934.0591,E,000.9,204.6,170610,,,A*77 $GPVTG,204.6,T,,M,000.9,N,001.8,K,A*0D $GPGGA,160946,5406.8261,N,01934.0573,E,1,08,01.1,00045.0,M,034.3,M,00,0000*47 $GPGSA,A,3,04,12,09,02,27,14,17,30,,,,,02.4,01.1,02.1*0E $GPGSV,3,1,12,12,75,272,42,09,51,152,42,27,44,151,40,30,37,268,31*78 $GPGSV,3,2,12,14,34,298,38,04,28,084,44,02,20,129,41,17,14,047,38*77 $GPGSV,3,3,12,19,12,079,00,32,05,354,26,29,03,212,00,20,02,017,00*72 $GPRMC,160946,A,5406.8261,N,01934.0573,E,000.3,214.9,170610,,,A*74 $GPVTG,214.9,T,,M,000.3,N,000.6,K,A*06 $GPGGA,161001,5406.8235,N,01934.0542,E,1,08,01.1,00045.2,M,034.3,M,00,0000*4D $GPGSA,A,3,04,12,09,02,27,14,17,30,,,,,02.4,01.1,02.1*0E $GPGSV,3,1,12,12,75,272,42,09,51,152,42,27,44,151,40,30,37,268,34*7D $GPGSV,3,2,12,14,34,298,39,04,28,084,42,02,20,129,40,17,14,047,37*7E $GPGSV,3,3,12,19,12,079,00,32,05,354,00,29,03,212,00,20,02,017,00*76 $GPRMC,161001,A,5406.8235,N,01934.0542,E,001.2,200.8,170610,,,A*78 $GPVTG,200.8,T,,M,001.2,N,002.3,K,A*05 $GPGGA,161016,5406.8213,N,01934.0510,E,1,08,01.1,00039.7,M,034.3,M,00,0000*46 $GPGSA,A,3,04,09,02,27,12,14,17,30,,,,,02.4,01.1,02.1*0E $GPGSV,3,1,12,12,75,272,41,09,51,152,42,27,44,151,42,30,37,268,29*70 $GPGSV,3,2,12,14,34,298,39,04,28,084,44,02,20,129,41,17,14,047,37*79 $GPGSV,3,3,12,19,12,079,00,32,05,354,28,29,03,212,27,20,02,017,00*79 $GPRMC,161016,A,5406.8213,N,01934.0510,E,000.8,200.0,170610,,,A*7E $GPVTG,200.0,T,,M,000.8,N,001.4,K,A*02 $GPGGA,161031,5406.8183,N,01934.0469,E,1,08,01.1,00037.4,M,034.3,M,00,0000*4B $GPGSA,A,3,04,12,02,27,09,14,30,17,,,,,02.4,01.1,02.1*0E $GPGSV,3,1,12,12,75,272,42,09,51,152,39,27,44,151,41,30,37,268,37*73 $GPGSV,3,2,12,14,34,298,39,04,28,084,45,02,20,129,41,17,14,047,34*7B $GPGSV,3,3,12,19,12,079,00,32,05,354,28,29,03,212,00,20,02,017,00*7C $GPRMC,161031,A,5406.8183,N,01934.0469,E,000.6,202.7,170610,,,A*75 $GPVTG,202.7,T,,M,000.6,N,001.2,K,A*0F $GPGGA,161046,5406.8182,N,01934.0454,E,1,08,01.1,00036.3,M,034.3,M,00,0000*42 $GPGSA,A,3,04,12,27,02,09,14,30,17,,,,,02.4,01.1,02.1*0E $GPGSV,3,1,12,12,75,272,43,09,51,152,39,27,44,151,40,30,37,268,37*73 $GPGSV,3,2,12,14,34,298,39,04,28,084,42,02,20,129,40,17,14,047,34*7D $GPGSV,3,3,12,19,12,079,00,32,05,354,00,29,03,212,00,20,02,017,00*76 $GPRMC,161046,A,5406.8182,N,01934.0454,E,000.5,242.9,170610,,,A*73 $GPVTG,242.9,T,,M,000.5,N,001.0,K,A*04 $GPGGA,161101,5406.8195,N,01934.0456,E,1,08,01.2,00039.4,M,034.3,M,00,0000*4F $GPGSA,A,3,04,12,02,27,14,09,30,17,,,,,02.4,01.2,02.1*0D $GPGSV,3,1,12,12,75,272,43,09,51,152,39,27,44,151,41,30,37,268,38*7D $GPGSV,3,2,12,14,34,298,39,04,28,084,45,02,20,129,41,17,14,047,34*7B $GPGSV,3,3,12,19,12,079,00,32,05,354,25,29,03,212,00,20,02,017,00*71 $GPRMC,161101,A,5406.8195,N,01934.0456,E,000.2,348.7,170610,,,A*77 $GPVTG,348.7,T,,M,000.2,N,000.4,K,A*03 $GPGGA,161116,5406.8200,N,01934.0464,E,1,08,01.2,00042.4,M,034.3,M,00,0000*4B $GPGSA,A,3,04,12,02,27,09,14,30,17,,,,,02.4,01.2,02.1*0D $GPGSV,3,1,12,12,75,272,42,09,51,152,38,27,44,151,41,30,37,268,38*7D $GPGSV,3,2,12,14,34,298,39,04,28,084,45,02,20,129,40,17,14,047,33*7D $GPGSV,3,3,12,19,12,079,00,32,05,354,28,29,03,212,00,20,02,017,00*7C $GPRMC,161116,A,5406.8200,N,01934.0464,E,000.4,179.5,170610,,,A*7B $GPVTG,179.5,T,,M,000.4,N,000.8,K,A*0B $GPGGA,161131,5406.8205,N,01934.0467,E,1,08,01.2,00045.1,M,034.3,M,00,0000*4A $GPGSA,A,3,04,12,02,27,14,09,30,17,,,,,02.4,01.2,02.1*0D $GPGSV,3,1,12,12,75,272,42,09,51,152,38,27,44,151,40,30,37,268,38*7C $GPGSV,3,2,12,14,34,298,38,04,28,084,42,02,20,129,40,17,14,047,36*7E $GPGSV,3,3,12,19,12,079,00,32,05,354,00,29,03,212,00,20,02,017,00*76 $GPRMC,161131,A,5406.8205,N,01934.0467,E,000.5,306.3,170610,,,A*75 $GPVTG,306.3,T,,M,000.5,N,001.1,K,A*0E $GPGGA,161146,5406.8205,N,01934.0473,E,1,08,01.2,00048.8,M,034.3,M,00,0000*4B $GPGSA,A,3,04,12,02,27,09,14,30,17,,,,,02.4,01.2,02.1*0D $GPGSV,3,1,12,12,75,272,42,09,51,152,38,27,44,151,41,30,37,268,37*72 $GPGSV,3,2,12,14,34,298,39,04,28,084,44,02,20,129,41,17,14,047,35*7B $GPGSV,3,3,12,19,12,079,00,32,05,354,00,29,03,212,23,20,02,017,00*77 $GPRMC,161146,A,5406.8205,N,01934.0473,E,000.3,157.4,170610,,,A*77 $GPVTG,157.4,T,,M,000.3,N,000.7,K,A*0E $GPGGA,161201,5406.8218,N,01934.0481,E,1,08,01.2,00047.1,M,034.3,M,00,0000*4C $GPGSA,A,3,04,02,12,27,14,09,30,17,,,,,02.5,01.2,02.1*0C $GPGSV,3,1,12,12,75,272,42,09,51,152,39,27,44,151,40,30,37,268,38*7D $GPGSV,3,2,12,14,34,298,39,04,28,084,42,02,20,129,41,17,14,047,36*7E $GPGSV,3,3,12,19,12,079,00,32,05,354,00,29,03,212,00,20,02,017,00*76 $GPRMC,161201,A,5406.8218,N,01934.0481,E,000.9,311.1,170610,,,A*79 $GPVTG,311.1,T,,M,000.9,N,001.8,K,A*0F $GPGGA,161216,5406.8238,N,01934.0487,E,1,08,01.2,00053.4,M,034.3,M,00,0000*4E $GPGSA,A,3,04,12,02,27,09,14,30,17,,,,,02.5,01.2,02.1*0C $GPGSV,3,1,12,12,76,274,42,09,50,153,38,27,43,151,41,30,39,269,38*70 $GPGSV,3,2,12,14,34,296,39,04,29,083,42,02,21,129,40,17,13,046,36*70 $GPGSV,3,3,12,19,12,078,00,32,05,353,24,29,05,213,00,20,02,016,26*74 $GPRMC,161216,A,5406.8238,N,01934.0487,E,000.7,225.6,170610,,,A*74 $GPVTG,225.6,T,,M,000.7,N,001.3,K,A*0B $GPGGA,161231,5406.8227,N,01934.0494,E,1,08,01.2,00060.8,M,034.3,M,00,0000*4B $GPGSA,A,3,04,02,12,27,14,09,30,17,,,,,02.5,01.2,02.1*0C $GPGSV,3,1,12,12,76,274,42,09,50,153,37,27,43,151,40,30,39,269,38*7E $GPGSV,3,2,12,14,34,296,38,04,29,083,42,02,21,129,41,17,13,046,32*74 $GPGSV,3,3,12,19,12,078,00,32,05,353,00,29,05,213,00,20,02,016,00*76 $GPRMC,161231,A,5406.8227,N,01934.0494,E,000.3,257.1,170610,,,A*7B $GPVTG,257.1,T,,M,000.3,N,000.5,K,A*0A $GPGGA,161246,5406.8384,N,01934.0669,E,1,08,01.2,00067.4,M,034.3,M,00,0000*48 $GPGSA,A,3,04,12,02,27,09,17,14,30,,,,,02.5,01.2,02.2*0F $GPGSV,3,1,12,12,76,274,41,09,50,153,37,27,43,151,41,30,39,269,37*73 $GPGSV,3,2,12,14,34,296,37,04,29,083,44,02,21,129,40,17,13,046,38*76 $GPGSV,3,3,12,19,12,078,00,32,05,353,31,29,05,213,00,20,02,016,00*74 $GPRMC,161246,A,5406.8384,N,01934.0669,E,005.8,079.3,170610,,,A*71 $GPVTG,079.3,T,,M,005.8,N,010.7,K,A*0B $GPGGA,161301,5406.8860,N,01934.1392,E,1,08,01.2,00068.6,M,034.3,M,00,0000*46 $GPGSA,A,3,04,02,12,17,09,27,30,14,,,,,02.5,01.2,02.2*0F $GPGSV,3,1,12,12,76,274,41,09,50,153,39,27,43,151,38,30,39,269,35*71 $GPGSV,3,2,12,14,34,296,33,04,29,083,44,02,21,129,42,17,13,046,39*71 $GPGSV,3,3,12,19,12,078,00,32,05,353,26,29,05,213,28,20,02,016,00*78 $GPRMC,161301,A,5406.8860,N,01934.1392,E,014.7,040.0,170610,,,A*74 $GPVTG,040.0,T,,M,014.7,N,027.2,K,A*0C $GPGGA,161316,5406.9452,N,01934.1745,E,1,08,01.2,00061.8,M,034.3,M,00,0000*45 $GPGSA,A,3,12,30,09,04,02,14,27,17,,,,,02.5,01.2,02.2*0F $GPGSV,3,1,12,12,76,274,43,09,50,153,42,27,43,151,36,30,39,269,42*71 $GPGSV,3,2,12,14,34,296,36,04,29,083,39,02,21,129,38,17,13,046,36*7C $GPGSV,3,3,12,19,12,078,00,32,05,353,23,29,05,213,28,20,02,016,00*7D $GPRMC,161316,A,5406.9452,N,01934.1745,E,016.5,015.5,170610,,,A*75 $GPVTG,015.5,T,,M,016.5,N,030.6,K,A*0B $GPGGA,161331,5406.9840,N,01934.2310,E,1,08,01.2,00052.4,M,034.3,M,00,0000*44 $GPGSA,A,3,12,09,02,17,27,04,14,30,,,,,02.5,01.2,02.2*0F $GPGSV,3,1,12,12,76,274,43,09,50,153,42,27,43,151,32,30,39,269,30*70 $GPGSV,3,2,12,14,34,296,31,04,29,083,35,02,21,129,39,17,13,046,36*76 $GPGSV,3,3,12,19,12,078,00,32,05,353,00,29,05,213,27,20,02,016,00*73 $GPRMC,161331,A,5406.9840,N,01934.2310,E,011.5,030.8,170610,,,A*75 $GPVTG,030.8,T,,M,011.5,N,021.4,K,A*04 $GPGGA,161346,5407.0312,N,01934.2715,E,1,08,01.2,00052.8,M,034.3,M,00,0000*4D $GPGSA,A,3,04,12,30,17,09,02,27,14,,,,,02.5,01.2,02.2*0F $GPGSV,3,1,12,12,76,274,42,09,50,153,40,27,43,151,38,30,39,269,39*70 $GPGSV,3,2,12,14,34,296,38,04,29,083,42,02,21,129,40,17,13,046,39*7E $GPGSV,3,3,12,19,12,078,00,32,05,353,00,29,05,213,00,20,02,016,00*76 $GPRMC,161346,A,5407.0312,N,01934.2715,E,013.3,017.7,170610,,,A*7E $GPVTG,017.7,T,,M,013.3,N,024.6,K,A*0D $GPGGA,161401,5407.0827,N,01934.3044,E,1,08,01.2,00045.8,M,034.3,M,00,0000*40 $GPGSA,A,3,02,12,09,27,30,04,14,17,,,,,02.5,01.2,02.2*0F $GPGSV,3,1,12,12,76,274,43,09,50,153,42,27,43,151,43,30,39,269,40*71 $GPGSV,3,2,12,14,34,296,32,04,29,083,37,02,21,129,42,17,13,046,29*75 $GPGSV,3,3,12,19,12,078,00,32,05,353,00,29,05,213,00,20,02,016,00*76 $GPRMC,161401,A,5407.0827,N,01934.3044,E,015.3,084.1,170610,,,A*7F $GPVTG,084.1,T,,M,015.3,N,028.4,K,A*09 $GPGGA,161416,5407.0654,N,01934.3700,E,1,06,03.0,00035.2,M,034.3,M,00,0000*48 $GPGSA,A,3,12,30,09,14,27,02,,,,,,,03.8,03.0,02.3*00 $GPGSV,3,1,12,12,76,274,44,09,50,153,42,27,43,151,37,30,39,269,43*76 $GPGSV,3,2,12,14,34,296,41,04,29,083,00,02,21,129,37,17,13,046,24*7A $GPGSV,3,3,12,19,12,078,00,32,05,353,00,29,05,213,33,20,02,016,00*76 $GPRMC,161416,A,5407.0654,N,01934.3700,E,008.0,123.3,170610,,,A*75 $GPVTG,123.3,T,,M,008.0,N,014.9,K,A*0A $GPGGA,161431,5407.0397,N,01934.3900,E,1,07,01.3,00038.2,M,034.3,M,00,0000*44 $GPGSA,A,3,12,30,14,09,27,02,17,,,,,,02.6,01.3,02.3*08 $GPGSV,3,1,12,12,76,274,43,09,50,153,41,27,43,151,34,30,39,269,43*71 $GPGSV,3,2,12,14,34,296,41,04,29,083,00,02,21,129,28,17,13,046,26*76 $GPGSV,3,3,12,19,12,078,00,32,05,353,00,29,05,213,44,20,02,016,00*76 $GPRMC,161431,A,5407.0397,N,01934.3900,E,009.7,147.5,170610,,,A*76 $GPVTG,147.5,T,,M,009.7,N,018.0,K,A*0D $GPGGA,161446,5407.0493,N,01934.4655,E,1,07,01.3,00033.7,M,034.3,M,00,0000*41 $GPGSA,A,3,04,12,02,27,09,30,17,,,,,,02.6,01.3,02.3*09 $GPGSV,3,1,12,12,76,274,42,09,50,153,41,27,43,151,40,30,39,269,38*7F $GPGSV,3,2,12,14,34,296,00,04,29,083,42,02,21,129,41,17,13,046,31*7C $GPGSV,3,3,12,19,12,078,00,32,05,353,24,29,05,213,00,20,02,016,00*70 $GPRMC,161446,A,5407.0493,N,01934.4655,E,008.7,074.3,170610,,,A*7B $GPVTG,074.3,T,,M,008.7,N,016.2,K,A*07 $GPGGA,161507,5407.0618,N,01934.5046,E,1,07,01.4,00042.8,M,034.3,M,00,0000*4F $GPGSA,A,3,12,09,02,27,04,30,14,,,,,,02.7,01.4,02.3*0C $GPGSV,3,1,12,12,78,275,43,09,48,153,45,27,41,151,44,30,40,269,40*7B $GPGSV,3,2,12,14,35,294,35,04,29,081,39,02,22,128,45,17,11,046,18*78 $GPGSV,3,3,12,19,13,077,00,29,06,213,00,32,05,352,00,20,02,015,00*79 $GPRMC,161507,A,5407.0618,N,01934.5046,E,000.3,213.0,170610,,,A*77 $GPVTG,213.0,T,,M,000.3,N,000.7,K,A*09 $GPGGA,161522,5407.0583,N,01934.4829,E,1,08,01.2,00029.9,M,034.3,M,00,0000*4C $GPGSA,A,3,12,09,02,27,04,30,14,17,,,,,02.5,01.2,02.2*0F $GPGSV,3,1,12,12,78,275,40,09,48,153,44,27,41,151,40,30,40,269,34*7E $GPGSV,3,2,12,14,35,294,43,04,29,081,36,02,22,128,34,19,13,077,00*77 $GPGSV,3,3,12,17,11,046,36,29,06,213,38,32,05,352,25,20,02,015,00*7E $GPRMC,161522,A,5407.0583,N,01934.4829,E,000.0,190.9,170610,,,A*73 $GPVTG,190.9,T,,M,000.0,N,000.1,K,A*0D $GPGGA,161537,5407.0572,N,01934.4811,E,1,08,01.2,00025.7,M,034.3,M,00,0000*4F $GPGSA,A,3,12,09,02,27,04,30,14,17,,,,,02.5,01.2,02.2*0F $GPGSV,3,1,12,12,78,276,40,09,48,153,43,27,41,151,42,30,40,269,35*79 $GPGSV,3,2,12,14,35,294,45,04,29,081,30,02,23,128,35,19,13,076,00*76 $GPGSV,3,3,12,17,11,046,30,29,06,213,39,32,05,352,25,20,02,015,00*79 $GPRMC,161537,A,5407.0572,N,01934.4811,E,000.0,199.4,170610,,,A*76 $GPVTG,199.4,T,,M,000.0,N,000.0,K,A*08 $GPGGA,161551,5407.0564,N,01934.4805,E,1,09,00.8,00026.8,M,034.3,M,00,0000*4B $GPGSA,A,3,12,09,02,27,04,30,14,17,29,,,,01.5,00.8,01.3*0E $GPGSV,3,1,12,12,78,276,41,09,48,153,42,27,41,151,41,30,40,269,33*7C $GPGSV,3,2,12,14,35,294,45,04,29,081,33,02,23,128,34,19,13,076,00*74 $GPGSV,3,3,12,17,11,046,30,29,06,213,37,32,05,352,23,20,02,015,00*71 $GPRMC,161551,A,5407.0564,N,01934.4805,E,000.0,087.2,170610,,,A*7C $GPVTG,087.2,T,,M,000.0,N,000.0,K,A*00 $GPGGA,161602,5407.0562,N,01934.4805,E,1,09,00.8,00026.4,M,034.3,M,00,0000*44 $GPGSA,A,3,14,12,09,27,04,29,30,17,02,,,,01.5,00.8,01.3*0E $GPGSV,3,1,12,12,78,276,40,09,48,153,39,27,41,151,38,30,40,269,33*7F $GPGSV,3,2,12,14,35,294,42,04,29,081,35,02,23,127,27,19,13,076,00*78 $GPGSV,3,3,12,17,11,046,31,29,06,213,34,32,05,352,25,20,02,015,00*75 $GPRMC,161602,A,5407.0562,N,01934.4805,E,000.2,198.6,170610,,,A*76 $GPVTG,198.6,T,,M,000.2,N,000.5,K,A*0C $GPGGA,161617,5407.0626,N,01934.4809,E,1,08,00.9,00027.7,M,034.3,M,00,0000*4D $GPGSA,A,3,14,04,12,09,27,29,30,17,,,,,01.6,00.9,01.3*0E $GPGSV,3,1,12,12,78,276,38,09,48,153,39,27,41,151,36,30,40,269,32*7F $GPGSV,3,2,12,14,35,294,41,04,29,081,41,02,23,127,22,19,13,076,00*7D $GPGSV,3,3,12,17,11,046,30,29,06,213,34,32,05,352,00,20,02,015,00*73 $GPRMC,161617,A,5407.0626,N,01934.4809,E,005.5,269.6,170610,,,A*72 $GPVTG,269.6,T,,M,005.5,N,010.2,K,A*05 $GPGGA,161632,5407.0571,N,01934.5046,E,1,07,01.4,00033.9,M,034.3,M,00,0000*41 $GPGSA,A,3,02,12,27,04,09,30,14,,,,,,02.7,01.4,02.3*0C $GPGSV,3,1,12,12,78,276,42,09,48,153,31,27,41,151,38,30,40,269,28*7F $GPGSV,3,2,12,14,35,294,32,04,29,081,31,02,23,127,42,19,13,076,00*78 $GPGSV,3,3,12,17,11,046,00,29,06,213,00,32,05,352,33,20,02,015,25*70 $GPRMC,161632,A,5407.0571,N,01934.5046,E,004.9,089.7,170610,,,A*76 $GPVTG,089.7,T,,M,004.9,N,009.1,K,A*0E $GPGGA,161647,5407.1259,N,01934.5890,E,1,09,00.8,00032.8,M,034.3,M,00,0000*4F $GPGSA,A,3,12,17,04,27,30,09,29,14,02,,,,01.5,00.8,01.3*0E $GPGSV,3,1,12,12,78,276,41,09,48,153,33,27,41,151,33,30,40,269,34*78 $GPGSV,3,2,12,14,35,294,31,04,29,081,38,02,23,127,24,19,13,076,00*72 $GPGSV,3,3,12,17,11,046,41,29,06,213,29,32,05,352,26,20,02,015,00*7D $GPRMC,161647,A,5407.1259,N,01934.5890,E,008.1,045.8,170610,,,A*70 $GPVTG,045.8,T,,M,008.1,N,015.1,K,A*08 $GPGGA,161702,5407.1303,N,01934.6108,E,1,08,01.2,00037.9,M,034.3,M,00,0000*44 $GPGSA,A,3,12,04,09,02,30,14,27,17,,,,,02.5,01.2,02.2*0F $GPGSV,3,1,12,12,78,276,43,09,48,153,41,27,41,151,29,30,40,269,40*77 $GPGSV,3,2,12,14,35,294,34,04,29,081,40,02,23,127,39,19,13,076,00*74 $GPGSV,3,3,12,17,11,046,33,29,06,213,00,32,05,352,00,20,02,015,00*77 $GPRMC,161702,A,5407.1303,N,01934.6108,E,002.5,068.5,170610,,,A*79 $GPVTG,068.5,T,,M,002.5,N,004.7,K,A*02 $GPGGA,161717,5407.1398,N,01934.6468,E,1,07,01.4,00040.5,M,034.3,M,00,0000*44 $GPGSA,A,3,02,12,27,09,30,14,04,,,,,,02.8,01.4,02.3*03 $GPGSV,3,1,12,12,78,276,42,09,48,153,40,27,41,151,40,30,40,269,41*79 $GPGSV,3,2,12,14,35,294,36,04,29,081,36,02,23,127,42,19,13,076,00*7B $GPGSV,3,3,12,17,11,046,00,29,06,213,00,32,05,352,30,20,02,015,00*74 $GPRMC,161717,A,5407.1398,N,01934.6468,E,002.8,033.9,170610,,,A*73 $GPVTG,033.9,T,,M,002.8,N,005.3,K,A*08 $GPGGA,161732,5407.1399,N,01934.6568,E,1,07,01.4,00042.7,M,034.3,M,00,0000*43 $GPGSA,A,3,12,27,30,14,09,04,02,,,,,,02.8,01.4,02.4*04 $GPGSV,3,1,12,12,78,276,36,09,48,153,29,27,41,151,34,30,40,269,33*73 $GPGSV,3,2,12,14,35,294,30,04,29,081,29,02,23,127,31,19,13,076,00*77 $GPGSV,3,3,12,17,11,046,00,29,06,213,00,32,05,352,00,20,02,015,00*77 $GPRMC,161732,A,5407.1399,N,01934.6568,E,000.6,220.1,170610,,,A*70 $GPVTG,220.1,T,,M,000.6,N,001.2,K,A*09 $GPGGA,161752,5407.1357,N,01934.6469,E,1,07,01.3,00034.7,M,034.3,M,00,0000*41 $GPGSA,A,3,12,27,30,04,02,09,17,,,,,,02.7,01.3,02.3*08 $GPGSV,3,1,12,12,79,277,33,09,47,153,33,30,41,270,33,27,40,152,31*7C $GPGSV,3,2,12,14,35,293,00,04,29,080,28,02,23,127,21,17,10,046,31*7E $GPGSV,3,3,12,29,07,213,00,19,14,076,00,32,05,351,26,20,03,014,00*79 $GPRMC,161752,A,5407.1357,N,01934.6469,E,001.2,230.9,170610,,,A*78 $GPVTG,230.9,T,,M,001.2,N,002.3,K,A*07 $GPGGA,161803,5407.1432,N,01934.6289,E,1,07,01.4,00032.1,M,034.3,M,00,0000*41 $GPGSA,A,3,02,09,30,27,12,04,14,,,,,,02.8,01.4,02.4*04 $GPGSV,3,1,12,12,79,277,26,09,47,153,33,30,41,270,34,27,40,152,30*7E $GPGSV,3,2,12,14,35,293,29,04,29,080,30,02,23,127,26,19,14,076,00*70 $GPGSV,3,3,12,17,10,046,00,29,07,213,00,32,05,351,00,20,03,014,00*74 $GPRMC,161803,A,5407.1432,N,01934.6289,E,002.6,274.8,170610,,,A*79 $GPVTG,274.8,T,,M,002.6,N,004.8,K,A*0C $GPGGA,161818,5407.1309,N,01934.5837,E,1,06,01.5,00019.8,M,034.3,M,00,0000*48 $GPGSA,A,3,12,09,14,30,04,02,,,,,,,02.9,01.5,02.4*01 $GPGSV,3,1,12,12,79,277,29,09,47,153,29,30,41,270,31,27,40,152,00*7C $GPGSV,3,2,12,14,35,293,30,04,29,080,25,02,23,127,27,19,14,076,00*7D $GPGSV,3,3,12,17,10,046,00,29,07,213,00,32,05,351,00,20,03,014,00*74 $GPRMC,161818,A,5407.1309,N,01934.5837,E,002.9,253.3,170610,,,A*71 $GPVTG,253.3,T,,M,002.9,N,005.3,K,A*07 $GPGGA,161837,5407.1573,N,01934.5755,E,1,07,01.4,00030.1,M,034.3,M,00,0000*47 $GPGSA,A,3,30,12,09,14,27,04,02,,,,,,02.8,01.4,02.4*04 $GPGSV,3,1,12,12,79,278,32,09,46,153,29,30,41,270,32,27,40,152,25*7C $GPGSV,3,2,12,14,35,293,28,04,30,080,26,02,24,127,23,17,10,046,00*75 $GPGSV,3,3,12,29,07,213,00,19,14,075,00,32,05,351,00,20,03,014,00*7E $GPRMC,161837,A,5407.1573,N,01934.5755,E,004.3,020.6,170610,,,A*73 $GPVTG,020.6,T,,M,004.3,N,008.0,K,A*06 $GPGGA,161852,5407.1833,N,01934.5984,E,1,09,00.8,00030.6,M,034.3,M,00,0000*4B $GPGSA,A,3,30,12,09,14,27,04,02,29,17,,,,01.6,00.8,01.3*0D $GPGSV,3,1,12,12,80,278,32,09,46,153,25,30,42,270,29,27,40,152,24*7E $GPGSV,3,2,12,14,35,292,25,04,30,080,28,02,24,127,23,19,14,075,00*7D $GPGSV,3,3,12,17,10,046,20,29,07,213,19,32,05,351,00,20,03,014,00*7E $GPRMC,161852,A,5407.1833,N,01934.5984,E,004.0,044.1,170610,,,A*7D $GPVTG,044.1,T,,M,004.0,N,007.4,K,A*0B $GPGGA,161907,5407.2020,N,01934.6162,E,1,09,00.8,00035.3,M,034.3,M,00,0000*40 $GPGSA,A,3,30,12,09,14,27,04,02,29,17,,,,01.6,00.8,01.3*0D $GPGSV,3,1,12,12,80,278,32,09,46,153,27,30,42,270,31,27,40,152,25*74 $GPGSV,3,2,12,14,35,292,28,04,30,080,27,02,24,127,24,19,14,075,00*78 $GPGSV,3,3,12,17,10,046,22,29,07,213,20,32,05,351,00,20,03,014,00*76 $GPRMC,161907,A,5407.2020,N,01934.6162,E,002.8,048.2,170610,,,A*77 $GPVTG,048.2,T,,M,002.8,N,005.3,K,A*0F $GPGGA,161922,5407.2230,N,01934.6261,E,1,09,00.8,00032.9,M,034.3,M,00,0000*49 $GPGSA,A,3,30,12,09,14,27,04,02,29,17,,,,01.6,00.8,01.3*0D $GPGSV,3,1,12,12,80,278,27,09,46,153,29,30,42,270,31,27,40,152,27*7C $GPGSV,3,2,12,14,35,292,29,04,30,080,33,02,24,127,26,19,14,075,00*7E $GPGSV,3,3,12,17,10,046,26,29,07,213,20,32,05,351,00,20,03,014,00*72 $GPRMC,161922,A,5407.2230,N,01934.6261,E,001.6,359.3,170610,,,A*7C $GPVTG,359.3,T,,M,001.6,N,002.9,K,A*0D $GPGGA,161936,5407.2356,N,01934.6342,E,1,09,00.8,00032.6,M,034.3,M,00,0000*42 $GPGSA,A,3,30,12,09,14,27,04,02,29,17,,,,01.6,00.8,01.3*0D $GPGSV,3,1,12,12,80,278,32,09,46,153,29,30,42,270,33,27,40,152,27*7A $GPGSV,3,2,12,14,35,292,36,04,30,080,37,02,24,127,32,19,14,075,00*71 $GPGSV,3,3,12,17,10,046,39,29,07,213,19,32,05,351,00,20,03,014,00*76 $GPRMC,161936,A,5407.2356,N,01934.6342,E,001.5,027.5,170610,,,A*77 $GPVTG,027.5,T,,M,001.5,N,002.7,K,A*0C $GPGGA,161953,5407.2379,N,01934.6365,E,1,07,01.1,00033.6,M,034.3,M,00,0000*4E $GPGSA,A,3,30,27,09,14,04,02,29,,,,,,02.4,01.1,02.1*00 $GPGSV,3,1,12,12,80,279,00,09,46,153,32,30,42,270,37,27,39,152,37*7B $GPGSV,3,2,12,14,35,292,33,04,30,079,25,02,24,126,32,17,10,046,00*7A $GPGSV,3,3,12,29,08,213,27,19,14,075,00,32,05,350,00,20,03,013,00*72 $GPRMC,161953,A,5407.2379,N,01934.6365,E,000.7,166.2,170610,,,A*7C $GPVTG,166.2,T,,M,000.7,N,001.4,K,A*0C $GPGGA,162002,5407.2366,N,01934.6309,E,1,09,00.8,00039.4,M,034.3,M,00,0000*4A $GPGSA,A,3,30,27,09,14,04,02,29,12,17,,,,01.6,00.8,01.3*0D $GPGSV,3,1,12,12,80,279,30,09,46,153,32,30,42,270,36,27,39,152,32*7C $GPGSV,3,2,12,14,35,292,32,04,30,079,29,02,24,126,30,17,10,046,27*70 $GPGSV,3,3,12,29,08,213,18,19,14,075,00,32,05,350,00,20,03,013,00*7E $GPRMC,162002,A,5407.2366,N,01934.6309,E,001.8,266.9,170610,,,A*70 $GPVTG,266.9,T,,M,001.8,N,003.3,K,A*0F $GPGGA,162022,5407.2289,N,01934.6314,E,1,09,00.8,00044.6,M,034.3,M,00,0000*4C $GPGSA,A,3,17,09,27,04,12,02,30,14,29,,,,01.6,00.8,01.3*0D $GPGSV,3,1,12,12,80,279,27,09,45,153,34,30,42,270,33,27,39,152,32*7A $GPGSV,3,2,12,14,35,292,28,04,30,079,29,02,24,126,31,17,09,046,23*76 $GPGSV,3,3,12,29,08,213,21,19,14,075,00,32,05,350,00,20,03,013,00*74 $GPRMC,162022,A,5407.2289,N,01934.6314,E,002.3,173.4,170610,,,A*7C $GPVTG,173.4,T,,M,002.3,N,004.4,K,A*0D $GPGGA,162032,5407.2242,N,01934.6287,E,1,09,00.8,00042.5,M,034.3,M,00,0000*44 $GPGSA,A,3,17,09,27,04,12,02,30,14,29,,,,01.6,00.8,01.3*0D $GPGSV,3,1,12,12,80,279,27,09,45,153,34,30,42,270,32,27,39,152,29*71 $GPGSV,3,2,12,14,35,292,27,04,30,079,31,02,24,126,31,17,09,046,24*77 $GPGSV,3,3,12,29,08,213,22,19,14,075,00,32,05,350,00,20,03,013,00*77 $GPRMC,162032,A,5407.2242,N,01934.6287,E,001.0,183.6,170610,,,A*7C $GPVTG,183.6,T,,M,001.0,N,001.8,K,A*09 $GPGGA,162053,5407.2035,N,01934.6164,E,1,05,02.9,00043.8,M,034.3,M,00,0000*4C $GPGSA,A,3,29,09,27,02,12,,,,,,,,04.0,02.9,02.8*01 $GPGSV,3,1,12,12,80,280,29,09,45,153,29,30,42,271,00,27,39,152,26*7A $GPGSV,3,2,12,14,35,291,00,04,30,079,00,02,24,126,24,17,09,046,00*71 $GPGSV,3,3,12,29,08,213,33,19,14,074,00,32,05,350,00,20,03,013,00*76 $GPRMC,162053,A,5407.2035,N,01934.6164,E,003.6,222.6,170610,,,A*7B $GPVTG,222.6,T,,M,003.6,N,006.7,K,A*0D $GPGGA,162107,5407.1767,N,01934.5937,E,1,08,01.1,00040.1,M,034.3,M,00,0000*4E $GPGSA,A,3,29,09,27,02,12,30,04,14,,,,,02.0,01.1,01.7*02 $GPGSV,3,1,12,12,80,280,30,09,45,153,31,30,42,271,29,27,39,152,25*73 $GPGSV,3,2,12,14,35,291,27,04,30,079,24,02,24,126,23,17,09,046,00*75 $GPGSV,3,3,12,29,08,213,23,19,14,074,00,32,05,350,00,20,03,013,00*77 $GPRMC,162107,A,5407.1767,N,01934.5937,E,002.9,194.8,170610,,,A*7B $GPVTG,194.8,T,,M,002.9,N,005.5,K,A*02 $GPGGA,162122,5407.1599,N,01934.5886,E,1,09,00.8,00040.8,M,034.3,M,00,0000*41 $GPGSA,A,3,29,09,27,02,12,30,04,14,17,,,,01.6,00.8,01.3*0D $GPGSV,3,1,12,12,80,280,30,09,45,153,31,30,42,271,30,27,39,152,31*7E $GPGSV,3,2,12,14,35,291,26,04,30,079,24,02,24,126,24,17,09,046,16*74 $GPGSV,3,3,12,29,08,213,23,19,14,074,00,32,05,350,14,20,03,013,00*72 $GPRMC,162122,A,5407.1599,N,01934.5886,E,003.0,159.0,170610,,,A*75 $GPVTG,159.0,T,,M,003.0,N,005.5,K,A*03 $GPGGA,162138,5407.1411,N,01934.5964,E,1,05,04.1,00038.5,M,034.3,M,00,0000*45 $GPGSA,A,3,27,09,30,14,29,,,,,,,,06.7,04.1,05.3*01 $GPGSV,3,1,12,12,81,281,00,09,45,153,35,30,43,271,31,27,38,152,32*7B $GPGSV,3,2,12,14,35,291,22,04,30,078,00,02,25,126,00,17,09,046,00*77 $GPGSV,3,3,12,29,08,214,24,19,14,074,00,32,05,350,00,20,03,013,00*77 $GPRMC,162138,A,5407.1411,N,01934.5964,E,002.2,189.8,170610,,,A*74 $GPVTG,189.8,T,,M,002.2,N,004.1,K,A*00 $GPGGA,162150,5407.1198,N,01934.5808,E,1,09,00.8,00032.5,M,034.3,M,00,0000*4F $GPGSA,A,3,27,09,30,14,29,04,02,12,17,,,,01.6,00.8,01.3*0D $GPGSV,3,1,12,12,81,281,30,09,45,153,28,30,43,271,35,27,38,152,26*75 $GPGSV,3,2,12,14,35,291,30,04,30,078,28,02,25,126,21,19,14,074,00*7E $GPGSV,3,3,12,17,09,046,26,29,09,214,36,32,05,350,21,20,03,013,00*71 $GPRMC,162150,A,5407.1198,N,01934.5808,E,002.6,206.2,170610,,,A*7F $GPVTG,206.2,T,,M,002.6,N,004.9,K,A*02 $GPGGA,162207,5407.1044,N,01934.5667,E,1,09,00.8,00032.1,M,034.3,M,00,0000*4D $GPGSA,A,3,12,30,29,14,09,27,04,02,17,,,,01.6,00.8,01.3*0D $GPGSV,3,1,12,12,81,281,31,09,45,153,27,30,43,271,33,27,38,152,28*73 $GPGSV,3,2,12,14,35,291,31,04,30,078,23,02,25,126,22,17,09,046,18*7D $GPGSV,3,3,12,29,09,214,34,19,14,074,00,32,05,349,23,20,03,013,00*7E $GPRMC,162207,A,5407.1044,N,01934.5667,E,001.9,206.6,170610,,,A*71 $GPVTG,206.6,T,,M,001.9,N,003.6,K,A*02 $GPGGA,162216,5407.0982,N,01934.5559,E,1,09,00.8,00034.6,M,034.3,M,00,0000*40 $GPGSA,A,3,12,30,29,14,09,27,04,02,17,,,,01.6,00.8,01.3*0D $GPGSV,3,1,12,12,81,281,30,09,45,153,25,30,43,271,35,27,38,152,19*74 $GPGSV,3,2,12,14,35,291,34,04,30,078,21,02,25,126,21,17,09,046,16*77 $GPGSV,3,3,12,29,09,214,30,19,14,074,00,32,05,349,21,20,03,013,00*78 $GPRMC,162216,A,5407.0982,N,01934.5559,E,001.1,237.3,170610,,,A*72 $GPVTG,237.3,T,,M,001.1,N,002.1,K,A*0B $GPGGA,162237,5407.1128,N,01934.5727,E,1,09,00.8,00031.0,M,034.3,M,00,0000*42 $GPGSA,A,3,30,14,12,04,09,27,17,29,02,,,,01.6,00.8,01.3*0D $GPGSV,3,1,12,12,81,281,32,09,44,153,26,30,43,271,32,27,38,152,23*7A $GPGSV,3,2,12,14,35,290,30,04,30,078,26,02,25,126,20,29,09,214,23*7A $GPGSV,3,3,12,17,08,046,30,19,15,074,00,32,05,349,22,20,03,012,00*72 $GPRMC,162237,A,5407.1128,N,01934.5727,E,002.1,046.7,170610,,,A*70 $GPVTG,046.7,T,,M,002.1,N,004.0,K,A*0F $GPGGA,162248,5407.1202,N,01934.5847,E,1,05,04.0,00028.7,M,034.3,M,00,0000*47 $GPGSA,A,3,17,30,14,12,04,,,,,,,,05.5,04.0,03.7*05 $GPGSV,3,1,12,12,81,281,28,09,44,153,00,30,43,271,32,27,38,152,00*74 $GPGSV,3,2,12,14,35,290,29,04,30,078,32,02,25,126,00,19,15,074,00*7E $GPGSV,3,3,12,29,09,214,00,17,08,046,41,32,05,349,00,20,03,012,00*7E $GPRMC,162248,A,5407.1202,N,01934.5847,E,005.1,050.6,170610,,,A*7B $GPVTG,050.6,T,,M,005.1,N,009.4,K,A*07 $GPGGA,162303,5407.1260,N,01934.6015,E,1,06,01.4,00028.4,M,034.3,M,00,0000*40 $GPGSA,A,3,04,30,17,14,12,02,,,,,,,02.6,01.4,02.2*06 $GPGSV,3,1,12,12,81,281,27,09,44,153,00,30,43,271,32,27,38,152,00*7B $GPGSV,3,2,12,14,35,290,31,04,30,078,38,02,25,126,22,19,15,074,00*7D $GPGSV,3,3,12,29,09,214,00,17,08,046,31,32,05,349,00,20,03,012,00*79 $GPRMC,162303,A,5407.1260,N,01934.6015,E,003.0,071.3,170610,,,A*7C $GPVTG,071.3,T,,M,003.0,N,005.5,K,A*0B $GPGGA,162322,5407.1347,N,01934.6320,E,1,08,01.2,00033.6,M,034.3,M,00,0000*42 $GPGSA,A,3,04,02,30,09,27,14,12,17,,,,,02.4,01.2,02.1*0D $GPGSV,3,1,12,12,82,282,31,09,44,154,35,30,43,271,33,27,38,152,32*7D $GPGSV,3,2,12,14,35,290,33,04,30,077,38,02,25,125,31,29,09,214,00*7B $GPGSV,3,3,12,17,08,046,31,19,15,073,00,32,05,349,00,20,03,012,00*74 $GPRMC,162322,A,5407.1347,N,01934.6320,E,002.7,084.9,170610,,,A*78 $GPVTG,084.9,T,,M,002.7,N,005.0,K,A*08 $GPGGA,162333,5407.1337,N,01934.6440,E,1,08,01.1,00035.0,M,034.3,M,00,0000*47 $GPGSA,A,3,14,04,12,02,30,09,27,17,,,,,02.4,01.1,02.1*0E $GPGSV,3,1,12,12,82,282,29,09,44,154,33,30,43,271,27,27,38,152,30*75 $GPGSV,3,2,12,14,35,290,33,04,30,077,33,02,25,125,29,19,15,073,00*74 $GPGSV,3,3,12,29,09,214,00,17,08,046,31,32,05,349,00,20,03,012,00*79 $GPRMC,162333,A,5407.1337,N,01934.6440,E,002.2,126.0,170610,,,A*7B $GPVTG,126.0,T,,M,002.2,N,004.2,K,A*0E $GPGGA,162348,5407.1349,N,01934.6435,E,1,07,01.3,00042.6,M,034.3,M,00,0000*4B $GPGSA,A,3,27,02,09,12,30,04,14,,,,,,02.8,01.3,02.5*02 $GPGSV,3,1,12,12,82,282,39,09,44,154,40,30,43,271,40,27,38,152,41*77 $GPGSV,3,2,12,14,35,290,36,04,30,077,37,02,25,125,41,19,15,073,00*7B $GPGSV,3,3,12,29,09,214,00,17,08,046,00,32,05,349,24,20,03,012,00*7D $GPRMC,162348,A,5407.1349,N,01934.6435,E,002.1,259.0,170610,,,A*74 $GPVTG,259.0,T,,M,002.1,N,003.9,K,A*0A $GPGGA,162403,5407.1313,N,01934.6345,E,1,07,01.3,00048.5,M,034.3,M,00,0000*45 $GPGSA,A,3,02,27,30,12,09,14,17,,,,,,02.7,01.3,02.3*09 $GPGSV,3,1,12,12,82,282,41,09,44,154,39,30,43,271,41,27,38,152,41*77 $GPGSV,3,2,12,14,35,290,38,04,30,077,00,02,25,125,42,19,15,073,00*72 $GPGSV,3,3,12,29,09,214,00,17,08,046,33,32,05,349,26,20,03,012,00*7F $GPRMC,162403,A,5407.1313,N,01934.6345,E,000.5,257.7,170610,,,A*7C $GPVTG,257.7,T,,M,000.5,N,001.0,K,A*0E $GPGGA,162418,5407.1298,N,01934.6315,E,1,07,01.3,00053.4,M,034.3,M,00,0000*43 $GPGSA,A,3,02,27,30,12,09,14,17,,,,,,02.7,01.3,02.3*09 $GPGSV,3,1,12,12,82,282,40,09,44,154,38,30,43,271,41,27,38,152,41*77 $GPGSV,3,2,12,14,35,290,38,04,30,077,00,02,25,125,42,19,15,073,00*72 $GPGSV,3,3,12,29,09,214,00,17,08,046,33,32,05,349,26,20,03,012,00*7F $GPRMC,162418,A,5407.1298,N,01934.6315,E,000.5,334.8,170610,,,A*7A $GPVTG,334.8,T,,M,000.5,N,001.0,K,A*05 $GPGGA,162433,5407.1330,N,01934.6316,E,1,07,01.3,00057.0,M,034.3,M,00,0000*4A $GPGSA,A,3,02,27,12,30,09,14,17,,,,,,02.7,01.3,02.3*09 $GPGSV,3,1,12,12,82,282,41,09,44,154,38,30,43,271,41,27,38,152,41*76 $GPGSV,3,2,12,14,35,290,38,04,30,077,00,02,25,125,42,19,15,073,00*72 $GPGSV,3,3,12,29,09,214,00,17,08,046,30,32,05,349,00,20,03,012,00*78 $GPRMC,162433,A,5407.1330,N,01934.6316,E,000.6,330.5,170610,,,A*79 $GPVTG,330.5,T,,M,000.6,N,001.1,K,A*0E $GPGGA,162448,5407.1568,N,01934.6186,E,1,09,00.8,00068.0,M,034.3,M,00,0000*4E $GPGSA,A,3,12,09,14,27,04,17,30,02,29,,,,01.6,00.8,01.3*0D $GPGSV,3,1,12,12,82,284,42,30,44,271,35,09,43,154,41,27,37,152,38*7F $GPGSV,3,2,12,14,35,289,38,04,30,077,37,02,26,125,36,19,15,073,00*7E $GPGSV,3,3,12,29,10,214,32,17,08,047,37,32,05,348,27,20,03,012,29*78 $GPRMC,162448,A,5407.1568,N,01934.6186,E,010.8,324.7,170610,,,A*7D $GPVTG,324.7,T,,M,010.8,N,020.0,K,A*04 $GPGGA,162508,5407.2163,N,01934.6294,E,1,08,01.1,00073.6,M,034.3,M,00,0000*42 $GPGSA,A,3,04,02,14,17,12,30,09,27,,,,,02.4,01.1,02.1*0E $GPGSV,3,1,12,12,82,285,39,30,44,271,39,09,43,154,36,27,37,152,29*7E $GPGSV,3,2,12,14,35,289,39,04,30,076,42,02,26,125,40,29,10,214,00*78 $GPGSV,3,3,12,17,07,047,39,19,15,073,00,32,05,348,00,20,03,011,00*70 $GPRMC,162508,A,5407.2163,N,01934.6294,E,009.7,003.1,170610,,,A*73 $GPVTG,003.1,T,,M,009.7,N,018.0,K,A*08 $GPGGA,162522,5407.2466,N,01934.6425,E,1,09,00.8,00044.4,M,034.3,M,00,0000*49 $GPGSA,A,3,04,02,14,17,12,30,09,27,29,,,,01.6,00.8,01.3*0D $GPGSV,3,1,12,12,82,285,44,30,44,271,40,09,43,154,37,27,37,152,34*77 $GPGSV,3,2,12,14,35,289,37,04,30,076,41,02,26,125,37,29,10,214,21*76 $GPGSV,3,3,12,17,07,047,40,19,15,073,00,32,05,348,00,20,03,011,28*74 $GPRMC,162522,A,5407.2466,N,01934.6425,E,004.8,009.9,170610,,,A*77 $GPVTG,009.9,T,,M,004.8,N,009.0,K,A*08 $GPGGA,162537,5407.2881,N,01934.6625,E,1,09,00.8,00042.0,M,034.3,M,00,0000*48 $GPGSA,A,3,04,02,14,17,12,30,09,27,29,,,,01.6,00.8,01.3*0D $GPGSV,3,1,12,12,83,285,45,30,44,272,43,09,43,154,35,27,36,153,38*79 $GPGSV,3,2,12,14,35,289,37,04,30,076,40,02,26,125,43,19,15,073,00*72 $GPGSV,3,3,12,29,10,214,30,17,07,047,40,32,05,348,00,20,03,011,00*78 $GPRMC,162537,A,5407.2881,N,01934.6625,E,007.1,031.6,170610,,,A*7A $GPVTG,031.6,T,,M,007.1,N,013.3,K,A*0E $GPGGA,162547,5407.3033,N,01934.6659,E,1,09,00.8,00041.5,M,034.3,M,00,0000*42 $GPGSA,A,3,04,02,14,17,12,30,09,27,29,,,,01.6,00.8,01.3*0D $GPGSV,3,1,12,12,83,285,42,30,44,272,42,09,43,154,36,27,36,153,28*7D $GPGSV,3,2,12,14,35,289,35,04,30,076,36,02,26,125,38,19,15,073,00*7D $GPGSV,3,3,12,29,10,214,24,17,07,047,29,32,05,348,00,20,03,011,00*72 $GPRMC,162547,A,5407.3033,N,01934.6659,E,008.0,002.0,170610,,,A*7E $GPVTG,002.0,T,,M,008.0,N,014.9,K,A*0B $GPGGA,162602,5407.3445,N,01934.6790,E,1,08,01.1,00047.0,M,034.3,M,00,0000*4B $GPGSA,A,3,12,30,14,27,09,17,02,04,,,,,02.4,01.1,02.1*0E $GPGSV,3,1,12,12,83,285,41,30,44,272,41,09,43,154,36,27,36,153,36*72 $GPGSV,3,2,12,14,35,289,40,04,30,076,29,02,26,125,35,19,15,073,00*7C $GPGSV,3,3,12,29,10,214,00,17,07,047,36,32,05,348,00,20,03,011,00*7A $GPRMC,162602,A,5407.3445,N,01934.6790,E,008.3,008.5,170610,,,A*71 $GPVTG,008.5,T,,M,008.3,N,015.3,K,A*0C $GPGGA,162617,5407.3578,N,01934.6807,E,1,08,01.1,00049.2,M,034.3,M,00,0000*4D $GPGSA,A,3,09,27,30,04,12,14,17,02,,,,,02.4,01.1,02.1*0E $GPGSV,3,1,12,12,83,285,38,30,44,272,42,09,43,154,43,27,36,153,43*7F $GPGSV,3,2,12,14,35,289,36,04,30,076,41,02,26,125,31,19,15,073,00*77 $GPGSV,3,3,12,29,10,214,00,17,07,047,28,32,05,348,00,20,03,011,00*75 $GPRMC,162617,A,5407.3578,N,01934.6807,E,002.1,308.9,170610,,,A*7C $GPVTG,308.9,T,,M,002.1,N,004.0,K,A*08 $GPGGA,162637,5407.3506,N,01934.6588,E,1,09,00.8,00047.0,M,034.3,M,00,0000*49 $GPGSA,A,3,30,09,14,27,12,04,02,29,17,,,,01.6,00.8,01.3*0D $GPGSV,3,1,12,12,83,286,37,30,45,272,44,09,42,154,40,27,36,153,37*75 $GPGSV,3,2,12,14,35,288,41,04,30,076,27,02,26,124,35,29,10,214,33*76 $GPGSV,3,3,12,17,07,047,22,19,15,072,00,32,05,348,24,20,03,011,00*7D $GPRMC,162637,A,5407.3506,N,01934.6588,E,003.2,318.8,170610,,,A*7F $GPVTG,318.8,T,,M,003.2,N,005.9,K,A*02 $GPGGA,162645,5407.3550,N,01934.6481,E,1,08,01.1,00047.5,M,034.3,M,00,0000*4B $GPGSA,A,3,30,14,12,27,02,29,04,09,,,,,02.1,01.1,01.8*0C $GPGSV,3,1,12,12,83,286,35,30,45,272,41,09,42,154,34,27,36,153,36*70 $GPGSV,3,2,12,14,35,288,39,04,30,076,27,02,26,124,27,19,15,072,00*7E $GPGSV,3,3,12,29,10,214,34,17,07,047,00,32,05,348,00,20,03,011,00*78 $GPRMC,162645,A,5407.3550,N,01934.6481,E,004.0,306.5,170610,,,A*76 $GPVTG,306.5,T,,M,004.0,N,007.4,K,A*0A $GPGGA,162700,5407.3603,N,01934.6378,E,1,07,01.1,00046.7,M,034.3,M,00,0000*43 $GPGSA,A,3,30,04,12,14,27,09,29,,,,,,02.2,01.1,01.8*0D $GPGSV,3,1,12,12,83,286,36,30,45,272,41,09,42,154,25,27,36,153,23*77 $GPGSV,3,2,12,14,35,288,36,04,30,076,29,02,26,124,00,19,15,072,00*7A $GPGSV,3,3,12,29,10,214,23,17,07,047,00,32,05,348,00,20,03,011,00*7E $GPRMC,162700,A,5407.3603,N,01934.6378,E,002.0,341.1,170610,,,A*73 $GPVTG,341.1,T,,M,002.0,N,003.7,K,A*0C $GPGGA,162722,5407.3598,N,01934.6442,E,1,06,01.5,00040.1,M,034.3,M,00,0000*49 $GPGSA,A,3,04,27,12,02,09,30,,,,,,,03.5,01.5,03.1*08 $GPGSV,3,1,12,12,83,288,34,30,45,272,29,09,42,154,36,27,36,153,39*7C $GPGSV,3,2,12,14,35,288,00,04,30,075,36,02,27,124,33,29,11,214,00*76 $GPGSV,3,3,12,17,07,047,00,19,16,072,00,32,05,347,00,20,03,011,00*77 $GPRMC,162722,A,5407.3598,N,01934.6442,E,003.6,184.0,170610,,,A*71 $GPVTG,184.0,T,,M,003.6,N,006.7,K,A*04 $GPGGA,162733,5407.3529,N,01934.6364,E,1,09,00.8,00038.7,M,034.3,M,00,0000*4A $GPGSA,A,3,04,27,12,02,09,30,14,17,29,,,,01.6,00.8,01.3*0D $GPGSV,3,1,12,12,83,288,33,30,45,272,37,09,42,154,38,27,36,153,40*74 $GPGSV,3,2,12,14,35,288,33,04,30,075,34,02,27,124,35,29,11,214,23*73 $GPGSV,3,3,12,17,07,047,19,19,16,072,00,32,05,347,00,20,03,011,00*7F $GPRMC,162733,A,5407.3529,N,01934.6364,E,001.3,191.5,170610,,,A*7E $GPVTG,191.5,T,,M,001.3,N,002.5,K,A*04 $GPGGA,162748,5407.3510,N,01934.6392,E,1,07,01.3,00045.7,M,034.3,M,00,0000*4B $GPGSA,A,3,30,14,12,09,27,02,04,,,,,,02.8,01.3,02.5*02 $GPGSV,3,1,12,12,83,288,29,30,45,272,36,09,42,154,32,27,36,153,29*7B $GPGSV,3,2,12,14,35,288,33,04,30,075,28,02,27,124,28,19,16,072,00*75 $GPGSV,3,3,12,29,11,214,00,17,07,047,00,32,05,347,00,20,03,011,00*71 $GPRMC,162748,A,5407.3510,N,01934.6392,E,000.8,107.3,170610,,,A*72 $GPVTG,107.3,T,,M,000.8,N,001.5,K,A*04 $GPGGA,162807,5407.3606,N,01934.6416,E,1,09,00.8,00053.2,M,034.3,M,00,0000*46 $GPGSA,A,3,30,14,04,12,09,02,17,27,29,,,,01.6,00.8,01.3*0D $GPGSV,3,1,12,12,84,289,28,30,46,272,31,09,42,154,25,27,35,153,21*75 $GPGSV,3,2,12,14,35,287,30,04,30,075,34,02,27,124,31,29,11,214,18*73 $GPGSV,3,3,12,17,06,047,22,19,16,072,00,32,05,347,22,20,03,010,00*77 $GPRMC,162807,A,5407.3606,N,01934.6416,E,002.5,040.2,170610,,,A*75 $GPVTG,040.2,T,,M,002.5,N,004.6,K,A*0E $GPGGA,162822,5407.3703,N,01934.6400,E,1,09,00.8,00048.2,M,034.3,M,00,0000*48 $GPGSA,A,3,30,14,04,12,09,02,17,27,29,,,,01.6,00.8,01.3*0D $GPGSV,3,1,12,12,84,289,28,30,46,272,32,09,42,154,27,27,35,153,22*77 $GPGSV,3,2,12,14,35,287,34,04,30,075,26,02,27,124,24,29,11,214,24*7F $GPGSV,3,3,12,17,06,047,18,19,16,072,00,32,05,347,17,20,03,010,00*78 $GPRMC,162822,A,5407.3703,N,01934.6400,E,002.4,333.0,170610,,,A*75 $GPVTG,333.0,T,,M,002.4,N,004.5,K,A*09 $GPGGA,162837,5407.3812,N,01934.6190,E,1,09,00.8,00049.7,M,034.3,M,00,0000*4B $GPGSA,A,3,30,14,04,12,09,02,17,27,29,,,,01.6,00.8,01.3*0D $GPGSV,3,1,12,12,84,290,36,30,46,272,43,09,41,154,40,27,35,153,38*7F $GPGSV,3,2,12,14,35,287,40,04,30,075,31,02,27,124,37,19,16,071,00*7B $GPGSV,3,3,12,29,11,214,26,17,06,047,18,32,05,347,19,31,03,312,00*75 $GPRMC,162837,A,5407.3812,N,01934.6190,E,005.6,306.5,170610,,,A*74 $GPVTG,306.5,T,,M,005.6,N,010.4,K,A*0B $GPGGA,162846,5407.3865,N,01934.6013,E,1,08,01.1,00049.0,M,034.3,M,00,0000*49 $GPGSA,A,3,09,12,30,14,02,27,04,29,,,,,02.1,01.1,01.8*0C $GPGSV,3,1,12,12,84,290,38,30,46,272,40,09,41,154,40,27,35,153,37*7D $GPGSV,3,2,12,14,35,287,38,04,30,075,30,02,27,124,37,19,16,071,00*75 $GPGSV,3,3,12,29,11,214,28,17,06,047,00,32,05,347,00,31,03,312,00*7A $GPRMC,162846,A,5407.3865,N,01934.6013,E,004.3,295.5,170610,,,A*77 $GPVTG,295.5,T,,M,004.3,N,007.9,K,A*0F $GPGGA,162901,5407.3873,N,01934.5961,E,1,07,01.3,00057.1,M,034.3,M,00,0000*40 $GPGSA,A,3,04,02,30,12,14,09,27,,,,,,02.8,01.3,02.5*02 $GPGSV,3,1,12,12,84,290,30,30,46,272,33,09,41,154,37,27,35,153,33*75 $GPGSV,3,2,12,14,35,287,34,04,30,075,39,02,27,124,39,19,16,071,00*7E $GPGSV,3,3,12,29,11,214,00,17,06,047,00,32,05,347,00,31,03,312,00*70 $GPRMC,162901,A,5407.3873,N,01934.5961,E,002.7,168.1,170610,,,A*7A $GPVTG,168.1,T,,M,002.7,N,005.0,K,A*03 $GPGGA,162916,5407.3693,N,01934.6416,E,1,06,01.5,00073.8,M,034.3,M,00,0000*40 $GPGSA,A,3,09,02,27,04,12,30,,,,,,,03.5,01.5,03.2*0B $GPGSV,3,1,12,12,84,290,31,30,46,272,30,09,41,154,40,27,35,153,36*72 $GPGSV,3,2,12,14,35,287,00,04,30,075,38,02,27,124,39,19,16,071,00*78 $GPGSV,3,3,12,29,11,214,00,17,06,047,00,32,05,347,00,31,03,312,00*70 $GPRMC,162916,A,5407.3693,N,01934.6416,E,007.8,153.1,170610,,,A*70 $GPVTG,153.1,T,,M,007.8,N,014.5,K,A*04 $GPGGA,162931,5407.3468,N,01934.6745,E,1,07,01.3,00080.1,M,034.3,M,00,0000*44 $GPGSA,A,3,04,02,27,09,30,17,12,,,,,,02.6,01.3,02.2*08 $GPGSV,3,1,12,12,84,290,31,30,46,272,33,09,41,154,37,27,35,153,37*70 $GPGSV,3,2,12,14,35,287,00,04,30,075,40,02,27,124,40,19,16,071,00*79 $GPGSV,3,3,12,29,11,214,00,17,06,047,23,32,05,347,00,31,03,312,00*71 $GPRMC,162931,A,5407.3468,N,01934.6745,E,003.2,139.3,170610,,,A*76 $GPVTG,139.3,T,,M,003.2,N,005.9,K,A*08 $GPGGA,162946,5407.3448,N,01934.6752,E,1,06,01.4,00075.1,M,034.3,M,00,0000*4C $GPGSA,A,3,30,12,14,09,27,17,,,,,,,02.6,01.4,02.2*0C $GPGSV,3,1,12,12,84,290,32,30,46,272,35,09,41,154,26,27,35,153,25*76 $GPGSV,3,2,12,14,35,287,31,04,30,075,00,02,27,124,00,19,16,071,00*7B $GPGSV,3,3,12,29,11,214,00,17,06,047,23,32,05,347,00,31,03,312,00*71 $GPRMC,162946,A,5407.3448,N,01934.6752,E,001.7,022.6,170610,,,A*7B $GPVTG,022.6,T,,M,001.7,N,003.2,K,A*0C $GPGGA,163007,5407.3313,N,01934.6759,E,1,09,00.8,00041.7,M,034.3,M,00,0000*40 $GPGSA,A,3,30,12,09,04,27,14,02,17,29,,,,01.6,00.8,01.3*0D $GPGSV,3,1,12,12,84,293,38,30,46,272,41,09,41,154,26,14,35,286,25*77 $GPGSV,3,2,12,27,34,153,26,04,30,074,33,02,28,123,28,29,12,214,24*75 $GPGSV,3,3,12,17,06,047,24,19,16,071,00,32,05,347,00,31,04,312,00*74 $GPRMC,163007,A,5407.3313,N,01934.6759,E,007.8,189.7,170610,,,A*7C $GPVTG,189.7,T,,M,007.8,N,014.4,K,A*04 $GPGGA,163023,5407.2854,N,01934.6632,E,1,03,50.0,00035.4,M,034.3,M,00,0000*44 $GPGSA,A,2,09,27,12,,,,,,,,,,50.0,50.0,01.0*0D $GPGSV,3,1,12,12,85,294,31,30,47,273,00,09,40,154,35,14,35,286,00*79 $GPGSV,3,2,12,27,34,153,30,04,30,074,00,02,28,123,00,29,12,214,00*7E $GPGSV,3,3,12,17,05,047,00,19,16,071,00,32,05,346,00,31,04,313,00*71 $GPRMC,163023,A,5407.2854,N,01934.6632,E,008.9,188.5,170610,,,A*72 $GPVTG,188.5,T,,M,008.9,N,016.4,K,N*04 $GPGGA,163037,5407.2866,N,01934.6681,E,1,08,00.9,00040.0,M,034.3,M,00,0000*49 $GPGSA,A,3,09,12,14,30,04,29,02,17,,,,,01.6,00.9,01.3*09 $GPGSV,3,1,12,12,85,294,28,30,47,273,26,09,40,154,28,14,35,286,27*7C $GPGSV,3,2,12,27,34,153,00,04,30,074,28,02,28,123,28,29,12,214,26*79 $GPGSV,3,3,12,17,05,047,25,19,16,071,00,32,05,346,00,31,04,313,00*76 $GPRMC,163037,A,5407.2866,N,01934.6681,E,004.7,199.7,170610,,,A*7E $GPVTG,199.7,T,,M,004.7,N,008.7,K,A*07 $GPGGA,163051,5407.2426,N,01934.6451,E,1,09,00.8,00041.3,M,034.3,M,00,0000*4C $GPGSA,A,3,09,27,12,14,30,04,29,02,17,,,,01.6,00.8,01.3*0D $GPGSV,3,1,12,12,85,294,19,30,47,273,30,09,40,154,28,14,35,286,27*79 $GPGSV,3,2,12,27,34,153,25,04,30,074,39,02,28,123,32,29,12,214,23*70 $GPGSV,3,3,12,17,05,047,32,19,16,071,00,32,05,346,00,31,04,313,00*70 $GPRMC,163051,A,5407.2426,N,01934.6451,E,010.1,184.6,170610,,,A*77 $GPVTG,184.6,T,,M,010.1,N,018.8,K,A*07 $GPGGA,163108,5407.1866,N,01934.6198,E,1,08,00.9,00040.1,M,034.3,M,00,0000*49 $GPGSA,A,3,02,09,17,12,14,29,27,30,,,,,01.6,00.9,01.3*08 $GPGSV,3,1,12,12,85,296,27,30,47,273,25,09,40,154,29,14,35,286,24*70 $GPGSV,3,2,12,27,34,153,23,04,30,073,32,02,28,123,27,29,12,215,18*77 $GPGSV,3,3,12,17,05,047,27,19,16,070,00,32,05,346,00,31,04,313,00*75 $GPRMC,163108,A,5407.1866,N,01934.6198,E,011.8,201.6,170610,,,A*77 $GPVTG,201.6,T,,M,011.8,N,021.9,K,A*0A $GPGGA,163123,5407.1383,N,01934.6462,E,1,09,00.8,00036.3,M,034.3,M,00,0000*43 $GPGSA,A,3,04,02,09,17,12,14,29,27,30,,,,01.6,00.8,01.3*0D $GPGSV,3,1,12,12,85,296,28,30,47,273,28,09,40,154,29,14,35,286,26*70 $GPGSV,3,2,12,27,34,153,25,04,30,073,33,02,28,123,32,29,12,215,30*7E $GPGSV,3,3,12,17,05,047,27,19,16,070,00,32,05,346,19,31,04,313,00*7D $GPRMC,163123,A,5407.1383,N,01934.6462,E,010.4,168.1,170610,,,A*78 $GPVTG,168.1,T,,M,010.4,N,019.3,K,A*0D $GPGGA,163138,5407.1200,N,01934.5824,E,1,08,01.1,00026.1,M,034.3,M,00,0000*44 $GPGSA,A,3,04,02,09,12,14,29,27,30,,,,,02.2,01.1,01.9*0E $GPGSV,3,1,12,12,85,297,29,30,47,273,34,09,40,154,23,14,35,286,24*75 $GPGSV,3,2,12,27,34,153,20,04,30,073,25,02,28,123,17,19,16,070,00*7E $GPGSV,3,3,12,29,13,215,26,32,05,346,00,17,05,047,00,31,04,313,00*73 $GPRMC,163138,A,5407.1200,N,01934.5824,E,009.1,223.1,170610,,,A*74 $GPVTG,223.1,T,,M,009.1,N,016.8,K,A*08 $GPGGA,163153,5407.0810,N,01934.5409,E,1,05,04.6,00038.0,M,034.3,M,00,0000*41 $GPGSA,A,3,09,12,14,29,30,,,,,,,,07.3,04.6,05.6*00 $GPGSV,3,1,12,12,85,297,28,30,47,273,27,09,40,154,22,14,35,286,21*72 $GPGSV,3,2,12,27,34,153,18,04,30,073,00,02,28,123,15,19,16,070,00*70 $GPGSV,3,3,12,29,13,215,22,32,05,346,00,17,05,047,00,31,04,313,00*77 $GPRMC,163153,A,5407.0810,N,01934.5409,E,010.1,208.7,170610,,,A*77 $GPVTG,208.7,T,,M,010.1,N,018.8,K,A*01 $GPGGA,163208,5407.0721,N,01934.5342,E,1,08,01.1,00028.4,M,034.3,M,00,0000*43 $GPGSA,A,3,04,02,09,12,14,29,27,30,,,,,02.2,01.1,01.9*0E $GPGSV,3,1,12,12,85,297,22,30,47,273,28,09,40,154,23,14,35,286,29*7E $GPGSV,3,2,12,27,34,153,20,04,30,073,17,02,28,123,17,19,16,070,00*7F $GPGSV,3,3,12,29,13,215,24,32,05,346,00,17,05,047,00,31,04,313,19*79 $GPRMC,163208,A,5407.0721,N,01934.5342,E,006.1,212.2,170610,,,A*76 $GPVTG,212.2,T,,M,006.1,N,011.3,K,A*0A $GPGGA,163223,5407.0669,N,01934.5301,E,1,08,01.1,00032.6,M,034.3,M,00,0000*49 $GPGSA,A,3,04,02,09,12,14,29,27,30,,,,,02.2,01.1,01.9*0E $GPGSV,3,1,12,12,85,297,36,30,47,273,34,09,40,154,37,14,35,286,33*78 $GPGSV,3,2,12,27,34,153,36,04,30,073,21,02,28,123,35,19,16,070,00*7D $GPGSV,3,3,12,29,13,215,24,32,05,346,00,17,05,047,00,31,04,313,00*71 $GPRMC,163223,A,5407.0669,N,01934.5301,E,000.0,101.7,170610,,,A*76 $GPVTG,101.7,T,,M,000.0,N,000.0,K,A*0A $GPGGA,163234,5407.0671,N,01934.5312,E,1,06,02.5,00033.9,M,034.3,M,00,0000*43 $GPGSA,A,3,12,30,09,27,02,14,,,,,,,03.7,02.5,02.7*0F $GPGSV,3,1,12,12,85,301,37,30,48,273,36,09,39,154,37,14,35,285,28*7D $GPGSV,3,2,12,27,33,153,36,04,31,073,00,02,28,122,30,19,16,070,00*7C $GPGSV,3,3,12,29,13,215,00,32,05,346,00,31,05,313,00,17,05,047,00*76 $GPRMC,163234,A,5407.0671,N,01934.5312,E,001.4,048.2,170610,,,A*77 $GPVTG,048.2,T,,M,001.4,N,002.6,K,A*02 $GPGGA,163253,5407.0846,N,01934.5284,E,1,07,01.2,00030.9,M,034.3,M,00,0000*40 $GPGSA,A,3,30,12,09,14,04,02,29,,,,,,02.3,01.2,01.9*09 $GPGSV,3,1,12,12,86,302,32,30,48,273,28,09,39,154,20,14,35,285,30*78 $GPGSV,3,2,12,27,33,153,00,04,31,072,21,02,29,122,23,29,13,215,21*7C $GPGSV,3,3,12,17,04,047,00,19,17,070,00,32,05,345,00,31,05,313,00*72 $GPRMC,163253,A,5407.0846,N,01934.5284,E,008.4,302.0,170610,,,A*74 $GPVTG,302.0,T,,M,008.4,N,015.6,K,A*02 $GPGGA,163308,5407.0823,N,01934.4901,E,1,07,01.3,00031.8,M,034.3,M,00,0000*4A $GPGSA,A,3,30,12,09,27,14,04,02,,,,,,02.8,01.3,02.5*02 $GPGSV,3,1,12,12,86,302,16,30,48,273,37,09,39,154,15,14,35,285,31*77 $GPGSV,3,2,12,27,33,153,24,04,31,072,12,02,29,122,18,29,13,215,00*71 $GPGSV,3,3,12,17,04,047,00,19,17,070,00,32,05,345,00,31,05,313,00*72 $GPRMC,163308,A,5407.0823,N,01934.4901,E,000.7,173.8,170610,,,A*78 $GPVTG,173.8,T,,M,000.7,N,001.3,K,A*05 $GPGGA,163323,5407.0776,N,01934.4868,E,1,07,01.3,00024.6,M,034.3,M,00,0000*48 $GPGSA,A,3,30,12,09,04,27,14,02,,,,,,02.8,01.3,02.5*02 $GPGSV,3,1,12,12,86,302,27,30,48,273,36,09,39,154,23,14,35,285,33*73 $GPGSV,3,2,12,27,33,153,30,04,31,072,15,02,29,122,32,29,13,215,00*7B $GPGSV,3,3,12,17,04,047,00,19,17,070,00,32,05,345,00,31,05,313,00*72 $GPRMC,163323,A,5407.0776,N,01934.4868,E,000.3,008.1,170610,,,A*70 $GPVTG,008.1,T,,M,000.3,N,000.6,K,A*01 $GPGGA,163334,5407.0763,N,01934.4863,E,1,04,03.8,00022.4,M,034.3,M,00,0000*4F $GPGSA,A,3,30,14,02,27,,,,,,,,,09.1,03.8,08.3*0B $GPGSV,3,1,12,12,86,302,00,30,48,273,36,09,39,154,00,14,35,285,36*72 $GPGSV,3,2,12,27,33,153,29,04,31,072,00,02,29,122,33,19,17,070,00*70 $GPGSV,3,3,12,29,13,215,00,32,05,345,00,31,05,313,00,17,04,047,00*74 $GPRMC,163334,A,5407.0763,N,01934.4863,E,000.9,015.0,170610,,,A*7E $GPVTG,015.0,T,,M,000.9,N,001.7,K,A*06 $GPGGA,163349,5407.0737,N,01934.4854,E,1,05,01.6,00023.3,M,034.3,M,00,0000*4B $GPGSA,A,3,30,14,02,27,04,,,,,,,,07.7,01.6,07.5*02 $GPGSV,3,1,12,12,86,302,00,30,48,273,36,09,39,154,00,14,35,285,35*71 $GPGSV,3,2,12,27,33,153,28,04,31,072,26,02,29,122,32,19,17,070,00*74 $GPGSV,3,3,12,29,13,215,00,32,05,345,00,31,05,313,00,17,04,047,00*74 $GPRMC,163349,A,5407.0737,N,01934.4854,E,000.4,183.8,170610,,,A*7A $GPVTG,183.8,T,,M,000.4,N,000.7,K,A*0C $GPGGA,163404,5407.0795,N,01934.4887,E,1,05,01.6,00021.5,M,034.3,M,00,0000*47 $GPGSA,A,3,30,14,27,02,04,,,,,,,,07.6,01.6,07.5*03 $GPGSV,3,1,12,12,86,302,00,30,48,273,36,09,39,154,00,14,35,285,34*70 $GPGSV,3,2,12,27,33,153,33,04,31,072,28,02,29,122,30,19,17,070,00*72 $GPGSV,3,3,12,29,13,215,00,32,05,345,00,31,05,313,00,17,04,047,00*74 $GPRMC,163404,A,5407.0795,N,01934.4887,E,000.6,042.7,170610,,,A*73 $GPVTG,042.7,T,,M,000.6,N,001.1,K,A*0A $GPGGA,163419,5407.0794,N,01934.4897,E,1,05,01.6,00032.9,M,034.3,M,00,0000*45 $GPGSA,A,3,30,04,02,14,27,,,,,,,,07.6,01.6,07.4*02 $GPGSV,3,1,12,12,86,302,00,30,48,273,37,09,39,154,00,14,35,285,28*7C $GPGSV,3,2,12,27,33,153,25,04,31,072,30,02,29,122,30,19,17,070,00*7C $GPGSV,3,3,12,29,13,215,00,32,05,345,00,31,05,313,00,17,04,047,00*74 $GPRMC,163419,A,5407.0794,N,01934.4897,E,001.1,028.0,170610,,,A*72 $GPVTG,028.0,T,,M,001.1,N,002.1,K,A*04 $GPGGA,163438,5407.0834,N,01934.4907,E,1,07,01.2,00035.4,M,034.3,M,00,0000*47 $GPGSA,A,3,14,30,09,12,02,27,04,,,,,,02.8,01.2,02.5*03 $GPGSV,3,1,12,12,86,309,34,30,48,273,37,09,38,154,28,14,35,284,35*76 $GPGSV,3,2,12,27,32,153,24,04,31,072,25,02,29,122,32,29,14,215,00*7B $GPGSV,3,3,12,17,04,047,00,19,17,069,00,31,06,313,00,32,05,345,00*79 $GPRMC,163438,A,5407.0834,N,01934.4907,E,000.1,005.4,170610,,,A*76 $GPVTG,005.4,T,,M,000.1,N,000.3,K,A*0E $GPGGA,163448,5407.0836,N,01934.4915,E,1,06,02.5,00033.2,M,034.3,M,00,0000*44 $GPGSA,A,3,30,12,02,14,27,09,,,,,,,03.7,02.5,02.8*00 $GPGSV,3,1,12,12,86,309,33,30,48,273,38,09,38,154,31,14,35,284,32*71 $GPGSV,3,2,12,27,32,153,26,04,31,072,00,02,29,122,35,19,17,069,00*70 $GPGSV,3,3,12,29,14,215,00,31,06,313,00,32,05,345,00,17,04,047,00*70 $GPRMC,163448,A,5407.0836,N,01934.4915,E,000.7,069.5,170610,,,A*7D $GPVTG,069.5,T,,M,000.7,N,001.3,K,A*02 $GPGGA,163509,5407.0770,N,01934.5248,E,1,06,01.4,00026.1,M,034.3,M,00,0000*4A $GPGSA,A,3,12,30,02,14,04,27,,,,,,,02.9,01.4,02.5*0D $GPGSV,3,1,12,12,86,313,35,30,49,274,34,09,38,155,00,14,35,284,33*74 $GPGSV,3,2,12,27,32,154,31,04,31,071,27,02,29,121,32,29,14,215,00*7A $GPGSV,3,3,12,17,04,047,00,19,17,069,00,31,06,313,00,32,05,345,00*79 $GPRMC,163509,A,5407.0770,N,01934.5248,E,005.0,108.4,170610,,,A*73 $GPVTG,108.4,T,,M,005.0,N,009.2,K,A*0E $GPGGA,163523,5407.0772,N,01934.5338,E,1,08,01.1,00034.4,M,034.3,M,00,0000*4B $GPGSA,A,3,12,30,02,14,04,27,09,29,,,,,02.2,01.1,01.9*0E $GPGSV,3,1,12,12,86,313,34,30,49,274,28,09,38,155,37,14,35,284,19*74 $GPGSV,3,2,12,27,32,154,35,04,31,071,23,02,29,121,34,29,14,215,25*7B $GPGSV,3,3,12,17,04,047,00,19,17,069,00,31,06,313,28,32,05,345,00*73 $GPRMC,163523,A,5407.0772,N,01934.5338,E,000.4,053.8,170610,,,A*7D $GPVTG,053.8,T,,M,000.4,N,000.8,K,A*0F $GPGGA,163538,5407.0591,N,01934.5092,E,1,08,01.1,00030.3,M,034.3,M,00,0000*4E $GPGSA,A,3,12,30,02,14,04,27,09,29,,,,,02.2,01.1,01.9*0E $GPGSV,3,1,12,12,87,315,33,30,49,274,32,09,38,155,25,14,35,283,29*78 $GPGSV,3,2,12,27,32,154,28,04,31,071,25,02,29,121,26,19,17,069,00*7C $GPGSV,3,3,12,29,14,215,17,31,06,313,12,32,05,345,14,20,04,008,00*7F $GPRMC,163538,A,5407.0591,N,01934.5092,E,013.6,254.3,170610,,,A*75 $GPVTG,254.3,T,,M,013.6,N,025.3,K,A*0D $GPGGA,163553,5407.0771,N,01934.4513,E,1,08,01.1,00024.3,M,034.3,M,00,0000*47 $GPGSA,A,3,12,30,02,14,04,27,09,29,,,,,02.3,01.1,01.9*0F $GPGSV,3,1,12,12,87,315,35,30,49,274,37,09,38,155,29,14,35,283,24*7A $GPGSV,3,2,12,27,32,154,23,04,31,071,34,02,29,121,22,19,17,069,00*73 $GPGSV,3,3,12,29,14,215,22,31,06,313,00,32,05,345,00,20,04,008,00*7F $GPRMC,163553,A,5407.0771,N,01934.4513,E,004.6,341.7,170610,,,A*7E $GPVTG,341.7,T,,M,004.6,N,008.6,K,A*00 $GPGGA,163608,5407.0563,N,01934.4698,E,1,08,01.1,00031.4,M,034.3,M,00,0000*48 $GPGSA,A,3,12,30,02,14,04,27,09,29,,,,,02.3,01.1,02.0*05 $GPGSV,3,1,12,12,87,315,31,30,49,274,26,09,38,155,34,14,35,283,29*7F $GPGSV,3,2,12,27,32,154,32,04,31,071,29,02,29,121,28,19,17,069,00*75 $GPGSV,3,3,12,29,14,215,24,31,06,313,00,32,05,345,00,20,04,008,00*79 $GPRMC,163608,A,5407.0563,N,01934.4698,E,009.3,158.2,170610,,,A*75 $GPVTG,158.2,T,,M,009.3,N,017.3,K,A*0C $GPGGA,163620,5407.0499,N,01934.4789,E,1,08,01.1,00030.9,M,034.3,M,00,0000*4B $GPGSA,A,3,12,30,02,14,04,27,09,29,,,,,02.3,01.1,02.0*05 $GPGSV,3,1,12,12,87,315,38,30,49,274,35,09,38,155,34,14,35,283,24*79 $GPGSV,3,2,12,27,32,154,30,04,31,071,22,02,29,121,35,19,17,069,00*70 $GPGSV,3,3,12,29,14,215,26,31,06,313,00,32,05,345,00,20,04,008,00*7B $GPRMC,163620,A,5407.0499,N,01934.4789,E,000.4,060.4,170610,,,A*78 $GPVTG,060.4,T,,M,000.4,N,000.8,K,A*03 $GPGGA,163638,5407.0864,N,01934.5491,E,1,07,01.2,00027.2,M,034.3,M,00,0000*46 $GPGSA,A,3,14,30,12,04,09,02,29,,,,,,02.3,01.2,02.0*03 $GPGSV,3,1,12,12,87,323,29,30,49,274,31,09,37,155,23,14,34,283,22*76 $GPGSV,3,2,12,27,31,154,16,04,31,071,21,02,30,121,16,29,15,215,23*74 $GPGSV,3,3,12,17,03,047,00,19,17,068,00,31,06,313,18,32,05,344,00*77 $GPRMC,163638,A,5407.0864,N,01934.5491,E,013.2,032.0,170610,,,A*73 $GPVTG,032.0,T,,M,013.2,N,024.4,K,A*0E $GPGGA,163653,5407.1296,N,01934.5954,E,1,08,01.1,00030.6,M,034.3,M,00,0000*47 $GPGSA,A,3,14,30,12,04,09,27,02,29,,,,,02.3,01.1,02.0*05 $GPGSV,3,1,12,12,87,323,33,30,49,274,34,09,37,155,22,14,34,283,22*79 $GPGSV,3,2,12,27,31,154,18,04,31,071,34,02,30,121,18,29,15,215,19*79 $GPGSV,3,3,12,17,03,047,00,19,17,068,00,31,06,313,15,32,05,344,00*7A $GPRMC,163653,A,5407.1296,N,01934.5954,E,008.4,047.7,170610,,,A*75 $GPVTG,047.7,T,,M,008.4,N,015.7,K,A*06 $GPGGA,163708,5407.1425,N,01934.6472,E,1,07,01.2,00038.2,M,034.3,M,00,0000*4C $GPGSA,A,3,14,30,12,04,09,27,02,,,,,,02.8,01.2,02.5*03 $GPGSV,3,1,12,12,87,323,30,30,49,274,34,09,37,155,26,14,34,283,26*7A $GPGSV,3,2,12,27,31,154,20,04,31,071,27,02,30,121,26,29,15,215,00*75 $GPGSV,3,3,12,17,03,047,00,19,17,068,00,31,06,313,00,32,05,344,00*7E $GPRMC,163708,A,5407.1425,N,01934.6472,E,007.1,338.3,170610,,,A*7B $GPVTG,338.3,T,,M,007.1,N,013.2,K,A*00 $GPGGA,163723,5407.1825,N,01934.6153,E,1,08,01.1,00044.7,M,034.3,M,00,0000*4D $GPGSA,A,3,14,30,12,04,29,09,27,02,,,,,02.3,01.1,02.0*05 $GPGSV,3,1,12,12,87,323,26,30,49,274,27,09,37,155,24,14,34,283,22*79 $GPGSV,3,2,12,27,31,154,22,04,31,071,29,02,30,121,26,29,15,215,16*7E $GPGSV,3,3,12,17,03,047,23,19,17,068,00,31,06,313,00,32,05,344,00*7F $GPRMC,163723,A,5407.1825,N,01934.6153,E,011.5,014.8,170610,,,A*7D $GPVTG,014.8,T,,M,011.5,N,021.4,K,A*02 $GPGGA,163738,5407.2318,N,01934.6395,E,1,08,01.1,00043.7,M,034.3,M,00,0000*4E $GPGSA,A,3,14,30,12,04,29,09,27,02,,,,,02.3,01.1,02.0*05 $GPGSV,3,1,12,12,87,323,32,30,49,274,28,09,37,155,27,14,34,283,24*76 $GPGSV,3,2,12,27,31,154,23,04,31,071,26,02,30,121,27,29,15,215,22*76 $GPGSV,3,3,12,17,03,047,18,19,17,068,00,31,06,313,00,32,05,344,00*77 $GPRMC,163738,A,5407.2318,N,01934.6395,E,012.6,007.4,170610,,,A*77 $GPVTG,007.4,T,,M,012.6,N,023.4,K,A*0E $GPGGA,163753,5407.2847,N,01934.6626,E,1,08,01.1,00042.8,M,034.3,M,00,0000*41 $GPGSA,A,3,14,30,12,04,29,09,27,02,,,,,02.3,01.1,02.0*05 $GPGSV,3,1,12,12,87,323,33,30,49,274,36,09,37,155,24,14,34,283,31*7F $GPGSV,3,2,12,27,31,154,25,04,31,071,28,02,30,121,27,29,15,215,16*79 $GPGSV,3,3,12,17,03,047,16,19,17,068,00,31,06,313,14,32,05,344,00*7C $GPRMC,163753,A,5407.2847,N,01934.6626,E,012.7,034.0,170610,,,A*73 $GPVTG,034.0,T,,M,012.7,N,023.6,K,A*09 $GPGGA,163808,5407.3254,N,01934.6754,E,1,08,01.1,00051.8,M,034.3,M,00,0000*4F $GPGSA,A,3,14,30,12,04,29,09,27,02,,,,,02.3,01.1,02.0*05 $GPGSV,3,1,12,12,87,323,28,30,49,274,23,09,37,155,20,14,34,283,28*7D $GPGSV,3,2,12,27,31,154,19,04,31,071,29,02,30,121,24,29,15,215,18*7A $GPGSV,3,3,12,17,03,047,00,19,17,068,00,31,06,313,00,32,05,344,00*7E $GPRMC,163808,A,5407.3254,N,01934.6754,E,013.9,011.4,170610,,,A*73 $GPVTG,011.4,T,,M,013.9,N,025.8,K,A*0D $GPGGA,163823,5407.3479,N,01934.6803,E,1,08,01.1,00048.4,M,034.3,M,00,0000*46 $GPGSA,A,3,14,30,12,04,29,09,27,02,,,,,02.3,01.1,02.0*05 $GPGSV,3,1,12,12,87,342,30,30,50,274,37,09,37,155,22,14,34,282,31*75 $GPGSV,3,2,12,04,31,070,33,27,30,154,27,02,30,120,26,19,17,067,00*70 $GPGSV,3,3,12,29,16,215,16,31,07,313,21,32,05,343,00,20,04,007,00*71 $GPRMC,163823,A,5407.3479,N,01934.6803,E,000.4,328.9,170610,,,A*75 $GPVTG,328.9,T,,M,000.4,N,000.8,K,A*01 $GPGGA,163838,5407.3747,N,01934.6832,E,1,08,01.1,00044.4,M,034.3,M,00,0000*4C $GPGSA,A,3,14,30,12,04,29,09,27,02,,,,,02.3,01.1,02.0*05 $GPGSV,3,1,12,12,87,343,28,30,50,274,31,09,37,155,22,14,34,282,21*7A $GPGSV,3,2,12,04,31,070,28,02,30,120,27,27,30,154,19,19,17,067,00*76 $GPGSV,3,3,12,29,16,215,26,31,07,313,00,32,05,343,00,20,04,006,00*70 $GPRMC,163838,A,5407.3747,N,01934.6832,E,015.0,005.8,170610,,,A*7E $GPVTG,005.8,T,,M,015.0,N,027.9,K,A*08 $GPGGA,163853,5407.4104,N,01934.6946,E,1,07,01.1,00051.6,M,034.3,M,00,0000*4C $GPGSA,A,3,14,30,12,04,29,09,27,,,,,,02.3,01.1,02.0*07 $GPGSV,3,1,12,12,87,343,25,30,50,274,26,09,37,155,18,14,34,282,24*7D $GPGSV,3,2,12,04,31,070,26,02,30,120,24,27,30,154,21,19,17,067,00*70 $GPGSV,3,3,12,29,16,215,18,31,07,313,00,32,05,343,00,20,04,006,00*7D $GPRMC,163853,A,5407.4104,N,01934.6946,E,010.8,007.0,170610,,,A*70 $GPVTG,007.0,T,,M,010.8,N,020.0,K,A*01 $GPGGA,163908,5407.4160,N,01934.6967,E,1,08,01.1,00058.2,M,034.3,M,00,0000*40 $GPGSA,A,3,14,30,12,04,29,09,27,02,,,,,02.3,01.1,02.0*05 $GPGSV,3,1,12,12,87,343,31,30,50,274,28,09,37,155,39,14,34,282,25*74 $GPGSV,3,2,12,04,31,070,26,02,30,120,30,27,30,154,33,19,17,067,00*76 $GPGSV,3,3,12,29,16,215,23,31,07,313,00,32,05,343,00,20,04,006,18*7C $GPRMC,163908,A,5407.4160,N,01934.6967,E,000.9,156.7,170610,,,A*7C $GPVTG,156.7,T,,M,000.9,N,001.6,K,A*06 $GPGGA,163923,5407.4117,N,01934.6971,E,1,08,01.1,00058.4,M,034.3,M,00,0000*48 $GPGSA,A,3,14,30,12,04,29,09,27,02,,,,,02.3,01.1,02.0*05 $GPGSV,3,1,12,12,87,343,30,30,50,274,24,09,37,155,27,14,34,282,21*72 $GPGSV,3,2,12,04,31,070,29,02,30,120,29,27,30,154,25,19,17,067,00*76 $GPGSV,3,3,12,29,16,215,28,31,07,313,00,32,05,343,00,20,04,006,18*77 $GPRMC,163923,A,5407.4117,N,01934.6971,E,005.2,183.6,170610,,,A*75 $GPVTG,183.6,T,,M,005.2,N,009.6,K,A*09 $GPGGA,163938,5407.3900,N,01934.6892,E,1,08,01.1,00055.1,M,034.3,M,00,0000*4F $GPGSA,A,3,14,30,12,04,29,09,27,02,,,,,02.3,01.1,02.0*05 $GPGSV,3,1,12,12,87,357,30,30,51,274,30,09,36,155,25,14,34,281,22*70 $GPGSV,3,2,12,02,31,120,20,04,31,069,29,27,30,154,18,19,18,067,00*77 $GPGSV,3,3,12,29,16,216,31,31,08,313,00,32,05,343,00,20,04,006,00*7A $GPRMC,163938,A,5407.3900,N,01934.6892,E,004.9,194.6,170610,,,A*76 $GPVTG,194.6,T,,M,004.9,N,009.1,K,A*02 $GPGGA,163953,5407.3560,N,01934.6833,E,1,08,01.1,00049.3,M,034.3,M,00,0000*4C $GPGSA,A,3,14,30,12,04,29,09,27,02,,,,,02.3,01.1,02.0*05 $GPGSV,3,1,12,12,87,357,25,30,51,274,24,09,36,155,24,14,34,281,28*7A $GPGSV,3,2,12,02,31,120,27,04,31,069,25,27,30,154,21,19,18,067,00*76 $GPGSV,3,3,12,29,16,216,21,31,08,313,00,32,05,343,00,20,04,006,00*7B $GPRMC,163953,A,5407.3560,N,01934.6833,E,010.2,182.9,170610,,,A*7C $GPVTG,182.9,T,,M,010.2,N,018.9,K,A*0C $GPGGA,164008,5407.3470,N,01934.6821,E,1,08,01.1,00044.6,M,034.3,M,00,0000*47 $GPGSA,A,3,14,30,12,04,29,09,27,02,,,,,02.3,01.1,02.0*05 $GPGSV,3,1,12,12,87,357,28,30,51,274,41,09,36,155,27,14,34,281,28*77 $GPGSV,3,2,12,02,31,120,31,04,31,069,25,27,30,154,25,19,18,067,00*75 $GPGSV,3,3,12,29,16,216,23,31,08,313,17,32,05,343,00,20,04,006,00*7F $GPRMC,164008,A,5407.3470,N,01934.6821,E,000.4,185.3,170610,,,A*75 $GPVTG,185.3,T,,M,000.4,N,000.8,K,A*0E $GPGGA,164023,5407.3498,N,01934.6753,E,1,08,01.1,00048.4,M,034.3,M,00,0000*4C $GPGSA,A,3,14,30,12,04,29,09,27,02,,,,,02.3,01.1,02.0*05 $GPGSV,3,1,12,12,87,357,30,30,51,274,36,09,36,155,32,14,34,281,26*74 $GPGSV,3,2,12,02,31,120,25,04,31,069,26,27,30,154,26,19,18,067,00*70 $GPGSV,3,3,12,29,16,216,18,31,08,313,18,32,05,343,00,20,04,006,00*78 $GPRMC,164023,A,5407.3498,N,01934.6753,E,002.8,300.7,170610,,,A*75 $GPVTG,300.7,T,,M,002.8,N,005.2,K,A*04 $GPGGA,164038,5407.3557,N,01934.6580,E,1,08,01.1,00051.2,M,034.3,M,00,0000*46 $GPGSA,A,3,14,30,12,04,29,09,27,02,,,,,02.3,01.1,02.0*05 $GPGSV,3,1,12,12,87,357,32,30,51,274,34,09,36,155,31,14,34,281,28*79 $GPGSV,3,2,12,02,31,120,26,04,31,069,28,27,30,154,28,19,18,067,00*73 $GPGSV,3,3,12,29,16,216,25,31,08,313,24,32,05,343,00,20,04,006,00*79 $GPRMC,164038,A,5407.3557,N,01934.6580,E,003.4,300.0,170610,,,A*7B $GPVTG,300.0,T,,M,003.4,N,006.2,K,A*0D $GPGGA,164053,5407.3685,N,01934.6429,E,1,08,01.1,00051.3,M,034.3,M,00,0000*44 $GPGSA,A,3,14,30,12,04,29,09,27,02,,,,,02.3,01.1,02.0*05 $GPGSV,3,1,12,12,87,012,25,30,51,275,39,09,35,155,31,14,34,280,26*7D $GPGSV,3,2,12,02,31,119,25,04,31,068,31,27,29,154,23,19,18,066,00*71 $GPGSV,3,3,12,29,17,216,21,31,08,313,19,32,05,343,00,20,04,006,00*72 $GPRMC,164053,A,5407.3685,N,01934.6429,E,000.1,043.2,170610,,,A*78 $GPVTG,043.2,T,,M,000.1,N,000.3,K,A*0A $GPGGA,164108,5407.3690,N,01934.6420,E,1,08,01.1,00048.1,M,034.3,M,00,0000*4C $GPGSA,A,3,14,30,12,04,29,09,27,02,,,,,02.3,01.1,02.0*05 $GPGSV,3,1,12,12,87,012,32,30,51,275,39,09,35,155,34,14,34,280,21*79 $GPGSV,3,2,12,02,31,119,29,04,31,068,26,27,29,154,32,19,18,066,00*7B $GPGSV,3,3,12,29,17,216,32,31,08,313,23,32,05,343,00,20,04,006,00*79 $GPRMC,164108,A,5407.3690,N,01934.6420,E,000.1,017.6,170610,,,A*7F $GPVTG,017.6,T,,M,000.1,N,000.2,K,A*0E $GPGGA,164118,5407.3677,N,01934.6405,E,1,08,01.1,00048.4,M,034.3,M,00,0000*46 $GPGSA,A,3,14,30,12,04,29,09,27,02,,,,,02.3,01.1,02.0*05 $GPGSV,3,1,12,12,87,012,39,30,51,275,33,09,35,155,45,14,34,280,26*79 $GPGSV,3,2,12,02,31,119,40,04,31,068,31,27,29,154,39,19,18,066,00*79 $GPGSV,3,3,12,29,17,216,33,31,08,313,23,32,05,343,00,20,04,006,00*78 $GPRMC,164118,A,5407.3677,N,01934.6405,E,000.6,196.5,170610,,,A*7C $GPVTG,196.5,T,,M,000.6,N,001.2,K,A*03 $GPGGA,164133,5407.3756,N,01934.6462,E,1,06,02.2,00051.3,M,034.3,M,00,0000*4D $GPGSA,A,3,14,30,12,29,02,27,,,,,,,03.8,02.2,03.1*02 $GPGSV,3,1,12,12,87,012,31,30,51,275,43,09,35,155,00,14,34,280,41*76 $GPGSV,3,2,12,02,31,119,29,04,31,068,00,27,29,154,30,19,18,066,00*7D $GPGSV,3,3,12,29,17,216,30,31,08,313,40,32,05,343,00,20,04,006,00*7E $GPRMC,164133,A,5407.3756,N,01934.6462,E,002.2,340.3,170610,,,A*7F $GPVTG,340.3,T,,M,002.2,N,004.1,K,A*0C $GPGGA,164148,5407.3796,N,01934.6378,E,1,07,02.0,00048.0,M,034.3,M,00,0000*49 $GPGSA,A,3,09,30,14,12,29,27,02,,,,,,03.6,02.0,02.9*0E $GPGSV,3,1,12,12,87,012,35,30,51,275,40,09,35,155,39,14,34,280,39*74 $GPGSV,3,2,12,02,31,119,30,04,31,068,00,27,29,154,31,19,18,066,00*74 $GPGSV,3,3,12,29,17,216,29,31,08,313,37,32,05,343,00,20,04,006,00*76 $GPRMC,164148,A,5407.3796,N,01934.6378,E,003.1,330.3,170610,,,A*76 $GPVTG,330.3,T,,M,003.1,N,005.8,K,A*01 $GPGGA,164203,5407.3799,N,01934.6093,E,1,08,01.1,00051.1,M,034.3,M,00,0000*48 $GPGSA,A,3,14,30,12,09,02,27,29,04,,,,,02.3,01.1,02.0*05 $GPGSV,3,1,12,12,87,012,31,30,51,275,38,09,35,155,30,14,34,280,40*78 $GPGSV,3,2,12,02,31,119,30,04,31,068,25,27,29,154,25,19,18,066,00*76 $GPGSV,3,3,12,29,17,216,27,31,08,313,37,32,05,343,00,20,04,006,00*78 $GPRMC,164203,A,5407.3799,N,01934.6093,E,001.4,301.4,170610,,,A*71 $GPVTG,301.4,T,,M,001.4,N,002.7,K,A*0B $GPGGA,164218,5407.3878,N,01934.5987,E,1,06,02.1,00053.2,M,034.3,M,00,0000*41 $GPGSA,A,3,30,14,09,29,27,02,,,,,,,04.7,02.1,04.2*07 $GPGSV,3,1,12,12,87,012,00,30,51,275,41,09,35,155,37,14,34,280,38*7C $GPGSV,3,2,12,02,31,119,28,04,31,068,00,27,29,154,25,19,18,066,00*78 $GPGSV,3,3,12,29,17,216,28,31,08,313,36,32,05,343,00,20,04,006,00*76 $GPRMC,164218,A,5407.3878,N,01934.5987,E,001.7,333.6,170610,,,A*74 $GPVTG,333.6,T,,M,001.7,N,003.3,K,A*0E $GPGGA,164233,5407.3846,N,01934.5746,E,1,08,01.1,00052.4,M,034.3,M,00,0000*4C $GPGSA,A,3,30,14,02,12,09,27,29,04,,,,,02.3,01.1,02.0*05 $GPGSV,3,1,12,12,87,012,33,30,51,275,41,09,35,155,37,14,34,280,41*72 $GPGSV,3,2,12,02,31,119,37,04,31,068,24,27,29,154,35,19,18,066,00*71 $GPGSV,3,3,12,29,17,216,30,31,08,313,37,32,05,343,00,20,04,006,00*7E $GPRMC,164233,A,5407.3846,N,01934.5746,E,003.2,303.0,170610,,,A*71 $GPVTG,303.0,T,,M,003.2,N,006.1,K,A*0B $GPGGA,164248,5407.3925,N,01934.5621,E,1,08,01.1,00045.5,M,034.3,M,00,0000*43 $GPGSA,A,3,14,27,30,09,02,29,04,12,,,,,02.3,01.1,02.0*05 $GPGSV,3,1,12,12,87,012,30,30,51,275,40,09,35,155,37,14,34,280,40*71 $GPGSV,3,2,12,02,31,119,36,04,31,068,27,27,29,154,36,19,18,066,00*70 $GPGSV,3,3,12,29,17,216,31,31,08,313,35,32,05,343,00,20,04,006,00*7D $GPRMC,164248,A,5407.3925,N,01934.5621,E,003.2,312.1,170610,,,A*78 $GPVTG,312.1,T,,M,003.2,N,006.0,K,A*0B $GPGGA,164303,5407.3903,N,01934.5516,E,1,08,01.1,00048.0,M,034.3,M,00,0000*46 $GPGSA,A,3,09,02,27,30,12,14,04,29,,,,,02.3,01.1,02.0*05 $GPGSV,3,1,12,12,87,012,36,30,51,275,40,09,35,155,40,14,34,280,36*76 $GPGSV,3,2,12,02,31,119,39,04,31,068,27,27,29,154,38,19,18,066,00*71 $GPGSV,3,3,12,29,17,216,28,31,08,313,34,32,05,343,00,20,04,006,00*74 $GPRMC,164303,A,5407.3903,N,01934.5516,E,002.6,212.4,170610,,,A*74 $GPVTG,212.4,T,,M,002.6,N,004.8,K,A*00 $GPGGA,164318,5407.3894,N,01934.5419,E,1,07,01.2,00031.7,M,034.3,M,00,0000*48 $GPGSA,A,3,09,02,12,27,04,30,14,,,,,,02.7,01.2,02.4*0D $GPGSV,3,1,12,12,87,012,37,30,51,275,28,09,35,155,41,14,34,280,21*7E $GPGSV,3,2,12,02,31,119,37,04,31,068,33,27,29,154,35,19,18,066,00*77 $GPGSV,3,3,12,29,17,216,00,31,08,313,00,32,05,343,00,20,04,006,00*79 $GPRMC,164318,A,5407.3894,N,01934.5419,E,000.7,333.2,170610,,,A*78 $GPVTG,333.2,T,,M,000.7,N,001.3,K,A*09 $GPGGA,164333,5407.3833,N,01934.5429,E,1,06,01.3,00037.9,M,034.3,M,00,0000*47 $GPGSA,A,3,04,02,12,30,09,14,,,,,,,02.8,01.3,02.4*06 $GPGSV,3,1,12,12,87,012,38,30,51,275,34,09,35,155,29,14,34,280,32*70 $GPGSV,3,2,12,02,31,119,39,04,31,068,39,27,29,154,00,19,18,066,00*75 $GPGSV,3,3,12,29,17,216,00,31,08,313,00,32,05,343,00,20,04,006,00*79 $GPRMC,164333,A,5407.3833,N,01934.5429,E,002.1,246.1,170610,,,A*7B $GPVTG,246.1,T,,M,002.1,N,003.9,K,A*05 $GPGGA,164348,5407.3867,N,01934.5457,E,1,06,01.3,00046.4,M,034.3,M,00,0000*48 $GPGSA,A,3,04,12,30,14,09,02,,,,,,,02.8,01.3,02.4*06 $GPGSV,3,1,12,12,87,043,35,30,53,275,31,09,34,155,30,14,34,279,31*72 $GPGSV,3,2,12,02,32,118,19,04,31,067,39,27,28,154,00,29,18,216,00*7D $GPGSV,3,3,12,17,00,047,00,19,18,065,00,31,09,313,27,32,04,342,00*72 $GPRMC,164348,A,5407.3867,N,01934.5457,E,000.5,244.8,170610,,,A*72 $GPVTG,244.8,T,,M,000.5,N,000.9,K,A*0B $GPGGA,164408,5407.3810,N,01934.5532,E,1,08,01.1,00035.0,M,034.3,M,00,0000*45 $GPGSA,A,3,12,04,30,02,14,09,27,29,,,,,02.3,01.1,02.0*05 $GPGSV,3,1,12,12,87,045,36,30,53,275,35,09,34,155,36,14,34,279,24*71 $GPGSV,3,2,12,02,32,118,32,04,30,067,26,27,28,154,24,29,18,216,16*7A $GPGSV,3,3,12,17,00,047,00,19,18,065,00,31,09,313,19,32,04,341,00*7C $GPRMC,164408,A,5407.3810,N,01934.5532,E,000.2,147.0,170610,,,A*7C $GPVTG,147.0,T,,M,000.2,N,000.3,K,A*0E $GPGGA,164416,5407.3764,N,01934.5519,E,1,08,01.1,00034.1,M,034.3,M,00,0000*4F $GPGSA,A,3,12,04,30,02,14,09,27,29,,,,,02.3,01.1,02.1*04 $GPGSV,3,1,12,12,87,045,36,30,53,275,32,09,34,155,36,14,34,279,17*76 $GPGSV,3,2,12,02,32,118,33,04,30,067,28,27,28,154,15,29,18,216,16*77 $GPGSV,3,3,12,17,00,047,00,19,18,065,00,31,09,313,20,32,04,341,00*76 $GPRMC,164416,A,5407.3764,N,01934.5519,E,000.1,092.9,170610,,,A*75 $GPVTG,092.9,T,,M,000.1,N,000.1,K,A*0F $GPGGA,164438,5407.3819,N,01934.5543,E,1,06,01.2,00040.4,M,034.3,M,00,0000*42 $GPGSA,A,3,09,27,14,29,12,04,,,,,,,02.5,01.2,02.2*03 $GPGSV,3,1,12,12,87,049,30,30,53,275,25,14,34,278,20,09,34,155,35*7C $GPGSV,3,2,12,02,32,118,26,04,30,066,31,27,28,154,27,29,18,216,24*7A $GPGSV,3,3,12,17,00,047,00,19,18,065,00,31,10,313,00,32,04,341,00*7C $GPRMC,164438,A,5407.3819,N,01934.5543,E,000.4,273.7,170610,,,A*75 $GPVTG,273.7,T,,M,000.4,N,000.9,K,A*01 $GPGGA,164453,5407.3795,N,01934.5541,E,1,08,01.1,00046.4,M,034.3,M,00,0000*4D $GPGSA,A,3,09,27,14,29,12,04,02,30,,,,,02.3,01.1,02.1*04 $GPGSV,3,1,12,12,87,049,34,30,53,275,32,14,34,278,33,09,34,155,29*71 $GPGSV,3,2,12,02,32,118,37,04,30,066,29,27,28,154,29,29,18,216,29*70 $GPGSV,3,3,12,17,00,047,00,19,18,065,00,31,10,313,26,32,04,341,00*78 $GPRMC,164453,A,5407.3795,N,01934.5541,E,000.9,241.6,170610,,,A*7C $GPVTG,241.6,T,,M,000.9,N,001.6,K,A*02 $GPGGA,164508,5407.3697,N,01934.5383,E,1,07,02.1,00039.0,M,034.3,M,00,0000*49 $GPGSA,A,3,12,09,14,30,02,27,29,,,,,,03.7,02.1,03.1*07 $GPGSV,3,1,12,12,86,052,28,30,53,276,27,14,34,278,24,09,33,155,37*7E $GPGSV,3,2,12,02,33,118,32,04,30,066,00,27,27,155,27,29,18,216,27*71 $GPGSV,3,3,12,17,00,047,00,19,18,064,00,31,10,313,00,32,04,341,00*7D $GPRMC,164508,A,5407.3697,N,01934.5383,E,003.6,182.8,170610,,,A*76 $GPVTG,182.8,T,,M,003.6,N,006.7,K,A*0A $GPGGA,164523,5407.3581,N,01934.5248,E,1,08,01.1,00037.2,M,034.3,M,00,0000*42 $GPGSA,A,3,12,09,14,30,02,27,29,04,,,,,02.3,01.1,02.1*04 $GPGSV,3,1,12,12,86,052,31,30,53,276,31,14,34,278,30,09,33,155,35*76 $GPGSV,3,2,12,02,33,118,36,04,30,066,25,27,27,155,31,29,18,216,28*7A $GPGSV,3,3,12,17,00,047,00,19,18,064,00,31,10,313,16,32,04,341,00*7A $GPRMC,164523,A,5407.3581,N,01934.5248,E,004.4,218.0,170610,,,A*70 $GPVTG,218.0,T,,M,004.4,N,008.3,K,A*0D $GPGGA,164538,5407.3459,N,01934.5200,E,1,08,01.1,00036.5,M,034.3,M,00,0000*46 $GPGSA,A,3,12,09,14,30,02,27,29,04,,,,,02.3,01.1,02.1*04 $GPGSV,3,1,12,12,86,052,33,30,53,276,29,14,34,278,24,09,33,155,34*79 $GPGSV,3,2,12,02,33,118,34,04,30,066,33,27,27,155,33,29,18,216,20*75 $GPGSV,3,3,12,17,00,047,00,19,18,064,00,31,10,313,00,32,04,341,00*7D $GPRMC,164538,A,5407.3459,N,01934.5200,E,000.1,259.6,170610,,,A*70 $GPVTG,259.6,T,,M,000.1,N,000.3,K,A*07 $GPGGA,164546,5407.3424,N,01934.5220,E,1,08,01.1,00037.3,M,034.3,M,00,0000*40 $GPGSA,A,3,12,09,14,30,02,27,29,04,,,,,02.3,01.1,02.1*04 $GPGSV,3,1,12,12,86,052,32,30,53,276,28,14,34,278,23,09,33,155,35*7F $GPGSV,3,2,12,02,33,118,35,04,30,066,25,27,27,155,32,29,18,216,23*71 $GPGSV,3,3,12,17,00,047,00,19,18,064,00,31,10,313,00,32,04,341,00*7D $GPRMC,164546,A,5407.3424,N,01934.5220,E,001.3,167.9,170610,,,A*73 $GPVTG,167.9,T,,M,001.3,N,002.5,K,A*01 $GPGGA,164601,5407.3368,N,01934.5198,E,1,06,01.2,00037.9,M,034.3,M,00,0000*48 $GPGSA,A,3,09,30,12,27,14,04,,,,,,,02.7,01.2,02.4*0F $GPGSV,3,1,12,12,86,052,33,30,53,276,38,14,34,278,29,09,33,155,37*77 $GPGSV,3,2,12,02,33,118,00,04,30,066,22,27,27,155,27,29,18,216,00*75 $GPGSV,3,3,12,19,18,064,00,31,10,313,00,32,04,341,00,20,04,004,00*7A $GPRMC,164601,A,5407.3368,N,01934.5198,E,000.4,224.7,170610,,,A*70 $GPVTG,224.7,T,,M,000.4,N,000.8,K,A*02 $GPGGA,164623,5407.3315,N,01934.5035,E,1,08,01.1,00034.3,M,034.3,M,00,0000*40 $GPGSA,A,3,09,30,02,12,04,27,14,29,,,,,02.3,01.1,02.1*04 $GPGSV,3,1,12,12,86,058,32,30,54,276,34,14,33,278,30,02,33,117,30*72 $GPGSV,3,2,12,09,33,156,35,04,30,066,25,27,27,155,28,29,19,216,21*78 $GPGSV,3,3,12,19,19,064,00,31,10,313,00,32,04,341,00,20,04,004,00*7B $GPRMC,164623,A,5407.3315,N,01934.5035,E,001.5,311.9,170610,,,A*75 $GPVTG,311.9,T,,M,001.5,N,002.8,K,A*09 $GPGGA,164638,5407.3319,N,01934.4952,E,1,06,03.8,00031.9,M,034.3,M,00,0000*45 $GPGSA,A,3,30,14,27,29,12,09,,,,,,,06.3,03.8,05.0*0B $GPGSV,3,1,12,12,86,059,33,30,54,276,42,14,33,277,41,02,33,117,30*7A $GPGSV,3,2,12,09,33,156,33,04,30,065,00,27,27,155,29,29,19,216,26*7C $GPGSV,3,3,12,19,19,064,00,31,10,313,00,32,04,340,00,20,04,003,00*7D $GPRMC,164638,A,5407.3319,N,01934.4952,E,001.4,280.0,170610,,,A*7B $GPVTG,280.0,T,,M,001.4,N,002.6,K,A*06 $GPGGA,164649,5407.3344,N,01934.4911,E,1,08,01.1,00025.5,M,034.3,M,00,0000*40 $GPGSA,A,3,30,14,27,29,12,09,02,04,,,,,02.3,01.1,02.1*04 $GPGSV,3,1,12,12,86,060,36,30,54,276,37,14,33,277,33,02,33,117,35*77 $GPGSV,3,2,12,09,33,156,34,04,30,065,36,27,27,155,30,29,19,216,20*70 $GPGSV,3,3,12,19,19,064,00,31,10,313,20,32,04,340,00,20,04,003,00*7F $GPRMC,164649,A,5407.3344,N,01934.4911,E,000.1,356.2,170610,,,A*7E $GPVTG,356.2,T,,M,000.1,N,000.3,K,A*0D $GPGGA,164704,5407.3399,N,01934.4900,E,1,07,01.2,00022.5,M,034.3,M,00,0000*43 $GPGSA,A,3,30,02,12,09,27,14,04,,,,,,02.6,01.2,02.3*0B $GPGSV,3,1,12,12,86,060,33,30,54,276,36,14,33,277,34,02,33,117,36*77 $GPGSV,3,2,12,09,33,156,33,04,30,065,28,27,27,155,32,29,19,216,00*78 $GPGSV,3,3,12,19,19,064,00,31,10,313,00,32,04,340,00,20,04,003,00*7D $GPRMC,164704,A,5407.3399,N,01934.4900,E,000.6,033.0,170610,,,A*73 $GPVTG,033.0,T,,M,000.6,N,001.2,K,A*08 $GPGGA,164723,5407.3338,N,01934.4926,E,1,08,01.1,00003.5,M,034.3,M,00,0000*46 $GPGSA,A,3,02,09,14,27,12,04,29,30,,,,,02.4,01.1,02.1*03 $GPGSV,3,1,12,12,86,062,29,30,54,276,26,14,33,277,25,02,33,117,44*7A $GPGSV,3,2,12,09,32,156,34,04,30,065,24,27,26,155,29,29,19,217,21*7B $GPGSV,3,3,12,19,19,063,00,31,11,313,00,32,04,340,00,20,04,003,00*7B $GPRMC,164723,A,5407.3338,N,01934.4926,E,000.4,325.3,170610,,,A*7C $GPVTG,325.3,T,,M,000.4,N,000.9,K,A*07 $GPGGA,164738,5407.3312,N,01934.4832,E,1,08,01.1,00023.4,M,034.3,M,00,0000*43 $GPGSA,A,3,02,09,14,27,12,04,29,30,,,,,02.4,01.1,02.1*03 $GPGSV,3,1,12,12,86,062,22,30,54,276,38,14,33,277,24,02,33,117,23*7E $GPGSV,3,2,12,09,32,156,20,04,30,065,17,27,26,155,30,29,19,217,25*72 $GPGSV,3,3,12,19,19,063,00,31,11,313,28,32,04,340,00,20,04,003,00*71 $GPRMC,164738,A,5407.3312,N,01934.4832,E,001.6,212.4,170610,,,A*7B $GPVTG,212.4,T,,M,001.6,N,003.0,K,A*0C $GPGGA,164753,5407.3375,N,01934.4847,E,1,08,01.1,00009.3,M,034.3,M,00,0000*42 $GPGSA,A,3,02,09,14,27,12,04,29,30,,,,,02.4,01.1,02.1*03 $GPGSV,3,1,12,12,86,062,33,30,54,276,38,14,33,277,33,02,33,117,30*7A $GPGSV,3,2,12,09,32,156,23,04,30,065,33,27,26,155,24,29,19,217,18*7C $GPGSV,3,3,12,19,19,063,00,31,11,313,22,32,04,340,00,20,04,003,00*7B $GPRMC,164753,A,5407.3375,N,01934.4847,E,000.6,033.6,170610,,,A*77 $GPVTG,033.6,T,,M,000.6,N,001.1,K,A*0D $GPGGA,164807,5407.3368,N,01934.4844,E,1,08,01.1,00018.6,M,034.3,M,00,0000*46 $GPGSA,A,3,02,09,14,27,12,04,29,30,,,,,02.4,01.1,02.1*03 $GPGSV,3,1,12,12,86,062,30,30,54,276,38,14,33,277,24,02,33,117,45*7D $GPGSV,3,2,12,09,32,156,30,04,30,065,26,27,26,155,28,29,19,217,27*7A $GPGSV,3,3,12,19,19,063,00,31,11,313,00,32,04,340,00,20,04,003,00*7B $GPRMC,164807,A,5407.3368,N,01934.4844,E,000.2,181.9,170610,,,A*75 $GPVTG,181.9,T,,M,000.2,N,000.4,K,A*0A $GPGGA,164818,5407.3379,N,01934.4846,E,1,07,01.3,00022.6,M,034.3,M,00,0000*4E $GPGSA,A,3,02,30,04,12,27,09,29,,,,,,02.6,01.3,02.3*04 $GPGSV,3,1,12,12,86,062,27,30,54,276,35,14,33,277,00,02,33,117,41*74 $GPGSV,3,2,12,09,32,156,29,04,30,065,35,27,26,155,31,29,19,217,25*7A $GPGSV,3,3,12,19,19,063,00,31,11,313,00,32,04,340,00,20,04,003,00*7B $GPRMC,164818,A,5407.3379,N,01934.4846,E,000.1,223.8,170610,,,A*70 $GPVTG,223.8,T,,M,000.1,N,000.3,K,A*04 $GPGGA,164838,5407.3357,N,01934.4837,E,1,08,01.1,00031.1,M,034.3,M,00,0000*4E $GPGSA,A,3,30,14,04,02,12,09,27,29,,,,,02.4,01.1,02.1*03 $GPGSV,3,1,12,12,85,066,22,30,55,276,45,02,34,116,29,14,33,276,35*7F $GPGSV,3,2,12,09,32,156,26,04,30,064,27,27,26,155,18,29,20,217,27*74 $GPGSV,3,3,12,19,19,063,00,31,11,313,18,32,04,340,00,20,04,003,00*72 $GPRMC,164838,A,5407.3357,N,01934.4837,E,000.2,009.6,170610,,,A*7F $GPVTG,009.6,T,,M,000.2,N,000.5,K,A*05 $GPGGA,164853,5407.3273,N,01934.4785,E,1,05,02.0,00034.1,M,034.3,M,00,0000*48 $GPGSA,A,3,30,14,04,02,12,,,,,,,,03.2,02.0,02.4*04 $GPGSV,3,1,12,12,85,066,17,30,55,276,21,02,34,116,17,14,33,276,16*77 $GPGSV,3,2,12,09,32,156,15,04,30,064,17,27,26,155,14,29,20,217,00*7E $GPGSV,3,3,12,19,19,063,00,31,11,313,16,32,04,340,00,20,04,003,00*7C $GPRMC,164853,A,5407.3273,N,01934.4785,E,005.1,221.9,170610,,,A*72 $GPVTG,221.9,T,,M,005.1,N,009.5,K,A*0D $GPGGA,164908,5407.3215,N,01934.4666,E,1,03,07.5,00042.7,M,034.3,M,00,0000*4A $GPGSA,A,2,30,04,12,,,,,,,,,,07.5,07.5,00.9*0E $GPGSV,3,1,12,12,85,066,14,30,55,276,15,02,34,116,00,14,33,276,00*72 $GPGSV,3,2,12,09,32,156,00,04,30,064,18,27,26,155,00,29,20,217,00*70 $GPGSV,3,3,12,19,19,063,00,31,11,313,16,32,04,340,00,20,04,003,00*7C $GPRMC,164908,A,5407.3215,N,01934.4666,E,002.3,000.8,170610,,,A*74 $GPVTG,000.8,T,,M,002.3,N,004.3,K,N*0C $GPGGA,164923,5407.3503,N,01934.4593,E,1,03,07.4,00039.6,M,034.3,M,00,0000*46 $GPGSA,A,2,30,04,12,,,,,,,,,,07.5,07.4,01.0*07 $GPGSV,3,1,12,12,85,066,16,30,55,276,16,02,34,116,00,14,33,276,00*73 $GPGSV,3,2,12,09,32,156,00,04,30,064,17,27,26,155,00,29,20,217,00*7F $GPGSV,3,3,12,19,19,063,00,31,11,313,13,32,04,340,00,20,04,003,00*79 $GPRMC,164923,A,5407.3503,N,01934.4593,E,005.3,338.1,170610,,,A*72 $GPVTG,338.1,T,,M,005.3,N,009.9,K,N*0D $GPGGA,164938,5407.3294,N,01934.4877,E,1,07,01.2,00030.6,M,034.3,M,00,0000*4F $GPGSA,A,3,30,14,12,09,27,02,04,,,,,,02.6,01.2,02.3*0B $GPGSV,3,1,12,12,85,066,29,30,55,276,23,02,34,116,43,14,33,276,17*78 $GPGSV,3,2,12,09,32,156,19,04,30,064,26,27,26,155,17,29,20,217,00*73 $GPGSV,3,3,12,19,19,063,00,31,11,313,00,32,04,340,00,20,04,003,00*7B $GPRMC,164938,A,5407.3294,N,01934.4877,E,001.0,002.0,170610,,,A*7A $GPVTG,002.0,T,,M,001.0,N,001.9,K,A*06 $GPGGA,164953,5407.3306,N,01934.4953,E,1,04,04.0,00048.6,M,034.3,M,00,0000*44 $GPGSA,A,3,12,27,02,04,,,,,,,,,06.5,04.0,05.1*01 $GPGSV,3,1,12,12,85,069,24,30,55,276,17,02,34,116,33,14,33,276,00*7C $GPGSV,3,2,12,09,31,156,17,04,30,064,21,27,25,155,19,29,20,217,18*7D $GPGSV,3,3,12,19,19,062,00,31,12,313,00,32,04,339,00,20,03,002,00*71 $GPRMC,164953,A,5407.3306,N,01934.4953,E,001.3,122.0,170610,,,A*7A $GPVTG,122.0,T,,M,001.3,N,002.5,K,A*09 $GPGGA,165008,5407.3275,N,01934.4928,E,1,08,01.1,00041.3,M,034.3,M,00,0000*4F $GPGSA,A,3,30,14,12,09,27,02,04,29,,,,,02.4,01.1,02.1*03 $GPGSV,3,1,12,12,85,069,31,30,55,276,26,02,34,116,30,14,33,276,22*79 $GPGSV,3,2,12,09,31,156,28,04,30,064,40,27,25,155,27,29,20,217,21*71 $GPGSV,3,3,12,19,19,062,00,31,12,313,00,32,04,339,00,20,03,002,00*71 $GPRMC,165008,A,5407.3275,N,01934.4928,E,002.4,148.0,170610,,,A*7D $GPVTG,148.0,T,,M,002.4,N,004.5,K,A*07 $GPGGA,165023,5407.3244,N,01934.5028,E,1,08,01.1,00034.8,M,034.3,M,00,0000*45 $GPGSA,A,3,30,14,12,09,27,02,04,29,,,,,02.4,01.1,02.1*03 $GPGSV,3,1,12,12,85,069,25,30,55,276,27,02,34,116,22,14,33,276,29*75 $GPGSV,3,2,12,09,31,156,29,04,30,064,32,27,25,155,31,29,20,217,20*73 $GPGSV,3,3,12,19,19,062,00,31,12,313,26,32,04,339,00,20,03,002,00*75 $GPRMC,165023,A,5407.3244,N,01934.5028,E,000.5,004.0,170610,,,A*74 $GPVTG,004.0,T,,M,000.5,N,001.0,K,A*0D $GPGGA,165038,5407.3280,N,01934.5099,E,1,08,01.1,00030.1,M,034.3,M,00,0000*40 $GPGSA,A,3,30,14,12,09,27,02,04,29,,,,,02.4,01.1,02.1*03 $GPGSV,3,1,12,12,85,069,36,30,55,276,26,02,34,116,31,14,33,276,22*7F $GPGSV,3,2,12,09,31,156,30,04,30,064,37,27,25,155,24,29,20,217,20*7A $GPGSV,3,3,12,19,19,062,00,31,12,313,18,32,04,339,00,20,03,002,00*78 $GPRMC,165038,A,5407.3280,N,01934.5099,E,000.6,034.6,170610,,,A*7A $GPVTG,034.6,T,,M,000.6,N,001.1,K,A*0A $GPGGA,165049,5407.3298,N,01934.5102,E,1,06,01.4,00025.3,M,034.3,M,00,0000*41 $GPGSA,A,3,30,12,04,27,09,29,,,,,,,02.7,01.4,02.3*00 $GPGSV,3,1,12,12,85,069,37,30,55,276,42,02,34,116,00,14,33,276,00*7E $GPGSV,3,2,12,09,31,156,26,04,30,064,33,27,25,155,26,29,20,217,23*78 $GPGSV,3,3,12,19,19,062,00,31,12,313,00,32,04,339,00,20,03,002,00*71 $GPRMC,165049,A,5407.3298,N,01934.5102,E,000.7,335.2,170610,,,A*71 $GPVTG,335.2,T,,M,000.7,N,001.4,K,A*08 $GPGGA,165108,5407.3350,N,01934.5095,E,1,06,01.6,00022.8,M,034.3,M,00,0000*41 $GPGSA,A,3,30,12,04,27,02,09,,,,,,,03.6,01.6,03.2*0B $GPGSV,3,1,12,12,84,072,32,30,56,277,25,02,34,115,23,14,33,275,00*72 $GPGSV,3,2,12,09,31,156,27,04,30,063,26,27,25,155,23,29,21,217,08*77 $GPGSV,3,3,12,19,19,062,00,31,12,313,08,32,04,339,00,20,03,002,00*79 $GPRMC,165108,A,5407.3350,N,01934.5095,E,000.5,248.6,170610,,,A*72 $GPVTG,248.6,T,,M,000.5,N,000.9,K,A*09 $GPGGA,165123,5407.3346,N,01934.5164,E,1,04,01.9,00035.6,M,034.3,M,00,0000*45 $GPGSA,A,3,30,12,04,27,,,,,,,,,03.8,01.9,03.3*00 $GPGSV,3,1,12,12,84,072,23,30,56,277,26,02,34,115,00,14,33,275,00*70 $GPGSV,3,2,12,09,31,156,00,04,30,063,19,27,25,155,15,29,21,217,00*73 $GPGSV,3,3,12,19,19,062,00,31,12,313,00,32,04,339,00,20,03,002,00*71 $GPRMC,165123,A,5407.3346,N,01934.5164,E,001.5,061.2,170610,,,A*7F $GPVTG,061.2,T,,M,001.5,N,002.8,K,A*06 $GPGGA,165126,5407.3374,N,01934.5190,E,1,03,01.5,00035.2,M,034.3,M,00,0000*45 $GPGSA,A,2,30,04,27,,,,,,,,,,01.8,01.5,01.0*0D $GPGSV,3,1,12,12,84,072,00,30,56,277,23,02,34,115,00,14,33,275,00*74 $GPGSV,3,2,12,09,31,156,00,04,30,063,18,27,25,155,14,29,21,217,00*73 $GPGSV,3,3,12,19,19,062,00,31,12,313,00,32,04,339,00,20,03,002,00*71 $GPRMC,165126,A,5407.3374,N,01934.5190,E,002.8,006.3,170610,,,A*7E $GPVTG,006.3,T,,M,002.8,N,005.3,K,N*0B $GPGGA,165153,5407.3284,N,01934.5150,E,1,08,01.1,00029.3,M,034.3,M,00,0000*46 $GPGSA,A,3,30,12,04,09,14,02,27,29,,,,,02.3,01.1,02.1*04 $GPGSV,3,1,12,12,84,072,38,30,56,277,32,02,34,115,30,14,33,275,24*7A $GPGSV,3,2,12,09,31,156,27,04,30,063,32,27,25,155,26,29,21,217,22*7F $GPGSV,3,3,12,19,19,062,00,31,12,313,20,32,04,339,00,20,03,002,00*73 $GPRMC,165153,A,5407.3284,N,01934.5150,E,000.3,119.8,170610,,,A*73 $GPVTG,119.8,T,,M,000.3,N,000.7,K,A*08 $GPGGA,165208,5407.3287,N,01934.5159,E,1,08,01.1,00037.3,M,034.3,M,00,0000*4E $GPGSA,A,3,30,12,04,09,14,02,27,29,,,,,02.3,01.1,02.1*04 $GPGSV,3,1,12,12,84,072,39,30,56,277,44,02,34,115,20,14,33,275,28*77 $GPGSV,3,2,12,09,31,156,23,04,30,063,27,27,25,155,26,29,21,217,20*7D $GPGSV,3,3,12,19,19,062,00,31,12,313,26,32,04,339,00,20,03,002,00*75 $GPRMC,165208,A,5407.3287,N,01934.5159,E,000.5,177.2,170610,,,A*70 $GPVTG,177.2,T,,M,000.5,N,001.0,K,A*0A $GPGGA,165223,5407.3243,N,01934.5118,E,1,08,01.1,00049.9,M,034.3,M,00,0000*49 $GPGSA,A,3,30,12,04,09,14,02,27,29,,,,,02.3,01.1,02.1*04 $GPGSV,3,1,12,12,84,072,39,30,56,277,41,02,34,115,20,14,33,275,31*7A $GPGSV,3,2,12,09,31,156,18,04,30,063,30,27,25,155,21,29,21,217,20*74 $GPGSV,3,3,12,19,19,062,00,31,12,313,30,32,04,339,00,20,03,002,00*72 $GPRMC,165223,A,5407.3243,N,01934.5118,E,000.4,179.0,170610,,,A*79 $GPVTG,179.0,T,,M,000.4,N,000.8,K,A*0E $GPGGA,165233,5407.3216,N,01934.5127,E,1,05,01.4,00051.3,M,034.3,M,00,0000*4F $GPGSA,A,3,30,12,04,09,14,,,,,,,,02.7,01.4,02.3*0B $GPGSV,3,1,12,12,83,075,37,30,57,277,39,02,35,115,00,14,33,274,26*7E $GPGSV,3,2,12,04,30,062,32,09,30,156,29,27,24,155,00,29,22,217,00*77 $GPGSV,3,3,12,19,19,061,00,31,13,313,29,32,04,338,00,20,03,001,00*7A $GPRMC,165233,A,5407.3216,N,01934.5127,E,001.1,142.5,170610,,,A*7D $GPVTG,142.5,T,,M,001.1,N,002.0,K,A*0D $GPGGA,165253,5407.3327,N,01934.5152,E,1,07,01.2,00048.6,M,034.3,M,00,0000*41 $GPGSA,A,3,30,12,09,04,14,02,27,,,,,,02.5,01.2,02.2*09 $GPGSV,3,1,12,12,83,076,38,30,57,277,42,02,35,115,24,14,33,274,25*7B $GPGSV,3,2,12,04,30,062,26,09,30,156,31,27,24,155,20,29,22,217,00*79 $GPGSV,3,3,12,19,19,061,00,31,13,313,28,32,04,338,00,20,03,001,00*7B $GPRMC,165253,A,5407.3327,N,01934.5152,E,000.1,040.1,170610,,,A*7C $GPVTG,040.1,T,,M,000.1,N,000.3,K,A*0A $GPGGA,165303,5407.3346,N,01934.5130,E,1,03,06.6,00043.8,M,034.3,M,00,0000*44 $GPGSA,A,2,30,12,04,,,,,,,,,,06.6,06.6,00.9*0E $GPGSV,3,1,12,12,83,076,22,30,57,277,26,02,35,115,12,14,33,274,00*70 $GPGSV,3,2,12,04,30,062,21,09,30,156,17,27,24,155,11,29,22,217,08*70 $GPGSV,3,3,12,19,19,061,00,31,13,313,13,32,04,338,00,20,03,001,00*73 $GPRMC,165303,A,5407.3346,N,01934.5130,E,001.8,275.4,170610,,,A*72 $GPVTG,275.4,T,,M,001.8,N,003.3,K,A*00 $GPGGA,165323,5407.3162,N,01934.4964,E,1,08,01.1,00050.3,M,034.3,M,00,0000*48 $GPGSA,A,3,30,12,02,04,27,14,09,29,,,,,02.3,01.1,02.1*04 $GPGSV,3,1,12,12,83,076,32,30,57,277,34,02,35,115,30,14,33,274,24*74 $GPGSV,3,2,12,04,30,062,20,09,30,156,27,27,24,155,28,29,22,217,19*78 $GPGSV,3,3,12,19,19,061,00,31,13,313,24,32,04,338,00,20,03,001,00*77 $GPRMC,165323,A,5407.3162,N,01934.4964,E,000.3,167.7,170610,,,A*75 $GPVTG,167.7,T,,M,000.3,N,000.6,K,A*0F $GPGGA,165338,5407.3128,N,01934.5053,E,1,08,01.1,00062.3,M,034.3,M,00,0000*41 $GPGSA,A,3,30,12,02,04,27,14,09,29,,,,,02.3,01.1,02.1*04 $GPGSV,3,1,12,12,83,077,39,30,57,277,28,02,35,114,36,14,32,274,25*74 $GPGSV,3,2,12,04,30,062,31,09,29,156,36,27,24,155,35,29,22,217,22*74 $GPGSV,3,3,12,19,19,061,00,31,13,313,18,32,03,338,00,20,03,001,00*7F $GPRMC,165338,A,5407.3128,N,01934.5053,E,001.2,130.2,170610,,,A*7A $GPVTG,130.2,T,,M,001.2,N,002.3,K,A*0F $GPGGA,165353,5407.3150,N,01934.5134,E,1,05,01.8,00053.9,M,034.3,M,00,0000*4F $GPGSA,A,3,30,12,09,04,27,,,,,,,,03.8,01.8,03.3*08 $GPGSV,3,1,12,12,83,077,22,30,57,277,32,02,35,114,00,14,32,274,00*77 $GPGSV,3,2,12,04,30,062,16,09,29,156,24,27,24,155,22,29,22,217,00*74 $GPGSV,3,3,12,19,19,061,00,31,13,313,00,32,03,338,00,20,03,001,00*76 $GPRMC,165353,A,5407.3150,N,01934.5134,E,001.2,226.4,170610,,,A*7A $GPVTG,226.4,T,,M,001.2,N,002.3,K,A*0D $GPGGA,165406,5407.3159,N,01934.5088,E,1,03,03.2,00054.9,M,034.3,M,00,0000*4E $GPGSA,A,2,30,12,09,,,,,,,,,,03.3,03.2,00.9*02 $GPGSV,3,1,12,12,83,077,21,30,57,277,28,02,35,114,00,14,32,274,00*7F $GPGSV,3,2,12,04,30,062,00,09,29,156,14,27,24,155,00,29,22,217,00*70 $GPGSV,3,3,12,19,19,061,00,31,13,313,00,32,03,338,00,20,03,001,00*76 $GPRMC,165406,A,5407.3159,N,01934.5088,E,001.3,111.9,170610,,,A*79 $GPVTG,111.9,T,,M,001.3,N,002.5,K,N*0F $GPGGA,165423,5407.3319,N,01934.5101,E,1,04,02.4,00056.1,M,034.3,M,00,0000*45 $GPGSA,A,3,30,12,02,04,,,,,,,,,04.6,02.4,03.9*0A $GPGSV,3,1,12,12,83,077,37,30,57,277,26,02,35,114,22,14,32,274,00*76 $GPGSV,3,2,12,04,30,062,22,09,29,156,00,27,24,155,00,29,22,217,00*75 $GPGSV,3,3,12,19,19,061,00,31,13,313,16,32,03,338,00,20,03,001,00*71 $GPRMC,165423,A,5407.3319,N,01934.5101,E,004.5,003.4,170610,,,A*74 $GPVTG,003.4,T,,M,004.5,N,008.4,K,A*07 $GPGGA,165438,5407.3295,N,01934.5079,E,1,07,01.2,00039.6,M,034.3,M,00,0000*4C $GPGSA,A,3,30,12,02,09,27,04,14,,,,,,02.5,01.2,02.2*09 $GPGSV,3,1,12,12,83,077,38,30,57,277,41,02,35,114,23,14,32,274,24*7F $GPGSV,3,2,12,04,30,062,21,09,29,156,28,27,24,155,24,29,22,217,00*7A $GPGSV,3,3,12,19,19,061,00,31,13,313,17,32,03,338,00,20,03,001,00*70 $GPRMC,165438,A,5407.3295,N,01934.5079,E,000.0,269.8,170610,,,A*76 $GPVTG,269.8,T,,M,000.0,N,000.1,K,A*09 $GPGGA,165453,5407.3262,N,01934.5071,E,1,07,01.2,00047.4,M,034.3,M,00,0000*4A $GPGSA,A,3,30,12,02,09,27,04,14,,,,,,02.5,01.2,02.2*09 $GPGSV,3,1,12,12,83,077,30,30,57,277,39,02,35,114,27,14,32,274,23*7B $GPGSV,3,2,12,04,30,062,26,09,29,156,25,27,24,155,22,29,22,217,00*76 $GPGSV,3,3,12,19,19,061,00,31,13,313,23,32,03,338,00,20,03,001,00*77 $GPRMC,165453,A,5407.3262,N,01934.5071,E,000.4,165.0,170610,,,A*78 $GPVTG,165.0,T,,M,000.4,N,000.8,K,A*03 $GPGGA,165508,5407.3232,N,01934.5015,E,1,07,02.1,00059.9,M,034.3,M,00,0000*40 $GPGSA,A,3,30,12,02,09,27,29,14,,,,,,04.0,02.1,03.3*05 $GPGSV,3,1,12,12,82,079,26,30,58,277,39,02,36,114,23,14,32,273,22*7D $GPGSV,3,2,12,04,30,061,18,09,29,156,25,27,23,155,23,29,23,218,21*73 $GPGSV,3,3,12,19,19,060,00,31,14,313,24,32,03,338,00,20,03,000,00*77 $GPRMC,165508,A,5407.3232,N,01934.5015,E,000.5,161.3,170610,,,A*76 $GPVTG,161.3,T,,M,000.5,N,000.9,K,A*04 $GPGGA,165523,5407.3201,N,01934.5007,E,1,05,03.1,00063.2,M,034.3,M,00,0000*4B $GPGSA,A,3,30,12,02,27,14,,,,,,,,04.8,03.1,03.6*0B $GPGSV,3,1,12,12,82,079,35,30,58,277,34,02,36,114,22,14,32,273,19*7B $GPGSV,3,2,12,04,30,061,17,09,29,156,15,27,23,155,12,29,23,218,18*77 $GPGSV,3,3,12,19,19,060,00,31,14,313,10,32,03,338,00,20,03,000,00*70 $GPRMC,165523,A,5407.3201,N,01934.5007,E,000.2,318.8,170610,,,A*7C $GPVTG,318.8,T,,M,000.2,N,000.3,K,A*0E $GPGGA,165538,5407.3287,N,01934.4960,E,1,08,01.1,00043.9,M,034.3,M,00,0000*40 $GPGSA,A,3,30,12,02,09,27,29,04,14,,,,,02.3,01.1,02.0*05 $GPGSV,3,1,12,12,82,079,26,30,58,277,35,02,36,114,27,14,32,273,22*75 $GPGSV,3,2,12,04,30,061,25,09,29,156,16,27,23,155,25,29,23,218,19*70 $GPGSV,3,3,12,19,19,060,00,31,14,313,22,32,03,338,00,20,03,000,00*71 $GPRMC,165538,A,5407.3287,N,01934.4960,E,000.5,021.3,170610,,,A*74 $GPVTG,021.3,T,,M,000.5,N,001.0,K,A*09 $GPGGA,165553,5407.3368,N,01934.4929,E,1,07,01.2,00045.3,M,034.3,M,00,0000*40 $GPGSA,A,3,30,12,02,09,27,04,14,,,,,,02.5,01.2,02.1*0A $GPGSV,3,1,12,12,82,079,17,30,58,277,36,02,36,114,23,14,32,273,27*75 $GPGSV,3,2,12,04,30,061,19,09,29,156,25,27,23,155,19,29,23,218,14*7D $GPGSV,3,3,12,19,19,060,00,31,14,313,24,32,03,338,00,20,03,000,00*77 $GPRMC,165553,A,5407.3368,N,01934.4929,E,000.2,167.4,170610,,,A*77 $GPVTG,167.4,T,,M,000.2,N,000.4,K,A*0F $GPGGA,165608,5407.3359,N,01934.4935,E,1,07,01.2,00053.7,M,034.3,M,00,0000*41 $GPGSA,A,3,30,12,02,09,27,04,14,,,,,,02.4,01.2,02.1*0B $GPGSV,3,1,12,12,82,079,31,30,58,277,38,02,36,114,19,14,32,273,28*79 $GPGSV,3,2,12,04,30,061,20,09,29,156,27,27,23,155,25,29,23,218,18*76 $GPGSV,3,3,12,19,19,060,00,31,14,313,26,32,03,338,00,20,03,000,00*75 $GPRMC,165608,A,5407.3359,N,01934.4935,E,000.7,201.7,170610,,,A*70 $GPVTG,201.7,T,,M,000.7,N,001.3,K,A*0C $GPGGA,165623,5407.3291,N,01934.5004,E,1,04,02.5,00065.2,M,034.3,M,00,0000*40 $GPGSA,A,3,30,12,09,14,,,,,,,,,02.7,02.5,00.9*05 $GPGSV,3,1,12,12,82,079,30,30,58,277,36,02,36,114,00,14,32,273,27*71 $GPGSV,3,2,12,04,30,061,18,09,29,156,22,27,23,155,00,29,23,218,12*75 $GPGSV,3,3,12,19,19,060,00,31,14,313,00,32,03,338,00,20,03,000,00*71 $GPRMC,165623,A,5407.3291,N,01934.5004,E,000.8,162.7,170610,,,A*7F $GPVTG,162.7,T,,M,000.8,N,001.5,K,A*03 $GPGGA,165638,5407.3297,N,01934.5075,E,1,09,00.8,00053.5,M,034.3,M,00,0000*4A $GPGSA,A,3,30,12,02,09,31,29,04,14,27,,,,01.7,00.8,01.5*0E $GPGSV,3,1,12,12,82,081,19,30,59,278,39,02,36,113,26,14,32,272,25*7C $GPGSV,3,2,12,04,30,060,21,09,28,156,20,29,23,218,15,27,22,156,25*7F $GPGSV,3,3,12,19,20,059,00,31,14,313,28,20,03,000,00,32,03,337,00*74 $GPRMC,165638,A,5407.3297,N,01934.5075,E,000.1,080.1,170610,,,A*77 $GPVTG,080.1,T,,M,000.1,N,000.3,K,A*06 $GPGGA,165653,5407.3308,N,01934.5133,E,1,08,00.9,00042.5,M,034.3,M,00,0000*43 $GPGSA,A,3,30,12,09,31,29,04,14,27,,,,,01.8,00.9,01.5*02 $GPGSV,3,1,12,12,82,081,30,30,59,278,43,02,36,113,14,14,32,272,25*7B $GPGSV,3,2,12,04,30,060,29,09,28,156,22,29,23,218,18,27,22,156,17*79 $GPGSV,3,3,12,19,20,059,00,31,14,313,21,20,03,000,00,32,03,337,00*7D $GPRMC,165653,A,5407.3308,N,01934.5133,E,000.1,051.6,170610,,,A*75 $GPVTG,051.6,T,,M,000.1,N,000.2,K,A*0C $GPGGA,165708,5407.3301,N,01934.5094,E,1,05,02.0,00053.8,M,034.3,M,00,0000*42 $GPGSA,A,3,30,12,02,09,31,,,,,,,,02.6,02.0,01.7*0B $GPGSV,3,1,12,12,82,081,27,30,59,278,44,02,36,113,25,14,32,272,16*78 $GPGSV,3,2,12,04,30,060,15,09,28,156,20,29,23,218,18,27,22,156,18*7B $GPGSV,3,3,12,19,20,059,00,31,14,313,21,20,03,000,00,32,03,337,00*7D $GPRMC,165708,A,5407.3301,N,01934.5094,E,000.5,207.9,170610,,,A*75 $GPVTG,207.9,T,,M,000.5,N,001.0,K,A*05 $GPGGA,165723,5407.3246,N,01934.5073,E,1,08,00.9,00050.9,M,034.3,M,00,0000*44 $GPGSA,A,3,30,12,02,09,31,29,04,27,,,,,01.8,00.9,01.5*05 $GPGSV,3,1,12,12,81,081,23,30,59,278,45,02,36,113,27,14,32,272,00*7B $GPGSV,3,2,12,04,30,060,23,09,28,156,27,29,24,218,20,27,22,156,16*7B $GPGSV,3,3,12,19,20,059,00,31,15,313,24,20,03,359,00,32,03,337,00*76 $GPRMC,165723,A,5407.3246,N,01934.5073,E,000.6,185.7,170610,,,A*73 $GPVTG,185.7,T,,M,000.6,N,001.2,K,A*03 $GPGGA,165738,5407.3194,N,01934.5057,E,1,08,00.9,00043.7,M,034.3,M,00,0000*48 $GPGSA,A,3,30,12,02,09,31,29,04,27,,,,,01.8,00.9,01.5*05 $GPGSV,3,1,12,12,81,082,28,30,59,278,45,02,36,113,31,14,32,272,00*74 $GPGSV,3,2,12,04,30,060,21,09,27,157,24,29,24,218,19,27,22,156,23*78 $GPGSV,3,3,12,19,20,059,00,31,15,313,25,20,03,359,00,32,03,337,00*77 $GPRMC,165738,A,5407.3194,N,01934.5057,E,000.5,207.3,170610,,,A*7D $GPVTG,207.3,T,,M,000.5,N,000.9,K,A*07 $GPGGA,165753,5407.3229,N,01934.5098,E,1,07,01.2,00040.7,M,034.3,M,00,0000*45 $GPGSA,A,3,30,12,02,09,04,14,27,,,,,,02.4,01.2,02.1*0B $GPGSV,3,1,12,12,81,082,20,30,59,278,24,02,36,113,16,14,32,272,17*78 $GPGSV,3,2,12,04,30,060,18,09,27,157,22,29,24,218,09,27,22,156,18*7D $GPGSV,3,3,12,19,20,059,00,31,15,313,09,20,03,359,00,32,03,337,00*79 $GPRMC,165753,A,5407.3229,N,01934.5098,E,000.6,344.8,170610,,,A*78 $GPVTG,344.8,T,,M,000.6,N,001.2,K,A*03 $GPGGA,165808,5407.3211,N,01934.5125,E,1,08,01.0,00036.2,M,034.3,M,00,0000*41 $GPGSA,A,3,30,12,04,09,14,02,31,27,,,,,01.8,01.0,01.5*03 $GPGSV,3,1,12,12,81,082,35,30,59,278,39,02,36,113,34,14,32,272,21*75 $GPGSV,3,2,12,04,30,060,27,09,27,157,34,29,24,218,00,27,22,156,28*7C $GPGSV,3,3,12,19,20,059,00,31,15,313,23,20,03,359,00,32,03,337,00*71 $GPRMC,165808,A,5407.3211,N,01934.5125,E,002.5,221.6,170610,,,A*78 $GPVTG,221.6,T,,M,002.5,N,004.6,K,A*0F $GPGGA,165823,5407.3231,N,01934.5194,E,1,09,00.8,00025.4,M,034.3,M,00,0000*4C $GPGSA,A,3,30,12,04,09,14,02,31,29,27,,,,01.7,00.8,01.5*0E $GPGSV,3,1,12,12,81,082,36,30,59,278,32,02,36,113,37,14,32,272,21*7E $GPGSV,3,2,12,04,30,060,28,09,27,157,29,29,24,218,23,27,22,156,29*7F $GPGSV,3,3,12,19,20,059,00,31,15,313,17,20,03,359,00,32,03,337,00*76 $GPRMC,165823,A,5407.3231,N,01934.5194,E,000.4,086.3,170610,,,A*70 $GPVTG,086.3,T,,M,000.4,N,000.7,K,A*03 $GPGGA,165838,5407.3239,N,01934.5200,E,1,09,00.8,00037.5,M,034.3,M,00,0000*42 $GPGSA,A,3,30,12,04,09,14,02,31,29,27,,,,01.7,00.8,01.5*0E $GPGSV,3,1,12,12,81,082,35,30,59,278,41,02,36,113,30,14,32,272,24*7B $GPGSV,3,2,12,04,30,060,27,09,27,157,30,29,24,218,26,27,22,156,27*73 $GPGSV,3,3,12,19,20,059,00,31,15,313,23,20,03,359,00,32,03,337,00*71 $GPRMC,165838,A,5407.3239,N,01934.5200,E,000.3,051.0,170610,,,A*72 $GPVTG,051.0,T,,M,000.3,N,000.7,K,A*0D $GPGGA,165853,5407.3275,N,01934.5188,E,1,08,01.0,00032.3,M,034.3,M,00,0000*4F $GPGSA,A,3,30,12,04,09,14,02,31,27,,,,,01.8,01.0,01.5*03 $GPGSV,3,1,12,12,81,082,36,30,59,278,44,02,36,113,30,14,32,272,26*7F $GPGSV,3,2,12,04,30,060,31,09,27,157,28,29,24,218,00,27,22,156,23*7D $GPGSV,3,3,12,19,20,059,00,31,15,313,28,20,03,359,00,32,03,337,00*7A $GPRMC,165853,A,5407.3275,N,01934.5188,E,000.2,180.6,170610,,,A*7E $GPVTG,180.6,T,,M,000.2,N,000.4,K,A*04 $GPGGA,165900,5407.3262,N,01934.5194,E,1,09,00.8,00029.6,M,034.3,M,00,0000*44 $GPGSA,A,3,30,12,04,09,14,02,31,29,27,,,,01.7,00.8,01.5*0E $GPGSV,3,1,12,12,80,083,36,30,60,278,43,02,37,112,31,14,31,271,28*7D $GPGSV,3,2,12,04,29,059,30,09,27,157,27,29,25,218,23,27,21,156,24*75 $GPGSV,3,3,12,19,20,058,00,31,15,313,29,20,03,359,00,32,03,336,00*7B $GPRMC,165900,A,5407.3262,N,01934.5194,E,000.1,196.6,170610,,,A*76 $GPVTG,196.6,T,,M,000.1,N,000.2,K,A*06 $GPGGA,165923,5407.3213,N,01934.5077,E,1,06,01.2,00043.3,M,034.3,M,00,0000*42 $GPGSA,A,3,30,14,29,09,12,04,,,,,,,02.4,01.2,02.0*06 $GPGSV,3,1,12,12,80,083,32,30,60,278,44,02,37,112,00,14,31,271,33*76 $GPGSV,3,2,12,04,29,059,19,09,27,157,25,29,25,218,33,27,21,156,00*7B $GPGSV,3,3,12,31,15,313,00,19,20,058,00,20,03,359,00,32,03,336,00*70 $GPRMC,165923,A,5407.3213,N,01934.5077,E,001.6,223.6,170610,,,A*76 $GPVTG,223.6,T,,M,001.6,N,003.0,K,A*0C $GPGGA,165934,5407.3260,N,01934.5172,E,1,09,00.8,00030.2,M,034.3,M,00,0000*45 $GPGSA,A,3,30,14,29,09,12,04,02,31,27,,,,01.7,00.8,01.5*0E $GPGSV,3,1,12,12,80,083,32,30,60,278,43,02,37,112,22,14,31,271,32*70 $GPGSV,3,2,12,04,29,059,18,09,27,157,25,29,25,218,33,27,21,156,17*7C $GPGSV,3,3,12,31,15,313,19,19,20,058,00,20,03,359,00,32,03,336,00*78 $GPRMC,165934,A,5407.3260,N,01934.5172,E,000.0,031.5,170610,,,A*75 $GPVTG,031.5,T,,M,000.0,N,000.0,K,A*0A $GPGGA,165949,5407.3267,N,01934.5167,E,1,05,01.7,00026.1,M,034.3,M,00,0000*4A $GPGSA,A,3,02,12,09,29,04,,,,,,,,02.9,01.7,02.4*0E $GPGSV,3,1,12,12,80,083,36,30,60,278,00,02,37,112,30,14,31,271,00*71 $GPGSV,3,2,12,04,29,059,25,09,27,157,34,29,25,218,30,27,21,156,00*77 $GPGSV,3,3,12,19,20,058,00,31,15,313,00,20,03,359,00,32,03,336,00*70 $GPRMC,165949,A,5407.3267,N,01934.5167,E,001.7,149.4,170610,,,A*75 $GPVTG,149.4,T,,M,001.7,N,003.2,K,A*02 $GPGGA,170008,5407.3237,N,01934.5096,E,1,09,00.8,00034.0,M,034.3,M,00,0000*48 $GPGSA,A,3,30,09,14,02,12,29,31,27,04,,,,01.7,00.8,01.5*0E $GPGSV,3,1,12,12,80,084,33,30,60,278,42,02,37,111,21,14,31,271,27*73 $GPGSV,3,2,12,04,29,059,16,09,26,157,24,29,25,218,21,27,21,156,23*76 $GPGSV,3,3,12,31,16,313,25,19,20,058,00,20,03,358,00,32,03,336,00*75 $GPRMC,170008,A,5407.3237,N,01934.5096,E,000.4,051.4,170610,,,A*7D $GPVTG,051.4,T,,M,000.4,N,000.9,K,A*00 $GPGGA,170023,5407.3218,N,01934.5042,E,1,08,00.9,00028.4,M,034.3,M,00,0000*4C $GPGSA,A,3,30,09,14,12,29,31,27,04,,,,,01.8,00.9,01.5*02 $GPGSV,3,1,12,12,80,084,24,30,60,278,41,02,37,111,00,14,31,271,16*77 $GPGSV,3,2,12,04,29,059,26,09,26,157,22,29,25,218,23,27,21,156,25*77 $GPGSV,3,3,12,31,16,313,25,19,20,058,00,20,03,358,00,32,03,336,00*75 $GPRMC,170023,A,5407.3218,N,01934.5042,E,000.2,067.5,170610,,,A*72 $GPVTG,067.5,T,,M,000.2,N,000.4,K,A*0F $GPGGA,170038,5407.3224,N,01934.5077,E,1,09,00.8,00023.0,M,034.3,M,00,0000*40 $GPGSA,A,3,30,09,14,02,12,29,31,27,04,,,,01.7,00.8,01.5*0E $GPGSV,3,1,12,12,80,084,30,30,60,278,41,02,37,111,26,14,31,270,16*77 $GPGSV,3,2,12,04,29,059,20,09,26,157,28,29,25,218,27,27,20,156,26*7D $GPGSV,3,3,12,19,20,058,00,31,16,313,26,20,03,358,00,32,03,336,00*76 $GPRMC,170038,A,5407.3224,N,01934.5077,E,000.3,225.8,170610,,,A*79 $GPVTG,225.8,T,,M,000.3,N,000.5,K,A*06 $GPGGA,170053,5407.3242,N,01934.5110,E,1,09,00.8,00025.0,M,034.3,M,00,0000*4B $GPGSA,A,3,30,09,14,02,12,29,31,27,04,,,,01.7,00.8,01.5*0E $GPGSV,3,1,12,12,80,084,24,30,60,278,43,02,37,111,29,14,31,270,22*78 $GPGSV,3,2,12,04,29,059,30,09,26,157,21,29,25,218,30,27,20,156,27*72 $GPGSV,3,3,12,19,20,058,00,31,16,313,23,20,03,358,00,32,03,336,00*73 $GPRMC,170053,A,5407.3242,N,01934.5110,E,000.0,072.9,170610,,,A*76 $GPVTG,072.9,T,,M,000.0,N,000.1,K,A*00 $GPGGA,170108,5407.3226,N,01934.5084,E,1,09,00.8,00030.1,M,034.3,M,00,0000*4F $GPGSA,A,3,30,09,14,02,12,29,31,27,04,,,,01.7,00.8,01.5*0E $GPGSV,3,1,12,12,80,085,34,30,61,279,43,02,37,111,26,14,31,270,22*77 $GPGSV,3,2,12,04,29,058,23,09,26,157,23,29,25,218,32,27,20,156,26*70 $GPGSV,3,3,12,19,20,057,00,31,16,313,23,20,03,358,00,32,02,335,00*7E $GPRMC,170108,A,5407.3226,N,01934.5084,E,000.1,068.0,170610,,,A*74 $GPVTG,068.0,T,,M,000.1,N,000.3,K,A*01 $GPGGA,170123,5407.3203,N,01934.5103,E,1,09,00.8,00040.4,M,034.3,M,00,0000*4D $GPGSA,A,3,30,09,14,02,12,29,31,27,04,,,,01.7,00.8,01.5*0E $GPGSV,3,1,12,12,80,085,19,30,61,279,41,02,37,111,25,14,31,270,19*71 $GPGSV,3,2,12,04,29,058,23,09,26,157,23,29,25,218,31,27,20,156,26*73 $GPGSV,3,3,12,19,20,057,00,31,16,313,18,20,03,358,00,32,02,335,00*76 $GPRMC,170123,A,5407.3203,N,01934.5103,E,000.3,111.4,170610,,,A*7D $GPVTG,111.4,T,,M,000.3,N,000.6,K,A*0D $GPGGA,170138,5407.3227,N,01934.5114,E,1,09,00.8,00038.0,M,034.3,M,00,0000*4C $GPGSA,A,3,30,09,14,02,12,29,31,27,04,,,,01.7,00.8,01.5*0E $GPGSV,3,1,12,12,80,085,32,30,61,279,39,02,37,111,23,14,31,270,26*7D $GPGSV,3,2,12,04,29,058,30,09,26,157,19,29,25,218,32,27,20,156,21*7C $GPGSV,3,3,12,19,20,057,00,31,16,313,22,20,03,358,00,32,02,335,00*7F $GPRMC,170138,A,5407.3227,N,01934.5114,E,000.2,124.5,170610,,,A*71 $GPVTG,124.5,T,,M,000.2,N,000.4,K,A*09 $GPGGA,170153,5407.3216,N,01934.5176,E,1,04,02.4,00037.2,M,034.3,M,00,0000*49 $GPGSA,A,3,30,09,14,12,,,,,,,,,02.6,02.4,00.9*05 $GPGSV,3,1,12,12,80,085,23,30,61,279,16,02,37,111,00,14,31,270,12*76 $GPGSV,3,2,12,04,29,058,00,09,26,157,14,29,25,218,00,27,20,156,00*70 $GPGSV,3,3,12,19,20,057,00,31,16,313,00,20,03,358,00,32,02,335,00*7F $GPRMC,170153,A,5407.3216,N,01934.5176,E,001.1,089.1,170610,,,A*7A $GPVTG,089.1,T,,M,001.1,N,002.1,K,A*0E $GPGGA,170208,5407.3356,N,01934.5181,E,1,03,09.8,00040.4,M,034.3,M,00,0000*4F $GPGSA,A,2,30,02,12,,,,,,,,,,09.9,09.8,00.9*09 $GPGSV,3,1,12,12,80,085,21,30,61,279,20,02,37,111,17,14,31,270,00*74 $GPGSV,3,2,12,04,29,058,00,09,26,157,00,29,25,218,00,27,20,156,00*75 $GPGSV,3,3,12,19,20,057,00,31,16,313,00,20,03,358,00,32,02,335,00*7F $GPRMC,170208,A,5407.3356,N,01934.5181,E,004.1,007.1,170610,,,A*79 $GPVTG,007.1,T,,M,004.1,N,007.7,K,N*01 $GPGGA,170223,5407.3497,N,01934.5522,E,1,03,09.9,00040.6,M,034.3,M,00,0000*42 $GPGSA,A,2,30,02,12,,,,,,,,,,09.9,09.9,01.0*00 $GPGSV,3,1,12,12,80,085,18,30,61,279,21,02,37,111,14,14,31,270,00*7C $GPGSV,3,2,12,04,29,058,00,09,26,157,00,29,25,218,00,27,20,156,00*75 $GPGSV,3,3,12,19,20,057,00,31,16,313,00,20,03,358,00,32,02,335,00*7F $GPRMC,170223,A,5407.3497,N,01934.5522,E,010.7,094.3,170610,,,A*7C $GPVTG,094.3,T,,M,010.7,N,019.9,K,N*0B $GPGGA,170235,5407.3157,N,01934.5734,E,1,03,05.1,00039.2,M,034.3,M,00,0000*47 $GPGSA,A,2,30,04,12,,,,,,,,,,05.2,05.1,01.0*05 $GPGSV,3,1,12,12,80,085,21,30,61,279,21,02,37,111,00,14,31,270,00*73 $GPGSV,3,2,12,04,29,058,17,09,26,157,00,29,25,218,00,27,20,156,00*73 $GPGSV,3,3,12,19,20,057,00,31,16,313,00,20,03,358,00,32,02,335,00*7F $GPRMC,170235,A,5407.3157,N,01934.5734,E,004.1,155.3,170610,,,A*78 $GPVTG,155.3,T,,M,004.1,N,007.6,K,N*04 $GPGGA,170253,5407.3289,N,01934.5232,E,1,09,00.8,00033.4,M,034.3,M,00,0000*4E $GPGSA,A,3,30,04,12,14,09,29,02,27,31,,,,01.7,00.8,01.5*0E $GPGSV,3,1,12,12,80,085,32,30,61,279,30,02,37,111,34,14,31,270,24*70 $GPGSV,3,2,12,04,29,058,21,09,26,157,32,29,25,218,25,27,20,156,23*71 $GPGSV,3,3,12,19,20,057,00,31,16,313,22,20,03,358,00,32,02,335,00*7F $GPRMC,170253,A,5407.3289,N,01934.5232,E,000.8,042.9,170610,,,A*7B $GPVTG,042.9,T,,M,000.8,N,001.6,K,A*0D $GPGGA,170308,5407.3281,N,01934.5304,E,1,09,00.8,00026.4,M,034.3,M,00,0000*49 $GPGSA,A,3,30,04,12,14,09,29,02,27,31,,,,01.7,00.8,01.5*0E $GPGSV,3,1,12,12,80,085,32,30,61,279,30,02,37,111,27,14,31,270,25*73 $GPGSV,3,2,12,04,29,058,29,09,26,157,30,29,25,218,26,27,20,156,28*73 $GPGSV,3,3,12,19,20,057,00,31,16,313,20,20,03,358,00,32,02,335,00*7D $GPRMC,170308,A,5407.3281,N,01934.5304,E,002.3,070.9,170610,,,A*70 $GPVTG,070.9,T,,M,002.3,N,004.2,K,A*04 $GPGGA,170323,5407.3308,N,01934.5466,E,1,09,00.8,00030.5,M,034.3,M,00,0000*45 $GPGSA,A,3,30,04,12,14,09,29,02,27,31,,,,01.7,00.8,01.5*0E $GPGSV,3,1,12,12,80,085,33,30,61,279,34,02,37,111,28,14,31,270,29*75 $GPGSV,3,2,12,04,29,058,25,09,26,157,27,29,25,218,26,27,20,156,22*73 $GPGSV,3,3,12,19,20,057,00,31,16,313,21,20,03,358,00,32,02,335,00*7C $GPRMC,170323,A,5407.3308,N,01934.5466,E,002.1,085.1,170610,,,A*7A $GPVTG,085.1,T,,M,002.1,N,003.9,K,A*08 $GPGGA,170338,5407.3261,N,01934.5684,E,1,09,00.8,00025.8,M,034.3,M,00,0000*46 $GPGSA,A,3,30,04,12,14,09,29,02,27,31,,,,01.7,00.8,01.5*0E $GPGSV,3,1,12,12,80,085,32,30,61,279,32,02,37,111,30,14,31,270,25*77 $GPGSV,3,2,12,04,29,058,36,09,26,157,29,29,25,218,28,27,20,156,25*76 $GPGSV,3,3,12,19,20,057,00,31,16,313,28,20,03,358,00,32,02,335,00*75 $GPRMC,170338,A,5407.3261,N,01934.5684,E,001.8,081.7,170610,,,A*78 $GPVTG,081.7,T,,M,001.8,N,003.4,K,A*0D $GPGGA,170346,5407.3265,N,01934.5755,E,1,07,01.0,00028.6,M,034.3,M,00,0000*42 $GPGSA,A,3,31,04,30,12,09,29,02,,,,,,01.9,01.0,01.6*0A $GPGSV,3,1,12,12,80,085,30,30,61,279,35,02,37,111,25,14,31,270,00*71 $GPGSV,3,2,12,04,29,058,35,09,26,157,27,29,25,218,28,27,20,156,00*7C $GPGSV,3,3,12,19,20,057,00,31,16,313,40,20,03,358,00,32,02,335,00*7B $GPRMC,170346,A,5407.3265,N,01934.5755,E,000.4,074.1,170610,,,A*79 $GPVTG,074.1,T,,M,000.4,N,000.7,K,A*0C $GPGGA,170401,5407.3269,N,01934.5814,E,1,05,01.3,00035.0,M,034.3,M,00,0000*4B $GPGSA,A,3,04,30,02,09,14,,,,,,,,03.3,01.3,03.1*0B $GPGSV,3,1,12,12,80,085,00,30,61,279,32,02,37,111,30,14,31,270,30*72 $GPGSV,3,2,12,04,29,058,34,09,26,157,29,29,25,218,00,27,20,156,00*79 $GPGSV,3,3,12,19,20,057,00,31,16,313,00,20,03,358,00,32,02,335,00*7F $GPRMC,170401,A,5407.3269,N,01934.5814,E,001.2,045.0,170610,,,A*7F $GPVTG,045.0,T,,M,001.2,N,002.3,K,A*0E $GPGGA,170416,5407.3288,N,01934.5871,E,1,07,00.9,00055.8,M,034.3,M,00,0000*46 $GPGSA,A,3,30,02,04,12,29,31,27,,,,,,01.8,00.9,01.5*0C $GPGSV,3,1,12,12,78,087,34,30,62,279,32,02,38,110,32,14,30,269,00*75 $GPGSV,3,2,12,04,29,057,31,29,27,219,30,09,24,157,00,19,20,056,00*76 $GPGSV,3,3,12,27,19,156,24,31,17,313,29,20,03,357,00,32,02,334,00*7A $GPRMC,170416,A,5407.3288,N,01934.5871,E,002.7,180.6,170610,,,A*7D $GPVTG,180.6,T,,M,002.7,N,005.1,K,A*03 $GPGGA,170438,5407.3440,N,01934.6109,E,1,09,00.8,00044.5,M,034.3,M,00,0000*4F $GPGSA,A,3,30,12,29,02,09,14,04,27,31,,,,01.7,00.8,01.5*0E $GPGSV,3,1,12,12,78,087,34,30,62,279,29,02,38,109,38,14,30,268,23*7D $GPGSV,3,2,12,04,29,057,36,29,27,219,25,09,24,157,29,27,19,156,25*7F $GPGSV,3,3,12,31,17,313,23,19,20,056,00,20,03,357,00,32,02,334,00*70 $GPRMC,170438,A,5407.3440,N,01934.6109,E,003.7,106.6,170610,,,A*79 $GPVTG,106.6,T,,M,003.7,N,007.0,K,A*0F $GPGGA,170450,5407.3433,N,01934.6290,E,1,07,01.1,00042.3,M,034.3,M,00,0000*40 $GPGSA,A,3,04,02,14,12,30,29,31,,,,,,02.1,01.1,01.7*0D $GPGSV,3,1,12,12,78,087,33,30,62,279,35,02,38,109,35,14,30,268,33*7B $GPGSV,3,2,12,04,29,057,40,29,27,219,26,09,24,157,00,19,20,056,00*77 $GPGSV,3,3,12,27,19,156,00,31,17,313,21,20,03,357,00,32,02,334,00*74 $GPRMC,170450,A,5407.3433,N,01934.6290,E,002.7,069.5,170610,,,A*7A $GPVTG,069.5,T,,M,002.7,N,005.1,K,A*06 $GPGGA,170508,5407.3553,N,01934.6362,E,1,09,00.8,00047.5,M,034.3,M,00,0000*42 $GPGSA,A,3,04,30,09,12,14,02,31,27,29,,,,01.7,00.8,01.5*0E $GPGSV,3,1,12,12,78,088,32,30,62,279,42,02,38,109,28,14,30,268,31*7B $GPGSV,3,2,12,04,29,057,38,29,27,219,36,09,24,157,25,27,18,156,25*7E $GPGSV,3,3,12,31,18,313,29,19,20,056,00,20,03,357,00,32,02,334,00*75 $GPRMC,170508,A,5407.3553,N,01934.6362,E,002.6,017.1,170610,,,A*71 $GPVTG,017.1,T,,M,002.6,N,004.9,K,A*03 $GPGGA,170523,5407.3653,N,01934.6411,E,1,09,00.8,00048.0,M,034.3,M,00,0000*41 $GPGSA,A,3,04,30,09,12,14,02,31,27,29,,,,01.7,00.8,01.5*0E $GPGSV,3,1,12,12,78,088,32,30,62,279,42,02,38,109,29,14,30,268,36*7D $GPGSV,3,2,12,04,29,057,35,29,27,219,37,09,24,157,27,27,18,156,26*73 $GPGSV,3,3,12,31,18,313,39,19,20,056,00,20,03,357,00,32,02,334,00*74 $GPRMC,170523,A,5407.3653,N,01934.6411,E,002.3,002.1,170610,,,A*79 $GPVTG,002.1,T,,M,002.3,N,004.2,K,A*09 $GPGGA,170538,5407.3675,N,01934.6431,E,1,09,00.8,00049.2,M,034.3,M,00,0000*4E $GPGSA,A,3,04,30,09,12,14,02,31,27,29,,,,01.7,00.8,01.5*0E $GPGSV,3,1,12,12,78,088,42,30,62,279,43,02,38,109,37,14,30,268,38*7A $GPGSV,3,2,12,04,29,057,47,29,27,219,38,09,24,157,37,27,18,156,32*7D $GPGSV,3,3,12,31,18,313,41,19,20,056,00,20,03,357,00,32,02,334,00*7B $GPRMC,170538,A,5407.3675,N,01934.6431,E,000.3,041.8,170610,,,A*79 $GPVTG,041.8,T,,M,000.3,N,000.7,K,A*04 $GPGGA,170547,5407.3673,N,01934.6438,E,1,09,00.8,00050.0,M,034.3,M,00,0000*43 $GPGSA,A,3,04,30,09,12,14,02,31,27,29,,,,01.7,00.8,01.5*0E $GPGSV,3,1,12,12,78,088,39,30,62,279,38,02,38,109,28,14,30,268,41*7A $GPGSV,3,2,12,04,29,057,48,29,27,219,37,09,24,157,39,27,18,156,35*74 $GPGSV,3,3,12,31,18,313,40,19,20,056,00,20,03,357,00,32,02,334,00*7A $GPRMC,170547,A,5407.3673,N,01934.6438,E,000.0,089.4,170610,,,A*75 $GPVTG,089.4,T,,M,000.0,N,000.0,K,A*08 $GPGGA,170602,5407.3671,N,01934.6440,E,1,09,00.8,00048.1,M,034.3,M,00,0000*44 $GPGSA,A,3,04,14,12,29,27,09,31,30,02,,,,01.7,00.8,01.5*0E $GPGSV,3,1,12,12,78,088,39,30,62,279,34,02,38,109,28,14,30,268,41*76 $GPGSV,3,2,12,04,29,057,43,29,27,219,38,09,24,157,35,19,20,056,00*7D $GPGSV,3,3,12,27,18,156,37,31,18,313,34,20,03,357,00,32,02,334,00*7A $GPRMC,170602,A,5407.3671,N,01934.6440,E,000.5,010.6,170610,,,A*7D $GPVTG,010.6,T,,M,000.5,N,001.0,K,A*0E $GPGGA,170617,5407.3664,N,01934.6442,E,1,09,00.8,00048.8,M,034.3,M,00,0000*4F $GPGSA,A,3,04,14,31,30,09,27,12,29,02,,,,01.7,00.8,01.5*0E $GPGSV,3,1,12,12,78,088,38,30,62,279,34,02,38,109,23,14,30,268,41*7C $GPGSV,3,2,12,04,29,057,43,29,27,219,34,09,24,157,37,19,20,056,00*73 $GPGSV,3,3,12,27,18,156,38,31,18,313,38,20,03,357,00,32,02,334,00*79 $GPRMC,170617,A,5407.3664,N,01934.6442,E,000.2,200.9,170610,,,A*74 $GPVTG,200.9,T,,M,000.2,N,000.4,K,A*00 $GPGGA,170632,5407.3608,N,01934.6449,E,1,09,00.8,00048.1,M,034.3,M,00,0000*40 $GPGSA,A,3,04,12,29,31,14,09,27,30,02,,,,01.7,00.8,01.5*0E $GPGSV,3,1,12,12,78,088,42,30,62,279,33,02,38,109,32,14,30,268,37*77 $GPGSV,3,2,12,04,29,057,44,29,27,219,41,09,24,157,37,19,20,056,00*76 $GPGSV,3,3,12,27,18,156,37,31,18,313,38,20,03,357,00,32,02,334,00*76 $GPRMC,170632,A,5407.3608,N,01934.6449,E,001.0,158.0,170610,,,A*76 $GPVTG,158.0,T,,M,001.0,N,001.9,K,A*08 $GPGGA,170647,5407.3473,N,01934.6703,E,1,09,00.8,00051.4,M,034.3,M,00,0000*4C $GPGSA,A,3,29,30,02,14,04,31,12,09,27,,,,01.7,00.8,01.5*0E $GPGSV,3,1,12,12,78,088,36,30,62,279,39,02,38,109,40,14,30,268,36*7A $GPGSV,3,2,12,04,29,057,32,29,27,219,40,09,24,157,27,19,20,056,00*77 $GPGSV,3,3,12,27,18,156,25,31,18,313,31,20,03,357,00,32,02,334,00*7C $GPRMC,170647,A,5407.3473,N,01934.6703,E,004.2,118.3,170610,,,A*77 $GPVTG,118.3,T,,M,004.2,N,007.8,K,A*0F $GPGGA,170702,5407.3339,N,01934.6875,E,1,09,00.8,00044.4,M,034.3,M,00,0000*4F $GPGSA,A,3,14,12,29,09,02,27,30,04,31,,,,01.7,00.8,01.5*0E $GPGSV,3,1,12,12,78,088,42,30,62,279,35,02,38,109,36,14,30,268,42*77 $GPGSV,3,2,12,04,29,057,33,29,27,219,41,09,24,157,39,19,20,056,00*78 $GPGSV,3,3,12,27,18,156,36,31,18,313,29,20,03,357,00,32,02,334,00*77 $GPRMC,170702,A,5407.3339,N,01934.6875,E,009.0,185.6,170610,,,A*7E $GPVTG,185.6,T,,M,009.0,N,016.8,K,A*01 $GPGGA,170717,5407.2997,N,01934.6797,E,1,09,00.8,00038.9,M,034.3,M,00,0000*41 $GPGSA,A,3,29,12,14,30,02,09,27,04,31,,,,01.7,00.8,01.5*0E $GPGSV,3,1,12,12,77,089,43,30,63,279,35,02,39,108,38,14,30,267,41*7B $GPGSV,3,2,12,04,28,056,30,29,28,219,42,09,23,157,37,19,20,055,00*7D $GPGSV,3,3,12,31,18,313,29,27,17,156,37,20,02,356,00,32,02,333,00*7E $GPRMC,170717,A,5407.2997,N,01934.6797,E,006.9,188.5,170610,,,A*7E $GPVTG,188.5,T,,M,006.9,N,012.9,K,A*0C $GPGGA,170732,5407.2697,N,01934.6616,E,1,09,00.8,00037.9,M,034.3,M,00,0000*4E $GPGSA,A,3,14,12,30,29,09,27,02,31,04,,,,01.7,00.8,01.5*0E $GPGSV,3,1,12,12,77,089,42,30,63,279,39,02,39,108,38,14,30,267,42*75 $GPGSV,3,2,12,04,28,056,25,29,28,219,38,09,23,157,37,19,20,055,00*74 $GPGSV,3,3,12,31,18,313,28,27,17,156,38,20,02,356,00,32,02,333,00*70 $GPRMC,170732,A,5407.2697,N,01934.6616,E,011.9,198.3,170610,,,A*7F $GPVTG,198.3,T,,M,011.9,N,022.1,K,A*06 $GPGGA,170747,5407.2298,N,01934.6503,E,1,09,00.8,00039.9,M,034.3,M,00,0000*4E $GPGSA,A,3,29,12,14,02,09,27,30,04,31,,,,01.7,00.8,01.5*0E $GPGSV,3,1,12,12,77,089,42,30,63,279,35,02,39,108,38,14,30,267,43*78 $GPGSV,3,2,12,04,28,056,30,29,28,219,42,09,23,157,31,19,20,055,00*7B $GPGSV,3,3,12,31,18,313,31,27,17,156,29,20,02,356,00,32,02,333,00*78 $GPRMC,170747,A,5407.2298,N,01934.6503,E,008.1,185.6,170610,,,A*78 $GPVTG,185.6,T,,M,008.1,N,015.1,K,A*0B $GPGGA,170802,5407.1934,N,01934.6378,E,1,09,00.8,00040.5,M,034.3,M,00,0000*46 $GPGSA,A,3,12,14,31,02,27,29,30,09,04,,,,01.7,00.8,01.5*0E $GPGSV,3,1,12,12,77,089,42,30,63,279,37,02,39,108,40,14,30,267,42*74 $GPGSV,3,2,12,04,28,056,24,29,28,219,40,09,23,157,37,19,20,055,00*7A $GPGSV,3,3,12,31,18,313,40,27,17,156,39,20,02,356,00,32,02,333,00*7F $GPRMC,170802,A,5407.1934,N,01934.6378,E,008.2,201.0,170610,,,A*78 $GPVTG,201.0,T,,M,008.2,N,015.2,K,A*02 $GPGGA,170817,5407.1534,N,01934.6503,E,1,09,00.8,00048.2,M,034.3,M,00,0000*4B $GPGSA,A,3,29,30,12,04,14,09,27,31,02,,,,01.7,00.8,01.5*0E $GPGSV,3,1,12,12,77,089,39,30,63,279,43,02,39,108,28,14,30,267,37*77 $GPGSV,3,2,12,04,28,056,38,29,28,219,44,09,23,157,36,19,20,055,00*72 $GPGSV,3,3,12,31,18,313,33,27,17,156,35,20,02,356,00,32,02,333,00*77 $GPRMC,170817,A,5407.1534,N,01934.6503,E,010.7,136.8,170610,,,A*79 $GPVTG,136.8,T,,M,010.7,N,019.8,K,A*07 $GPGGA,170832,5407.1241,N,01934.6010,E,1,08,00.9,00044.8,M,034.3,M,00,0000*48 $GPGSA,A,3,12,14,31,04,30,29,02,09,,,,,01.8,00.9,01.6*06 $GPGSV,3,1,12,12,77,089,43,30,63,279,34,02,39,108,26,14,30,267,39*7A $GPGSV,3,2,12,04,28,056,39,29,28,219,34,09,23,157,25,19,20,055,00*76 $GPGSV,3,3,12,31,18,313,40,27,17,156,00,20,02,356,00,32,02,333,00*75 $GPRMC,170832,A,5407.1241,N,01934.6010,E,009.7,241.9,170610,,,A*76 $GPVTG,241.9,T,,M,009.7,N,018.0,K,A*04 $GPGGA,170847,5407.0863,N,01934.5508,E,1,07,01.4,00018.4,M,034.3,M,00,0000*48 $GPGSA,A,3,14,31,29,30,12,09,27,,,,,,02.1,01.4,01.6*03 $GPGSV,3,1,12,12,77,089,36,30,63,279,39,02,39,108,00,14,30,267,42*7D $GPGSV,3,2,12,04,28,056,00,29,28,219,39,09,23,157,35,19,20,055,00*70 $GPGSV,3,3,12,31,18,313,41,27,17,156,28,20,02,356,00,32,02,333,27*7B $GPRMC,170847,A,5407.0863,N,01934.5508,E,012.1,219.5,170610,,,A*7D $GPVTG,219.5,T,,M,012.1,N,022.5,K,A*05 $GPGGA,170908,5407.0286,N,01934.5921,E,1,09,00.8,00038.3,M,034.3,M,00,0000*42 $GPGSA,A,3,30,09,29,12,02,27,14,31,04,,,,01.7,00.8,01.5*0E $GPGSV,3,1,12,12,76,090,41,30,64,280,43,02,39,107,33,14,29,266,36*7D $GPGSV,3,2,12,29,29,220,45,04,28,055,30,09,22,157,42,31,19,313,28*7A $GPGSV,3,3,12,27,17,157,43,19,20,054,00,20,02,355,00,32,01,333,00*76 $GPRMC,170908,A,5407.0286,N,01934.5921,E,013.1,152.1,170610,,,A*78 $GPVTG,152.1,T,,M,013.1,N,024.2,K,A*0D $GPGGA,170916,5407.0080,N,01934.6139,E,1,09,00.8,00034.3,M,034.3,M,00,0000*47 $GPGSA,A,3,30,09,29,12,02,27,14,31,04,,,,01.7,00.8,01.5*0E $GPGSV,3,1,12,12,76,090,35,30,64,280,45,02,39,107,33,14,29,266,40*79 $GPGSV,3,2,12,29,29,220,47,04,28,055,34,09,22,157,33,31,19,313,40*74 $GPGSV,3,3,12,27,17,157,30,19,20,054,00,20,02,355,00,32,01,333,00*72 $GPRMC,170916,A,5407.0080,N,01934.6139,E,008.9,138.7,170610,,,A*79 $GPVTG,138.7,T,,M,008.9,N,016.5,K,A*03 $GPGGA,170931,5406.9875,N,01934.6493,E,1,08,01.1,00036.0,M,034.3,M,00,0000*45 $GPGSA,A,3,30,09,14,27,02,29,12,04,,,,,02.1,01.1,01.8*0C $GPGSV,3,1,12,12,76,090,29,30,64,280,42,02,39,107,37,14,29,266,39*79 $GPGSV,3,2,12,29,29,220,36,04,28,055,29,09,22,157,41,19,20,054,00*7F $GPGSV,3,3,12,31,19,313,00,27,17,157,40,20,02,355,00,32,01,333,00*75 $GPRMC,170931,A,5406.9875,N,01934.6493,E,009.7,120.6,170610,,,A*74 $GPVTG,120.6,T,,M,009.7,N,018.0,K,A*0F $GPGGA,170946,5406.9760,N,01934.7303,E,1,08,01.1,00040.3,M,034.3,M,00,0000*43 $GPGSA,A,3,09,30,27,12,29,02,14,31,,,,,02.0,01.1,01.6*05 $GPGSV,3,1,12,12,76,090,41,30,64,280,43,02,39,107,39,14,29,266,39*78 $GPGSV,3,2,12,29,29,220,40,04,28,055,00,09,22,157,42,19,20,054,00*76 $GPGSV,3,3,12,31,19,313,32,27,17,157,40,20,02,355,00,32,01,333,00*74 $GPRMC,170946,A,5406.9760,N,01934.7303,E,012.2,090.2,170610,,,A*71 $GPVTG,090.2,T,,M,012.2,N,022.6,K,A*01 $GPGGA,171001,5406.9694,N,01934.8175,E,1,09,00.8,00039.3,M,034.3,M,00,0000*49 $GPGSA,A,3,30,09,29,27,04,14,12,02,31,,,,01.7,00.8,01.5*0E $GPGSV,3,1,12,12,76,090,36,30,64,280,44,02,39,107,30,14,29,266,41*79 $GPGSV,3,2,12,29,29,220,41,04,28,055,41,09,22,157,40,19,20,054,00*70 $GPGSV,3,3,12,31,19,313,26,27,17,157,39,20,02,355,00,32,01,333,00*7F $GPRMC,171001,A,5406.9694,N,01934.8175,E,011.2,104.1,170610,,,A*70 $GPVTG,104.1,T,,M,011.2,N,020.7,K,A*0E $GPGGA,171016,5406.9401,N,01934.9036,E,1,08,00.9,00047.4,M,034.3,M,00,0000*48 $GPGSA,A,3,09,30,27,14,29,04,12,31,,,,,01.7,00.9,01.5*0D $GPGSV,3,1,12,12,75,091,34,30,65,280,44,02,39,107,00,29,29,220,38*79 $GPGSV,3,2,12,14,29,266,39,04,28,054,36,09,22,158,42,19,20,053,00*78 $GPGSV,3,3,12,31,20,313,32,27,16,157,40,20,02,355,22,32,01,332,00*7E $GPRMC,171016,A,5406.9401,N,01934.9036,E,014.4,125.0,170610,,,A*7E $GPVTG,125.0,T,,M,014.4,N,026.7,K,A*09 $GPGGA,171031,5406.9296,N,01934.9242,E,1,08,00.9,00037.5,M,034.3,M,00,0000*42 $GPGSA,A,3,30,09,27,14,29,31,12,04,,,,,01.7,00.9,01.5*0D $GPGSV,3,1,12,12,75,091,35,30,65,280,44,02,39,107,00,29,29,220,37*77 $GPGSV,3,2,12,14,29,266,37,04,28,054,34,09,22,158,41,19,20,053,00*77 $GPGSV,3,3,12,31,20,313,36,27,16,157,40,20,02,355,00,32,01,332,00*7A $GPRMC,171031,A,5406.9296,N,01934.9242,E,000.5,005.7,170610,,,A*72 $GPVTG,005.7,T,,M,000.5,N,001.0,K,A*0B $GPGGA,171046,5406.9303,N,01934.9221,E,1,09,00.8,00037.5,M,034.3,M,00,0000*4A $GPGSA,A,3,30,09,27,12,29,14,02,31,04,,,,01.7,00.8,01.5*0E $GPGSV,3,1,12,12,75,091,38,30,65,280,44,02,39,107,33,29,29,220,39*74 $GPGSV,3,2,12,14,29,266,37,04,28,054,34,09,22,158,41,19,20,053,00*77 $GPGSV,3,3,12,31,20,313,32,27,16,157,40,20,02,355,00,32,01,332,00*7E $GPRMC,171046,A,5406.9303,N,01934.9221,E,000.7,028.1,170610,,,A*71 $GPVTG,028.1,T,,M,000.7,N,001.3,K,A*03 $GPGGA,171101,5406.9312,N,01934.9213,E,1,08,00.9,00036.9,M,034.3,M,00,0000*44 $GPGSA,A,3,30,09,27,29,14,12,04,31,,,,,01.7,00.9,01.5*0D $GPGSV,3,1,12,12,75,091,38,30,65,280,44,02,39,107,00,29,29,220,38*75 $GPGSV,3,2,12,14,29,266,38,04,28,054,35,09,22,158,41,19,20,053,00*79 $GPGSV,3,3,12,31,20,313,30,27,16,157,40,20,02,355,00,32,01,332,00*7C $GPRMC,171101,A,5406.9312,N,01934.9213,E,000.4,015.6,170610,,,A*78 $GPVTG,015.6,T,,M,000.4,N,000.8,K,A*03 $GPGGA,171116,5406.9313,N,01934.9200,E,1,09,00.8,00038.0,M,034.3,M,00,0000*46 $GPGSA,A,3,30,09,27,12,14,29,04,31,02,,,,01.7,00.8,01.5*0E $GPGSV,3,1,12,12,75,091,39,30,65,280,44,02,39,107,30,29,29,220,39*76 $GPGSV,3,2,12,14,29,266,39,04,28,054,35,09,22,158,41,19,20,053,00*78 $GPGSV,3,3,12,31,20,313,34,27,16,157,40,20,02,355,00,32,01,332,00*78 $GPRMC,171116,A,5406.9313,N,01934.9200,E,000.2,350.2,170610,,,A*7D $GPVTG,350.2,T,,M,000.2,N,000.4,K,A*0F $GPGGA,171131,5406.9325,N,01934.9216,E,1,09,00.8,00041.7,M,034.3,M,00,0000*48 $GPGSA,A,3,09,30,27,12,14,29,02,04,31,,,,01.7,00.8,01.5*0E $GPGSV,3,1,12,12,75,091,39,30,65,280,43,02,39,107,32,29,29,220,38*72 $GPGSV,3,2,12,14,29,266,39,04,28,054,34,09,22,158,41,19,20,053,00*79 $GPGSV,3,3,12,31,20,313,33,27,16,157,40,20,02,355,00,32,01,332,00*7F $GPRMC,171131,A,5406.9325,N,01934.9216,E,000.2,229.2,170610,,,A*75 $GPVTG,229.2,T,,M,000.2,N,000.4,K,A*00 $GPGGA,171146,5406.9325,N,01934.9200,E,1,08,00.9,00042.9,M,034.3,M,00,0000*42 $GPGSA,A,3,09,30,27,12,14,29,04,31,,,,,01.7,00.9,01.5*0D $GPGSV,3,1,12,12,75,091,40,30,65,280,43,02,39,107,00,29,29,220,37*72 $GPGSV,3,2,12,14,29,266,38,04,28,054,34,09,22,158,41,19,20,053,00*78 $GPGSV,3,3,12,31,20,313,34,27,16,157,40,20,02,355,00,32,01,332,00*78 $GPRMC,171146,A,5406.9325,N,01934.9200,E,000.0,264.3,170610,,,A*78 $GPVTG,264.3,T,,M,000.0,N,000.1,K,A*0F $GPGGA,171201,5406.9320,N,01934.9188,E,1,09,00.8,00046.4,M,034.3,M,00,0000*4D $GPGSA,A,3,30,09,27,29,12,14,04,31,02,,,,01.7,00.8,01.5*0E $GPGSV,3,1,12,12,75,091,39,30,65,280,43,02,39,107,25,29,29,220,40*7B $GPGSV,3,2,12,14,29,266,39,04,28,054,35,09,22,158,41,19,20,053,00*78 $GPGSV,3,3,12,31,20,313,34,27,16,157,39,20,02,355,00,32,01,332,00*76 $GPRMC,171201,A,5406.9320,N,01934.9188,E,000.3,025.8,170610,,,A*71 $GPVTG,025.8,T,,M,000.3,N,000.5,K,A*04 $GPGGA,171216,5406.9332,N,01934.9192,E,1,09,00.8,00044.8,M,034.3,M,00,0000*4D $GPGSA,A,3,30,09,27,29,12,14,04,02,31,,,,01.7,00.8,01.5*0E $GPGSV,3,1,12,12,75,091,39,30,65,280,44,02,39,107,30,29,29,220,40*78 $GPGSV,3,2,12,14,29,266,39,04,28,054,35,09,22,158,41,19,20,053,00*78 $GPGSV,3,3,12,31,20,313,34,27,16,157,39,20,02,355,00,32,01,332,00*76 $GPRMC,171216,A,5406.9332,N,01934.9192,E,000.4,265.1,170610,,,A*77 $GPVTG,265.1,T,,M,000.4,N,000.8,K,A*01 $GPGGA,171231,5406.9341,N,01934.9181,E,1,08,00.9,00043.4,M,034.3,M,00,0000*45 $GPGSA,A,3,09,30,27,29,14,12,04,31,,,,,01.7,00.9,01.5*0D $GPGSV,3,1,12,12,75,091,38,30,65,280,43,02,39,107,00,29,29,220,39*73 $GPGSV,3,2,12,14,29,266,39,04,28,054,31,09,22,158,41,19,20,053,00*7C $GPGSV,3,3,12,31,20,313,31,27,16,157,40,20,02,355,00,32,01,332,00*7D $GPRMC,171231,A,5406.9341,N,01934.9181,E,000.6,025.3,170610,,,A*72 $GPVTG,025.3,T,,M,000.6,N,001.1,K,A*0F $GPGGA,171246,5406.9142,N,01934.9570,E,1,08,00.9,00040.6,M,034.3,M,00,0000*4F $GPGSA,A,3,30,09,29,14,12,02,04,31,,,,,01.8,00.9,01.6*06 $GPGSV,3,1,12,12,75,091,37,30,65,280,44,02,39,107,34,29,29,220,37*72 $GPGSV,3,2,12,14,29,266,37,04,28,054,33,09,22,158,41,19,20,053,00*70 $GPGSV,3,3,12,31,20,313,28,27,16,157,00,20,02,355,00,32,01,332,00*71 $GPRMC,171246,A,5406.9142,N,01934.9570,E,007.8,137.3,170610,,,A*72 $GPVTG,137.3,T,,M,007.8,N,014.6,K,A*07 $GPGGA,171301,5406.8942,N,01935.0790,E,1,09,00.8,00021.4,M,034.3,M,00,0000*45 $GPGSA,A,3,09,30,27,12,29,14,02,04,31,,,,01.7,00.8,01.5*0E $GPGSV,3,1,12,12,75,091,39,30,65,280,43,02,39,107,29,29,29,220,31*71 $GPGSV,3,2,12,14,29,266,35,04,28,054,35,09,22,158,41,19,20,053,00*74 $GPGSV,3,3,12,31,20,313,28,27,16,157,40,20,02,355,00,32,01,332,00*75 $GPRMC,171301,A,5406.8942,N,01935.0790,E,017.8,102.9,170610,,,A*70 $GPVTG,102.9,T,,M,017.8,N,033.0,K,A*09 $GPGGA,171316,5406.8774,N,01935.1856,E,1,08,01.1,00024.1,M,034.3,M,00,0000*45 $GPGSA,A,3,09,27,30,12,29,14,04,02,,,,,02.1,01.1,01.8*0C $GPGSV,3,1,12,12,74,092,40,30,66,280,43,02,40,105,36,29,31,220,39*7D $GPGSV,3,2,12,14,28,264,38,04,27,053,34,31,21,312,00,09,20,158,41*7C $GPGSV,3,3,12,19,20,052,00,27,15,157,41,20,02,354,00,32,01,331,00*73 $GPRMC,171316,A,5406.8774,N,01935.1856,E,015.8,110.8,170610,,,A*79 $GPVTG,110.8,T,,M,015.8,N,029.3,K,A*01 $GPGGA,171331,5406.8559,N,01935.2828,E,1,09,00.8,00019.3,M,034.3,M,00,0000*42 $GPGSA,A,3,30,09,02,29,27,14,12,31,04,,,,01.7,00.8,01.4*0F $GPGSV,3,1,12,12,74,092,38,30,66,280,44,02,40,105,38,29,31,220,39*7B $GPGSV,3,2,12,14,28,264,38,04,27,053,33,31,21,312,35,09,20,158,41*7D $GPGSV,3,3,12,19,20,052,00,27,15,157,40,20,02,354,00,32,01,331,00*72 $GPRMC,171331,A,5406.8559,N,01935.2828,E,014.4,122.3,170610,,,A*7C $GPVTG,122.3,T,,M,014.4,N,026.7,K,A*0D $GPGGA,171346,5406.8346,N,01935.3973,E,1,08,01.1,00019.9,M,034.3,M,00,0000*47 $GPGSA,A,3,30,09,29,27,14,12,02,04,,,,,02.1,01.1,01.8*0C $GPGSV,3,1,12,12,74,092,39,30,66,280,43,02,40,105,38,29,31,220,41*72 $GPGSV,3,2,12,14,28,264,40,04,27,053,32,31,21,312,00,09,20,158,41*75 $GPGSV,3,3,12,19,20,052,00,27,15,157,39,20,02,354,23,32,01,331,00*7D $GPRMC,171346,A,5406.8346,N,01935.3973,E,017.1,097.3,170610,,,A*73 $GPVTG,097.3,T,,M,017.1,N,031.7,K,A*02 $GPGGA,171401,5406.8287,N,01935.4969,E,1,08,01.1,00013.6,M,034.3,M,00,0000*46 $GPGSA,A,3,09,30,27,29,12,02,04,14,,,,,02.1,01.1,01.7*03 $GPGSV,3,1,12,12,74,092,38,30,66,280,44,02,40,105,33,29,31,220,40*7E $GPGSV,3,2,12,14,28,264,31,04,27,053,36,31,21,312,00,09,20,158,42*74 $GPGSV,3,3,12,19,20,052,00,27,15,157,40,20,02,354,00,32,01,331,00*72 $GPRMC,171401,A,5406.8287,N,01935.4969,E,013.8,099.5,170610,,,A*72 $GPVTG,099.5,T,,M,013.8,N,025.7,K,A*02 $GPGGA,171416,5406.8108,N,01935.6067,E,1,09,00.8,00020.2,M,034.3,M,00,0000*4C $GPGSA,A,3,27,09,12,30,04,02,14,31,29,,,,01.7,00.8,01.4*0F $GPGSV,3,1,12,12,74,092,38,30,66,280,34,02,40,105,35,29,31,220,31*79 $GPGSV,3,2,12,14,28,264,35,04,27,053,36,31,21,312,31,09,20,158,41*71 $GPGSV,3,3,12,19,20,052,00,27,15,157,41,20,02,354,00,32,01,331,00*73 $GPRMC,171416,A,5406.8108,N,01935.6067,E,012.5,085.1,170610,,,A*70 $GPVTG,085.1,T,,M,012.5,N,023.2,K,A*04 $GPGGA,171431,5406.8545,N,01935.6525,E,1,08,00.9,00026.9,M,034.3,M,00,0000*4A $GPGSA,A,3,02,04,09,27,30,29,12,31,,,,,01.7,00.9,01.5*0A $GPGSV,3,1,12,12,74,092,29,30,66,280,32,02,40,105,41,29,31,220,26*7A $GPGSV,3,2,12,14,28,264,00,04,27,053,39,31,21,312,31,09,20,158,37*79 $GPGSV,3,3,12,19,20,052,00,27,15,157,33,20,02,354,00,32,01,331,00*76 $GPRMC,171431,A,5406.8545,N,01935.6525,E,015.8,023.2,170610,,,A*7E $GPVTG,023.2,T,,M,015.8,N,029.3,K,A*0A $GPGGA,171446,5406.9418,N,01935.7120,E,1,07,01.1,00046.6,M,034.3,M,00,0000*4D $GPGSA,A,3,04,02,12,09,30,31,27,,,,,,01.8,01.1,01.5*07 $GPGSV,3,1,12,12,74,092,36,30,66,280,34,02,40,105,40,29,31,220,00*77 $GPGSV,3,2,12,14,28,264,00,04,27,053,42,31,21,312,28,09,20,158,36*7C $GPGSV,3,3,12,19,20,052,00,27,15,157,33,20,02,354,00,32,01,331,00*76 $GPRMC,171446,A,5406.9418,N,01935.7120,E,020.0,020.6,170610,,,A*7F $GPVTG,020.6,T,,M,020.0,N,037.1,K,A*0E $GPGGA,171508,5407.0506,N,01935.7316,E,1,09,00.8,00033.0,M,034.3,M,00,0000*45 $GPGSA,A,3,04,02,31,14,09,12,30,27,29,,,,01.7,00.8,01.4*0F $GPGSV,3,1,12,12,73,093,33,30,67,281,42,02,40,104,45,29,32,221,32*72 $GPGSV,3,2,12,14,28,264,40,04,27,052,44,31,22,312,41,09,19,158,35*7A $GPGSV,3,3,12,27,14,157,36,19,20,051,00,20,01,353,00,32,00,331,00*74 $GPRMC,171508,A,5407.0506,N,01935.7316,E,016.7,006.3,170610,,,A*76 $GPVTG,006.3,T,,M,016.7,N,030.9,K,A*02 $GPGGA,171523,5407.0866,N,01935.7396,E,1,09,00.8,00033.5,M,034.3,M,00,0000*4A $GPGSA,A,3,04,02,31,14,09,12,30,27,29,,,,01.7,00.8,01.4*0F $GPGSV,3,1,12,12,73,093,43,30,67,281,31,02,40,104,43,29,32,221,30*75 $GPGSV,3,2,12,14,28,264,35,04,27,052,44,31,22,312,31,09,19,158,28*73 $GPGSV,3,3,12,27,14,157,35,19,20,051,00,20,01,353,16,32,00,331,00*70 $GPRMC,171523,A,5407.0866,N,01935.7396,E,000.0,026.6,170610,,,A*7B $GPVTG,026.6,T,,M,000.0,N,000.1,K,A*0E $GPGGA,171538,5407.0852,N,01935.7410,E,1,09,00.8,00034.0,M,034.3,M,00,0000*4C $GPGSA,A,3,04,02,31,14,09,12,30,27,29,,,,01.7,00.8,01.4*0F $GPGSV,3,1,12,12,73,093,43,30,67,281,35,02,41,104,45,29,32,221,31*77 $GPGSV,3,2,12,14,28,263,31,04,27,052,44,31,22,312,33,19,20,051,00*7B $GPGSV,3,3,12,09,19,158,20,27,14,157,28,20,01,353,17,32,00,331,00*7C $GPRMC,171538,A,5407.0852,N,01935.7410,E,000.0,048.9,170610,,,A*78 $GPVTG,048.9,T,,M,000.0,N,000.0,K,A*08 $GPGGA,171550,5407.0849,N,01935.7395,E,1,08,00.9,00034.8,M,034.3,M,00,0000*4A $GPGSA,A,3,02,04,12,14,31,29,27,30,,,,,01.7,00.9,01.5*06 $GPGSV,3,1,12,12,73,093,40,30,67,281,26,02,41,104,41,29,32,221,30*73 $GPGSV,3,2,12,14,28,263,33,04,27,052,40,31,22,312,31,19,20,051,00*7F $GPGSV,3,3,12,09,19,158,00,27,14,157,27,20,01,353,00,32,00,331,00*77 $GPRMC,171550,A,5407.0849,N,01935.7395,E,000.8,280.4,170610,,,A*75 $GPVTG,280.4,T,,M,000.8,N,001.5,K,A*0F $GPGGA,171605,5407.0862,N,01935.7378,E,1,08,00.9,00036.1,M,034.3,M,00,0000*48 $GPGSA,A,3,02,04,14,12,31,29,30,09,,,,,01.8,00.9,01.6*06 $GPGSV,3,1,12,12,73,093,37,30,67,281,28,02,41,104,41,29,32,221,31*7C $GPGSV,3,2,12,14,28,263,38,04,27,052,41,31,22,312,32,19,20,051,00*76 $GPGSV,3,3,12,09,19,158,26,27,14,157,00,20,01,353,00,32,00,331,00*76 $GPRMC,171605,A,5407.0862,N,01935.7378,E,000.7,006.1,170610,,,A*7A $GPVTG,006.1,T,,M,000.7,N,001.3,K,A*0F $GPGGA,171620,5407.0883,N,01935.7366,E,1,08,00.9,00043.7,M,034.3,M,00,0000*4B $GPGSA,A,3,02,04,14,12,29,30,31,09,,,,,01.8,00.9,01.6*06 $GPGSV,3,1,12,12,73,093,35,30,67,281,32,02,41,104,41,29,32,221,35*71 $GPGSV,3,2,12,14,28,263,37,04,27,052,39,31,22,312,33,19,20,051,00*77 $GPGSV,3,3,12,09,19,158,31,27,14,157,00,20,01,353,00,32,00,331,00*70 $GPRMC,171620,A,5407.0883,N,01935.7366,E,000.5,261.6,170610,,,A*7B $GPVTG,261.6,T,,M,000.5,N,001.0,K,A*0A $GPGGA,171635,5407.0875,N,01935.7377,E,1,09,00.8,00042.3,M,034.3,M,00,0000*43 $GPGSA,A,3,04,02,12,29,14,09,30,31,27,,,,01.7,00.8,01.4*0F $GPGSV,3,1,12,12,73,093,38,30,67,281,26,02,41,104,40,29,32,221,34*79 $GPGSV,3,2,12,14,28,263,34,04,27,052,40,31,22,312,30,19,20,051,00*79 $GPGSV,3,3,12,09,19,158,31,27,14,157,28,20,01,353,00,32,00,331,00*7A $GPRMC,171635,A,5407.0875,N,01935.7377,E,000.5,189.1,170610,,,A*74 $GPVTG,189.1,T,,M,000.5,N,001.0,K,A*08 $GPGGA,171650,5407.0849,N,01935.7339,E,1,08,00.9,00037.1,M,034.3,M,00,0000*45 $GPGSA,A,3,04,02,12,29,31,14,09,27,,,,,02.0,00.9,01.7*0A $GPGSV,3,1,12,12,73,093,38,30,67,281,00,02,41,104,40,29,32,221,38*71 $GPGSV,3,2,12,14,28,263,29,04,27,052,40,31,22,312,30,19,20,051,00*75 $GPGSV,3,3,12,09,19,158,30,27,14,157,26,20,01,353,00,32,00,331,00*75 $GPRMC,171650,A,5407.0849,N,01935.7339,E,000.4,206.1,170610,,,A*77 $GPVTG,206.1,T,,M,000.4,N,000.8,K,A*04 $GPGGA,171705,5407.0838,N,01935.7349,E,1,08,00.9,00036.7,M,034.3,M,00,0000*42 $GPGSA,A,3,04,02,29,12,14,09,31,30,,,,,01.8,00.9,01.6*06 $GPGSV,3,1,12,12,73,093,37,30,67,281,30,02,41,104,39,29,32,221,38*73 $GPGSV,3,2,12,14,28,263,35,04,27,052,40,31,22,312,29,19,20,051,00*70 $GPGSV,3,3,12,09,19,158,31,27,14,157,00,20,01,353,00,32,00,331,00*70 $GPRMC,171705,A,5407.0838,N,01935.7349,E,000.2,278.1,170610,,,A*78 $GPVTG,278.1,T,,M,000.2,N,000.4,K,A*07 $GPGGA,171720,5407.0839,N,01935.7359,E,1,07,01.1,00039.9,M,034.3,M,00,0000*42 $GPGSA,A,3,04,12,02,29,14,09,30,,,,,,02.1,01.1,01.8*09 $GPGSV,3,1,12,12,73,093,39,30,67,281,30,02,41,104,38,29,32,221,36*72 $GPGSV,3,2,12,14,28,263,35,04,27,052,40,31,22,312,00,19,20,051,00*7B $GPGSV,3,3,12,09,19,158,31,27,14,157,00,20,01,353,00,32,00,331,00*70 $GPRMC,171720,A,5407.0839,N,01935.7359,E,000.3,137.3,170610,,,A*74 $GPVTG,137.3,T,,M,000.3,N,000.7,K,A*0F $GPGGA,171735,5407.0834,N,01935.7380,E,1,09,00.8,00043.8,M,034.3,M,00,0000*45 $GPGSA,A,3,04,12,02,14,30,27,09,29,31,,,,01.7,00.8,01.4*0F $GPGSV,3,1,12,12,73,093,39,30,67,281,36,02,41,104,40,29,32,221,29*75 $GPGSV,3,2,12,14,28,263,39,04,27,052,40,31,22,312,30,19,20,051,00*74 $GPGSV,3,3,12,09,19,158,33,27,14,157,33,20,01,353,00,32,00,331,00*72 $GPRMC,171735,A,5407.0834,N,01935.7380,E,000.1,352.3,170610,,,A*7A $GPVTG,352.3,T,,M,000.1,N,000.3,K,A*08 $GPGGA,171750,5407.0824,N,01935.7414,E,1,09,00.8,00039.0,M,034.3,M,00,0000*48 $GPGSA,A,3,12,14,02,04,30,27,31,09,29,,,,01.7,00.8,01.4*0F $GPGSV,3,1,12,12,73,093,41,30,67,281,37,02,41,104,40,29,32,221,25*77 $GPGSV,3,2,12,14,28,263,41,04,27,052,39,31,22,312,32,19,20,051,00*77 $GPGSV,3,3,12,09,19,158,26,27,14,157,35,20,01,353,00,32,00,331,00*70 $GPRMC,171750,A,5407.0824,N,01935.7414,E,000.0,119.3,170610,,,A*7E $GPVTG,119.3,T,,M,000.0,N,000.1,K,A*06 $GPGGA,171805,5407.1012,N,01935.7483,E,1,08,00.9,00031.9,M,034.3,M,00,0000*44 $GPGSA,A,3,12,04,02,30,14,09,27,31,,,,,01.7,00.9,01.4*05 $GPGSV,3,1,12,12,73,093,41,30,67,281,35,02,41,104,37,29,32,221,00*72 $GPGSV,3,2,12,14,28,263,38,04,27,052,39,31,22,312,34,19,20,051,00*7F $GPGSV,3,3,12,09,19,158,37,27,14,157,37,20,01,353,00,32,00,331,00*72 $GPRMC,171805,A,5407.1012,N,01935.7483,E,003.7,018.9,170610,,,A*7D $GPVTG,018.9,T,,M,003.7,N,006.8,K,A*07 $GPGGA,171820,5407.1040,N,01935.7497,E,1,09,00.8,00034.2,M,034.3,M,00,0000*4F $GPGSA,A,3,04,29,09,27,12,14,31,02,30,,,,01.7,00.8,01.4*0F $GPGSV,3,1,12,12,73,093,34,30,67,281,26,02,41,104,33,29,32,221,37*72 $GPGSV,3,2,12,14,28,263,32,04,27,052,42,31,22,312,33,19,20,051,00*7E $GPGSV,3,3,12,09,19,158,37,27,14,157,36,20,01,353,00,32,00,331,00*73 $GPRMC,171820,A,5407.1040,N,01935.7497,E,000.3,178.6,170610,,,A*77 $GPVTG,178.6,T,,M,000.3,N,000.5,K,A*03 $GPGGA,171835,5407.1019,N,01935.7504,E,1,09,00.8,00027.9,M,034.3,M,00,0000*45 $GPGSA,A,3,04,02,29,27,14,09,31,30,12,,,,01.7,00.8,01.4*0F $GPGSV,3,1,12,12,72,095,29,30,69,281,32,02,41,102,38,29,33,221,38*71 $GPGSV,3,2,12,14,27,262,35,04,26,051,44,31,23,312,32,09,18,158,34*76 $GPGSV,3,3,12,27,12,157,37,19,20,050,00,20,01,352,00,32,00,330,00*72 $GPRMC,171835,A,5407.1019,N,01935.7504,E,000.7,119.3,170610,,,A*72 $GPVTG,119.3,T,,M,000.7,N,001.3,K,A*02 $GPGGA,171850,5407.1020,N,01935.7504,E,1,09,00.8,00028.6,M,034.3,M,00,0000*4C $GPGSA,A,3,04,27,30,14,09,29,12,02,31,,,,01.7,00.8,01.4*0F $GPGSV,3,1,12,12,72,095,35,30,69,281,39,02,41,102,32,29,33,221,36*73 $GPGSV,3,2,12,14,27,262,37,04,26,051,42,31,23,312,31,19,20,050,00*75 $GPGSV,3,3,12,09,18,158,37,27,12,157,38,20,01,352,00,32,00,330,00*7A $GPRMC,171850,A,5407.1020,N,01935.7504,E,000.1,207.2,170610,,,A*70 $GPVTG,207.2,T,,M,000.1,N,000.3,K,A*08 $GPGGA,171905,5407.1029,N,01935.7483,E,1,09,00.8,00030.3,M,034.3,M,00,0000*46 $GPGSA,A,3,04,27,09,30,02,14,12,29,31,,,,01.7,00.8,01.4*0F $GPGSV,3,1,12,12,72,095,33,30,69,281,38,02,41,102,35,29,33,221,32*77 $GPGSV,3,2,12,14,27,262,34,04,26,051,42,31,23,312,31,19,20,050,00*76 $GPGSV,3,3,12,09,18,158,38,27,12,157,39,20,01,352,00,32,00,330,00*74 $GPRMC,171905,A,5407.1029,N,01935.7483,E,000.2,204.1,170610,,,A*75 $GPVTG,204.1,T,,M,000.2,N,000.5,K,A*0D $GPGGA,171920,5407.1034,N,01935.7441,E,1,08,00.9,00032.2,M,034.3,M,00,0000*40 $GPGSA,A,3,04,09,27,30,02,14,12,31,,,,,01.7,00.9,01.4*05 $GPGSV,3,1,12,12,72,095,31,30,69,281,37,02,41,102,35,29,33,221,00*7B $GPGSV,3,2,12,14,27,262,34,04,26,051,42,31,23,312,27,19,20,050,00*71 $GPGSV,3,3,12,09,18,158,39,27,12,157,38,20,01,352,00,32,00,330,00*74 $GPRMC,171920,A,5407.1034,N,01935.7441,E,000.4,172.4,170610,,,A*71 $GPVTG,172.4,T,,M,000.4,N,000.9,K,A*00 $GPGGA,171935,5407.1037,N,01935.7421,E,1,07,01.1,00035.7,M,034.3,M,00,0000*45 $GPGSA,A,3,04,09,12,27,30,14,02,,,,,,02.0,01.1,01.6*08 $GPGSV,3,1,12,12,72,095,39,30,69,281,38,02,41,102,32,29,33,221,00*7B $GPGSV,3,2,12,14,27,262,36,04,26,051,42,31,23,312,00,19,20,050,00*76 $GPGSV,3,3,12,09,18,158,39,27,12,157,38,20,01,352,00,32,00,330,00*74 $GPRMC,171935,A,5407.1037,N,01935.7421,E,000.3,269.8,170610,,,A*72 $GPVTG,269.8,T,,M,000.3,N,000.6,K,A*0D $GPGGA,171950,5407.1030,N,01935.7422,E,1,08,01.0,00047.1,M,034.3,M,00,0000*4F $GPGSA,A,3,04,09,14,27,30,12,02,29,,,,,02.0,01.0,01.6*02 $GPGSV,3,1,12,12,72,095,35,30,69,281,37,02,41,102,33,29,33,221,28*73 $GPGSV,3,2,12,14,27,262,37,04,26,051,42,31,23,312,00,19,20,050,00*77 $GPGSV,3,3,12,09,18,158,39,27,12,157,36,20,01,352,00,32,00,330,00*7A $GPRMC,171950,A,5407.1030,N,01935.7422,E,000.5,184.4,170610,,,A*7F $GPVTG,184.4,T,,M,000.5,N,001.1,K,A*01 $GPGGA,172005,5407.1021,N,01935.7425,E,1,08,01.0,00049.7,M,034.3,M,00,0000*4A $GPGSA,A,3,04,09,27,12,14,30,02,29,,,,,02.0,01.0,01.6*02 $GPGSV,3,1,12,12,72,095,35,30,69,281,35,02,41,102,34,29,33,221,28*76 $GPGSV,3,2,12,14,27,262,34,04,26,051,42,31,23,312,00,19,20,050,00*74 $GPGSV,3,3,12,09,18,158,37,27,12,157,36,20,01,352,00,32,00,330,00*74 $GPRMC,172005,A,5407.1021,N,01935.7425,E,000.2,198.8,170610,,,A*74 $GPVTG,198.8,T,,M,000.2,N,000.5,K,A*02 $GPGGA,172020,5407.1018,N,01935.7422,E,1,07,01.1,00052.3,M,034.3,M,00,0000*40 $GPGSA,A,3,04,09,30,27,12,14,02,,,,,,02.0,01.1,01.6*08 $GPGSV,3,1,12,12,72,095,36,30,69,281,37,02,41,102,33,29,33,221,00*7A $GPGSV,3,2,12,14,27,262,35,04,26,051,42,31,23,312,00,19,20,050,00*75 $GPGSV,3,3,12,09,18,158,37,27,12,157,36,20,01,352,00,32,00,330,00*74 $GPRMC,172020,A,5407.1018,N,01935.7422,E,000.1,193.0,170610,,,A*7E $GPVTG,193.0,T,,M,000.1,N,000.3,K,A*04 $GPGGA,172035,5407.1020,N,01935.7407,E,1,08,00.9,00050.0,M,034.3,M,00,0000*4F $GPGSA,A,3,04,09,27,30,14,12,02,31,,,,,01.7,00.9,01.4*05 $GPGSV,3,1,12,12,72,095,28,30,69,281,37,02,41,102,28,29,33,221,00*7F $GPGSV,3,2,12,14,27,262,37,04,26,051,41,31,23,312,20,19,20,050,00*76 $GPGSV,3,3,12,09,18,158,38,27,12,157,37,20,01,352,00,32,00,330,00*7A $GPRMC,172035,A,5407.1020,N,01935.7407,E,000.3,221.3,170610,,,A*7D $GPVTG,221.3,T,,M,000.3,N,000.6,K,A*0A $GPGGA,172050,5407.1028,N,01935.7401,E,1,08,01.0,00046.5,M,034.3,M,00,0000*48 $GPGSA,A,3,04,09,12,02,27,14,30,29,,,,,01.9,01.0,01.6*08 $GPGSV,3,1,12,12,72,095,36,30,69,281,33,02,41,102,36,29,33,221,24*7D $GPGSV,3,2,12,14,27,262,35,04,26,051,41,31,23,312,00,19,20,050,00*76 $GPGSV,3,3,12,09,18,158,39,27,12,157,36,20,01,352,25,32,00,330,17*7B $GPRMC,172050,A,5407.1028,N,01935.7401,E,000.0,212.2,170610,,,A*72 $GPVTG,212.2,T,,M,000.0,N,000.0,K,A*0E $GPGGA,172105,5407.1221,N,01935.7395,E,1,09,00.8,00038.2,M,034.3,M,00,0000*4E $GPGSA,A,3,04,27,02,12,30,14,09,31,29,,,,01.6,00.8,01.4*0E $GPGSV,3,1,12,12,72,095,36,30,69,281,35,02,41,102,37,29,33,221,26*78 $GPGSV,3,2,12,14,27,262,34,04,26,051,40,31,23,312,31,19,20,050,00*74 $GPGSV,3,3,12,09,18,158,34,27,12,157,36,20,01,352,00,32,00,330,00*77 $GPRMC,172105,A,5407.1221,N,01935.7395,E,008.1,009.6,170610,,,A*77 $GPVTG,009.6,T,,M,008.1,N,015.1,K,A*0E $GPGGA,172120,5407.1722,N,01935.7592,E,1,08,00.9,00042.0,M,034.3,M,00,0000*41 $GPGSA,A,3,30,02,12,04,29,09,14,31,,,,,01.8,00.9,01.5*05 $GPGSV,3,1,12,12,72,095,29,30,69,281,41,02,41,102,40,29,33,221,35*77 $GPGSV,3,2,12,14,27,262,27,04,26,051,36,31,23,312,29,19,20,050,00*7E $GPGSV,3,3,12,09,18,158,34,27,12,157,00,20,01,352,00,32,00,330,00*72 $GPRMC,172120,A,5407.1722,N,01935.7592,E,013.9,018.5,170610,,,A*76 $GPVTG,018.5,T,,M,013.9,N,025.8,K,A*05 $GPGGA,172135,5407.2406,N,01935.8333,E,1,08,00.9,00041.9,M,034.3,M,00,0000*4B $GPGSA,A,3,02,29,09,04,27,30,12,31,,,,,01.7,00.9,01.4*0B $GPGSV,3,1,11,30,70,281,32,12,70,096,36,02,42,100,44,29,35,222,42*77 $GPGSV,3,2,11,14,26,261,18,04,26,050,37,31,24,312,31,09,17,158,39*7B $GPGSV,3,3,11,27,11,157,36,19,20,048,00,20,01,351,00,,,,*48 $GPRMC,172135,A,5407.2406,N,01935.8333,E,023.8,042.6,170610,,,A*78 $GPVTG,042.6,T,,M,023.8,N,044.1,K,A*05 $GPGGA,172150,5407.2951,N,01935.9639,E,1,08,00.9,00039.0,M,034.3,M,00,0000*4F $GPGSA,A,3,29,27,12,30,09,02,04,31,,,,,01.7,00.9,01.4*0B $GPGSV,3,1,11,30,70,281,31,12,70,096,37,02,42,100,32,29,35,222,41*77 $GPGSV,3,2,11,14,26,261,00,04,26,050,26,31,24,312,27,19,20,048,00*7A $GPGSV,3,3,11,09,17,158,38,27,11,157,40,20,01,351,00,,,,*47 $GPRMC,172150,A,5407.2951,N,01935.9639,E,024.1,061.9,170610,,,A*7A $GPVTG,061.9,T,,M,024.1,N,044.7,K,A*03 $GPGGA,172205,5407.3314,N,01935.9726,E,1,08,00.9,00048.2,M,034.3,M,00,0000*4D $GPGSA,A,3,12,02,30,04,29,31,14,09,,,,,01.8,00.9,01.5*05 $GPGSV,3,1,11,30,70,281,32,12,70,096,42,02,42,100,36,29,35,222,31*75 $GPGSV,3,2,11,14,26,261,25,04,26,050,35,31,24,312,30,19,20,048,00*79 $GPGSV,3,3,11,09,17,158,25,27,11,157,00,20,01,351,00,,,,*4F $GPRMC,172205,A,5407.3314,N,01935.9726,E,010.0,036.5,170610,,,A*74 $GPVTG,036.5,T,,M,010.0,N,018.5,K,N*0F $GPGGA,172220,5407.3376,N,01935.9686,E,1,07,01.0,00054.8,M,034.3,M,00,0000*45 $GPGSA,A,3,12,04,02,31,30,14,09,,,,,,01.8,01.0,01.5*06 $GPGSV,3,1,11,30,70,281,34,12,70,096,44,02,42,100,40,29,35,222,00*76 $GPGSV,3,2,11,14,26,261,29,04,26,050,41,31,24,312,36,19,20,048,00*70 $GPGSV,3,3,11,09,17,158,25,27,11,157,00,20,01,351,00,,,,*4F $GPRMC,172220,A,5407.3376,N,01935.9686,E,001.3,338.6,170610,,,A*71 $GPVTG,338.6,T,,M,001.3,N,002.4,K,A*07 $GPGGA,172235,5407.3430,N,01935.9637,E,1,07,01.0,00069.3,M,034.3,M,00,0000*4B $GPGSA,A,3,12,02,04,31,30,29,09,,,,,,01.8,01.0,01.6*0B $GPGSV,3,1,11,30,70,281,31,12,70,096,44,02,42,100,41,29,35,222,28*78 $GPGSV,3,2,11,14,26,261,00,04,26,050,40,31,24,312,36,19,20,048,00*7A $GPGSV,3,3,11,09,17,158,27,27,11,157,00,20,01,351,00,,,,*4D $GPRMC,172235,A,5407.3430,N,01935.9637,E,000.7,316.7,170610,,,A*72 $GPVTG,316.7,T,,M,000.7,N,001.4,K,A*0C $GPGGA,172250,5407.3474,N,01935.9631,E,1,08,00.9,00079.5,M,034.3,M,00,0000*4E $GPGSA,A,3,12,02,04,31,29,14,30,09,,,,,01.8,00.9,01.5*05 $GPGSV,3,1,11,30,70,281,28,12,70,096,44,02,42,100,40,29,35,222,34*7C $GPGSV,3,2,11,14,26,261,29,04,26,050,40,31,24,312,38,19,20,048,00*7F $GPGSV,3,3,11,09,17,158,29,27,11,157,00,20,01,351,00,,,,*43 $GPRMC,172250,A,5407.3474,N,01935.9631,E,000.4,279.4,170610,,,A*7F $GPVTG,279.4,T,,M,000.4,N,000.9,K,A*08 $GPGGA,172305,5407.3454,N,01935.9610,E,1,08,00.9,00078.6,M,034.3,M,00,0000*4C $GPGSA,A,3,12,04,02,31,29,09,30,14,,,,,01.8,00.9,01.5*05 $GPGSV,3,1,11,30,70,281,23,12,70,096,44,02,42,100,39,29,35,222,29*75 $GPGSV,3,2,11,14,26,261,26,04,26,050,40,31,24,312,38,19,20,048,00*70 $GPGSV,3,3,11,09,17,158,27,27,11,157,00,20,01,351,00,,,,*4D $GPRMC,172305,A,5407.3454,N,01935.9610,E,000.5,188.3,170610,,,A*74 $GPVTG,188.3,T,,M,000.5,N,000.9,K,A*03 $GPGGA,172320,5407.3451,N,01935.9625,E,1,05,01.4,00072.7,M,034.3,M,00,0000*42 $GPGSA,A,3,12,04,02,31,29,,,,,,,,03.3,01.4,03.0*08 $GPGSV,3,1,11,30,70,281,00,12,70,096,42,02,42,100,40,29,35,222,31*75 $GPGSV,3,2,11,14,26,261,00,04,26,050,40,31,24,312,37,19,20,048,00*7B $GPGSV,3,3,11,09,17,158,00,27,11,157,00,20,01,351,00,,,,*48 $GPRMC,172320,A,5407.3451,N,01935.9625,E,000.1,302.0,170610,,,A*77 $GPVTG,302.0,T,,M,000.1,N,000.2,K,A*0F $GPGGA,172335,5407.3453,N,01935.9601,E,1,07,01.0,00070.6,M,034.3,M,00,0000*47 $GPGSA,A,3,12,02,04,29,31,27,30,,,,,,01.8,01.0,01.4*05 $GPGSV,3,1,11,30,70,281,27,12,70,096,43,02,42,100,40,29,35,222,37*77 $GPGSV,3,2,11,14,26,261,23,04,26,050,40,31,24,312,36,19,20,048,00*7B $GPGSV,3,3,11,09,17,158,00,27,11,157,27,20,01,351,00,,,,*4D $GPRMC,172335,A,5407.3453,N,01935.9601,E,000.7,254.4,170610,,,A*77 $GPVTG,254.4,T,,M,000.7,N,001.3,K,A*0F $GPGGA,172350,5407.3482,N,01935.9602,E,1,08,00.9,00077.5,M,034.3,M,00,0000*48 $GPGSA,A,3,12,02,04,29,31,27,30,14,,,,,01.7,00.9,01.4*07 $GPGSV,3,1,11,30,70,281,30,12,70,096,43,02,42,100,40,29,35,222,38*7E $GPGSV,3,2,11,14,26,261,25,04,26,050,40,31,24,312,37,19,20,048,00*7C $GPGSV,3,3,11,09,17,158,00,27,11,157,31,20,01,351,00,,,,*4A $GPRMC,172350,A,5407.3482,N,01935.9602,E,000.4,309.2,170610,,,A*77 $GPVTG,309.2,T,,M,000.4,N,000.8,K,A*09 $GPGGA,172405,5407.3466,N,01935.9643,E,1,08,00.9,00074.1,M,034.3,M,00,0000*47 $GPGSA,A,3,12,04,02,31,30,29,14,27,,,,,01.7,00.9,01.4*07 $GPGSV,3,1,11,30,70,281,35,12,70,096,44,02,42,100,39,29,35,222,32*78 $GPGSV,3,2,11,14,26,261,29,04,26,050,40,31,24,312,36,19,20,048,00*71 $GPGSV,3,3,11,09,17,158,00,27,11,157,29,20,01,351,00,,,,*43 $GPRMC,172405,A,5407.3466,N,01935.9643,E,000.3,196.1,170610,,,A*7F $GPVTG,196.1,T,,M,000.3,N,000.6,K,A*07 $GPGGA,172420,5407.3468,N,01935.9677,E,1,08,00.9,00071.7,M,034.3,M,00,0000*4A $GPGSA,A,3,12,04,02,30,31,09,29,27,,,,,01.7,00.9,01.4*0B $GPGSV,3,1,11,30,70,281,39,12,70,096,44,02,42,100,40,29,35,222,28*71 $GPGSV,3,2,11,14,26,261,00,04,26,050,40,31,24,312,37,19,20,048,00*7B $GPGSV,3,3,11,09,17,158,31,27,11,157,26,20,01,351,00,,,,*4E $GPRMC,172420,A,5407.3468,N,01935.9677,E,000.2,274.0,170610,,,A*7E $GPVTG,274.0,T,,M,000.2,N,000.4,K,A*0A $GPGGA,172435,5407.3459,N,01935.9668,E,1,07,01.0,00071.5,M,034.3,M,00,0000*47 $GPGSA,A,3,12,02,04,31,30,29,09,,,,,,01.8,01.0,01.5*08 $GPGSV,3,1,11,30,72,281,34,12,69,097,43,02,42,099,41,29,36,222,34*7E $GPGSV,3,2,11,31,25,311,38,14,25,260,00,04,25,048,41,09,15,159,31*7B $GPGSV,3,3,11,27,10,158,00,19,20,047,00,20,00,350,00,,,,*4C $GPRMC,172435,A,5407.3459,N,01935.9668,E,000.3,175.7,170610,,,A*72 $GPVTG,175.7,T,,M,000.3,N,000.5,K,A*0F $GPGGA,172450,5407.3442,N,01935.9655,E,1,08,00.9,00070.4,M,034.3,M,00,0000*47 $GPGSA,A,3,12,04,02,31,30,29,14,09,,,,,01.8,00.9,01.5*05 $GPGSV,3,1,11,30,72,281,38,12,69,097,43,02,42,099,40,29,36,222,34*73 $GPGSV,3,2,11,31,25,311,39,14,25,260,31,04,25,048,40,19,20,047,00*72 $GPGSV,3,3,11,09,15,159,25,27,10,158,00,20,00,350,00,,,,*42 $GPRMC,172450,A,5407.3442,N,01935.9655,E,001.5,281.9,170610,,,A*74 $GPVTG,281.9,T,,M,001.5,N,002.9,K,A*00 $GPGGA,172505,5407.3447,N,01935.9662,E,1,09,00.8,00075.7,M,034.3,M,00,0000*41 $GPGSA,A,3,12,04,02,31,30,29,14,09,27,,,,01.6,00.8,01.3*09 $GPGSV,3,1,11,30,72,281,36,12,69,097,43,02,42,099,40,29,36,222,34*7D $GPGSV,3,2,11,31,25,311,38,14,25,260,33,04,25,048,40,19,20,047,00*71 $GPGSV,3,3,11,09,15,159,28,27,10,158,28,20,00,350,00,,,,*45 $GPRMC,172505,A,5407.3447,N,01935.9662,E,000.3,338.8,170610,,,A*71 $GPVTG,338.8,T,,M,000.3,N,000.5,K,A*0B $GPGGA,172523,5407.3507,N,01935.9618,E,1,09,00.8,00053.3,M,034.3,M,00,0000*4D $GPGSA,A,3,12,02,04,31,30,29,14,09,27,,,,01.6,00.8,01.3*09 $GPGSV,3,1,11,30,72,281,33,12,69,097,45,02,42,098,46,29,36,222,30*7D $GPGSV,3,2,11,31,26,311,34,14,25,259,39,04,25,048,39,09,15,159,26*7D $GPGSV,3,3,11,27,09,158,25,19,20,047,00,20,00,350,00,,,,*43 $GPRMC,172523,A,5407.3507,N,01935.9618,E,010.2,314.7,170610,,,A*7C $GPVTG,314.7,T,,M,010.2,N,018.9,K,A*0F $GPGGA,172538,5407.3568,N,01935.9301,E,1,09,00.8,00048.0,M,034.3,M,00,0000*4A $GPGSA,A,3,12,02,04,31,30,29,14,09,27,,,,01.6,00.8,01.3*09 $GPGSV,3,1,11,30,72,281,40,12,69,097,36,02,42,098,39,29,36,222,47*75 $GPGSV,3,2,11,31,26,311,35,14,25,259,36,04,25,048,34,09,15,159,31*78 $GPGSV,3,3,11,27,09,158,29,19,20,047,00,20,00,350,00,,,,*4F $GPRMC,172538,A,5407.3568,N,01935.9301,E,000.5,153.3,170610,,,A*71 $GPVTG,153.3,T,,M,000.5,N,000.9,K,A*05 $GPGGA,172549,5407.3541,N,01935.9351,E,1,09,00.8,00049.4,M,034.3,M,00,0000*47 $GPGSA,A,3,12,02,04,31,30,29,14,09,27,,,,01.6,00.8,01.3*09 $GPGSV,3,1,11,30,72,281,46,12,69,097,42,02,42,098,42,29,36,222,47*7C $GPGSV,3,2,11,31,26,311,28,14,25,259,27,04,25,048,34,09,15,159,31*74 $GPGSV,3,3,11,27,09,158,29,19,20,047,00,20,00,350,00,,,,*4F $GPRMC,172549,A,5407.3541,N,01935.9351,E,000.0,091.6,170610,,,A*76 $GPVTG,091.6,T,,M,000.0,N,000.0,K,A*03 $GPGGA,172604,5407.3555,N,01935.9350,E,1,08,00.9,00052.0,M,034.3,M,00,0000*47 $GPGSA,A,3,30,29,12,02,09,04,31,27,,,,,01.7,00.9,01.4*0B $GPGSV,3,1,11,30,72,281,43,12,69,097,41,02,42,098,40,29,36,222,41*7E $GPGSV,3,2,11,31,26,311,31,14,25,259,00,04,25,048,31,19,20,047,00*77 $GPGSV,3,3,11,09,15,159,33,27,09,158,26,20,00,350,00,,,,*49 $GPRMC,172604,A,5407.3555,N,01935.9350,E,001.0,011.3,170610,,,A*74 $GPVTG,011.3,T,,M,001.0,N,002.0,K,A*0D $GPGGA,172619,5407.3565,N,01935.9380,E,1,08,00.9,00054.1,M,034.3,M,00,0000*42 $GPGSA,A,3,30,29,12,02,09,31,04,27,,,,,01.7,00.9,01.4*0B $GPGSV,3,1,11,30,72,281,43,12,69,097,40,02,42,098,38,29,36,222,41*70 $GPGSV,3,2,11,31,26,311,33,14,25,259,00,04,25,048,31,19,20,047,00*75 $GPGSV,3,3,11,09,15,159,35,27,09,158,25,20,00,350,00,,,,*4C $GPRMC,172619,A,5407.3565,N,01935.9380,E,000.3,027.8,170610,,,A*7A $GPVTG,027.8,T,,M,000.3,N,000.7,K,A*04 $GPGGA,172634,5407.3339,N,01935.9660,E,1,08,00.9,00054.3,M,034.3,M,00,0000*4B $GPGSA,A,3,12,31,29,30,02,04,14,27,,,,,01.7,00.9,01.4*07 $GPGSV,3,1,11,30,72,281,35,12,69,097,37,02,42,098,35,29,36,222,38*72 $GPGSV,3,2,11,31,26,311,36,14,25,259,33,04,25,048,31,19,20,047,00*70 $GPGSV,3,3,11,09,15,159,00,27,09,158,25,20,00,350,00,,,,*4A $GPRMC,172634,A,5407.3339,N,01935.9660,E,007.7,156.0,170610,,,A*7D $GPVTG,156.0,T,,M,007.7,N,014.3,K,A*09 $GPGGA,172649,5407.2991,N,01935.9923,E,1,09,00.8,00045.6,M,034.3,M,00,0000*45 $GPGSA,A,3,30,09,12,29,02,31,04,27,14,,,,01.6,00.8,01.3*09 $GPGSV,3,1,11,30,72,281,38,12,69,097,40,02,42,098,32,29,36,222,36*76 $GPGSV,3,2,11,31,26,311,32,14,25,259,27,04,25,048,37,19,20,047,00*77 $GPGSV,3,3,11,09,15,159,38,27,09,158,35,20,00,350,00,,,,*40 $GPRMC,172649,A,5407.2991,N,01935.9923,E,003.6,188.6,170610,,,A*76 $GPVTG,188.6,T,,M,003.6,N,006.8,K,A*01 $GPGGA,172704,5407.2842,N,01935.9253,E,1,07,01.2,00037.5,M,034.3,M,00,0000*4D $GPGSA,A,3,12,31,29,30,02,14,27,,,,,,02.0,01.2,01.6*0F $GPGSV,3,1,11,30,72,281,38,12,69,097,41,02,42,098,37,29,36,222,39*7D $GPGSV,3,2,11,31,26,311,40,14,25,259,28,04,25,048,00,19,20,047,00*79 $GPGSV,3,3,11,09,15,159,00,27,09,158,26,20,00,350,00,,,,*49 $GPRMC,172704,A,5407.2842,N,01935.9253,E,013.7,235.5,170610,,,A*7B $GPVTG,235.5,T,,M,013.7,N,025.5,K,A*0B $GPGGA,172719,5407.2382,N,01935.8329,E,1,09,00.8,00047.7,M,034.3,M,00,0000*4B $GPGSA,A,3,12,29,31,30,14,02,09,27,04,,,,01.6,00.8,01.3*09 $GPGSV,3,1,11,30,72,281,34,12,69,097,39,02,42,098,30,29,36,222,39*79 $GPGSV,3,2,11,31,26,311,39,14,25,259,33,04,25,048,29,19,20,047,00*76 $GPGSV,3,3,11,09,15,159,31,27,09,158,24,20,00,350,00,,,,*49 $GPRMC,172719,A,5407.2382,N,01935.8329,E,018.3,224.3,170610,,,A*74 $GPVTG,224.3,T,,M,018.3,N,033.8,K,A*08 $GPGGA,172734,5407.1781,N,01935.7595,E,1,09,00.8,00050.2,M,034.3,M,00,0000*4D $GPGSA,A,3,29,14,30,02,31,09,12,27,04,,,,01.6,00.8,01.3*09 $GPGSV,3,1,11,30,73,281,41,12,68,098,34,02,43,097,38,29,37,223,41*70 $GPGSV,3,2,11,31,26,311,37,14,24,259,41,04,24,047,27,09,14,159,34*73 $GPGSV,3,3,11,27,08,158,29,19,20,046,00,20,00,349,00,,,,*47 $GPRMC,172734,A,5407.1781,N,01935.7595,E,016.8,195.9,170610,,,A*77 $GPVTG,195.9,T,,M,016.8,N,031.1,K,A*05 $GPGGA,172749,5407.1323,N,01935.7481,E,1,07,01.2,00038.4,M,034.3,M,00,0000*42 $GPGSA,A,3,14,02,12,29,31,09,27,,,,,,02.2,01.2,01.9*08 $GPGSV,3,1,11,30,73,281,00,12,68,098,39,02,43,097,41,29,37,223,38*78 $GPGSV,3,2,11,31,26,311,36,14,24,259,41,04,24,047,00,19,20,046,00*79 $GPGSV,3,3,11,09,14,159,31,27,08,158,29,20,00,349,00,,,,*4C $GPRMC,172749,A,5407.1323,N,01935.7481,E,006.8,176.7,170610,,,A*77 $GPVTG,176.7,T,,M,006.8,N,012.7,K,A*00 $GPGGA,172804,5407.1338,N,01935.7480,E,1,07,00.9,00037.9,M,034.3,M,00,0000*47 $GPGSA,A,3,14,12,29,31,04,02,27,,,,,,01.9,00.9,01.7*09 $GPGSV,3,1,11,30,73,281,00,12,68,098,40,02,43,097,38,29,37,223,39*79 $GPGSV,3,2,11,31,26,311,38,14,24,259,42,04,24,047,38,19,20,046,00*7F $GPGSV,3,3,11,09,14,159,00,27,08,158,24,20,00,349,00,,,,*43 $GPRMC,172804,A,5407.1338,N,01935.7480,E,000.4,002.1,170610,,,A*74 $GPVTG,002.1,T,,M,000.4,N,000.9,K,A*03 $GPGGA,172819,5407.1335,N,01935.7525,E,1,06,01.4,00029.0,M,034.3,M,00,0000*43 $GPGSA,A,3,14,31,12,29,02,04,,,,,,,03.3,01.4,03.0*0D $GPGSV,3,1,11,30,73,281,00,12,68,098,39,02,43,097,37,29,37,223,38*79 $GPGSV,3,2,11,31,26,311,39,14,24,259,42,04,24,047,32,19,20,046,00*74 $GPGSV,3,3,11,09,14,159,25,27,08,158,00,20,00,349,00,,,,*42 $GPRMC,172819,A,5407.1335,N,01935.7525,E,000.8,139.6,170610,,,A*79 $GPVTG,139.6,T,,M,000.8,N,001.5,K,A*0C $GPGGA,172834,5407.1328,N,01935.7519,E,1,08,00.9,00031.2,M,034.3,M,00,0000*46 $GPGSA,A,3,14,12,29,31,02,09,30,04,,,,,01.7,00.9,01.5*0A $GPGSV,3,1,11,30,73,281,31,12,68,098,39,02,43,097,38,29,37,223,39*75 $GPGSV,3,2,11,31,26,311,39,14,24,259,41,04,24,047,31,19,20,046,00*74 $GPGSV,3,3,11,09,14,159,34,27,08,158,00,20,00,349,00,,,,*42 $GPRMC,172834,A,5407.1328,N,01935.7519,E,000.2,100.8,170610,,,A*7B $GPVTG,100.8,T,,M,000.2,N,000.5,K,A*03 $GPGGA,172849,5407.1329,N,01935.7538,E,1,08,00.9,00026.5,M,034.3,M,00,0000*4F $GPGSA,A,3,14,31,29,12,02,04,09,30,,,,,01.7,00.9,01.5*0A $GPGSV,3,1,11,30,73,281,33,12,68,098,38,02,43,097,39,29,37,223,39*77 $GPGSV,3,2,11,31,26,311,39,14,24,259,42,04,24,047,36,19,20,046,00*70 $GPGSV,3,3,11,09,14,159,34,27,08,158,00,20,00,349,00,,,,*42 $GPRMC,172849,A,5407.1329,N,01935.7538,E,000.4,103.3,170610,,,A*7D $GPVTG,103.3,T,,M,000.4,N,000.7,K,A*0F $GPGGA,172904,5407.1335,N,01935.7525,E,1,08,00.9,00033.9,M,034.3,M,00,0000*4E $GPGSA,A,3,14,29,31,12,30,04,02,09,,,,,01.7,00.9,01.4*0B $GPGSV,3,1,11,30,73,281,37,12,68,098,37,02,43,097,37,29,37,223,40*7C $GPGSV,3,2,11,31,26,311,40,14,24,259,41,04,24,047,34,19,20,046,00*7F $GPGSV,3,3,11,09,14,159,34,27,08,158,00,20,00,349,00,,,,*42 $GPRMC,172904,A,5407.1335,N,01935.7525,E,000.1,003.7,170610,,,A*74 $GPVTG,003.7,T,,M,000.1,N,000.3,K,A*0B $GPGGA,172919,5407.1065,N,01935.7367,E,1,09,00.8,00041.4,M,034.3,M,00,0000*4C $GPGSA,A,3,29,02,30,12,31,14,04,09,27,,,,01.6,00.8,01.3*09 $GPGSV,3,1,11,30,73,281,34,12,68,098,36,02,43,097,36,29,37,223,39*71 $GPGSV,3,2,11,31,26,311,34,14,24,259,33,04,24,047,27,19,20,046,00*7B $GPGSV,3,3,11,09,14,159,30,27,08,158,28,20,00,349,00,,,,*4C $GPRMC,172919,A,5407.1065,N,01935.7367,E,006.5,206.0,170610,,,A*7C $GPVTG,206.0,T,,M,006.5,N,012.2,K,A*0B $GPGGA,172934,5407.0295,N,01935.7190,E,1,09,00.8,00049.1,M,034.3,M,00,0000*48 $GPGSA,A,3,31,14,30,02,29,12,04,27,09,,,,01.6,00.8,01.3*09 $GPGSV,3,1,11,30,73,281,41,12,68,098,33,02,43,097,38,29,37,223,40*76 $GPGSV,3,2,11,31,26,311,41,14,24,259,41,04,24,047,31,19,20,046,00*7B $GPGSV,3,3,11,09,14,159,24,27,08,158,24,20,00,349,00,,,,*45 $GPRMC,172934,A,5407.0295,N,01935.7190,E,012.4,178.5,170610,,,A*7E $GPVTG,178.5,T,,M,012.4,N,023.0,K,A*00 $GPGGA,172949,5406.9956,N,01935.7110,E,1,09,00.8,00043.7,M,034.3,M,00,0000*4A $GPGSA,A,3,30,29,14,02,04,31,09,12,27,,,,01.6,00.8,01.3*09 $GPGSV,3,1,11,30,73,281,36,12,68,098,31,02,43,097,33,29,37,223,36*7E $GPGSV,3,2,11,31,26,311,35,14,24,259,31,04,24,047,31,19,20,046,00*7F $GPGSV,3,3,11,09,14,159,35,27,08,158,26,20,00,349,00,,,,*47 $GPRMC,172949,A,5406.9956,N,01935.7110,E,004.1,181.1,170610,,,A*70 $GPVTG,181.1,T,,M,004.1,N,007.7,K,A*01 $GPGGA,173004,5406.9660,N,01935.7038,E,1,08,00.9,00051.1,M,034.3,M,00,0000*4F $GPGSA,A,3,29,12,30,02,31,09,14,04,,,,,01.7,00.9,01.4*0B $GPGSV,3,1,11,30,73,281,37,12,68,098,38,02,43,097,38,29,37,223,41*7D $GPGSV,3,2,11,31,26,311,37,14,24,259,34,04,24,047,31,19,20,046,00*78 $GPGSV,3,3,11,09,14,159,34,27,08,158,00,20,00,349,00,,,,*42 $GPRMC,173004,A,5406.9660,N,01935.7038,E,007.4,194.6,170610,,,A*75 $GPVTG,194.6,T,,M,007.4,N,013.7,K,A*01 $GPGGA,173019,5406.9316,N,01935.6997,E,1,09,00.8,00048.7,M,034.3,M,00,0000*44 $GPGSA,A,3,30,29,31,14,09,02,12,27,04,,,,01.6,00.8,01.3*09 $GPGSV,3,1,11,30,73,281,37,12,68,098,36,02,43,097,35,29,37,223,37*7F $GPGSV,3,2,11,31,26,311,38,14,24,259,38,04,24,047,33,19,20,046,00*79 $GPGSV,3,3,11,09,14,159,35,27,08,158,32,20,00,349,00,,,,*42 $GPRMC,173019,A,5406.9316,N,01935.6997,E,012.5,199.5,170610,,,A*7B $GPVTG,199.5,T,,M,012.5,N,023.2,K,A*0C $GPGGA,173034,5406.8416,N,01935.6435,E,1,09,00.8,00031.4,M,034.3,M,00,0000*45 $GPGSA,A,3,14,30,31,27,29,02,09,12,04,,,,01.6,00.8,01.3*09 $GPGSV,3,1,10,30,75,281,40,12,66,099,33,02,43,095,33,29,39,223,38*77 $GPGSV,3,2,10,31,28,310,38,14,23,257,40,04,23,046,26,09,13,159,36*78 $GPGSV,3,3,10,27,07,158,35,19,19,045,00,,,,,,,,*71 $GPRMC,173034,A,5406.8416,N,01935.6435,E,018.7,196.3,170610,,,A*76 $GPVTG,196.3,T,,M,018.7,N,034.6,K,A*0F $GPGGA,173049,5406.8039,N,01935.6177,E,1,08,00.9,00032.0,M,034.3,M,00,0000*42 $GPGSA,A,3,29,30,02,14,12,31,04,09,,,,,01.7,00.9,01.4*0B $GPGSV,3,1,10,30,75,281,40,12,66,099,38,02,43,095,39,29,39,223,40*79 $GPGSV,3,2,10,31,28,310,38,14,23,257,40,04,23,046,36,19,19,045,00*7B $GPGSV,3,3,10,09,13,159,30,27,07,158,00,,,,,,,,*73 $GPRMC,173049,A,5406.8039,N,01935.6177,E,001.7,210.3,170610,,,A*73 $GPVTG,210.3,T,,M,001.7,N,003.1,K,A*09 $GPGGA,173104,5406.8295,N,01935.6367,E,1,07,01.0,00036.4,M,034.3,M,00,0000*4A $GPGSA,A,3,02,04,29,12,09,27,14,,,,,,02.0,01.0,01.6*01 $GPGSV,3,1,10,30,75,281,00,12,66,099,37,02,43,095,41,29,39,223,35*7F $GPGSV,3,2,10,31,28,310,00,14,23,257,24,04,23,046,38,19,19,045,00*7C $GPGSV,3,3,10,09,13,159,33,27,07,158,23,,,,,,,,*71 $GPRMC,173104,A,5406.8295,N,01935.6367,E,005.3,040.4,170610,,,A*7C $GPVTG,040.4,T,,M,005.3,N,009.8,K,A*0A $GPGGA,173119,5406.9256,N,01935.7006,E,1,08,00.9,00044.6,M,034.3,M,00,0000*4D $GPGSA,A,3,02,04,12,30,29,09,27,31,,,,,01.6,00.9,01.3*0D $GPGSV,3,1,10,30,75,281,32,12,66,099,40,02,43,095,42,29,39,223,32*7A $GPGSV,3,2,10,31,28,310,25,14,23,257,00,04,23,046,40,19,19,045,00*72 $GPGSV,3,3,10,09,13,159,33,27,07,158,26,,,,,,,,*74 $GPRMC,173119,A,5406.9256,N,01935.7006,E,022.7,014.5,170610,,,A*7A $GPVTG,014.5,T,,M,022.7,N,042.1,K,A*0D $GPGGA,173134,5406.9862,N,01935.7256,E,1,08,00.9,00041.1,M,034.3,M,00,0000*4A $GPGSA,A,3,09,30,27,12,02,29,04,31,,,,,01.6,00.9,01.3*0D $GPGSV,3,1,10,30,75,281,42,12,66,099,36,02,43,095,30,29,39,223,27*7D $GPGSV,3,2,10,31,28,310,31,14,23,257,00,04,23,046,31,19,19,045,00*71 $GPGSV,3,3,10,09,13,159,43,27,07,158,40,,,,,,,,*73 $GPRMC,173134,A,5406.9862,N,01935.7256,E,013.0,018.7,170610,,,A*74 $GPVTG,018.7,T,,M,013.0,N,024.2,K,A*05 $GPGGA,173149,5406.9701,N,01935.8238,E,1,09,00.8,00029.3,M,034.3,M,00,0000*41 $GPGSA,A,3,30,29,14,12,02,31,09,27,04,,,,01.6,00.8,01.3*09 $GPGSV,3,1,10,30,75,281,42,12,66,099,41,02,43,095,40,29,39,223,40*7B $GPGSV,3,2,10,31,28,310,38,14,23,257,40,04,23,046,31,19,19,045,00*7C $GPGSV,3,3,10,09,13,159,32,27,07,158,27,,,,,,,,*74 $GPRMC,173149,A,5406.9701,N,01935.8238,E,014.4,118.5,170610,,,A*73 $GPVTG,118.5,T,,M,014.4,N,026.8,K,A*0D $GPGGA,173204,5406.9235,N,01935.9008,E,1,09,00.8,00029.0,M,034.3,M,00,0000*4A $GPGSA,A,3,30,29,31,09,27,12,14,04,02,,,,01.6,00.8,01.3*09 $GPGSV,3,1,10,30,75,281,40,12,66,099,33,02,43,095,35,29,39,223,40*7E $GPGSV,3,2,10,31,28,310,38,14,23,257,37,04,23,046,36,19,19,045,00*7B $GPGSV,3,3,10,09,13,159,38,27,07,158,38,,,,,,,,*70 $GPRMC,173204,A,5406.9235,N,01935.9008,E,015.4,137.7,170610,,,A*75 $GPVTG,137.7,T,,M,015.4,N,028.6,K,A*03 $GPGGA,173219,5406.8735,N,01935.9736,E,1,08,01.2,00028.3,M,034.3,M,00,0000*40 $GPGSA,A,3,30,31,14,12,27,02,09,29,,,,,02.0,01.2,01.5*05 $GPGSV,3,1,10,30,75,281,43,12,66,099,37,02,43,095,36,29,39,223,36*7B $GPGSV,3,2,10,31,28,310,40,14,23,257,33,04,23,046,00,19,19,045,00*75 $GPGSV,3,3,10,09,13,159,36,27,07,158,36,,,,,,,,*70 $GPRMC,173219,A,5406.8735,N,01935.9736,E,017.9,139.2,170610,,,A*73 $GPVTG,139.2,T,,M,017.9,N,033.2,K,A*09 $GPGGA,173234,5406.8178,N,01936.0643,E,1,08,01.2,00024.6,M,034.3,M,00,0000*40 $GPGSA,A,3,30,29,31,14,12,02,09,27,,,,,02.0,01.2,01.5*05 $GPGSV,3,1,10,30,75,281,43,12,66,099,33,02,43,095,36,29,39,223,41*7F $GPGSV,3,2,10,31,28,310,38,14,23,257,38,04,23,046,00,19,19,045,00*71 $GPGSV,3,3,10,09,13,159,33,27,07,158,28,,,,,,,,*7A $GPRMC,173234,A,5406.8178,N,01936.0643,E,016.4,138.4,170610,,,A*71 $GPVTG,138.4,T,,M,016.4,N,030.4,K,A*07 $GPGGA,173249,5406.7455,N,01936.1218,E,1,08,01.2,00024.5,M,034.3,M,00,0000*47 $GPGSA,A,3,29,30,02,31,14,09,12,27,,,,,02.0,01.2,01.5*05 $GPGSV,3,1,10,30,75,281,41,12,66,099,33,02,43,095,39,29,39,223,42*71 $GPGSV,3,2,10,31,28,310,39,14,23,257,34,04,23,046,00,19,19,045,00*7C $GPGSV,3,3,10,09,13,159,37,27,07,158,30,,,,,,,,*77 $GPRMC,173249,A,5406.7455,N,01936.1218,E,015.3,155.2,170610,,,A*7C $GPVTG,155.2,T,,M,015.3,N,028.3,K,A*00 $GPGGA,173304,5406.6917,N,01936.1548,E,1,09,00.8,00029.1,M,034.3,M,00,0000*44 $GPGSA,A,3,30,29,12,14,31,09,04,02,27,,,,01.5,00.8,01.3*0A $GPGSV,3,1,10,30,75,281,43,12,66,099,40,02,43,095,29,29,39,223,41*75 $GPGSV,3,2,10,31,28,310,36,14,23,257,39,04,23,046,31,19,19,045,00*7C $GPGSV,3,3,10,09,13,159,38,27,07,158,32,,,,,,,,*7A $GPRMC,173304,A,5406.6917,N,01936.1548,E,014.4,146.4,170610,,,A*7E $GPVTG,146.4,T,,M,014.4,N,026.7,K,A*08 $GPGGA,173319,5406.6579,N,01936.2740,E,1,08,01.0,00034.8,M,034.3,M,00,0000*48 $GPGSA,A,3,29,30,09,12,27,02,14,04,,,,,01.7,01.0,01.4*04 $GPGSV,3,1,10,30,75,281,43,12,66,099,41,02,43,095,38,29,39,223,42*77 $GPGSV,3,2,10,31,28,310,00,14,23,257,37,04,23,046,30,19,19,045,00*76 $GPGSV,3,3,10,09,13,159,41,27,07,158,32,,,,,,,,*74 $GPRMC,173319,A,5406.6579,N,01936.2740,E,022.4,109.1,170610,,,A*74 $GPVTG,109.1,T,,M,022.4,N,041.5,K,A*00 $GPGGA,173334,5406.6351,N,01936.3985,E,1,07,01.4,00031.3,M,034.3,M,00,0000*48 $GPGSA,A,3,09,30,29,27,12,31,14,,,,,,02.1,01.4,01.5*00 $GPGSV,3,1,10,30,76,281,43,12,65,100,40,02,43,093,00,29,40,224,41*70 $GPGSV,3,2,10,31,29,310,36,04,23,045,00,14,22,256,36,09,11,159,41*73 $GPGSV,3,3,10,27,06,158,39,19,19,043,00,,,,,,,,*7A $GPRMC,173334,A,5406.6351,N,01936.3985,E,017.0,115.3,170610,,,A*7C $GPVTG,115.3,T,,M,017.0,N,031.6,K,A*09 $GPGGA,173349,5406.6124,N,01936.4954,E,1,08,00.9,00030.0,M,034.3,M,00,0000*48 $GPGSA,A,3,30,29,09,14,27,12,31,04,,,,,01.6,00.9,01.3*0A $GPGSV,3,1,10,30,76,281,44,12,65,100,41,02,43,093,00,29,40,224,41*76 $GPGSV,3,2,10,31,29,310,36,04,23,045,32,14,22,256,40,19,19,043,00*75 $GPGSV,3,3,10,09,11,159,42,27,06,158,37,,,,,,,,*71 $GPRMC,173349,A,5406.6124,N,01936.4954,E,018.4,111.7,170610,,,A*76 $GPVTG,111.7,T,,M,018.4,N,034.2,K,A*03 $GPGGA,173404,5406.5911,N,01936.6067,E,1,08,00.9,00028.8,M,034.3,M,00,0000*41 $GPGSA,A,3,29,30,12,02,14,31,27,04,,,,,01.6,00.9,01.3*01 $GPGSV,3,1,10,30,76,281,43,12,65,100,39,02,43,093,39,29,40,224,41*74 $GPGSV,3,2,10,31,29,310,36,04,23,045,30,14,22,256,39,19,19,043,00*79 $GPGSV,3,3,10,09,11,159,00,27,06,158,33,,,,,,,,*73 $GPRMC,173404,A,5406.5911,N,01936.6067,E,013.4,105.3,170610,,,A*74 $GPVTG,105.3,T,,M,013.4,N,024.8,K,A*02 $GPGGA,173419,5406.5698,N,01936.6923,E,1,09,00.8,00027.6,M,034.3,M,00,0000*4B $GPGSA,A,3,09,29,27,30,14,12,02,31,04,,,,01.5,00.8,01.3*0A $GPGSV,3,1,10,30,76,281,43,12,65,100,39,02,43,093,32,29,40,224,42*7C $GPGSV,3,2,10,31,29,310,32,04,23,045,30,14,22,256,40,19,19,043,00*73 $GPGSV,3,3,10,09,11,159,45,27,06,158,43,,,,,,,,*75 $GPRMC,173419,A,5406.5698,N,01936.6923,E,009.4,110.3,170610,,,A*70 $GPVTG,110.3,T,,M,009.4,N,017.4,K,A*01 $GPGGA,173434,5406.5488,N,01936.7591,E,1,09,00.8,00026.9,M,034.3,M,00,0000*4D $GPGSA,A,3,30,09,29,12,27,02,31,14,04,,,,01.5,00.8,01.3*0A $GPGSV,3,1,10,30,76,281,44,12,65,100,40,02,43,093,33,29,40,224,41*77 $GPGSV,3,2,10,31,29,310,38,04,23,045,29,14,22,256,37,19,19,043,00*71 $GPGSV,3,3,10,09,11,159,42,27,06,158,40,,,,,,,,*71 $GPRMC,173434,A,5406.5488,N,01936.7591,E,008.4,110.4,170610,,,A*7E $GPVTG,110.4,T,,M,008.4,N,015.6,K,A*07 $GPGGA,173449,5406.5343,N,01936.8273,E,1,09,00.8,00026.4,M,034.3,M,00,0000*4E $GPGSA,A,3,09,29,30,12,27,14,31,02,04,,,,01.5,00.8,01.2*0B $GPGSV,3,1,10,30,76,281,43,12,65,100,41,02,43,093,32,29,40,224,41*70 $GPGSV,3,2,10,31,29,310,38,04,23,045,29,14,22,256,39,19,19,043,00*7F $GPGSV,3,3,10,09,11,159,44,27,06,158,41,,,,,,,,*76 $GPRMC,173449,A,5406.5343,N,01936.8273,E,014.2,105.4,170610,,,A*7F $GPVTG,105.4,T,,M,014.2,N,026.3,K,A*0D $GPGGA,173510,5406.5011,N,01936.9580,E,1,09,00.8,00024.1,M,034.3,M,00,0000*4A $GPGSA,A,3,30,09,27,12,14,02,29,04,31,,,,01.5,00.8,01.2*0B $GPGSV,3,1,10,30,77,281,45,12,64,101,41,02,43,092,38,29,41,224,43*7F $GPGSV,3,2,10,31,29,310,35,04,22,045,30,14,22,256,38,09,11,159,45*78 $GPGSV,3,3,10,27,05,158,43,19,19,043,00,,,,,,,,*74 $GPRMC,173510,A,5406.5011,N,01936.9580,E,014.6,121.2,170610,,,A*78 $GPVTG,121.2,T,,M,014.6,N,027.1,K,A*0A $GPGGA,173524,5406.4844,N,01937.0067,E,1,09,00.9,00022.5,M,034.3,M,00,0000*43 $GPGSA,A,3,30,09,27,12,14,02,29,04,31,,,,01.5,00.9,01.2*0A $GPGSV,3,1,10,30,77,281,47,12,64,101,40,02,43,092,39,29,41,224,45*7B $GPGSV,3,2,10,31,29,310,39,04,22,045,29,14,22,256,42,09,11,159,45*71 $GPGSV,3,3,10,27,05,158,42,19,19,043,00,,,,,,,,*75 $GPRMC,173524,A,5406.4844,N,01937.0067,E,004.5,124.4,170610,,,A*73 $GPVTG,124.4,T,,M,004.5,N,008.4,K,A*03 $GPGGA,173539,5406.4484,N,01937.0905,E,1,09,00.9,00021.6,M,034.3,M,00,0000*42 $GPGSA,A,3,30,09,27,12,14,02,29,04,31,,,,01.5,00.9,01.2*0A $GPGSV,3,1,10,30,77,280,46,12,64,101,42,02,43,092,32,29,41,224,44*73 $GPGSV,3,2,10,31,29,310,39,04,22,045,33,14,22,256,42,19,19,042,00*79 $GPGSV,3,3,10,09,11,159,45,27,05,158,42,,,,,,,,*77 $GPRMC,173539,A,5406.4484,N,01937.0905,E,023.6,128.1,170610,,,A*7D $GPVTG,128.1,T,,M,023.6,N,043.7,K,A*00 $GPGGA,173548,5406.4094,N,01937.2002,E,1,09,00.9,00020.7,M,034.3,M,00,0000*4D $GPGSA,A,3,30,09,27,12,14,02,29,04,31,,,,01.5,00.9,01.2*0A $GPGSV,3,1,10,30,77,280,46,12,64,101,43,02,43,092,42,29,41,224,45*74 $GPGSV,3,2,10,31,29,310,34,04,22,045,32,14,22,256,41,19,19,042,16*71 $GPGSV,3,3,10,09,11,159,45,27,05,158,43,,,,,,,,*76 $GPRMC,173548,A,5406.4094,N,01937.2002,E,028.4,118.6,170610,,,A*7F $GPVTG,118.6,T,,M,028.4,N,052.7,K,A*0D $GPGGA,173603,5406.3546,N,01937.3729,E,1,09,00.9,00021.8,M,034.3,M,00,0000*4D $GPGSA,A,3,29,30,09,12,27,14,31,02,04,,,,01.5,00.9,01.2*0A $GPGSV,3,1,10,30,77,280,43,12,64,101,40,02,43,092,38,29,41,224,42*78 $GPGSV,3,2,10,31,29,310,38,04,22,045,34,14,22,256,38,19,19,042,00*72 $GPGSV,3,3,10,09,11,159,41,27,05,158,40,,,,,,,,*71 $GPRMC,173603,A,5406.3546,N,01937.3729,E,026.5,113.9,170610,,,A*7A $GPVTG,113.9,T,,M,026.5,N,049.0,K,A*0B $GPGGA,173618,5406.3283,N,01937.4898,E,1,09,00.9,00021.2,M,034.3,M,00,0000*41 $GPGSA,A,3,09,30,29,12,02,27,31,04,14,,,,01.5,00.9,01.2*0A $GPGSV,3,1,10,30,77,280,44,12,64,101,41,02,43,092,40,29,41,224,43*70 $GPGSV,3,2,10,31,29,310,35,04,22,045,35,14,22,256,33,19,19,042,00*75 $GPGSV,3,3,10,09,11,159,45,27,05,158,37,,,,,,,,*75 $GPRMC,173618,A,5406.3283,N,01937.4898,E,015.6,117.0,170610,,,A*72 $GPVTG,117.0,T,,M,015.6,N,028.9,K,A*0B $GPGGA,173633,5406.2973,N,01937.5972,E,1,08,01.2,00024.0,M,034.3,M,00,0000*45 $GPGSA,A,3,09,29,30,12,27,31,14,02,,,,,02.0,01.2,01.5*05 $GPGSV,3,1,10,30,77,280,41,12,64,101,38,02,43,092,33,29,41,224,41*7D $GPGSV,3,2,10,31,29,310,38,04,22,045,00,14,22,256,37,19,19,042,00*7A $GPGSV,3,3,10,09,11,159,43,27,05,158,35,,,,,,,,*71 $GPRMC,173633,A,5406.2973,N,01937.5972,E,018.7,119.1,170610,,,A*79 $GPVTG,119.1,T,,M,018.7,N,034.7,K,A*0B $GPGGA,173648,5406.2515,N,01937.7692,E,1,09,00.9,00024.9,M,034.3,M,00,0000*44 $GPGSA,A,3,09,29,30,12,27,31,14,04,02,,,,01.5,00.9,01.2*0A $GPGSV,3,1,10,30,77,280,43,12,64,101,40,02,43,092,28,29,41,224,41*7A $GPGSV,3,2,10,31,29,310,37,04,22,045,27,14,22,256,35,19,19,042,00*72 $GPGSV,3,3,10,09,11,159,44,27,05,158,41,,,,,,,,*75 $GPRMC,173648,A,5406.2515,N,01937.7692,E,033.3,113.2,170610,,,A*7E $GPVTG,113.2,T,,M,033.3,N,061.7,K,A*0F $GPGGA,173703,5406.1738,N,01937.9491,E,1,09,00.9,00019.5,M,034.3,M,00,0000*49 $GPGSA,A,3,30,31,14,12,02,27,29,09,04,,,,01.5,00.9,01.2*0A $GPGSV,3,1,10,30,77,280,43,12,64,101,38,02,43,092,38,29,41,224,38*7A $GPGSV,3,2,10,31,29,310,40,04,22,045,30,14,22,256,38,19,19,042,00*79 $GPGSV,3,3,10,09,11,159,37,27,05,158,38,,,,,,,,*7F $GPRMC,173703,A,5406.1738,N,01937.9491,E,033.6,127.4,170610,,,A*75 $GPVTG,127.4,T,,M,033.6,N,062.3,K,A*0C $GPGGA,173718,5406.1082,N,01938.0197,E,1,09,00.9,00015.4,M,034.3,M,00,0000*4D $GPGSA,A,3,30,29,12,09,27,02,31,04,14,,,,01.5,00.9,01.2*0A $GPGSV,3,1,10,30,77,280,42,12,64,101,40,02,43,092,37,29,41,224,41*75 $GPGSV,3,2,10,31,29,310,34,04,22,045,26,14,22,256,32,19,19,042,00*77 $GPGSV,3,3,10,09,11,159,38,27,05,158,38,,,,,,,,*70 $GPRMC,173718,A,5406.1082,N,01938.0197,E,020.7,126.6,170610,,,A*7C $GPVTG,126.6,T,,M,020.7,N,038.5,K,A*05 $GPGGA,173733,5406.0458,N,01938.1895,E,1,08,01.2,00016.9,M,034.3,M,00,0000*49 $GPGSA,A,3,30,31,14,09,02,27,29,12,,,,,02.0,01.2,01.5*05 $GPGSV,3,1,10,30,77,280,43,12,64,101,36,02,43,092,39,29,41,224,37*7A $GPGSV,3,2,10,31,29,310,40,04,22,045,00,14,22,256,39,19,19,042,00*7B $GPGSV,3,3,10,09,11,159,40,27,05,158,37,,,,,,,,*70 $GPRMC,173733,A,5406.0458,N,01938.1895,E,033.0,125.6,170610,,,A*7B $GPVTG,125.6,T,,M,033.0,N,061.2,K,A*08 $GPGGA,173748,5405.9526,N,01938.1672,E,1,08,00.9,00023.8,M,034.3,M,00,0000*4D $GPGSA,A,3,30,31,14,12,29,02,04,09,,,,,01.6,00.9,01.4*0A $GPGSV,3,1,10,30,77,280,42,12,64,101,40,02,43,092,33,29,41,224,33*74 $GPGSV,3,2,10,31,29,310,40,04,22,045,35,14,22,256,39,19,19,042,00*7D $GPGSV,3,3,10,09,11,159,32,27,05,158,00,,,,,,,,*71 $GPRMC,173748,A,5405.9526,N,01938.1672,E,024.6,194.9,170610,,,A*77 $GPVTG,194.9,T,,M,024.6,N,045.6,K,A*0F $GPGGA,173803,5405.8823,N,01938.1055,E,1,07,01.3,00021.0,M,034.3,M,00,0000*49 $GPGSA,A,3,30,29,31,02,14,04,12,,,,,,02.3,01.3,01.9*03 $GPGSV,3,1,10,30,77,280,44,12,64,101,30,02,43,092,38,29,41,224,41*7B $GPGSV,3,2,10,31,29,310,40,04,22,045,25,14,22,256,29,19,19,042,00*7D $GPGSV,3,3,10,09,11,159,00,27,05,158,19,,,,,,,,*78 $GPRMC,173803,A,5405.8823,N,01938.1055,E,016.0,191.9,170610,,,A*7F $GPVTG,191.9,T,,M,016.0,N,029.6,K,A*07 $GPGGA,173818,5405.8700,N,01938.1064,E,1,07,01.3,00027.3,M,034.3,M,00,0000*4A $GPGSA,A,3,29,30,14,02,31,04,12,,,,,,02.3,01.3,01.9*03 $GPGSV,3,1,10,30,77,280,42,12,64,101,32,02,43,092,39,29,41,224,42*7D $GPGSV,3,2,10,31,29,310,39,04,22,045,34,14,22,256,41,19,19,042,00*7D $GPGSV,3,3,10,09,11,159,00,27,05,158,00,,,,,,,,*70 $GPRMC,173818,A,5405.8700,N,01938.1064,E,001.4,354.1,170610,,,A*78 $GPVTG,354.1,T,,M,001.4,N,002.5,K,A*0C $GPGGA,173833,5405.8767,N,01938.1075,E,1,06,01.3,00028.2,M,034.3,M,00,0000*4D $GPGSA,A,3,29,30,14,02,04,31,,,,,,,02.5,01.3,02.0*0C $GPGSV,3,1,10,30,77,280,42,12,64,101,00,02,43,092,38,29,41,224,43*7C $GPGSV,3,2,10,31,29,310,35,04,22,045,33,14,22,256,39,19,19,042,00*79 $GPGSV,3,3,10,09,11,159,00,27,05,158,00,,,,,,,,*70 $GPRMC,173833,A,5405.8767,N,01938.1075,E,001.5,002.0,170610,,,A*70 $GPVTG,002.0,T,,M,001.5,N,002.9,K,A*00 $GPGGA,173848,5405.8786,N,01938.1105,E,1,07,01.3,00028.1,M,034.3,M,00,0000*4A $GPGSA,A,3,29,30,14,02,31,04,12,,,,,,02.3,01.3,01.9*03 $GPGSV,3,1,10,30,79,280,42,12,63,102,29,02,44,090,36,29,42,225,43*74 $GPGSV,3,2,10,31,31,309,36,04,21,044,33,14,21,254,41,19,19,041,00*74 $GPGSV,3,3,10,09,09,159,00,27,04,158,00,,,,,,,,*78 $GPRMC,173848,A,5405.8786,N,01938.1105,E,001.2,007.4,170610,,,A*73 $GPVTG,007.4,T,,M,001.2,N,002.3,K,A*0C $GPGGA,173903,5405.8795,N,01938.1103,E,1,07,01.3,00036.8,M,034.3,M,00,0000*46 $GPGSA,A,3,29,30,14,31,02,04,12,,,,,,02.3,01.3,01.9*03 $GPGSV,3,1,10,30,79,280,42,12,63,102,29,02,44,090,37,29,42,225,43*75 $GPGSV,3,2,10,31,31,309,40,04,21,044,34,14,21,254,41,19,19,041,00*72 $GPGSV,3,3,10,09,09,159,00,27,04,158,30,,,,,,,,*7B $GPRMC,173903,A,5405.8795,N,01938.1103,E,000.3,334.4,170610,,,A*7A $GPVTG,334.4,T,,M,000.3,N,000.6,K,A*08 $GPGGA,173918,5405.8801,N,01938.1114,E,1,07,01.3,00044.4,M,034.3,M,00,0000*41 $GPGSA,A,3,29,30,31,14,02,04,12,,,,,,02.3,01.3,01.9*03 $GPGSV,3,1,10,30,79,280,42,12,63,102,26,02,44,090,39,29,42,225,43*74 $GPGSV,3,2,10,31,31,309,40,04,21,044,32,14,21,254,40,19,19,041,00*75 $GPGSV,3,3,10,09,09,159,00,27,04,158,30,,,,,,,,*7B $GPRMC,173918,A,5405.8801,N,01938.1114,E,001.2,061.8,170610,,,A*7B $GPVTG,061.8,T,,M,001.2,N,002.2,K,A*01 $GPGGA,173933,5405.8822,N,01938.1132,E,1,08,00.9,00048.4,M,034.3,M,00,0000*45 $GPGSA,A,3,29,14,30,31,02,12,04,09,,,,,01.6,00.9,01.3*0D $GPGSV,3,1,10,30,79,280,41,12,63,102,32,02,44,090,36,29,42,225,43*7D $GPGSV,3,2,10,31,31,309,39,04,21,044,32,14,21,254,40,19,19,041,00*7B $GPGSV,3,3,10,09,09,159,27,27,04,158,29,,,,,,,,*76 $GPRMC,173933,A,5405.8822,N,01938.1132,E,001.5,343.8,170610,,,A*73 $GPVTG,343.8,T,,M,001.5,N,002.8,K,A*0F $GPGGA,173948,5405.8868,N,01938.1054,E,1,07,01.3,00055.3,M,034.3,M,00,0000*49 $GPGSA,A,3,29,30,14,02,31,04,12,,,,,,02.3,01.3,01.9*03 $GPGSV,3,1,10,30,79,280,43,12,63,102,28,02,44,090,39,29,42,225,42*7A $GPGSV,3,2,10,31,31,309,33,04,21,044,31,14,21,254,40,19,19,041,00*72 $GPGSV,3,3,10,09,09,159,00,27,04,158,28,,,,,,,,*72 $GPRMC,173948,A,5405.8868,N,01938.1054,E,001.6,346.4,170610,,,A*7A $GPVTG,346.4,T,,M,001.6,N,003.0,K,A*0C $GPGGA,174003,5405.8916,N,01938.1009,E,1,07,01.3,00058.9,M,034.3,M,00,0000*4F $GPGSA,A,3,29,14,30,02,31,12,04,,,,,,02.3,01.3,01.9*03 $GPGSV,3,1,10,30,79,280,42,12,63,102,35,02,44,090,39,29,42,225,42*77 $GPGSV,3,2,10,31,31,309,39,04,21,044,30,14,21,254,41,19,19,041,00*78 $GPGSV,3,3,10,09,09,159,00,27,04,158,00,,,,,,,,*78 $GPRMC,174003,A,5405.8916,N,01938.1009,E,001.9,342.0,170610,,,A*74 $GPVTG,342.0,T,,M,001.9,N,003.5,K,A*06 $GPGGA,174018,5405.8933,N,01938.0989,E,1,08,00.9,00063.4,M,034.3,M,00,0000*43 $GPGSA,A,3,29,14,30,31,02,12,04,09,,,,,01.6,00.9,01.3*0D $GPGSV,3,1,10,30,79,280,40,12,63,102,36,02,44,090,37,29,42,225,42*78 $GPGSV,3,2,10,31,31,309,40,04,21,044,34,14,21,254,41,19,19,041,00*72 $GPGSV,3,3,10,09,09,159,28,27,04,158,00,,,,,,,,*72 $GPRMC,174018,A,5405.8933,N,01938.0989,E,000.9,350.2,170610,,,A*79 $GPVTG,350.2,T,,M,000.9,N,001.7,K,A*06 $GPGGA,174033,5405.8943,N,01938.0997,E,1,07,01.3,00064.4,M,034.3,M,00,0000*41 $GPGSA,A,3,29,14,30,31,02,04,12,,,,,,02.3,01.3,01.9*03 $GPGSV,3,1,10,30,79,280,40,12,63,102,32,02,44,090,38,29,42,225,42*73 $GPGSV,3,2,10,31,31,309,39,04,21,044,36,14,21,254,41,19,19,041,00*7E $GPGSV,3,3,10,09,09,159,23,27,04,158,00,,,,,,,,*79 $GPRMC,174033,A,5405.8943,N,01938.0997,E,001.0,356.6,170610,,,A*72 $GPVTG,356.6,T,,M,001.0,N,001.9,K,A*02 $GPGGA,174048,5405.8961,N,01938.0985,E,1,07,01.3,00065.6,M,034.3,M,00,0000*4D $GPGSA,A,3,29,14,02,30,31,04,12,,,,,,02.3,01.3,01.9*03 $GPGSV,3,1,10,30,79,280,39,12,63,102,31,02,44,090,39,29,42,225,42*7F $GPGSV,3,2,10,31,31,309,39,04,21,044,35,14,21,254,41,19,19,041,00*7D $GPGSV,3,3,10,09,09,159,00,27,04,158,00,,,,,,,,*78 $GPRMC,174048,A,5405.8961,N,01938.0985,E,001.7,335.5,170610,,,A*7C $GPVTG,335.5,T,,M,001.7,N,003.3,K,A*0B $GPGGA,174103,5405.8934,N,01938.0991,E,1,07,01.3,00064.3,M,034.3,M,00,0000*42 $GPGSA,A,3,30,31,14,29,04,02,12,,,,,,02.3,01.3,01.9*03 $GPGSV,3,1,10,30,79,280,44,12,63,102,34,02,44,090,38,29,42,225,42*71 $GPGSV,3,2,10,31,31,309,40,04,21,044,35,14,21,254,40,19,19,041,00*72 $GPGSV,3,3,10,09,09,159,00,27,04,158,00,,,,,,,,*78 $GPRMC,174103,A,5405.8934,N,01938.0991,E,003.1,160.0,170610,,,A*74 $GPVTG,160.0,T,,M,003.1,N,005.8,K,A*05 $GPGGA,174118,5405.8876,N,01938.1071,E,1,08,00.9,00053.1,M,034.3,M,00,0000*4B $GPGSA,A,3,30,02,12,29,14,09,31,04,,,,,01.6,00.9,01.3*0D $GPGSV,3,1,10,30,79,280,44,12,63,102,38,02,44,090,40,29,42,225,39*7E $GPGSV,3,2,10,31,31,309,35,04,21,044,25,14,21,254,38,19,19,041,00*7E $GPGSV,3,3,10,09,09,159,38,27,04,158,29,,,,,,,,*78 $GPRMC,174118,A,5405.8876,N,01938.1071,E,000.3,050.9,170610,,,A*75 $GPVTG,050.9,T,,M,000.3,N,000.6,K,A*04 $GPGGA,174133,5405.9071,N,01938.1188,E,1,08,00.9,00038.9,M,034.3,M,00,0000*4E $GPGSA,A,3,02,30,12,29,04,14,31,09,,,,,01.6,00.9,01.3*0D $GPGSV,3,1,10,30,79,280,42,12,63,102,41,02,44,090,41,29,42,225,40*79 $GPGSV,3,2,10,31,31,309,33,04,21,044,38,14,21,254,36,19,19,041,00*7A $GPGSV,3,3,10,09,09,159,18,27,04,158,00,,,,,,,,*71 $GPRMC,174133,A,5405.9071,N,01938.1188,E,009.7,049.9,170610,,,A*70 $GPVTG,049.9,T,,M,009.7,N,017.9,K,A*08 $GPGGA,174148,5405.9938,N,01938.2110,E,1,08,00.9,00033.5,M,034.3,M,00,0000*43 $GPGSA,A,3,02,30,04,12,29,31,14,09,,,,,01.6,00.9,01.3*0D $GPGSV,3,1,11,30,80,279,41,12,61,103,39,29,44,225,37,02,44,088,42*7B $GPGSV,3,2,11,31,32,308,32,04,20,043,40,14,20,253,26,19,18,040,00*76 $GPGSV,3,3,11,09,08,160,23,27,02,159,33,10,00,090,00,,,,*4C $GPRMC,174148,A,5405.9938,N,01938.2110,E,018.6,019.9,170610,,,A*7E $GPVTG,019.9,T,,M,018.6,N,034.4,K,A*00 $GPGGA,174203,5406.0846,N,01938.1084,E,1,06,01.5,00037.1,M,034.3,M,00,0000*41 $GPGSA,A,3,12,02,04,31,14,30,,,,,,,02.4,01.5,01.9*09 $GPGSV,3,1,11,30,80,279,35,12,61,103,42,29,44,225,00,02,44,088,42*70 $GPGSV,3,2,11,31,32,308,33,04,20,043,42,14,20,253,32,19,18,040,00*70 $GPGSV,3,3,11,09,08,160,00,27,02,159,00,10,00,090,00,,,,*4D $GPRMC,174203,A,5406.0846,N,01938.1084,E,028.8,307.8,170610,,,A*7F $GPVTG,307.8,T,,M,028.8,N,053.3,K,N*09 $GPGGA,174218,5406.1163,N,01938.0056,E,1,07,01.3,00029.2,M,034.3,M,00,0000*41 $GPGSA,A,3,04,12,31,02,14,29,30,,,,,,02.3,01.3,01.9*03 $GPGSV,3,1,11,30,80,279,34,12,61,103,41,29,44,225,36,02,44,088,36*74 $GPGSV,3,2,11,31,32,308,40,04,20,043,41,14,20,253,38,19,18,040,00*7D $GPGSV,3,3,11,09,08,160,00,27,02,159,24,10,00,090,00,,,,*4B $GPRMC,174218,A,5406.1163,N,01938.0056,E,006.4,295.3,170610,,,A*75 $GPVTG,295.3,T,,M,006.4,N,012.0,K,A*01 $GPGGA,174233,5406.1469,N,01937.9703,E,1,06,01.5,00019.6,M,034.3,M,00,0000*46 $GPGSA,A,3,31,02,12,04,30,29,,,,,,,03.0,01.5,02.6*0E $GPGSV,3,1,11,30,80,279,39,12,61,103,42,29,44,225,38,02,44,088,40*75 $GPGSV,3,2,11,31,32,308,42,04,20,043,39,14,20,253,00,19,18,040,00*7B $GPGSV,3,3,11,09,08,160,00,27,02,159,00,10,00,090,00,,,,*4D $GPRMC,174233,A,5406.1469,N,01937.9703,E,010.8,283.8,170610,,,A*75 $GPVTG,283.8,T,,M,010.8,N,020.0,K,A*07 $GPGGA,174248,5406.1057,N,01938.0228,E,1,08,00.9,00022.9,M,034.3,M,00,0000*4D $GPGSA,A,3,30,29,09,31,12,14,04,02,,,,,01.6,00.9,01.3*0D $GPGSV,3,1,11,30,80,279,43,12,61,103,39,29,44,225,43,02,44,088,34*7B $GPGSV,3,2,11,31,32,308,39,04,20,043,32,14,20,253,37,19,18,040,00*78 $GPGSV,3,3,11,09,08,160,40,27,02,159,36,10,00,090,00,,,,*4C $GPRMC,174248,A,5406.1057,N,01938.0228,E,004.3,124.4,170610,,,A*76 $GPVTG,124.4,T,,M,004.3,N,008.1,K,A*00 $GPGGA,174303,5406.1100,N,01938.0259,E,1,07,01.1,00022.7,M,034.3,M,00,0000*4E $GPGSA,A,3,30,29,14,09,02,12,04,,,,,,01.7,01.1,01.3*07 $GPGSV,3,1,11,30,80,279,45,12,61,103,32,29,44,225,41,02,44,088,35*75 $GPGSV,3,2,11,31,32,308,00,04,20,043,33,14,20,253,39,19,18,040,00*7D $GPGSV,3,3,11,09,08,160,39,27,02,159,36,10,00,090,00,,,,*42 $GPRMC,174303,A,5406.1100,N,01938.0259,E,001.7,354.1,170610,,,A*7C $GPVTG,354.1,T,,M,001.7,N,003.2,K,A*09 $GPGGA,174318,5406.1108,N,01938.0231,E,1,07,01.1,00024.0,M,034.3,M,00,0000*43 $GPGSA,A,3,30,29,09,14,02,12,04,,,,,,01.7,01.1,01.3*07 $GPGSV,3,1,11,30,80,279,44,12,61,103,30,29,44,225,41,02,44,088,33*70 $GPGSV,3,2,11,31,32,308,00,04,20,043,31,14,20,253,38,19,18,040,00*7E $GPGSV,3,3,11,09,08,160,40,27,02,159,35,10,00,090,00,,,,*4F $GPRMC,174318,A,5406.1108,N,01938.0231,E,001.0,090.4,170610,,,A*79 $GPVTG,090.4,T,,M,001.0,N,001.8,K,A*08 $GPGGA,174333,5406.1160,N,01938.0205,E,1,07,01.1,00019.5,M,034.3,M,00,0000*48 $GPGSA,A,3,30,29,09,14,02,12,04,,,,,,01.7,01.1,01.3*07 $GPGSV,3,1,11,30,80,279,44,12,61,103,29,29,44,225,41,02,44,088,34*7F $GPGSV,3,2,11,31,32,308,00,04,20,043,28,14,20,253,38,19,18,040,00*76 $GPGSV,3,3,11,09,08,160,41,27,02,159,31,10,00,090,00,,,,*4A $GPRMC,174333,A,5406.1160,N,01938.0205,E,001.1,061.0,170610,,,A*72 $GPVTG,061.0,T,,M,001.1,N,002.2,K,A*0A $GPGGA,174348,5406.1103,N,01938.0242,E,1,06,01.1,00025.6,M,034.3,M,00,0000*4F $GPGSA,A,3,30,29,09,14,02,04,,,,,,,01.9,01.1,01.5*0C $GPGSV,3,1,11,30,80,279,44,12,61,103,00,29,44,225,43,02,44,088,33*71 $GPGSV,3,2,11,31,32,308,00,04,20,043,29,14,20,253,38,19,18,040,00*77 $GPGSV,3,3,11,09,08,160,40,27,02,159,36,10,00,090,00,,,,*4C $GPRMC,174348,A,5406.1103,N,01938.0242,E,000.5,156.1,170610,,,A*79 $GPVTG,156.1,T,,M,000.5,N,000.9,K,A*02 $GPGGA,174403,5406.1096,N,01938.0233,E,1,06,01.3,00026.4,M,034.3,M,00,0000*4F $GPGSA,A,3,30,29,09,14,02,31,,,,,,,02.2,01.3,01.7*02 $GPGSV,3,1,11,30,80,279,44,12,61,103,00,29,44,225,43,02,44,088,34*76 $GPGSV,3,2,11,31,32,308,32,04,20,043,00,14,20,253,39,19,18,040,00*7C $GPGSV,3,3,11,09,08,160,40,27,02,159,31,10,00,090,00,,,,*4B $GPRMC,174403,A,5406.1096,N,01938.0233,E,000.5,148.7,170610,,,A*73 $GPVTG,148.7,T,,M,000.5,N,000.9,K,A*0B $GPGGA,174418,5406.1109,N,01938.0155,E,1,08,00.9,00030.4,M,034.3,M,00,0000*43 $GPGSA,A,3,30,29,12,09,02,31,14,04,,,,,01.6,00.9,01.3*0D $GPGSV,3,1,11,30,80,279,44,12,61,103,37,29,44,225,43,02,44,088,33*75 $GPGSV,3,2,11,31,32,308,34,04,20,043,31,14,20,253,36,19,18,040,00*77 $GPGSV,3,3,11,09,08,160,36,27,02,159,30,10,00,090,00,,,,*4B $GPRMC,174418,A,5406.1109,N,01938.0155,E,002.4,076.4,170610,,,A*71 $GPVTG,076.4,T,,M,002.4,N,004.5,K,A*0F $GPGGA,174433,5406.0711,N,01938.1407,E,1,08,00.9,00025.7,M,034.3,M,00,0000*40 $GPGSA,A,3,30,29,09,14,31,12,02,04,,,,,01.6,00.9,01.3*0D $GPGSV,3,1,11,30,80,279,43,12,61,103,33,29,44,225,42,02,44,088,28*7D $GPGSV,3,2,11,31,32,308,39,04,20,043,30,14,20,253,38,19,18,040,00*75 $GPGSV,3,3,11,09,08,160,41,27,02,159,36,10,00,090,00,,,,*4D $GPRMC,174433,A,5406.0711,N,01938.1407,E,021.3,125.8,170610,,,A*78 $GPVTG,125.8,T,,M,021.3,N,039.4,K,A*0D $GPGGA,174448,5406.0317,N,01938.2117,E,1,07,01.3,00008.9,M,034.3,M,00,0000*4C $GPGSA,A,3,30,29,31,02,09,14,12,,,,,,02.1,01.3,01.6*03 $GPGSV,3,1,11,30,81,277,44,12,60,104,36,29,45,226,39,02,44,086,39*76 $GPGSV,3,2,11,31,33,308,39,04,20,042,00,14,19,252,37,19,18,039,00*7C $GPGSV,3,3,11,09,07,160,39,27,01,159,34,10,00,089,00,,,,*44 $GPRMC,174448,A,5406.0317,N,01938.2117,E,007.1,125.3,170610,,,A*7C $GPVTG,125.3,T,,M,007.1,N,013.3,K,A*0F $GPGGA,174509,5406.0362,N,01938.2002,E,1,08,00.9,00008.4,M,034.3,M,00,0000*46 $GPGSA,A,3,30,31,02,29,14,09,12,04,,,,,01.6,00.9,01.3*0D $GPGSV,3,1,11,30,82,276,46,12,60,104,38,29,46,226,39,02,44,086,40*75 $GPGSV,3,2,11,31,33,308,42,04,19,042,25,14,19,252,38,09,06,160,39*7B $GPGSV,3,3,11,27,01,159,34,19,18,039,00,10,01,088,00,,,,*4C $GPRMC,174509,A,5406.0362,N,01938.2002,E,000.1,354.0,170610,,,A*7F $GPVTG,354.0,T,,M,000.1,N,000.3,K,A*0D $GPGGA,174524,5406.0382,N,01938.1960,E,1,08,00.9,00014.8,M,034.3,M,00,0000*48 $GPGSA,A,3,30,31,02,29,14,09,12,04,,,,,01.6,00.9,01.3*0D $GPGSV,3,1,11,30,82,276,48,12,60,104,38,29,46,226,40,02,44,086,40*75 $GPGSV,3,2,11,31,33,308,43,04,19,042,25,14,19,252,39,09,06,160,40*75 $GPGSV,3,3,11,27,01,159,36,19,18,039,00,10,01,088,14,,,,*4B $GPRMC,174524,A,5406.0382,N,01938.1960,E,000.0,105.4,170610,,,A*73 $GPVTG,105.4,T,,M,000.0,N,000.0,K,A*0D $GPGGA,174539,5406.0386,N,01938.1965,E,1,08,00.9,00016.1,M,034.3,M,00,0000*4E $GPGSA,A,3,30,31,02,29,14,09,12,04,,,,,01.6,00.9,01.3*0D $GPGSV,3,1,11,30,82,276,48,12,59,104,36,29,46,226,41,02,44,086,40*70 $GPGSV,3,2,11,31,33,307,43,04,19,042,26,14,19,252,40,19,18,038,00*71 $GPGSV,3,3,11,09,06,160,40,27,01,159,36,10,01,088,19,,,,*41 $GPRMC,174539,A,5406.0386,N,01938.1965,E,000.0,087.6,170610,,,A*77 $GPVTG,087.6,T,,M,000.0,N,000.0,K,A*04 $GPGGA,174547,5406.0388,N,01938.1966,E,1,08,00.9,00016.2,M,034.3,M,00,0000*49 $GPGSA,A,3,30,31,02,29,14,09,12,04,,,,,01.6,00.9,01.3*0D $GPGSV,3,1,11,30,82,276,48,12,59,104,36,29,46,226,41,02,44,086,41*71 $GPGSV,3,2,11,31,33,307,43,04,19,042,26,14,19,252,40,19,18,038,00*71 $GPGSV,3,3,11,09,06,160,40,27,01,159,36,10,01,088,20,,,,*4B $GPRMC,174547,A,5406.0388,N,01938.1966,E,000.0,096.4,170610,,,A*71 $GPVTG,096.4,T,,M,000.0,N,000.0,K,A*06 $GPGGA,174602,5406.0379,N,01938.1974,E,1,08,00.9,00017.9,M,034.3,M,00,0000*4C $GPGSA,A,3,30,31,02,14,29,09,12,04,,,,,01.6,00.9,01.3*0D $GPGSV,3,1,11,30,82,276,44,12,59,104,37,29,46,226,39,02,44,086,40*72 $GPGSV,3,2,11,31,33,307,41,04,19,042,28,14,19,252,39,19,18,038,00*73 $GPGSV,3,3,11,09,06,160,38,27,01,159,38,10,01,088,00,,,,*48 $GPRMC,174602,A,5406.0379,N,01938.1974,E,000.2,088.3,170610,,,A*74 $GPVTG,088.3,T,,M,000.2,N,000.4,K,A*08 $GPGGA,174617,5406.0358,N,01938.1965,E,1,08,00.9,00022.6,M,034.3,M,00,0000*42 $GPGSA,A,3,30,31,02,14,09,29,12,04,,,,,01.6,00.9,01.3*0D $GPGSV,3,1,11,30,82,276,45,12,59,104,36,29,46,226,38,02,44,086,39*7D $GPGSV,3,2,11,31,33,307,40,04,19,042,30,14,19,252,38,19,18,038,00*7A $GPGSV,3,3,11,09,06,160,39,27,01,159,37,10,01,088,00,,,,*46 $GPRMC,174617,A,5406.0358,N,01938.1965,E,000.9,199.1,170610,,,A*7B $GPVTG,199.1,T,,M,000.9,N,001.7,K,A*02 $GPGGA,174632,5406.0352,N,01938.1966,E,1,08,00.9,00025.3,M,034.3,M,00,0000*4E $GPGSA,A,3,30,31,14,09,02,12,29,04,,,,,01.6,00.9,01.2*0C $GPGSV,3,1,11,30,82,276,44,12,59,104,36,29,46,226,37,02,44,086,39*73 $GPGSV,3,2,11,31,33,307,40,04,19,042,29,14,19,252,39,19,18,038,00*73 $GPGSV,3,3,11,09,06,160,39,27,01,159,37,10,01,088,00,,,,*46 $GPRMC,174632,A,5406.0352,N,01938.1966,E,000.5,131.4,170610,,,A*7E $GPVTG,131.4,T,,M,000.5,N,000.9,K,A*06 $GPGGA,174647,5406.0342,N,01938.1978,E,1,07,01.3,00025.6,M,034.3,M,00,0000*43 $GPGSA,A,3,30,31,02,14,09,29,12,,,,,,02.1,01.3,01.6*03 $GPGSV,3,1,11,30,82,276,45,12,59,104,36,29,46,226,38,02,44,086,39*7D $GPGSV,3,2,11,31,33,307,41,04,19,042,00,14,19,252,39,19,18,038,00*79 $GPGSV,3,3,11,09,06,160,39,27,01,159,32,10,01,088,00,,,,*43 $GPRMC,174647,A,5406.0342,N,01938.1978,E,000.3,163.8,170610,,,A*7F $GPVTG,163.8,T,,M,000.3,N,000.7,K,A*05 $GPGGA,174702,5406.0333,N,01938.1998,E,1,07,01.3,00024.7,M,034.3,M,00,0000*4B $GPGSA,A,3,30,31,09,29,14,02,12,,,,,,02.1,01.3,01.6*03 $GPGSV,3,1,11,30,82,276,44,12,59,104,35,29,46,226,39,02,44,086,39*7E $GPGSV,3,2,11,31,33,307,40,04,19,042,00,14,19,252,39,19,18,038,00*78 $GPGSV,3,3,11,09,06,160,40,27,01,159,34,10,01,088,00,,,,*4B $GPRMC,174702,A,5406.0333,N,01938.1998,E,000.5,099.0,170610,,,A*7D $GPVTG,099.0,T,,M,000.5,N,001.0,K,A*09 $GPGGA,174717,5406.0327,N,01938.2021,E,1,07,01.3,00024.0,M,034.3,M,00,0000*45 $GPGSA,A,3,30,31,02,14,12,29,09,,,,,,02.1,01.3,01.6*03 $GPGSV,3,1,11,30,82,276,44,12,59,104,37,29,46,226,38,02,44,086,38*7C $GPGSV,3,2,11,31,33,307,40,04,19,042,00,14,19,252,38,19,18,038,00*79 $GPGSV,3,3,11,09,06,160,35,27,01,159,37,10,01,088,00,,,,*4A $GPRMC,174717,A,5406.0327,N,01938.2021,E,003.9,111.8,170610,,,A*72 $GPVTG,111.8,T,,M,003.9,N,007.3,K,A*0A $GPGGA,174732,5406.0090,N,01938.2220,E,1,07,01.3,00019.9,M,034.3,M,00,0000*49 $GPGSA,A,3,29,14,30,31,02,12,04,,,,,,02.3,01.3,01.8*02 $GPGSV,3,1,11,30,82,276,43,12,59,104,34,29,46,226,41,02,44,086,39*77 $GPGSV,3,2,11,31,33,307,41,04,19,042,27,14,19,252,41,19,18,038,00*73 $GPGSV,3,3,11,09,06,160,00,27,01,159,00,10,01,088,32,,,,*49 $GPRMC,174732,A,5406.0090,N,01938.2220,E,001.7,160.2,170610,,,A*79 $GPVTG,160.2,T,,M,001.7,N,003.3,K,A*0E $GPGGA,174747,5405.9849,N,01938.2062,E,1,07,01.3,00019.9,M,034.3,M,00,0000*49 $GPGSA,A,3,14,29,31,30,12,02,09,,,,,,02.1,01.3,01.6*03 $GPGSV,3,1,11,30,82,276,41,12,59,104,36,29,46,226,44,02,44,086,31*7A $GPGSV,3,2,11,31,33,307,41,04,19,042,00,14,19,252,42,19,18,038,00*75 $GPGSV,3,3,11,09,06,160,25,27,01,159,00,10,01,088,31,,,,*4D $GPRMC,174747,A,5405.9849,N,01938.2062,E,010.0,205.0,170610,,,A*7C $GPVTG,205.0,T,,M,010.0,N,018.5,K,A*07 $GPGGA,174802,5405.9240,N,01938.1322,E,1,07,01.3,00022.5,M,034.3,M,00,0000*44 $GPGSA,A,3,14,31,30,29,12,02,09,,,,,,02.1,01.3,01.6*03 $GPGSV,3,1,11,30,82,276,42,12,59,104,39,29,46,226,39,02,44,086,38*75 $GPGSV,3,2,11,31,33,307,40,04,19,042,00,14,19,252,41,19,18,038,00*77 $GPGSV,3,3,11,09,06,160,30,27,01,159,00,10,01,088,00,,,,*4B $GPRMC,174802,A,5405.9240,N,01938.1322,E,019.9,211.2,170610,,,A*72 $GPVTG,211.2,T,,M,019.9,N,036.9,K,A*00 $GPGGA,174817,5405.8456,N,01938.1159,E,1,07,01.3,00033.6,M,034.3,M,00,0000*4D $GPGSA,A,3,30,29,14,12,31,09,02,,,,,,02.1,01.3,01.6*03 $GPGSV,3,1,11,30,82,276,43,12,59,104,37,29,46,226,42,02,44,086,29*76 $GPGSV,3,2,11,31,33,307,33,04,19,042,00,14,19,252,36,19,18,038,00*73 $GPGSV,3,3,11,09,06,160,30,27,01,159,00,10,01,088,20,,,,*49 $GPRMC,174817,A,5405.8456,N,01938.1159,E,015.3,168.4,170610,,,A*75 $GPVTG,168.4,T,,M,015.3,N,028.4,K,A*0F $GPGGA,174832,5405.7940,N,01938.1520,E,1,06,01.7,00030.2,M,034.3,M,00,0000*47 $GPGSA,A,3,30,29,31,12,02,04,,,,,,,03.3,01.7,02.8*01 $GPGSV,3,1,11,30,82,276,44,12,59,104,36,29,46,226,42,02,44,086,36*7E $GPGSV,3,2,11,31,33,307,39,04,19,042,29,14,19,252,00,19,18,038,00*77 $GPGSV,3,3,11,09,06,160,00,27,01,159,00,10,01,088,00,,,,*48 $GPRMC,174832,A,5405.7940,N,01938.1520,E,017.6,159.3,170610,,,A*7F $GPVTG,159.3,T,,M,017.6,N,032.6,K,A*04 $GPGGA,174847,5405.7061,N,01938.1915,E,1,08,00.9,00039.7,M,034.3,M,00,0000*48 $GPGSA,A,3,30,29,14,31,12,02,04,09,,,,,01.5,00.9,01.2*0F $GPGSV,3,1,11,30,83,272,43,12,58,105,35,29,47,226,42,02,44,084,32*78 $GPGSV,3,2,11,31,34,307,40,04,18,041,20,14,18,251,40,19,17,037,00*73 $GPGSV,3,3,11,09,05,160,23,10,02,087,00,27,00,159,22,,,,*47 $GPRMC,174847,A,5405.7061,N,01938.1915,E,027.3,165.7,170610,,,A*70 $GPVTG,165.7,T,,M,027.3,N,050.6,K,A*0D $GPGGA,174902,5405.5927,N,01938.2537,E,1,06,01.5,00045.4,M,034.3,M,00,0000*45 $GPGSA,A,3,30,29,14,12,31,02,,,,,,,02.8,01.5,02.3*03 $GPGSV,3,1,11,30,83,272,44,12,58,105,37,29,47,226,41,02,44,084,32*7E $GPGSV,3,2,11,31,34,307,39,04,18,041,00,14,18,251,39,19,17,037,00*71 $GPGSV,3,3,11,09,05,160,00,10,02,087,00,27,00,159,00,,,,*46 $GPRMC,174902,A,5405.5927,N,01938.2537,E,034.2,158.8,170610,,,A*74 $GPVTG,158.8,T,,M,034.2,N,063.4,K,A*0D $GPGGA,174917,5405.4422,N,01938.4036,E,1,08,00.9,00044.5,M,034.3,M,00,0000*49 $GPGSA,A,3,30,14,02,29,09,31,04,12,,,,,01.5,00.9,01.2*0F $GPGSV,3,1,11,30,83,272,41,12,58,105,32,29,47,226,36,02,44,084,40*7B $GPGSV,3,2,11,31,34,307,34,04,18,041,32,14,18,251,40,19,17,037,00*73 $GPGSV,3,3,11,09,05,160,36,10,02,087,40,27,00,159,00,,,,*47 $GPRMC,174917,A,5405.4422,N,01938.4036,E,042.9,143.6,170610,,,A*75 $GPVTG,143.6,T,,M,042.9,N,079.5,K,A*09 $GPGGA,174932,5405.2789,N,01938.5977,E,1,08,00.9,00056.2,M,034.3,M,00,0000*43 $GPGSA,A,3,30,14,29,02,09,12,31,04,,,,,01.5,00.9,01.2*0F $GPGSV,3,1,11,30,83,272,42,12,58,105,34,29,47,226,42,02,44,084,37*7D $GPGSV,3,2,11,31,34,307,37,04,18,041,24,14,18,251,40,19,17,037,00*77 $GPGSV,3,3,11,09,05,160,37,10,02,087,00,27,00,159,00,,,,*42 $GPRMC,174932,A,5405.2789,N,01938.5977,E,046.1,145.9,170610,,,A*7E $GPVTG,145.9,T,,M,046.1,N,085.4,K,A*0E $GPGGA,174947,5405.1235,N,01938.7760,E,1,08,00.9,00059.5,M,034.3,M,00,0000*42 $GPGSA,A,3,29,09,04,30,12,14,02,31,,,,,01.5,00.9,01.2*0F $GPGSV,3,1,11,30,83,272,36,12,58,105,37,29,47,226,39,02,44,084,35*73 $GPGSV,3,2,11,31,34,307,28,04,18,041,34,14,18,251,32,19,17,037,00*7D $GPGSV,3,3,11,09,05,160,36,10,02,087,00,27,00,159,00,,,,*43 $GPRMC,174947,A,5405.1235,N,01938.7760,E,041.2,146.4,170610,,,A*7D $GPVTG,146.4,T,,M,041.2,N,076.4,K,A*08 $GPGGA,175002,5405.0214,N,01938.8936,E,1,08,00.9,00056.3,M,034.3,M,00,0000*42 $GPGSA,A,3,02,29,09,14,04,31,12,30,,,,,01.5,00.9,01.2*0F $GPGSV,3,1,11,30,83,272,29,12,58,105,32,29,47,226,38,02,44,084,39*75 $GPGSV,3,2,11,31,34,307,30,04,18,041,29,14,18,251,35,19,17,037,00*7F $GPGSV,3,3,11,09,05,160,34,10,02,087,32,27,00,159,00,,,,*40 $GPRMC,175002,A,5405.0214,N,01938.8936,E,031.2,149.9,170610,,,A*71 $GPVTG,149.9,T,,M,031.2,N,057.9,K,A*03 $GPGGA,175017,5404.9685,N,01938.9587,E,1,08,00.9,00046.5,M,034.3,M,00,0000*42 $GPGSA,A,3,29,14,02,31,09,12,04,30,,,,,01.5,00.9,01.2*0F $GPGSV,3,1,11,30,83,272,27,12,58,105,30,29,47,226,44,02,44,084,40*7C $GPGSV,3,2,11,31,34,307,33,04,18,041,31,14,18,251,41,19,17,037,00*76 $GPGSV,3,3,11,09,05,160,30,10,02,087,34,27,00,159,00,,,,*42 $GPRMC,175017,A,5404.9685,N,01938.9587,E,024.8,144.6,170610,,,A*7A $GPVTG,144.6,T,,M,024.8,N,046.0,K,A*06 $GPGGA,175032,5404.8617,N,01939.0826,E,1,07,00.9,00051.5,M,034.3,M,00,0000*48 $GPGSA,A,3,29,14,02,04,31,12,09,,,,,,01.7,00.9,01.5*09 $GPGSV,3,1,11,30,83,272,00,12,58,105,33,29,47,226,44,02,44,084,38*75 $GPGSV,3,2,11,31,34,307,34,04,18,041,35,14,18,251,40,19,17,037,00*74 $GPGSV,3,3,11,09,05,160,35,10,02,087,36,27,00,159,00,,,,*45 $GPRMC,175032,A,5404.8617,N,01939.0826,E,032.3,143.6,170610,,,A*72 $GPVTG,143.6,T,,M,032.3,N,059.9,K,A*0A $GPGGA,175047,5404.7402,N,01939.1596,E,1,08,00.9,00042.5,M,034.3,M,00,0000*49 $GPGSA,A,3,12,30,31,02,04,29,09,14,,,,,01.5,00.9,01.2*0F $GPGSV,3,1,11,30,83,272,38,12,58,105,39,29,47,226,31,02,44,084,34*7A $GPGSV,3,2,11,31,34,307,38,04,18,041,36,14,18,251,29,19,17,037,00*74 $GPGSV,3,3,11,09,05,160,30,10,02,087,00,27,00,159,00,,,,*45 $GPRMC,175047,A,5404.7402,N,01939.1596,E,036.8,166.7,170610,,,A*77 $GPVTG,166.7,T,,M,036.8,N,068.1,K,A*09 $GPGGA,175102,5404.6086,N,01939.3037,E,1,07,01.3,00047.3,M,034.3,M,00,0000*4B $GPGSA,A,3,29,12,02,14,30,31,04,,,,,,02.2,01.3,01.8*03 $GPGSV,3,1,11,30,83,272,34,12,58,105,40,29,47,226,44,02,44,084,40*79 $GPGSV,3,2,11,31,34,307,34,04,18,041,30,14,18,251,38,19,17,037,00*7E $GPGSV,3,3,11,09,05,160,30,10,02,087,00,27,00,159,00,,,,*45 $GPRMC,175102,A,5404.6086,N,01939.3037,E,038.7,140.2,170610,,,A*72 $GPVTG,140.2,T,,M,038.7,N,071.7,K,A*07 $GPGGA,175117,5404.5193,N,01939.4848,E,1,07,01.3,00053.2,M,034.3,M,00,0000*4A $GPGSA,A,3,29,12,02,14,31,04,30,,,,,,02.2,01.3,01.8*03 $GPGSV,3,1,11,30,83,272,28,12,58,105,39,29,47,226,45,02,44,084,39*75 $GPGSV,3,2,11,31,34,307,34,04,18,041,25,14,18,251,39,19,17,037,00*7B $GPGSV,3,3,11,09,05,160,39,10,02,087,00,27,00,159,00,,,,*4C $GPRMC,175117,A,5404.5193,N,01939.4848,E,033.0,129.4,170610,,,A*72 $GPVTG,129.4,T,,M,033.0,N,061.1,K,A*05 $GPGGA,175132,5404.5012,N,01939.6769,E,1,07,01.3,00033.6,M,034.3,M,00,0000*49 $GPGSA,A,3,29,02,12,31,04,30,14,,,,,,02.2,01.3,01.8*03 $GPGSV,3,1,11,30,83,272,32,12,58,105,40,29,47,226,42,02,44,084,40*79 $GPGSV,3,2,11,31,34,307,35,04,18,041,35,14,18,251,26,19,17,037,00*75 $GPGSV,3,3,11,09,05,160,31,10,02,087,00,27,00,159,00,,,,*44 $GPRMC,175132,A,5404.5012,N,01939.6769,E,024.5,122.4,170610,,,A*7B $GPVTG,122.4,T,,M,024.5,N,045.4,K,A*0E $GPGGA,175147,5404.4342,N,01939.6794,E,1,06,01.6,00041.6,M,034.3,M,00,0000*4F $GPGSA,A,3,31,29,14,30,12,02,,,,,,,02.8,01.6,02.3*00 $GPGSV,3,1,10,30,85,267,37,12,57,106,36,29,49,227,40,02,44,082,31*7F $GPGSV,3,2,10,31,35,306,42,04,17,040,00,19,17,036,00,14,17,250,39*7D $GPGSV,3,3,10,09,04,160,00,10,02,087,00,,,,,,,,*7E $GPRMC,175147,A,5404.4342,N,01939.6794,E,027.2,179.8,170610,,,A*7A $GPVTG,179.8,T,,M,027.2,N,050.4,K,A*0C $GPGGA,175202,5404.3134,N,01939.6514,E,1,07,01.3,00036.1,M,034.3,M,00,0000*40 $GPGSA,A,3,29,31,12,04,30,02,14,,,,,,02.2,01.3,01.7*0C $GPGSV,3,1,10,30,85,267,36,12,57,106,38,29,49,227,43,02,44,082,28*7B $GPGSV,3,2,10,31,35,306,39,04,17,040,36,19,17,036,00,14,17,250,29*75 $GPGSV,3,3,10,09,04,160,28,10,02,087,22,,,,,,,,*74 $GPRMC,175202,A,5404.3134,N,01939.6514,E,024.4,186.2,170610,,,A*79 $GPVTG,186.2,T,,M,024.4,N,045.2,K,A*01 $GPGGA,175217,5404.2500,N,01939.6233,E,1,07,01.3,00026.0,M,034.3,M,00,0000*44 $GPGSA,A,3,29,12,31,02,14,04,30,,,,,,02.2,01.3,01.7*0C $GPGSV,3,1,10,30,85,267,27,12,57,106,40,29,49,227,44,02,44,082,33*79 $GPGSV,3,2,10,31,35,306,36,04,17,040,35,19,17,036,00,14,17,250,35*74 $GPGSV,3,3,10,09,04,160,31,10,02,087,00,,,,,,,,*7C $GPRMC,175217,A,5404.2500,N,01939.6233,E,016.9,174.8,170610,,,A*76 $GPVTG,174.8,T,,M,016.9,N,031.3,K,A*08 $GPGGA,175232,5404.2971,N,01939.6617,E,1,07,01.3,00024.3,M,034.3,M,00,0000*4A $GPGSA,A,3,29,12,02,31,14,04,30,,,,,,02.2,01.3,01.7*0C $GPGSV,3,1,10,30,85,267,26,12,57,106,42,29,49,227,43,02,44,082,40*79 $GPGSV,3,2,10,31,35,306,37,04,17,040,25,19,17,036,00,14,17,250,34*75 $GPGSV,3,3,10,09,04,160,27,10,02,087,00,,,,,,,,*7B $GPRMC,175232,A,5404.2971,N,01939.6617,E,009.2,071.1,170610,,,A*71 $GPVTG,071.1,T,,M,009.2,N,017.0,K,A*07 $GPGGA,175247,5404.3461,N,01939.7101,E,1,07,01.3,00030.8,M,034.3,M,00,0000*4A $GPGSA,A,3,12,29,04,31,02,14,30,,,,,,02.2,01.3,01.7*0C $GPGSV,3,1,10,30,85,267,28,12,57,106,41,29,49,227,39,02,44,082,35*7B $GPGSV,3,2,10,31,35,306,38,04,17,040,39,19,17,036,00,14,17,250,33*70 $GPGSV,3,3,10,09,04,160,27,10,02,087,38,,,,,,,,*70 $GPRMC,175247,A,5404.3461,N,01939.7101,E,010.1,035.6,170610,,,A*73 $GPVTG,035.6,T,,M,010.1,N,018.7,K,A*03 $GPGGA,175302,5404.3305,N,01939.6974,E,1,07,01.3,00055.9,M,034.3,M,00,0000*46 $GPGSA,A,3,12,31,29,04,02,14,30,,,,,,02.2,01.3,01.7*0C $GPGSV,3,1,10,30,85,267,33,12,57,106,39,29,49,227,36,02,44,082,35*71 $GPGSV,3,2,10,31,35,306,38,04,17,040,36,19,17,036,00,14,17,250,32*7E $GPGSV,3,3,10,09,04,160,24,10,02,087,39,,,,,,,,*72 $GPRMC,175302,A,5404.3305,N,01939.6974,E,005.4,217.8,170610,,,A*70 $GPVTG,217.8,T,,M,005.4,N,010.1,K,A*00 $GPGGA,175317,5404.2976,N,01939.6556,E,1,07,01.3,00029.6,M,034.3,M,00,0000*45 $GPGSA,A,3,04,29,31,02,30,12,14,,,,,,02.2,01.3,01.7*0C $GPGSV,3,1,10,30,85,267,33,12,57,106,32,29,49,227,39,02,44,082,36*76 $GPGSV,3,2,10,31,35,306,36,04,17,040,41,19,17,036,00,14,17,250,35*77 $GPGSV,3,3,10,09,04,160,22,10,02,087,25,,,,,,,,*79 $GPRMC,175317,A,5404.2976,N,01939.6556,E,006.7,258.5,170610,,,A*71 $GPVTG,258.5,T,,M,006.7,N,012.4,K,A*01 $GPGGA,175332,5404.3519,N,01939.6936,E,1,07,01.3,00015.0,M,034.3,M,00,0000*45 $GPGSA,A,3,29,12,04,02,31,30,14,,,,,,02.2,01.3,01.7*0C $GPGSV,3,1,10,30,85,267,31,12,57,106,39,29,49,227,41,02,44,082,37*71 $GPGSV,3,2,10,31,35,306,38,04,17,040,39,19,17,036,00,14,17,250,19*78 $GPGSV,3,3,10,09,04,160,25,10,02,087,38,,,,,,,,*72 $GPRMC,175332,A,5404.3519,N,01939.6936,E,005.7,053.8,170610,,,A*7F $GPVTG,053.8,T,,M,005.7,N,010.6,K,A*06 $GPGGA,175347,5404.4120,N,01939.7819,E,1,07,01.3,-0003.2,M,034.3,M,00,0000*5B $GPGSA,A,3,12,29,31,30,02,04,14,,,,,,02.2,01.3,01.7*0C $GPGSV,3,1,10,30,85,267,33,12,57,106,37,29,49,227,38,02,44,082,35*71 $GPGSV,3,2,10,31,35,306,35,04,17,040,32,19,17,036,00,14,17,250,27*73 $GPGSV,3,3,10,09,04,160,31,10,02,087,40,,,,,,,,*78 $GPRMC,175347,A,5404.4120,N,01939.7819,E,012.3,044.9,170610,,,A*7C $GPVTG,044.9,T,,M,012.3,N,022.8,K,A*0C $GPGGA,175402,5404.4211,N,01939.8007,E,1,06,02.3,00014.5,M,034.3,M,00,0000*4A $GPGSA,A,3,02,29,30,12,14,04,,,,,,,03.1,02.3,02.0*0B $GPGSV,3,1,10,30,85,267,33,12,57,106,28,29,49,227,36,02,44,082,40*73 $GPGSV,3,2,10,31,35,306,00,04,17,040,29,19,17,036,00,14,17,250,26*7E $GPGSV,3,3,10,09,04,160,38,10,02,087,41,,,,,,,,*70 $GPRMC,175402,A,5404.4211,N,01939.8007,E,000.5,296.6,170610,,,A*74 $GPVTG,296.6,T,,M,000.5,N,001.1,K,A*03 $GPGGA,175417,5404.4797,N,01939.8652,E,1,06,01.4,00015.0,M,034.3,M,00,0000*43 $GPGSA,A,3,31,02,12,30,04,14,,,,,,,02.2,01.4,01.7*00 $GPGSV,3,1,10,30,85,267,25,12,57,106,35,29,49,227,24,02,44,082,34*78 $GPGSV,3,2,10,31,35,306,34,04,17,040,26,19,17,036,00,14,17,250,22*72 $GPGSV,3,3,10,09,04,160,36,10,02,087,33,,,,,,,,*7B $GPRMC,175417,A,5404.4797,N,01939.8652,E,011.4,048.0,170610,,,A*7B $GPVTG,048.0,T,,M,011.4,N,021.2,K,N*0B $GPGGA,175432,5404.5025,N,01939.9871,E,1,07,01.3,00021.3,M,034.3,M,00,0000*47 $GPGSA,A,3,31,04,30,29,12,02,14,,,,,,02.2,01.3,01.7*0C $GPGSV,3,1,10,30,85,267,36,12,57,106,32,29,49,227,33,02,44,082,28*76 $GPGSV,3,2,10,31,35,306,38,04,17,040,38,19,17,036,00,14,17,250,30*72 $GPGSV,3,3,10,09,04,160,27,10,02,087,00,,,,,,,,*7B $GPRMC,175432,A,5404.5025,N,01939.9871,E,013.7,063.0,170610,,,A*75 $GPVTG,063.0,T,,M,013.7,N,025.5,K,A*0F $GPGGA,175447,5404.5127,N,01940.0327,E,1,07,01.3,00035.8,M,034.3,M,00,0000*47 $GPGSA,A,3,04,29,02,30,31,12,14,,,,,,02.2,01.3,01.7*0C $GPGSV,3,1,10,30,86,256,36,12,55,107,29,29,50,227,40,02,44,080,36*7F $GPGSV,3,2,10,31,36,305,34,04,17,039,40,19,16,035,00,14,16,249,21*74 $GPGSV,3,3,10,10,03,086,00,09,03,160,29,,,,,,,,*72 $GPRMC,175447,A,5404.5127,N,01940.0327,E,009.9,096.8,170610,,,A*7C $GPVTG,096.8,T,,M,009.9,N,018.5,K,A*06 $GPGGA,175509,5404.5073,N,01940.1037,E,1,07,01.3,00026.4,M,034.3,M,00,0000*41 $GPGSA,A,3,12,29,04,02,30,14,31,,,,,,02.2,01.3,01.7*0C $GPGSV,3,1,10,30,86,253,35,12,55,107,45,29,50,227,41,02,44,080,38*7C $GPGSV,3,2,10,31,36,305,31,04,16,039,37,14,15,249,26,09,02,160,40*75 $GPGSV,3,3,10,19,16,035,00,10,03,085,00,,,,,,,,*7E $GPRMC,175509,A,5404.5073,N,01940.1037,E,000.6,142.7,170610,,,A*75 $GPVTG,142.7,T,,M,000.6,N,001.1,K,A*0B $GPGGA,175524,5404.5021,N,01940.1120,E,1,07,01.3,00017.4,M,034.3,M,00,0000*4C $GPGSA,A,3,12,29,04,02,30,14,31,,,,,,02.2,01.3,01.7*0C $GPGSV,3,1,10,30,86,253,20,12,55,107,46,29,50,227,42,02,44,080,30*70 $GPGSV,3,2,10,31,36,305,30,04,16,039,33,14,15,249,30,09,02,160,43*74 $GPGSV,3,3,10,19,16,035,00,10,03,085,00,,,,,,,,*7E $GPRMC,175524,A,5404.5021,N,01940.1120,E,000.2,142.2,170610,,,A*7B $GPVTG,142.2,T,,M,000.2,N,000.5,K,A*0F $GPGGA,175539,5404.4992,N,01940.1156,E,1,07,01.3,00005.1,M,034.3,M,00,0000*47 $GPGSA,A,3,12,29,04,02,30,14,31,,,,,,02.2,01.3,01.7*0C $GPGSV,3,1,10,30,86,251,29,12,55,107,46,29,50,228,43,02,44,079,19*78 $GPGSV,3,2,10,31,37,305,31,04,16,039,35,19,16,035,00,14,15,249,29*78 $GPGSV,3,3,10,10,04,085,00,09,02,160,42,,,,,,,,*7A $GPRMC,175539,A,5404.4992,N,01940.1156,E,000.2,144.3,170610,,,A*71 $GPVTG,144.3,T,,M,000.2,N,000.4,K,A*09 $GPGGA,175551,5404.4996,N,01940.1148,E,1,05,02.5,00005.1,M,034.3,M,00,0000*45 $GPGSA,A,3,12,29,04,30,14,,,,,,,,03.3,02.5,02.1*0C $GPGSV,3,1,10,30,86,251,29,12,55,107,41,29,50,228,39,02,44,079,00*7A $GPGSV,3,2,10,31,37,305,00,04,16,039,36,19,16,035,00,14,15,249,28*78 $GPGSV,3,3,10,10,04,085,00,09,02,160,39,,,,,,,,*76 $GPRMC,175551,A,5404.4996,N,01940.1148,E,001.3,308.8,170610,,,A*75 $GPVTG,308.8,T,,M,001.3,N,002.4,K,A*0A $GPGGA,175606,5404.5030,N,01940.1104,E,1,06,01.4,00007.6,M,034.3,M,00,0000*4C $GPGSA,A,3,12,29,04,30,14,31,,,,,,,02.2,01.4,01.7*09 $GPGSV,3,1,10,30,86,251,30,12,55,107,41,29,50,228,38,02,44,079,00*73 $GPGSV,3,2,10,31,37,305,26,04,16,039,37,19,16,035,00,14,15,249,29*7C $GPGSV,3,3,10,10,04,085,00,09,02,160,41,,,,,,,,*79 $GPRMC,175606,A,5404.5030,N,01940.1104,E,000.7,320.0,170610,,,A*7F $GPVTG,320.0,T,,M,000.7,N,001.3,K,A*09 $GPGGA,175621,5404.5002,N,01940.1115,E,1,06,01.4,00003.4,M,034.3,M,00,0000*4E $GPGSA,A,3,12,29,04,14,30,31,,,,,,,02.2,01.4,01.7*09 $GPGSV,3,1,10,30,86,251,28,12,55,107,41,29,50,228,38,02,44,079,00*7A $GPGSV,3,2,10,31,37,305,27,04,16,039,37,19,16,035,00,14,15,249,28*7C $GPGSV,3,3,10,10,04,085,00,09,02,160,41,,,,,,,,*79 $GPRMC,175621,A,5404.5002,N,01940.1115,E,000.6,177.1,170610,,,A*7B $GPVTG,177.1,T,,M,000.6,N,001.2,K,A*08 $GPGGA,175636,5404.4951,N,01940.1098,E,1,05,02.5,-0001.3,M,034.3,M,00,0000*5B $GPGSA,A,3,12,29,04,30,02,,,,,,,,04.1,02.5,03.1*0F $GPGSV,3,1,10,30,86,251,29,12,55,107,40,29,50,228,35,02,44,079,33*77 $GPGSV,3,2,10,31,37,305,00,04,16,039,36,19,16,035,00,14,15,249,00*72 $GPGSV,3,3,10,10,04,085,00,09,02,160,41,,,,,,,,*79 $GPRMC,175636,A,5404.4951,N,01940.1098,E,000.6,264.3,170610,,,A*74 $GPVTG,264.3,T,,M,000.6,N,001.2,K,A*0B $GPGGA,175651,5404.5030,N,01940.1060,E,1,07,01.3,00011.2,M,034.3,M,00,0000*48 $GPGSA,A,3,12,02,29,04,30,14,31,,,,,,02.2,01.3,01.7*0C $GPGSV,3,1,10,30,86,251,37,12,55,107,41,29,50,228,39,02,44,079,40*71 $GPGSV,3,2,10,31,37,305,29,04,16,039,38,19,16,035,00,14,15,249,26*73 $GPGSV,3,3,10,10,04,085,22,09,02,160,27,,,,,,,,*79 $GPRMC,175651,A,5404.5030,N,01940.1060,E,001.8,151.5,170610,,,A*71 $GPVTG,151.5,T,,M,001.8,N,003.4,K,A*03 $GPGGA,175706,5404.5002,N,01939.9785,E,1,07,01.3,00021.7,M,034.3,M,00,0000*46 $GPGSA,A,3,29,31,14,12,04,30,02,,,,,,02.2,01.3,01.7*0C $GPGSV,3,1,10,30,86,251,31,12,55,107,37,29,50,228,41,02,44,079,34*7A $GPGSV,3,2,10,31,37,305,39,04,16,039,36,19,16,035,00,14,15,249,37*7C $GPGSV,3,3,10,10,04,085,00,09,02,160,29,,,,,,,,*77 $GPRMC,175706,A,5404.5002,N,01939.9785,E,014.5,276.5,170610,,,A*76 $GPVTG,276.5,T,,M,014.5,N,026.9,K,N*09 $GPGGA,175721,5404.4563,N,01939.8273,E,1,06,01.6,00041.6,M,034.3,M,00,0000*4E $GPGSA,A,3,29,14,12,31,30,02,,,,,,,02.7,01.6,02.1*0D $GPGSV,3,1,10,30,86,251,30,12,55,107,35,29,50,228,37,02,44,079,28*75 $GPGSV,3,2,10,31,37,305,38,04,16,039,00,19,16,035,00,14,15,249,35*7A $GPGSV,3,3,10,10,04,085,24,09,02,160,00,,,,,,,,*7A $GPRMC,175721,A,5404.4563,N,01939.8273,E,020.8,236.6,170610,,,A*70 $GPVTG,236.6,T,,M,020.8,N,038.5,K,A*08 $GPGGA,175736,5404.4017,N,01939.7905,E,1,07,01.3,00016.5,M,034.3,M,00,0000*4E $GPGSA,A,3,31,12,29,02,30,14,04,,,,,,02.1,01.3,01.6*0E $GPGSV,3,1,10,30,86,251,35,12,55,107,38,29,50,228,37,02,44,079,35*71 $GPGSV,3,2,10,31,37,305,41,04,16,039,22,19,16,035,00,14,15,249,29*79 $GPGSV,3,3,10,10,04,085,32,09,02,160,25,,,,,,,,*7A $GPRMC,175736,A,5404.4017,N,01939.7905,E,018.5,210.5,170610,,,A*74 $GPVTG,210.5,T,,M,018.5,N,034.4,K,A*04 $GPGGA,175751,5404.3448,N,01939.6901,E,1,06,01.4,00027.8,M,034.3,M,00,0000*4A $GPGSA,A,3,04,30,02,31,12,14,,,,,,,02.2,01.4,01.7*00 $GPGSV,3,1,10,30,86,251,37,12,55,107,30,29,50,228,00,02,44,079,36*7C $GPGSV,3,2,10,31,37,305,37,04,16,039,38,19,16,035,00,14,15,249,25*7F $GPGSV,3,3,10,10,04,085,00,09,02,160,00,,,,,,,,*7C $GPRMC,175751,A,5404.3448,N,01939.6901,E,022.1,241.6,170610,,,A*73 $GPVTG,241.6,T,,M,022.1,N,041.0,K,A*08 $GPGGA,175806,5404.3159,N,01939.6435,E,1,06,01.4,00043.3,M,034.3,M,00,0000*41 $GPGSA,A,3,31,29,04,14,12,02,,,,,,,02.5,01.4,02.1*0A $GPGSV,3,1,10,30,86,251,27,12,55,107,34,29,50,228,43,02,44,079,33*7B $GPGSV,3,2,10,31,37,305,42,04,16,039,37,19,16,035,00,14,15,249,37*71 $GPGSV,3,3,10,10,04,085,22,09,02,160,00,,,,,,,,*7C $GPRMC,175806,A,5404.3159,N,01939.6435,E,018.4,205.0,170610,,,A*7B $GPVTG,205.0,T,,M,018.4,N,034.2,K,A*02 $GPGGA,175821,5404.2428,N,01939.6314,E,1,06,01.4,00029.6,M,034.3,M,00,0000*4B $GPGSA,A,3,31,12,14,29,30,04,,,,,,,02.2,01.4,01.6*08 $GPGSV,3,1,10,30,86,251,37,12,55,107,38,29,50,228,35,02,44,079,00*77 $GPGSV,3,2,10,31,37,305,41,04,16,039,25,19,16,035,00,14,15,249,36*70 $GPGSV,3,3,10,10,04,085,00,09,02,160,00,,,,,,,,*7C $GPRMC,175821,A,5404.2428,N,01939.6314,E,014.3,177.9,170610,,,A*7C $GPVTG,177.9,T,,M,014.3,N,026.6,K,A*01 $GPGGA,175836,5404.1465,N,01939.5191,E,1,07,01.3,00019.4,M,034.3,M,00,0000*4C $GPGSA,A,3,31,12,29,02,30,04,14,,,,,,02.1,01.3,01.6*0E $GPGSV,3,1,10,30,87,226,31,12,54,108,40,29,52,228,38,02,43,078,37*7C $GPGSV,3,2,10,31,38,304,40,04,15,038,27,14,14,248,34,09,01,160,00*7B $GPGSV,3,3,10,19,15,034,00,10,04,084,00,,,,,,,,*7A $GPRMC,175836,A,5404.1465,N,01939.5191,E,026.9,225.2,170610,,,A*78 $GPVTG,225.2,T,,M,026.9,N,049.9,K,A*03 $GPGGA,175851,5404.0441,N,01939.3585,E,1,06,01.9,00027.6,M,034.3,M,00,0000*49 $GPGSA,A,3,31,29,04,30,02,12,,,,,,,03.7,01.9,03.1*03 $GPGSV,3,1,10,30,87,226,26,12,54,108,30,29,52,228,39,02,43,078,27*7D $GPGSV,3,2,10,31,38,304,40,19,15,034,00,04,15,038,31,14,14,248,00*7F $GPGSV,3,3,10,10,04,084,00,09,01,160,00,,,,,,,,*7E $GPRMC,175851,A,5404.0441,N,01939.3585,E,034.1,213.2,170610,,,A*77 $GPVTG,213.2,T,,M,034.1,N,063.3,K,A*0F $GPGGA,175906,5404.0637,N,01939.3977,E,1,06,01.9,00022.1,M,034.3,M,00,0000*4A $GPGSA,A,3,12,30,29,02,31,04,,,,,,,03.7,01.9,03.2*00 $GPGSV,3,1,10,30,87,226,34,12,54,108,39,29,52,228,38,02,43,078,35*75 $GPGSV,3,2,10,31,38,304,36,19,15,034,00,04,15,038,30,14,14,248,00*7F $GPGSV,3,3,10,10,04,084,00,09,01,160,00,,,,,,,,*7E $GPRMC,175906,A,5404.0637,N,01939.3977,E,004.3,037.5,170610,,,A*74 $GPVTG,037.5,T,,M,004.3,N,008.0,K,A*03 $GPGGA,175921,5404.0634,N,01939.4034,E,1,07,01.3,00016.8,M,034.3,M,00,0000*40 $GPGSA,A,3,31,12,29,30,02,04,14,,,,,,02.1,01.3,01.6*0E $GPGSV,3,1,10,30,87,226,33,12,54,108,37,29,52,228,36,02,43,078,36*71 $GPGSV,3,2,10,31,38,304,39,19,15,034,00,04,15,038,21,14,14,248,21*73 $GPGSV,3,3,10,10,04,084,00,09,01,160,00,,,,,,,,*7E $GPRMC,175921,A,5404.0634,N,01939.4034,E,001.1,165.0,170610,,,A*7F $GPVTG,165.0,T,,M,001.1,N,002.1,K,A*0C $GPGGA,175936,5404.0223,N,01939.3373,E,1,07,01.3,00012.6,M,034.3,M,00,0000*49 $GPGSA,A,3,29,12,31,30,02,04,14,,,,,,02.1,01.3,01.6*0E $GPGSV,3,1,10,30,87,226,34,12,54,108,35,29,52,228,39,02,43,078,33*7E $GPGSV,3,2,10,31,38,304,36,19,15,034,00,04,15,038,26,14,14,248,28*72 $GPGSV,3,3,10,10,04,084,00,09,01,160,00,,,,,,,,*7E $GPRMC,175936,A,5404.0223,N,01939.3373,E,013.2,224.5,170610,,,A*7F $GPVTG,224.5,T,,M,013.2,N,024.6,K,A*0C $GPGGA,175951,5403.9640,N,01939.2599,E,1,07,01.3,00019.7,M,034.3,M,00,0000*4E $GPGSA,A,3,29,02,31,12,30,14,04,,,,,,02.1,01.3,01.6*0E $GPGSV,3,1,10,30,87,226,34,12,54,108,29,29,52,228,40,02,43,078,38*76 $GPGSV,3,2,10,31,38,304,37,19,15,034,00,04,15,038,27,14,14,248,27*7D $GPGSV,3,3,10,10,04,084,00,09,01,160,00,,,,,,,,*7E $GPRMC,175951,A,5403.9640,N,01939.2599,E,015.6,242.1,170610,,,A*74 $GPVTG,242.1,T,,M,015.6,N,029.0,K,A*01 $GPGGA,180006,5403.8918,N,01939.2004,E,1,06,02.0,-0003.2,M,034.3,M,00,0000*5F $GPGSA,A,3,31,29,02,04,30,12,,,,,,,03.8,02.0,03.2*05 $GPGSV,3,1,10,30,87,226,34,12,54,108,33,29,52,228,41,02,43,078,36*72 $GPGSV,3,2,10,31,38,304,42,19,15,034,00,04,15,038,29,14,14,248,00*74 $GPGSV,3,3,10,10,04,084,00,09,01,160,00,,,,,,,,*7E $GPRMC,180006,A,5403.8918,N,01939.2004,E,011.7,229.2,170610,,,A*7C $GPVTG,229.2,T,,M,011.7,N,021.7,K,A*05 $GPGGA,180021,5403.8581,N,01939.2677,E,1,06,02.0,-0004.4,M,034.3,M,00,0000*55 $GPGSA,A,3,31,12,30,29,02,04,,,,,,,03.8,02.0,03.2*05 $GPGSV,3,1,10,30,87,226,32,12,54,108,36,29,52,228,38,02,43,078,35*7C $GPGSV,3,2,10,31,38,304,38,19,15,034,00,04,15,038,31,14,14,248,00*70 $GPGSV,3,3,10,10,04,084,00,09,01,160,00,,,,,,,,*7E $GPRMC,180021,A,5403.8581,N,01939.2677,E,014.9,138.2,170610,,,A*7F $GPVTG,138.2,T,,M,014.9,N,027.6,K,A*0A $GPGGA,180036,5403.8161,N,01939.3483,E,1,06,02.0,00014.8,M,034.3,M,00,0000*41 $GPGSA,A,3,12,29,31,04,02,30,,,,,,,03.8,02.0,03.2*05 $GPGSV,3,1,10,30,87,226,32,12,54,108,40,29,52,228,35,02,43,078,28*7C $GPGSV,3,2,10,31,38,304,36,19,15,034,00,04,15,038,36,14,14,248,00*79 $GPGSV,3,3,10,10,04,084,00,09,01,160,00,,,,,,,,*7E $GPRMC,180036,A,5403.8161,N,01939.3483,E,010.8,146.3,170610,,,A*76 $GPVTG,146.3,T,,M,010.8,N,020.0,K,A*06 $GPGGA,180051,5403.8135,N,01939.3467,E,1,07,01.3,00004.0,M,034.3,M,00,0000*43 $GPGSA,A,3,12,29,04,02,31,30,14,,,,,,02.1,01.3,01.6*0E $GPGSV,3,1,10,30,87,226,32,12,54,108,41,29,52,228,38,02,43,078,31*78 $GPGSV,3,2,10,31,38,304,34,19,15,034,00,04,15,038,36,14,14,248,27*7E $GPGSV,3,3,10,10,04,084,27,09,01,160,00,,,,,,,,*7B $GPRMC,180051,A,5403.8135,N,01939.3467,E,000.7,124.8,170610,,,A*7D $GPVTG,124.8,T,,M,000.7,N,001.4,K,A*00 $GPGGA,180106,5403.8191,N,01939.3483,E,1,06,01.4,-0004.3,M,034.3,M,00,0000*5C $GPGSA,A,3,12,29,30,31,04,14,,,,,,,02.1,01.4,01.6*0B $GPGSV,3,1,10,30,87,226,33,12,54,108,41,29,52,228,38,02,43,078,00*7B $GPGSV,3,2,10,31,38,304,33,19,15,034,00,04,15,038,31,14,14,248,28*71 $GPGSV,3,3,10,10,04,084,27,09,01,160,00,,,,,,,,*7B $GPRMC,180106,A,5403.8191,N,01939.3483,E,000.7,070.6,170610,,,A*74 $GPVTG,070.6,T,,M,000.7,N,001.4,K,A*0E $GPGGA,180121,5403.8221,N,01939.3496,E,1,05,02.1,-0003.9,M,034.3,M,00,0000*5D $GPGSA,A,3,12,29,31,04,30,,,,,,,,03.9,02.1,03.3*06 $GPGSV,3,1,10,30,87,226,27,12,54,108,41,29,52,228,35,02,43,078,00*73 $GPGSV,3,2,10,31,38,304,35,19,15,034,00,04,15,038,31,14,14,248,00*7D $GPGSV,3,3,10,10,04,084,28,09,01,160,00,,,,,,,,*74 $GPRMC,180121,A,5403.8221,N,01939.3496,E,000.2,308.1,170610,,,A*73 $GPVTG,308.1,T,,M,000.2,N,000.4,K,A*01 $GPGGA,180136,5403.8142,N,01939.3440,E,1,06,02.0,-0021.6,M,034.3,M,00,0000*5B $GPGSA,A,3,12,31,30,29,04,02,,,,,,,03.8,02.0,03.2*05 $GPGSV,3,1,10,30,87,192,36,29,53,229,34,12,52,108,41,02,43,076,30*75 $GPGSV,3,2,10,31,39,303,37,04,14,038,34,14,13,247,00,09,00,160,00*70 $GPGSV,3,3,10,19,15,033,00,10,05,083,00,,,,,,,,*7B $GPRMC,180136,A,5403.8142,N,01939.3440,E,001.5,218.0,170610,,,A*7F $GPVTG,218.0,T,,M,001.5,N,002.8,K,A*08 $GPGGA,180151,5403.8098,N,01939.3442,E,1,07,01.3,-0042.2,M,034.3,M,00,0000*5E $GPGSA,A,3,12,04,29,31,14,30,02,,,,,,02.1,01.3,01.6*0E $GPGSV,3,1,10,30,87,192,32,29,53,229,37,12,52,108,43,02,43,076,29*78 $GPGSV,3,2,10,31,39,303,36,19,15,033,00,04,14,038,38,14,13,247,32*7E $GPGSV,3,3,10,10,05,083,29,09,00,160,00,,,,,,,,*72 $GPRMC,180151,A,5403.8098,N,01939.3442,E,001.8,154.8,170610,,,A*74 $GPVTG,154.8,T,,M,001.8,N,003.5,K,A*0A $GPGGA,180206,5403.8170,N,01939.3472,E,1,06,01.4,-0031.0,M,034.3,M,00,0000*5B $GPGSA,A,3,12,04,29,02,31,14,,,,,,,02.4,01.4,02.0*0A $GPGSV,3,1,10,30,87,192,00,29,53,229,38,12,52,108,42,02,43,076,37*78 $GPGSV,3,2,10,31,39,303,37,19,15,033,00,04,14,038,39,14,13,247,25*78 $GPGSV,3,3,10,10,05,083,00,09,00,160,00,,,,,,,,*79 $GPRMC,180206,A,5403.8170,N,01939.3472,E,000.1,318.8,170610,,,A*73 $GPVTG,318.8,T,,M,000.1,N,000.3,K,A*0D $GPGGA,180221,5403.8230,N,01939.3453,E,1,07,01.3,-0039.7,M,034.3,M,00,0000*53 $GPGSA,A,3,31,29,04,30,02,12,14,,,,,,02.1,01.3,01.6*0E $GPGSV,3,1,10,30,87,192,37,29,53,229,39,12,52,108,31,02,43,076,36*78 $GPGSV,3,2,10,31,39,303,39,19,15,033,00,04,14,038,39,14,13,247,25*76 $GPGSV,3,3,10,10,05,083,22,09,00,160,00,,,,,,,,*79 $GPRMC,180221,A,5403.8230,N,01939.3453,E,002.2,143.5,170610,,,A*72 $GPVTG,143.5,T,,M,002.2,N,004.0,K,A*0A $GPGGA,180236,5403.8055,N,01939.4713,E,1,07,01.3,00016.5,M,034.3,M,00,0000*46 $GPGSA,A,3,12,02,29,31,04,14,30,,,,,,02.1,01.3,01.6*0E $GPGSV,3,1,10,30,87,192,24,29,53,229,39,12,52,108,41,02,43,076,40*7C $GPGSV,3,2,10,31,39,303,38,19,15,033,00,04,14,038,38,14,13,247,34*76 $GPGSV,3,3,10,10,05,083,00,09,00,160,00,,,,,,,,*79 $GPRMC,180236,A,5403.8055,N,01939.4713,E,020.3,095.0,170610,,,A*7B $GPVTG,095.0,T,,M,020.3,N,037.7,K,A*03 $GPGGA,180251,5403.8316,N,01939.5772,E,1,07,01.3,00048.2,M,034.3,M,00,0000*49 $GPGSA,A,3,02,04,30,29,12,14,31,,,,,,02.1,01.3,01.6*0E $GPGSV,3,1,10,30,87,192,35,29,53,229,33,12,52,108,36,02,43,076,40*76 $GPGSV,3,2,10,31,39,303,32,19,15,033,00,04,14,038,37,14,13,247,30*77 $GPGSV,3,3,10,10,05,083,00,09,00,160,00,,,,,,,,*79 $GPRMC,180251,A,5403.8316,N,01939.5772,E,009.4,041.3,170610,,,A*7E $GPVTG,041.3,T,,M,009.4,N,017.4,K,A*04 $GPGGA,180306,5403.8857,N,01939.6254,E,1,06,02.1,00039.1,M,034.3,M,00,0000*43 $GPGSA,A,3,12,29,02,04,30,31,,,,,,,03.9,02.1,03.3*04 $GPGSV,3,1,10,30,87,192,29,29,53,229,38,12,52,108,41,02,43,076,37*70 $GPGSV,3,2,10,31,39,303,27,19,15,033,00,04,14,038,38,14,13,247,00*7F $GPGSV,3,3,10,10,05,083,00,09,00,160,00,,,,,,,,*79 $GPRMC,180306,A,5403.8857,N,01939.6254,E,018.0,024.2,170610,,,A*77 $GPVTG,024.2,T,,M,018.0,N,033.3,K,A*03 $GPGGA,180321,5403.9276,N,01939.6333,E,1,04,01.8,00045.9,M,034.3,M,00,0000*45 $GPGSA,A,3,12,02,29,31,,,,,,,,,02.0,01.8,00.9*08 $GPGSV,3,1,10,30,87,192,00,29,53,229,39,12,52,108,42,02,43,076,40*79 $GPGSV,3,2,10,31,39,303,31,19,15,033,00,04,14,038,00,14,13,247,25*74 $GPGSV,3,3,10,10,05,083,00,09,00,160,00,,,,,,,,*79 $GPRMC,180321,A,5403.9276,N,01939.6333,E,008.1,338.5,170610,,,A*73 $GPVTG,338.5,T,,M,008.1,N,015.0,K,A*0D $GPGGA,180336,5403.9331,N,01939.6405,E,1,06,02.1,00041.1,M,034.3,M,00,0000*47 $GPGSA,A,3,02,12,31,04,30,29,,,,,,,03.9,02.1,03.3*04 $GPGSV,3,1,10,30,87,192,32,29,53,229,26,12,52,108,39,02,43,076,40*7A $GPGSV,3,2,10,31,39,303,31,19,15,033,00,04,14,038,34,14,13,247,00*74 $GPGSV,3,3,10,10,05,083,00,09,00,160,00,,,,,,,,*79 $GPRMC,180336,A,5403.9331,N,01939.6405,E,002.1,012.9,170610,,,A*78 $GPVTG,012.9,T,,M,002.1,N,004.0,K,A*00 $GPGGA,180351,5403.9580,N,01939.6366,E,1,06,02.1,00007.6,M,034.3,M,00,0000*4D $GPGSA,A,3,12,02,29,30,04,31,,,,,,,03.9,02.1,03.3*04 $GPGSV,3,1,10,30,87,192,30,29,53,229,33,12,52,108,42,02,43,076,41*71 $GPGSV,3,2,10,31,39,303,33,19,15,033,00,04,14,038,27,14,13,247,00*74 $GPGSV,3,3,10,10,05,083,00,09,00,160,00,,,,,,,,*79 $GPRMC,180351,A,5403.9580,N,01939.6366,E,007.4,007.7,170610,,,A*7D $GPVTG,007.7,T,,M,007.4,N,013.8,K,A*04 $GPGGA,180406,5404.0020,N,01939.6500,E,1,06,02.1,00018.7,M,034.3,M,00,0000*40 $GPGSA,A,3,12,02,30,29,04,31,,,,,,,03.9,02.1,03.3*04 $GPGSV,3,1,10,30,87,192,35,29,53,229,25,12,52,108,45,02,43,076,42*77 $GPGSV,3,2,10,31,39,303,26,19,15,033,00,04,14,038,26,14,13,247,22*71 $GPGSV,3,3,10,10,05,083,00,09,00,160,00,,,,,,,,*79 $GPRMC,180406,A,5404.0020,N,01939.6500,E,011.6,001.0,170610,,,A*7B $GPVTG,001.0,T,,M,011.6,N,021.5,K,A*0C $GPGGA,180421,5404.0732,N,01939.6192,E,1,06,02.1,00000.8,M,034.3,M,00,0000*48 $GPGSA,A,3,12,02,04,29,31,30,,,,,,,03.9,02.1,03.3*04 $GPGSV,3,1,10,30,87,192,33,29,53,229,40,12,52,108,45,02,43,076,42*72 $GPGSV,3,2,10,31,39,303,39,19,15,033,00,04,14,038,39,14,13,247,21*72 $GPGSV,3,3,10,10,05,083,25,09,00,160,00,,,,,,,,*7E $GPRMC,180421,A,5404.0732,N,01939.6192,E,015.9,355.0,170610,,,A*7C $GPVTG,355.0,T,,M,015.9,N,029.4,K,A*0C $GPGGA,180436,5404.1573,N,01939.6192,E,1,05,02.1,-0013.2,M,034.3,M,00,0000*5E $GPGSA,A,3,12,02,29,31,30,,,,,,,,04.9,02.1,04.4*07 $GPGSV,3,1,09,30,86,166,34,29,55,229,36,12,51,109,41,02,43,074,41*77 $GPGSV,3,2,09,31,40,302,33,04,13,037,00,14,12,246,00,19,14,032,00*7E $GPGSV,3,3,09,10,06,082,28,,,,,,,,,,,,*47 $GPRMC,180436,A,5404.1573,N,01939.6192,E,019.6,007.6,170610,,,A*7D $GPVTG,007.6,T,,M,019.6,N,036.3,K,A*04 $GPGGA,180451,5404.2255,N,01939.6232,E,1,06,02.1,00015.8,M,034.3,M,00,0000*44 $GPGSA,A,3,12,02,29,04,30,31,,,,,,,04.0,02.1,03.3*0A $GPGSV,3,1,09,30,86,166,31,29,55,229,38,12,51,109,42,02,43,074,40*7E $GPGSV,3,2,09,31,40,302,32,19,14,032,00,04,13,037,36,14,12,246,00*7A $GPGSV,3,3,09,10,06,082,00,,,,,,,,,,,,*4D $GPRMC,180451,A,5404.2255,N,01939.6232,E,012.2,015.9,170610,,,A*76 $GPVTG,015.9,T,,M,012.2,N,022.5,K,A*04 $GPGGA,180509,5404.2521,N,01939.6338,E,1,07,01.3,00025.9,M,034.3,M,00,0000*45 $GPGSA,A,3,29,31,02,12,04,14,30,,,,,,02.0,01.3,01.5*0C $GPGSV,3,1,09,30,86,162,36,29,55,229,34,12,51,109,43,02,43,074,40*70 $GPGSV,3,2,09,31,40,301,39,04,13,037,38,14,12,246,31,19,14,032,00*7E $GPGSV,3,3,09,10,06,082,00,,,,,,,,,,,,*4D $GPRMC,180509,A,5404.2521,N,01939.6338,E,007.1,071.6,170610,,,A*7F $GPVTG,071.6,T,,M,007.1,N,013.2,K,A*0B $GPGGA,180524,5404.2850,N,01939.5386,E,1,07,01.3,00018.8,M,034.3,M,00,0000*48 $GPGSA,A,3,29,31,02,12,04,14,30,,,,,,02.0,01.3,01.5*0C $GPGSV,3,1,09,30,86,162,38,29,55,229,33,12,51,109,31,02,43,074,37*7C $GPGSV,3,2,09,31,40,301,32,04,13,037,40,14,12,246,32,19,14,032,00*79 $GPGSV,3,3,09,10,06,082,19,,,,,,,,,,,,*45 $GPRMC,180524,A,5404.2850,N,01939.5386,E,027.6,282.0,170610,,,A*70 $GPVTG,282.0,T,,M,027.6,N,051.2,K,A*00 $GPGGA,180539,5404.2996,N,01939.3770,E,1,07,01.3,00013.8,M,034.3,M,00,0000*4F $GPGSA,A,3,29,31,02,12,04,14,30,,,,,,02.0,01.3,01.5*0C $GPGSV,3,1,09,30,86,162,34,29,55,229,28,12,51,109,34,02,43,074,31*79 $GPGSV,3,2,09,31,40,301,34,04,13,037,42,14,12,246,33,19,14,032,00*7C $GPGSV,3,3,09,10,06,082,17,,,,,,,,,,,,*4B $GPRMC,180539,A,5404.2996,N,01939.3770,E,022.5,279.2,170610,,,A*7C $GPVTG,279.2,T,,M,022.5,N,041.6,K,A*05 $GPGGA,180550,5404.3136,N,01939.2450,E,1,07,01.3,00011.1,M,034.3,M,00,0000*48 $GPGSA,A,3,31,30,12,29,02,14,04,,,,,,02.0,01.3,01.5*0C $GPGSV,3,1,09,30,86,162,33,29,55,229,32,12,51,109,31,02,43,074,33*72 $GPGSV,3,2,09,31,40,301,38,19,14,032,00,04,13,037,24,14,12,246,33*70 $GPGSV,3,3,09,10,06,082,00,,,,,,,,,,,,*4D $GPRMC,180550,A,5404.3136,N,01939.2450,E,027.4,277.4,170610,,,A*7C $GPVTG,277.4,T,,M,027.4,N,050.8,K,A*07 $GPGGA,180605,5404.3329,N,01939.0406,E,1,07,01.3,00007.6,M,034.3,M,00,0000*46 $GPGSA,A,3,04,12,14,30,29,02,31,,,,,,02.0,01.3,01.5*0C $GPGSV,3,1,09,30,86,162,31,29,55,229,30,12,51,109,36,02,43,074,32*74 $GPGSV,3,2,09,31,40,301,31,19,14,032,00,04,13,037,40,14,12,246,35*7D $GPGSV,3,3,09,10,06,082,00,,,,,,,,,,,,*4D $GPRMC,180605,A,5404.3329,N,01939.0406,E,028.3,278.8,170610,,,A*79 $GPVTG,278.8,T,,M,028.3,N,052.4,K,A*02 $GPGGA,180620,5404.3549,N,01938.8332,E,1,07,01.3,00008.3,M,034.3,M,00,0000*42 $GPGSA,A,3,31,04,12,14,02,30,29,,,,,,02.0,01.3,01.5*0C $GPGSV,3,1,09,30,86,162,31,29,55,229,28,12,51,109,36,02,43,074,37*78 $GPGSV,3,2,09,31,40,301,40,19,14,032,00,04,13,037,39,14,12,246,35*75 $GPGSV,3,3,09,10,06,082,22,,,,,,,,,,,,*4D $GPRMC,180620,A,5404.3549,N,01938.8332,E,031.2,282.3,170610,,,A*70 $GPVTG,282.3,T,,M,031.2,N,057.8,K,A*0C $GPGGA,180635,5404.3826,N,01938.5955,E,1,07,01.3,00013.2,M,034.3,M,00,0000*4F $GPGSA,A,3,12,04,02,14,30,31,29,,,,,,02.0,01.3,01.5*0C $GPGSV,3,1,09,30,86,162,33,29,55,229,29,12,51,109,39,02,43,074,33*70 $GPGSV,3,2,09,31,40,301,35,19,14,032,00,04,13,037,39,14,12,246,35*77 $GPGSV,3,3,09,10,06,082,00,,,,,,,,,,,,*4D $GPRMC,180635,A,5404.3826,N,01938.5955,E,033.8,280.3,170610,,,A*7C $GPVTG,280.3,T,,M,033.8,N,062.7,K,A*0F $GPGGA,180650,5404.4188,N,01938.3549,E,1,06,02.1,-0001.2,M,034.3,M,00,0000*5F $GPGSA,A,3,02,29,31,04,12,30,,,,,,,04.0,02.1,03.4*0D $GPGSV,3,1,09,30,86,162,33,29,55,229,38,12,51,109,35,02,43,074,41*79 $GPGSV,3,2,09,31,40,301,38,19,14,032,00,04,13,037,36,14,12,246,00*73 $GPGSV,3,3,09,10,06,082,33,,,,,,,,,,,,*4D $GPRMC,180650,A,5404.4188,N,01938.3549,E,032.9,294.7,170610,,,A*73 $GPVTG,294.7,T,,M,032.9,N,060.9,K,A*02 $GPGGA,180705,5404.5207,N,01938.0983,E,1,07,01.3,-0013.0,M,034.3,M,00,0000*53 $GPGSA,A,3,02,04,29,31,12,30,14,,,,,,02.0,01.3,01.5*0C $GPGSV,3,1,09,30,86,162,30,29,55,229,35,12,51,109,29,02,43,074,39*75 $GPGSV,3,2,09,31,40,301,34,19,14,032,00,04,13,037,35,14,12,246,26*78 $GPGSV,3,3,09,10,06,082,24,,,,,,,,,,,,*4B $GPRMC,180705,A,5404.5207,N,01938.0983,E,043.7,301.6,170610,,,A*7A $GPVTG,301.6,T,,M,043.7,N,081.0,K,A*00 $GPGGA,180720,5404.6255,N,01937.8285,E,1,07,01.3,-0021.4,M,034.3,M,00,0000*5F $GPGSA,A,3,02,29,31,04,30,14,12,,,,,,02.0,01.3,01.5*0C $GPGSV,3,1,09,30,86,162,31,29,55,229,36,12,51,109,29,02,43,074,39*77 $GPGSV,3,2,09,31,40,301,35,19,14,032,00,04,13,037,35,14,12,246,28*77 $GPGSV,3,3,09,10,06,082,00,,,,,,,,,,,,*4D $GPRMC,180720,A,5404.6255,N,01937.8285,E,048.4,304.4,170610,,,A*7C $GPVTG,304.4,T,,M,048.4,N,089.6,K,A*01 $GPGGA,180735,5404.7536,N,01937.5367,E,1,07,01.3,-0004.2,M,034.3,M,00,0000*59 $GPGSA,A,3,02,31,30,29,12,04,14,,,,,,02.0,01.3,01.5*0C $GPGSV,3,1,10,30,85,152,32,29,56,230,33,12,50,110,30,02,42,072,42*78 $GPGSV,3,2,10,31,40,300,36,04,12,037,29,14,11,245,27,19,13,031,00*7A $GPGSV,3,3,10,10,07,081,23,05,00,110,00,,,,,,,,*73 $GPRMC,180735,A,5404.7536,N,01937.5367,E,051.7,303.6,170610,,,A*75 $GPVTG,303.6,T,,M,051.7,N,095.8,K,A*0C $GPGGA,180750,5404.8701,N,01937.2451,E,1,07,01.3,-0014.4,M,034.3,M,00,0000*51 $GPGSA,A,3,02,31,29,30,12,04,14,,,,,,02.0,01.3,01.5*0C $GPGSV,3,1,10,30,85,152,33,29,56,230,36,12,50,110,32,02,42,072,41*7D $GPGSV,3,2,10,31,40,300,37,19,13,031,00,04,12,037,31,14,11,245,23*76 $GPGSV,3,3,10,10,07,081,33,05,00,110,00,,,,,,,,*72 $GPRMC,180750,A,5404.8701,N,01937.2451,E,050.7,305.5,170610,,,A*7E $GPVTG,305.5,T,,M,050.7,N,094.0,K,A*01 $GPGGA,180805,5404.9908,N,01936.9592,E,1,06,02.2,-0005.4,M,034.3,M,00,0000*5F $GPGSA,A,3,02,29,31,04,12,30,,,,,,,04.1,02.2,03.4*0F $GPGSV,3,1,10,30,85,152,31,29,56,230,39,12,50,110,35,02,42,072,41*77 $GPGSV,3,2,10,31,40,300,38,19,13,031,00,04,12,037,36,14,11,245,00*7F $GPGSV,3,3,10,10,07,081,34,05,00,110,00,,,,,,,,*75 $GPRMC,180805,A,5404.9908,N,01936.9592,E,049.5,305.2,170610,,,A*7E $GPVTG,305.2,T,,M,049.5,N,091.7,K,A*0E $GPGGA,180820,5405.0818,N,01936.7234,E,1,06,02.2,-0014.6,M,034.3,M,00,0000*57 $GPGSA,A,3,02,31,29,04,30,12,,,,,,,04.1,02.2,03.4*0F $GPGSV,3,1,10,30,85,152,30,29,56,230,36,12,50,110,34,02,42,072,40*79 $GPGSV,3,2,10,31,40,300,37,19,13,031,00,04,12,037,33,14,11,245,00*75 $GPGSV,3,3,10,10,07,081,33,05,00,110,00,,,,,,,,*72 $GPRMC,180820,A,5405.0818,N,01936.7234,E,041.3,305.6,170610,,,A*7E $GPVTG,305.6,T,,M,041.3,N,076.6,K,N*03 $GPGGA,180835,5405.1154,N,01936.6626,E,1,07,01.3,-0004.6,M,034.3,M,00,0000*57 $GPGSA,A,3,02,29,12,31,04,30,14,,,,,,02.0,01.3,01.5*0C $GPGSV,3,1,10,30,85,152,31,29,56,230,39,12,50,110,35,02,42,072,41*77 $GPGSV,3,2,10,31,40,300,35,19,13,031,00,04,12,037,35,14,11,245,31*73 $GPGSV,3,3,10,10,07,081,36,05,00,110,00,,,,,,,,*77 $GPRMC,180835,A,5405.1154,N,01936.6626,E,018.8,305.9,170610,,,A*74 $GPVTG,305.9,T,,M,018.8,N,034.9,K,A*0D $GPGGA,180850,5405.1480,N,01936.5653,E,1,07,01.3,-0009.6,M,034.3,M,00,0000*54 $GPGSA,A,3,02,31,29,30,12,14,04,,,,,,02.0,01.3,01.4*0D $GPGSV,3,1,10,30,85,152,36,29,56,230,39,12,50,110,35,02,42,072,41*70 $GPGSV,3,2,10,31,40,300,40,19,13,031,00,04,12,037,32,14,11,245,31*76 $GPGSV,3,3,10,10,07,081,31,05,00,110,00,,,,,,,,*70 $GPRMC,180850,A,5405.1480,N,01936.5653,E,017.1,309.2,170610,,,A*7B $GPVTG,309.2,T,,M,017.1,N,031.6,K,A*06 $GPGGA,180905,5405.1748,N,01936.5257,E,1,07,01.3,00001.1,M,034.3,M,00,0000*40 $GPGSA,A,3,02,29,04,14,12,31,30,,,,,,02.0,01.3,01.4*0D $GPGSV,3,1,10,30,85,152,29,29,56,230,39,12,50,110,32,02,42,072,41*79 $GPGSV,3,2,10,31,40,300,34,19,13,031,00,04,12,037,39,14,11,245,36*79 $GPGSV,3,3,10,10,07,081,25,05,00,110,00,,,,,,,,*75 $GPRMC,180905,A,5405.1748,N,01936.5257,E,002.2,314.5,170610,,,A*71 $GPVTG,314.5,T,,M,002.2,N,004.2,K,A*08 $GPGGA,180920,5405.1799,N,01936.5128,E,1,06,02.2,-0003.3,M,034.3,M,00,0000*5E $GPGSA,A,3,02,31,29,12,04,30,,,,,,,04.1,02.2,03.4*0F $GPGSV,3,1,10,30,85,152,28,29,56,230,35,12,50,110,37,02,42,072,42*72 $GPGSV,3,2,10,31,40,300,40,19,13,031,00,04,12,037,33,14,11,245,00*75 $GPGSV,3,3,10,10,07,081,34,05,00,110,00,,,,,,,,*75 $GPRMC,180920,A,5405.1799,N,01936.5128,E,007.7,307.7,170610,,,A*71 $GPVTG,307.7,T,,M,007.7,N,014.3,K,A*08 $GPGGA,180935,5405.2301,N,01936.4603,E,1,06,02.2,00004.9,M,034.3,M,00,0000*43 $GPGSA,A,3,02,12,29,04,30,31,,,,,,,04.1,02.2,03.4*0F $GPGSV,3,1,10,30,85,152,28,29,56,230,39,12,50,110,40,02,42,072,42*7E $GPGSV,3,2,10,31,40,300,29,19,13,031,00,04,12,037,38,14,11,245,00*71 $GPGSV,3,3,10,10,07,081,38,05,00,110,00,,,,,,,,*79 $GPRMC,180935,A,5405.2301,N,01936.4603,E,022.9,331.7,170610,,,A*70 $GPVTG,331.7,T,,M,022.9,N,042.4,K,A*00 $GPGGA,180950,5405.3430,N,01936.4063,E,1,05,02.8,-0006.5,M,034.3,M,00,0000*5E $GPGSA,A,3,12,02,31,29,04,,,,,,,,06.2,02.8,05.5*00 $GPGSV,3,1,10,30,85,152,00,29,56,230,38,12,50,110,42,02,42,072,42*77 $GPGSV,3,2,10,31,40,300,40,19,13,031,00,04,12,037,30,14,11,245,00*76 $GPGSV,3,3,10,10,07,081,33,05,00,110,00,,,,,,,,*72 $GPRMC,180950,A,5405.3430,N,01936.4063,E,030.3,355.8,170610,,,A*73 $GPVTG,355.8,T,,M,030.3,N,056.2,K,A*07 $GPGGA,181005,5405.4975,N,01936.4493,E,1,07,01.3,-0002.7,M,034.3,M,00,0000*5A $GPGSA,A,3,12,29,02,31,14,30,04,,,,,,02.0,01.3,01.4*0D $GPGSV,3,1,10,30,85,152,31,29,56,230,37,12,50,110,42,02,42,072,37*78 $GPGSV,3,2,10,31,40,300,34,19,13,031,00,04,12,037,30,14,11,245,30*76 $GPGSV,3,3,10,10,07,081,36,05,00,110,00,,,,,,,,*77 $GPRMC,181005,A,5405.4975,N,01936.4493,E,038.0,010.6,170610,,,A*7C $GPVTG,010.6,T,,M,038.0,N,070.5,K,A*03 $GPGGA,181020,5405.6550,N,01936.4139,E,1,06,01.3,00001.2,M,034.3,M,00,0000*4B $GPGSA,A,3,02,29,31,12,04,14,,,,,,,02.2,01.3,01.7*0F $GPGSV,3,1,10,30,85,152,00,29,56,230,41,12,50,110,39,02,42,072,42*75 $GPGSV,3,2,10,31,40,300,39,19,13,031,00,04,12,037,35,14,11,245,26*79 $GPGSV,3,3,10,10,07,081,36,05,00,110,00,,,,,,,,*77 $GPRMC,181020,A,5405.6550,N,01936.4139,E,036.9,351.3,170610,,,A*73 $GPVTG,351.3,T,,M,036.9,N,068.4,K,N*00 $GPGGA,181035,5405.8219,N,01936.1835,E,1,06,01.3,00001.1,M,034.3,M,00,0000*48 $GPGSA,A,3,02,31,29,12,04,14,,,,,,,02.1,01.3,01.7*0C $GPGSV,3,1,10,30,84,144,00,29,57,230,39,12,48,111,38,02,42,071,42*77 $GPGSV,3,2,10,31,41,299,40,04,11,036,33,14,10,245,26,19,13,030,00*73 $GPGSV,3,3,10,10,08,080,33,05,01,109,00,,,,,,,,*75 $GPRMC,181035,A,5405.8219,N,01936.1835,E,054.1,317.3,170610,,,A*7D $GPVTG,317.3,T,,M,054.1,N,100.2,K,A*08 $GPGGA,181050,5405.9589,N,01935.8898,E,1,06,02.2,-0007.2,M,034.3,M,00,0000*53 $GPGSA,A,3,29,02,04,31,30,12,,,,,,,04.1,02.2,03.5*0E $GPGSV,3,1,10,30,84,144,31,29,57,230,39,12,48,111,22,02,42,071,39*72 $GPGSV,3,2,10,31,41,299,32,19,13,030,00,04,11,036,39,14,10,245,00*78 $GPGSV,3,3,10,10,08,080,33,05,01,109,00,,,,,,,,*75 $GPRMC,181050,A,5405.9589,N,01935.8898,E,052.9,301.5,170610,,,A*73 $GPVTG,301.5,T,,M,052.9,N,098.1,K,A*04 $GPGGA,181105,5406.0435,N,01935.5628,E,1,06,02.2,-0015.5,M,034.3,M,00,0000*52 $GPGSA,A,3,12,31,29,02,04,30,,,,,,,04.1,02.2,03.5*0E $GPGSV,3,1,10,30,84,144,29,29,57,230,36,12,48,111,37,02,42,071,37*7E $GPGSV,3,2,10,31,41,299,38,19,13,030,00,04,11,036,32,14,10,245,00*79 $GPGSV,3,3,10,10,08,080,00,05,01,109,00,,,,,,,,*75 $GPRMC,181105,A,5406.0435,N,01935.5628,E,050.5,293.1,170610,,,A*76 $GPVTG,293.1,T,,M,050.5,N,093.6,K,A*08 $GPGGA,181120,5406.0618,N,01935.1991,E,1,07,01.3,-0022.8,M,034.3,M,00,0000*5B $GPGSA,A,3,29,31,04,12,02,30,14,,,,,,01.9,01.3,01.4*07 $GPGSV,3,1,10,30,84,144,32,29,57,230,41,12,48,111,34,02,42,071,32*72 $GPGSV,3,2,10,31,41,299,38,19,13,030,00,04,11,036,37,14,10,245,30*7F $GPGSV,3,3,10,10,08,080,34,05,01,109,00,,,,,,,,*72 $GPRMC,181120,A,5406.0618,N,01935.1991,E,051.5,275.7,170610,,,A*7A $GPVTG,275.7,T,,M,051.5,N,095.5,K,A*02 $GPGGA,181135,5405.9856,N,01934.8476,E,1,07,01.3,-0004.6,M,034.3,M,00,0000*57 $GPGSA,A,3,31,29,12,14,02,30,04,,,,,,01.9,01.3,01.4*07 $GPGSV,3,1,10,30,84,144,33,29,57,230,40,12,48,111,36,02,42,071,35*77 $GPGSV,3,2,10,31,41,299,41,19,13,030,00,04,11,036,23,14,10,245,37*73 $GPGSV,3,3,10,10,08,080,31,05,01,109,00,,,,,,,,*77 $GPRMC,181135,A,5405.9856,N,01934.8476,E,053.0,246.8,170610,,,A*74 $GPVTG,246.8,T,,M,053.0,N,098.2,K,A*00 $GPGGA,181150,5405.9052,N,01934.5421,E,1,06,01.3,00021.4,M,034.3,M,00,0000*4E $GPGSA,A,3,31,29,02,14,12,04,,,,,,,02.1,01.3,01.6*0D $GPGSV,3,1,10,30,84,144,00,29,57,230,38,12,48,111,34,02,42,071,37*78 $GPGSV,3,2,10,31,41,299,40,19,13,030,00,04,11,036,22,14,10,245,38*7C $GPGSV,3,3,10,10,08,080,00,05,01,109,00,,,,,,,,*75 $GPRMC,181150,A,5405.9052,N,01934.5421,E,039.8,248.4,170610,,,A*72 $GPVTG,248.4,T,,M,039.8,N,073.7,K,A*06 $GPGGA,181205,5405.8693,N,01934.3354,E,1,06,01.6,00009.3,M,034.3,M,00,0000*4C $GPGSA,A,3,29,31,14,12,02,30,,,,,,,02.4,01.6,01.8*04 $GPGSV,3,1,10,30,84,144,26,29,57,230,39,12,48,111,34,02,42,071,29*72 $GPGSV,3,2,10,31,41,299,37,19,13,030,00,04,11,036,00,14,10,245,36*72 $GPGSV,3,3,10,10,08,080,27,05,01,109,00,,,,,,,,*70 $GPRMC,181205,A,5405.8693,N,01934.3354,E,029.7,259.6,170610,,,A*74 $GPVTG,259.6,T,,M,029.7,N,055.0,K,A*09 $GPGGA,181220,5405.8363,N,01934.1005,E,1,07,01.3,-0014.3,M,034.3,M,00,0000*51 $GPGSA,A,3,29,12,31,02,14,04,30,,,,,,01.9,01.3,01.4*07 $GPGSV,3,1,10,30,84,144,23,29,57,230,40,12,48,111,41,02,42,071,37*74 $GPGSV,3,2,10,31,41,299,40,19,13,030,00,04,11,036,28,14,10,245,23*7C $GPGSV,3,3,10,10,08,080,31,05,01,109,00,,,,,,,,*77 $GPRMC,181220,A,5405.8363,N,01934.1005,E,032.8,257.3,170610,,,A*72 $GPVTG,257.3,T,,M,032.8,N,060.7,K,A*06 $GPGGA,181235,5405.8188,N,01933.9258,E,1,06,01.3,-0009.5,M,034.3,M,00,0000*5C $GPGSA,A,3,12,31,29,04,14,02,,,,,,,02.1,01.3,01.6*0D $GPGSV,3,1,10,30,84,144,00,29,57,230,36,12,48,111,39,02,42,071,32*7E $GPGSV,3,2,10,31,41,299,38,19,13,030,00,04,11,036,37,14,10,245,35*7A $GPGSV,3,3,10,10,08,080,28,05,01,109,27,,,,,,,,*7A $GPRMC,181235,A,5405.8188,N,01933.9258,E,028.6,264.4,170610,,,A*76 $GPVTG,264.4,T,,M,028.6,N,053.0,K,A*03 $GPGGA,181250,5405.8437,N,01933.6914,E,1,06,01.3,00014.9,M,034.3,M,00,0000*4F $GPGSA,A,3,29,02,04,31,12,14,,,,,,,02.1,01.3,01.6*0D $GPGSV,3,1,10,30,84,144,00,29,57,230,41,12,48,111,37,02,42,071,40*75 $GPGSV,3,2,10,31,41,299,36,19,13,030,00,04,11,036,40,14,10,245,29*79 $GPGSV,3,3,10,10,08,080,29,05,01,109,29,,,,,,,,*75 $GPRMC,181250,A,5405.8437,N,01933.6914,E,028.9,276.1,170610,,,A*71 $GPVTG,276.1,T,,M,028.9,N,053.5,K,A*0F $GPGGA,181305,5405.9253,N,01933.5234,E,1,07,01.3,00012.7,M,034.3,M,00,0000*48 $GPGSA,A,3,02,31,29,12,04,14,30,,,,,,01.9,01.3,01.4*07 $GPGSV,3,1,10,30,84,144,27,29,57,230,39,12,48,111,36,02,42,071,42*7C $GPGSV,3,2,10,31,41,299,41,19,13,030,00,04,11,036,30,14,10,245,30*76 $GPGSV,3,3,10,10,08,080,37,05,01,109,28,,,,,,,,*7B $GPRMC,181305,A,5405.9253,N,01933.5234,E,035.5,312.3,170610,,,A*7E $GPVTG,312.3,T,,M,035.5,N,065.8,K,A*06 $GPGGA,181320,5406.0404,N,01933.3075,E,1,07,01.3,00009.8,M,034.3,M,00,0000*45 $GPGSA,A,3,02,04,29,12,14,30,31,,,,,,01.9,01.3,01.4*07 $GPGSV,3,1,10,30,84,144,25,29,57,230,34,12,48,111,35,02,42,071,40*72 $GPGSV,3,2,10,31,41,299,27,19,13,030,00,04,11,036,38,14,10,245,34*7A $GPGSV,3,3,10,10,08,080,32,05,01,109,24,,,,,,,,*72 $GPRMC,181320,A,5406.0404,N,01933.3075,E,043.0,303.1,170610,,,A*70 $GPVTG,303.1,T,,M,043.0,N,079.7,K,A*02 $GPGGA,181335,5406.1052,N,01933.0066,E,1,07,01.3,00005.8,M,034.3,M,00,0000*4A $GPGSA,A,3,31,12,02,29,14,04,30,,,,,,01.9,01.3,01.4*07 $GPGSV,3,1,11,30,82,140,29,29,59,231,39,12,47,112,39,31,42,298,42*78 $GPGSV,3,2,11,02,41,069,39,04,10,035,35,14,09,244,32,19,12,029,00*70 $GPGSV,3,3,11,10,08,079,28,05,02,108,00,23,00,000,00,,,,*4B $GPRMC,181335,A,5406.1052,N,01933.0066,E,046.5,284.6,170610,,,A*7A $GPVTG,284.6,T,,M,046.5,N,086.2,K,A*0E $GPGGA,181350,5406.1092,N,01932.7811,E,1,07,01.3,00000.9,M,034.3,M,00,0000*4F $GPGSA,A,3,31,12,14,29,02,04,30,,,,,,01.9,01.3,01.4*07 $GPGSV,3,1,11,30,82,140,25,29,59,231,32,12,47,112,40,31,42,298,40*73 $GPGSV,3,2,11,02,41,069,34,19,12,029,00,04,10,035,34,14,09,244,35*7B $GPGSV,3,3,11,10,08,079,23,05,02,108,00,23,00,000,00,,,,*40 $GPRMC,181350,A,5406.1092,N,01932.7811,E,036.2,278.3,170610,,,A*7D $GPVTG,278.3,T,,M,036.2,N,067.0,K,N*0A $GPGGA,181405,5406.1263,N,01932.5713,E,1,06,02.3,-0001.2,M,034.3,M,00,0000*5E $GPGSA,A,3,04,02,29,31,30,12,,,,,,,04.2,02.3,03.5*0C $GPGSV,3,1,11,30,82,140,29,29,59,231,31,12,47,112,31,31,42,298,31*7C $GPGSV,3,2,11,02,41,069,40,19,12,029,00,04,10,035,43,14,09,244,00*7E $GPGSV,3,3,11,10,08,079,31,05,02,108,00,23,00,000,00,,,,*43 $GPRMC,181405,A,5406.1263,N,01932.5713,E,034.9,287.3,170610,,,A*70 $GPVTG,287.3,T,,M,034.9,N,064.6,K,A*09 $GPGGA,181420,5406.1821,N,01932.3206,E,1,07,01.3,-0002.9,M,034.3,M,00,0000*58 $GPGSA,A,3,04,02,29,31,30,12,14,,,,,,01.9,01.3,01.4*07 $GPGSV,3,1,11,30,82,140,27,29,59,231,35,12,47,112,22,31,42,298,32*77 $GPGSV,3,2,11,02,41,069,39,19,12,029,00,04,10,035,42,14,09,244,26*75 $GPGSV,3,3,11,10,08,079,27,05,02,108,31,23,00,000,00,,,,*46 $GPRMC,181420,A,5406.1821,N,01932.3206,E,035.2,294.8,170610,,,A*7F $GPVTG,294.8,T,,M,035.2,N,065.1,K,A*0C $GPGGA,181435,5406.2442,N,01932.0620,E,1,06,02.3,-0012.6,M,034.3,M,00,0000*59 $GPGSA,A,3,02,04,29,12,30,31,,,,,,,04.2,02.3,03.5*0C $GPGSV,3,1,11,30,82,140,30,29,59,231,36,12,47,112,26,31,42,298,25*70 $GPGSV,3,2,11,02,41,069,39,19,12,029,00,04,10,035,41,14,09,244,00*72 $GPGSV,3,3,11,10,08,079,29,05,02,108,26,23,00,000,00,,,,*4E $GPRMC,181435,A,5406.2442,N,01932.0620,E,038.9,293.5,170610,,,A*7E $GPVTG,293.5,T,,M,038.9,N,072.1,K,A*06 $GPGGA,181450,5406.3195,N,01931.8248,E,1,07,01.3,-0008.9,M,034.3,M,00,0000*53 $GPGSA,A,3,02,14,04,31,30,29,12,,,,,,01.9,01.3,01.4*07 $GPGSV,3,1,11,30,82,140,25,29,59,231,28,12,47,112,26,31,42,298,33*7C $GPGSV,3,2,11,02,41,069,39,19,12,029,00,04,10,035,39,14,09,244,37*79 $GPGSV,3,3,11,10,08,079,22,05,02,108,35,23,00,000,00,,,,*47 $GPRMC,181450,A,5406.3195,N,01931.8248,E,041.9,298.1,170610,,,A*73 $GPVTG,298.1,T,,M,041.9,N,077.7,K,A*04 $GPGGA,181511,5406.4089,N,01931.4679,E,1,07,01.3,00016.0,M,034.3,M,00,0000*4D $GPGSA,A,3,04,02,12,29,31,14,30,,,,,,01.9,01.3,01.3*00 $GPGSV,3,1,11,30,81,138,26,29,60,231,36,12,46,112,40,31,43,297,36*7C $GPGSV,3,2,11,02,41,068,41,04,10,035,41,14,08,243,30,19,11,028,00*7B $GPGSV,3,3,11,10,09,079,00,05,02,108,36,23,00,359,00,,,,*4A $GPRMC,181511,A,5406.4089,N,01931.4679,E,038.3,285.2,170610,,,A*7D $GPVTG,285.2,T,,M,038.3,N,071.0,K,A*0E $GPGGA,181525,5406.4352,N,01931.1996,E,1,07,01.3,-0002.4,M,034.3,M,00,0000*58 $GPGSA,A,3,04,02,12,29,31,14,30,,,,,,01.9,01.3,01.3*00 $GPGSV,3,1,11,30,81,138,31,29,60,231,38,12,46,112,40,31,43,297,44*71 $GPGSV,3,2,11,02,41,068,35,04,10,035,38,14,08,243,28,19,11,028,00*7F $GPGSV,3,3,11,10,09,079,18,05,02,108,19,23,00,359,00,,,,*4E $GPRMC,181525,A,5406.4352,N,01931.1996,E,042.9,272.3,170610,,,A*7A $GPVTG,272.3,T,,M,042.9,N,079.5,K,A*0D $GPGGA,181540,5406.4229,N,01930.9058,E,1,07,01.3,-0002.5,M,034.4,M,00,0000*52 $GPGSA,A,3,04,02,12,29,31,14,30,,,,,,01.9,01.3,01.3*00 $GPGSV,3,1,11,30,81,138,31,29,60,231,38,12,46,112,43,31,43,297,41*77 $GPGSV,3,2,11,02,41,068,36,19,11,028,00,04,09,035,33,10,09,078,34*7D $GPGSV,3,3,11,14,08,243,33,05,02,108,36,23,00,359,00,,,,*44 $GPRMC,181540,A,5406.4229,N,01930.9058,E,036.8,264.9,170610,,,A*79 $GPVTG,264.9,T,,M,036.8,N,068.3,K,A*04 $GPGGA,181550,5406.4150,N,01930.7471,E,1,07,01.3,-0001.5,M,034.4,M,00,0000*5C $GPGSA,A,3,04,02,12,29,31,14,30,,,,,,01.9,01.3,01.3*00 $GPGSV,3,1,11,30,81,138,31,29,60,231,30,12,46,112,42,31,43,297,42*7D $GPGSV,3,2,11,02,41,068,37,19,11,028,00,04,09,035,37,10,09,078,13*7D $GPGSV,3,3,11,14,08,243,35,05,02,108,32,23,00,359,00,,,,*46 $GPRMC,181550,A,5406.4150,N,01930.7471,E,034.1,270.7,170610,,,A*74 $GPVTG,270.7,T,,M,034.1,N,063.1,K,A*0D $GPGGA,181605,5406.4613,N,01930.5167,E,1,06,02.3,-0005.3,M,034.4,M,00,0000*5F $GPGSA,A,3,02,29,04,30,31,12,,,,,,,04.2,02.3,03.5*0C $GPGSV,3,1,11,30,81,138,29,29,60,231,32,12,46,112,28,31,43,297,32*7D $GPGSV,3,2,11,02,41,068,39,19,11,028,00,04,09,035,34,10,09,078,29*79 $GPGSV,3,3,11,14,08,243,00,05,02,108,33,23,00,359,00,,,,*41 $GPRMC,181605,A,5406.4613,N,01930.5167,E,032.8,293.9,170610,,,A*7B $GPVTG,293.9,T,,M,032.8,N,060.8,K,A*0B $GPGGA,181620,5406.4868,N,01930.2553,E,1,07,01.3,00004.5,M,034.4,M,00,0000*46 $GPGSA,A,3,31,12,04,02,29,30,14,,,,,,01.9,01.3,01.3*00 $GPGSV,3,1,11,30,81,138,34,29,60,231,34,12,46,112,39,31,43,297,41*73 $GPGSV,3,2,11,02,41,068,33,19,11,028,00,04,09,035,34,10,09,078,00*78 $GPGSV,3,3,11,14,08,243,30,05,02,108,00,23,00,359,00,,,,*42 $GPRMC,181620,A,5406.4868,N,01930.2553,E,041.9,276.8,170610,,,A*75 $GPVTG,276.8,T,,M,041.9,N,077.7,K,A*0D $GPGGA,181635,5406.5191,N,01929.9835,E,1,07,01.3,-0012.5,M,034.4,M,00,0000*58 $GPGSA,A,3,02,29,31,14,04,30,12,,,,,,01.9,01.3,01.3*00 $GPGSV,3,1,11,30,81,138,32,29,60,231,39,12,46,112,29,31,43,297,34*7B $GPGSV,3,2,11,02,41,068,40,19,11,028,00,04,09,035,29,10,09,078,27*75 $GPGSV,3,3,11,14,08,243,35,05,02,108,22,23,00,359,00,,,,*47 $GPRMC,181635,A,5406.5191,N,01929.9835,E,034.9,291.6,170610,,,A*74 $GPVTG,291.6,T,,M,034.9,N,064.6,K,A*0B $GPGGA,181650,5406.5815,N,01929.7720,E,1,06,01.9,00004.4,M,034.4,M,00,0000*4B $GPGSA,A,3,30,02,04,29,14,12,,,,,,,02.5,01.9,01.6*02 $GPGSV,3,1,11,30,81,138,34,29,60,231,32,12,46,112,27,31,43,297,00*7F $GPGSV,3,2,11,02,41,068,33,19,11,028,00,04,09,035,33,10,09,078,00*7F $GPGSV,3,3,11,14,08,243,33,05,02,108,29,23,00,359,00,,,,*4A $GPRMC,181650,A,5406.5815,N,01929.7720,E,042.0,292.2,170610,,,A*78 $GPVTG,292.2,T,,M,042.0,N,077.9,K,A*09 $GPGGA,181705,5406.6358,N,01929.4391,E,1,06,02.3,00000.6,M,034.4,M,00,0000*49 $GPGSA,A,3,31,02,29,12,30,04,,,,,,,04.2,02.3,03.5*0C $GPGSV,3,1,11,30,81,138,34,29,60,231,38,12,46,112,37,31,43,297,40*70 $GPGSV,3,2,11,02,41,068,39,19,11,028,00,04,09,035,36,10,09,078,24*76 $GPGSV,3,3,11,14,08,243,00,05,02,108,00,23,00,359,00,,,,*41 $GPRMC,181705,A,5406.6358,N,01929.4391,E,049.9,282.9,170610,,,A*7D $GPVTG,282.9,T,,M,049.9,N,092.4,K,A*07 $GPGGA,181720,5406.6886,N,01929.1279,E,1,05,02.7,-0004.6,M,034.4,M,00,0000*5A $GPGSA,A,3,29,31,30,12,04,,,,,,,,05.0,02.7,04.2*09 $GPGSV,3,1,11,30,81,138,30,29,60,231,39,12,46,112,33,31,43,297,37*71 $GPGSV,3,2,11,02,41,068,00,19,11,028,00,04,09,035,21,10,09,078,00*7C $GPGSV,3,3,11,14,08,243,00,05,02,108,00,23,00,359,00,,,,*41 $GPRMC,181720,A,5406.6886,N,01929.1279,E,041.4,288.0,170610,,,A*76 $GPVTG,288.0,T,,M,041.4,N,076.7,K,A*08 $GPGGA,181735,5406.7883,N,01928.9622,E,1,07,01.3,00007.6,M,034.4,M,00,0000*42 $GPGSA,A,3,02,12,04,29,14,30,31,,,,,,01.8,01.3,01.3*01 $GPGSV,3,1,11,30,81,138,25,29,60,231,39,12,46,112,40,31,43,297,33*75 $GPGSV,3,2,11,02,41,068,42,19,11,028,00,04,09,035,39,10,09,078,39*79 $GPGSV,3,3,11,14,08,243,34,05,02,108,25,23,00,359,00,,,,*41 $GPRMC,181735,A,5406.7883,N,01928.9622,E,034.6,322.1,170610,,,A*75 $GPVTG,322.1,T,,M,034.6,N,064.0,K,A*0C $GPGGA,181750,5406.8889,N,01928.9159,E,1,07,01.3,00002.9,M,034.4,M,00,0000*45 $GPGSA,A,3,02,12,29,31,04,14,30,,,,,,01.8,01.3,01.3*01 $GPGSV,3,1,11,30,81,138,24,29,60,231,37,12,46,112,39,31,43,297,34*73 $GPGSV,3,2,11,02,41,068,41,19,11,028,00,04,09,035,33,10,09,078,33*7A $GPGSV,3,3,11,14,08,243,25,05,02,108,00,23,00,359,00,,,,*46 $GPRMC,181750,A,5406.8889,N,01928.9159,E,023.6,334.1,170610,,,A*79 $GPVTG,334.1,T,,M,023.6,N,043.8,K,A*00 $GPGGA,181805,5406.9421,N,01928.7927,E,1,07,01.3,-0013.5,M,034.4,M,00,0000*5B $GPGSA,A,3,02,12,31,29,04,30,14,,,,,,01.8,01.3,01.3*01 $GPGSV,3,1,11,30,81,138,29,29,60,231,37,12,46,112,38,31,43,297,39*72 $GPGSV,3,2,11,02,41,068,42,19,11,028,00,04,09,035,31,10,09,078,30*78 $GPGSV,3,3,11,14,08,243,25,05,02,108,32,23,00,359,00,,,,*47 $GPRMC,181805,A,5406.9421,N,01928.7927,E,023.5,316.3,170610,,,A*77 $GPVTG,316.3,T,,M,023.5,N,043.5,K,A*0C $GPGGA,181820,5407.0246,N,01928.6327,E,1,06,01.3,-0000.2,M,034.4,M,00,0000*5C $GPGSA,A,3,02,31,29,12,14,04,,,,,,,02.0,01.3,01.5*0F $GPGSV,3,1,11,30,81,138,00,29,60,231,37,12,46,112,34,31,43,297,37*7B $GPGSV,3,2,11,02,41,068,42,19,11,028,00,04,09,035,30,10,09,078,37*7E $GPGSV,3,3,11,14,08,243,31,05,02,108,00,23,00,359,00,,,,*43 $GPRMC,181820,A,5407.0246,N,01928.6327,E,028.3,310.2,170610,,,A*7E $GPVTG,310.2,T,,M,028.3,N,052.5,K,A*06 $GPGGA,181835,5407.0770,N,01928.5282,E,1,07,01.3,00010.3,M,034.4,M,00,0000*49 $GPGSA,A,3,02,31,29,14,12,04,30,,,,,,01.8,01.3,01.3*01 $GPGSV,3,1,11,30,80,136,29,29,61,231,40,12,45,113,35,31,44,295,42*7A $GPGSV,3,2,11,02,40,067,44,04,08,035,29,14,07,242,35,19,11,027,00*73 $GPGSV,3,3,11,10,10,077,35,05,03,107,35,23,01,358,00,,,,*47 $GPRMC,181835,A,5407.0770,N,01928.5282,E,022.1,309.9,170610,,,A*7C $GPVTG,309.9,T,,M,022.1,N,041.0,K,A*0A $GPGGA,181850,5407.1450,N,01928.3916,E,1,07,01.3,-0001.7,M,034.4,M,00,0000*53 $GPGSA,A,3,02,31,29,12,14,30,04,,,,,,01.8,01.3,01.3*01 $GPGSV,3,1,11,30,80,136,26,29,61,231,40,12,45,113,36,31,44,295,41*75 $GPGSV,3,2,11,02,40,067,42,19,11,027,00,10,10,077,36,04,08,035,25*7C $GPGSV,3,3,11,14,07,242,35,05,03,107,00,23,01,358,00,,,,*47 $GPRMC,181850,A,5407.1450,N,01928.3916,E,024.7,310.3,170610,,,A*7D $GPVTG,310.3,T,,M,024.7,N,045.9,K,A*05 $GPGGA,181905,5407.2257,N,01928.2354,E,1,07,01.3,00000.2,M,034.4,M,00,0000*44 $GPGSA,A,3,02,31,29,14,12,04,30,,,,,,01.8,01.3,01.3*01 $GPGSV,3,1,11,30,80,136,26,29,61,231,41,12,45,113,25,31,44,295,42*75 $GPGSV,3,2,11,02,40,067,45,19,11,027,00,10,10,077,37,04,08,035,30*7E $GPGSV,3,3,11,14,07,242,36,05,03,107,30,23,01,358,00,,,,*47 $GPRMC,181905,A,5407.2257,N,01928.2354,E,028.3,310.6,170610,,,A*7E $GPVTG,310.6,T,,M,028.3,N,052.4,K,A*03 $GPGGA,181920,5407.3078,N,01928.0696,E,1,06,01.6,-0005.5,M,034.4,M,00,0000*5F $GPGSA,A,3,02,31,29,14,30,04,,,,,,,02.1,01.6,01.3*0D $GPGSV,3,1,11,30,80,136,29,29,61,231,41,12,45,113,00,31,44,295,41*7E $GPGSV,3,2,11,02,40,067,42,19,11,027,00,10,10,077,35,04,08,035,25*7F $GPGSV,3,3,11,14,07,242,36,05,03,107,24,23,01,358,00,,,,*42 $GPRMC,181920,A,5407.3078,N,01928.0696,E,031.5,309.2,170610,,,A*7C $GPVTG,309.2,T,,M,031.5,N,058.4,K,A*0B $GPGGA,181935,5407.3903,N,01927.9069,E,1,06,01.3,00001.9,M,034.4,M,00,0000*4E $GPGSA,A,3,02,31,29,14,04,12,,,,,,,01.9,01.3,01.5*05 $GPGSV,3,1,11,30,80,136,00,29,61,231,40,12,45,113,30,31,44,295,41*77 $GPGSV,3,2,11,02,40,067,42,19,11,027,00,10,10,077,35,04,08,035,31*7A $GPGSV,3,3,11,14,07,242,34,05,03,107,00,23,01,358,00,,,,*46 $GPRMC,181935,A,5407.3903,N,01927.9069,E,028.4,309.9,170610,,,A*7F $GPVTG,309.9,T,,M,028.4,N,052.6,K,A*01 $GPGGA,181950,5407.4878,N,01927.7597,E,1,06,02.3,00007.1,M,034.4,M,00,0000*40 $GPGSA,A,3,02,12,29,04,30,31,,,,,,,04.2,02.3,03.5*0C $GPGSV,3,1,11,30,80,136,31,29,61,231,39,12,45,113,40,31,44,295,29*72 $GPGSV,3,2,11,02,40,067,42,19,11,027,00,10,10,077,38,04,08,035,37*71 $GPGSV,3,3,11,14,07,242,00,05,03,107,00,23,01,358,00,,,,*41 $GPRMC,181950,A,5407.4878,N,01927.7597,E,032.9,326.6,170610,,,A*78 $GPVTG,326.6,T,,M,032.9,N,060.9,K,A*0B $GPGGA,182005,5407.5812,N,01927.6732,E,1,06,02.3,00007.1,M,034.4,M,00,0000*4B $GPGSA,A,3,02,12,04,29,31,30,,,,,,,04.2,02.3,03.4*0D $GPGSV,3,1,11,30,80,136,28,29,61,231,41,12,45,113,40,31,44,295,39*74 $GPGSV,3,2,11,02,40,067,42,19,11,027,00,10,10,077,41,04,08,035,42*7D $GPGSV,3,3,11,14,07,242,00,05,03,107,00,23,01,358,00,,,,*41 $GPRMC,182005,A,5407.5812,N,01927.6732,E,025.1,327.3,170610,,,A*79 $GPVTG,327.3,T,,M,025.1,N,046.6,K,A*0A $GPGGA,182020,5407.6178,N,01927.6443,E,1,07,01.3,-0009.2,M,034.4,M,00,0000*5D $GPGSA,A,3,02,31,04,14,30,12,29,,,,,,01.8,01.3,01.3*01 $GPGSV,3,1,11,30,80,136,38,29,61,231,28,12,45,113,38,31,44,295,41*7A $GPGSV,3,2,11,02,40,067,42,19,11,027,00,10,10,077,28,04,08,035,40*70 $GPGSV,3,3,11,14,07,242,37,05,03,107,00,23,01,358,00,,,,*45 $GPRMC,182020,A,5407.6178,N,01927.6443,E,012.0,318.0,170610,,,A*77 $GPVTG,318.0,T,,M,012.0,N,022.2,K,A*06 $GPGGA,182035,5407.6890,N,01927.6020,E,1,06,01.3,-0018.9,M,034.4,M,00,0000*5D $GPGSA,A,3,02,31,04,12,29,14,,,,,,,01.9,01.3,01.4*04 $GPGSV,3,1,11,30,80,136,00,29,61,231,39,12,45,113,41,31,44,295,40*7E $GPGSV,3,2,11,02,40,067,42,19,11,027,00,10,10,077,34,04,08,035,41*7C $GPGSV,3,3,11,14,07,242,28,05,03,107,00,23,01,358,00,,,,*4B $GPRMC,182035,A,5407.6890,N,01927.6020,E,025.0,343.5,170610,,,A*72 $GPVTG,343.5,T,,M,025.0,N,046.4,K,A*0D $GPGGA,182050,5407.7885,N,01927.5568,E,1,05,02.3,-0027.2,M,034.4,M,00,0000*56 $GPGSA,A,3,02,31,29,12,30,,,,,,,,05.2,02.3,04.7*0C $GPGSV,3,1,11,30,80,136,30,29,61,231,41,12,45,113,40,31,44,295,42*71 $GPGSV,3,2,11,02,40,067,43,19,11,027,00,10,10,077,27,04,08,035,00*7A $GPGSV,3,3,11,14,07,242,25,05,03,107,27,23,01,358,24,,,,*45 $GPRMC,182050,A,5407.7885,N,01927.5568,E,026.1,343.7,170610,,,A*7E $GPVTG,343.7,T,,M,026.1,N,048.4,K,A*03 $GPGGA,182105,5407.8948,N,01927.4969,E,1,06,02.3,-0016.2,M,034.4,M,00,0000*55 $GPGSA,A,3,02,12,29,31,04,30,,,,,,,04.1,02.3,03.4*0E $GPGSV,3,1,11,30,80,136,31,29,61,231,39,12,45,113,40,31,44,295,35*7F $GPGSV,3,2,11,02,40,067,41,19,11,027,00,10,10,077,35,04,08,035,30*78 $GPGSV,3,3,11,14,07,242,00,05,03,107,00,23,01,358,00,,,,*41 $GPRMC,182105,A,5407.8948,N,01927.4969,E,026.9,336.9,170610,,,A*78 $GPVTG,336.9,T,,M,026.9,N,049.9,K,A*0B $GPGGA,182120,5407.9949,N,01927.4102,E,1,07,01.2,-0014.1,M,034.4,M,00,0000*55 $GPGSA,A,3,02,29,12,31,04,14,30,,,,,,01.8,01.2,01.3*00 $GPGSV,3,1,11,30,80,136,28,29,61,231,41,12,45,113,39,31,44,295,38*7B $GPGSV,3,2,11,02,40,067,42,19,11,027,00,10,10,077,40,04,08,035,38*71 $GPGSV,3,3,11,14,07,242,30,05,03,107,00,23,01,358,00,,,,*42 $GPRMC,182120,A,5407.9949,N,01927.4102,E,026.9,326.2,170610,,,A*70 $GPVTG,326.2,T,,M,026.9,N,049.9,K,A*01 $GPGGA,182135,5408.0887,N,01927.2903,E,1,06,01.2,-0010.0,M,034.4,M,00,0000*5F $GPGSA,A,3,02,29,12,31,04,14,,,,,,,01.9,01.2,01.4*05 $GPGSV,3,1,12,30,78,134,00,29,63,232,41,31,44,294,39,12,43,114,40*79 $GPGSV,3,2,12,02,40,065,46,04,07,034,36,14,06,242,29,10,10,076,30*73 $GPGSV,3,3,12,19,10,027,00,05,04,106,17,23,01,357,00,21,00,192,00*7E $GPRMC,182135,A,5408.0887,N,01927.2903,E,028.2,321.1,170610,,,A*7F $GPVTG,321.1,T,,M,028.2,N,052.2,K,A*01 $GPGGA,182150,5408.1929,N,01927.1524,E,1,07,01.2,-0003.5,M,034.4,M,00,0000*54 $GPGSA,A,3,02,31,29,30,12,04,14,,,,,,01.8,01.2,01.2*01 $GPGSV,3,1,12,30,78,134,33,29,63,232,37,31,44,294,41,12,43,114,36*76 $GPGSV,3,2,12,02,40,065,42,10,10,076,37,19,10,027,00,04,07,034,34*72 $GPGSV,3,3,12,14,06,242,34,05,04,106,00,23,01,357,00,21,00,192,00*74 $GPRMC,182150,A,5408.1929,N,01927.1524,E,033.4,311.5,170610,,,A*79 $GPVTG,311.5,T,,M,033.4,N,061.9,K,A*01 $GPGGA,182205,5408.3117,N,01926.9954,E,1,06,02.3,-0019.4,M,034.4,M,00,0000*5B $GPGSA,A,3,02,31,04,29,12,30,,,,,,,04.1,02.3,03.4*0E $GPGSV,3,1,12,30,78,134,30,29,63,232,39,31,44,294,40,12,43,114,39*75 $GPGSV,3,2,12,02,40,065,42,10,10,076,35,19,10,027,00,04,07,034,38*7C $GPGSV,3,3,12,14,06,242,00,05,04,106,00,23,01,357,00,21,00,192,00*73 $GPRMC,182205,A,5408.3117,N,01926.9954,E,033.7,318.6,170610,,,A*76 $GPVTG,318.6,T,,M,033.7,N,062.5,K,A*07 $GPGGA,182220,5408.4624,N,01926.7981,E,1,06,01.2,00000.9,M,034.4,M,00,0000*40 $GPGSA,A,3,02,29,31,12,14,04,,,,,,,01.9,01.2,01.4*05 $GPGSV,3,1,12,30,78,134,00,29,63,232,38,31,44,294,39,12,43,114,38*78 $GPGSV,3,2,12,02,40,065,43,10,10,076,37,19,10,027,00,04,07,034,29*7F $GPGSV,3,3,12,14,06,242,34,05,04,106,26,23,01,357,00,21,00,192,00*70 $GPRMC,182220,A,5408.4624,N,01926.7981,E,044.7,320.9,170610,,,A*73 $GPVTG,320.9,T,,M,044.7,N,082.8,K,A*00 $GPGGA,182235,5408.5921,N,01926.6146,E,1,07,01.2,00001.6,M,034.4,M,00,0000*42 $GPGSA,A,3,02,12,29,31,14,30,04,,,,,,01.8,01.2,01.2*01 $GPGSV,3,1,12,30,78,134,29,29,63,232,39,31,44,294,37,12,43,114,40*73 $GPGSV,3,2,12,02,40,065,42,10,10,076,00,19,10,027,00,04,07,034,29*7A $GPGSV,3,3,12,14,06,242,34,05,04,106,00,23,01,357,00,21,00,192,32*75 $GPRMC,182235,A,5408.5921,N,01926.6146,E,037.7,323.1,170610,,,A*71 $GPVTG,323.1,T,,M,037.7,N,069.9,K,A*0B $GPGGA,182250,5408.6891,N,01926.5108,E,1,06,02.3,-0037.1,M,034.4,M,00,0000*5D $GPGSA,A,3,12,02,29,31,04,30,,,,,,,04.1,02.3,03.4*0E $GPGSV,3,1,12,30,78,134,23,29,63,232,41,31,44,294,36,12,43,114,45*72 $GPGSV,3,2,12,02,40,065,41,10,10,076,25,19,10,027,00,04,07,034,23*74 $GPGSV,3,3,12,14,06,242,27,05,04,106,16,23,01,357,00,21,00,192,00*71 $GPRMC,182250,A,5408.6891,N,01926.5108,E,030.8,332.6,170610,,,A*7D $GPVTG,332.6,T,,M,030.8,N,057.1,K,A*01 $GPGGA,182305,5408.8059,N,01926.5594,E,1,06,02.3,-0054.1,M,034.4,M,00,0000*5A $GPGSA,A,3,12,02,04,29,31,30,,,,,,,04.1,02.3,03.4*0E $GPGSV,3,1,12,30,78,134,25,29,63,232,38,31,44,294,35,12,43,114,45*79 $GPGSV,3,2,12,02,40,065,39,10,10,076,38,19,10,027,00,04,07,034,41*73 $GPGSV,3,3,12,14,06,242,00,05,04,106,33,23,01,357,00,21,00,192,00*73 $GPRMC,182305,A,5408.8059,N,01926.5594,E,031.1,356.1,170610,,,A*72 $GPVTG,356.1,T,,M,031.1,N,057.6,K,N*04 $GPGGA,182320,5408.9599,N,01926.5535,E,1,07,01.2,-0039.4,M,034.4,M,00,0000*53 $GPGSA,A,3,29,31,02,12,04,30,14,,,,,,01.8,01.2,01.2*01 $GPGSV,3,1,12,30,78,134,25,29,63,232,41,31,44,294,40,12,43,114,35*72 $GPGSV,3,2,12,02,40,065,38,10,10,076,00,19,10,027,00,04,07,034,27*79 $GPGSV,3,3,12,14,06,242,23,05,04,106,19,23,01,357,35,21,00,192,00*7C $GPRMC,182320,A,5408.9599,N,01926.5535,E,033.0,351.2,170610,,,A*71 $GPVTG,351.2,T,,M,033.0,N,061.1,K,A*0E $GPGGA,182335,5409.1118,N,01926.5229,E,1,06,01.2,-0008.7,M,034.4,M,00,0000*59 $GPGSA,A,3,12,02,04,29,31,14,,,,,,,01.9,01.2,01.4*05 $GPGSV,3,1,12,30,78,134,00,29,63,232,38,31,44,294,38,12,43,114,42*74 $GPGSV,3,2,12,02,40,065,40,10,10,076,00,19,10,027,00,04,07,034,36*76 $GPGSV,3,3,12,14,06,242,35,05,04,106,29,23,01,357,30,21,00,192,00*7D $GPRMC,182335,A,5409.1118,N,01926.5229,E,036.3,352.2,170610,,,A*7E $GPVTG,352.2,T,,M,036.3,N,067.3,K,A*0F $GPGGA,182350,5409.2549,N,01926.4885,E,1,07,01.2,-0006.6,M,034.4,M,00,0000*5A $GPGSA,A,3,02,12,29,31,30,04,14,,,,,,01.8,01.2,01.2*01 $GPGSV,3,1,12,30,78,134,31,29,63,232,38,31,44,294,37,12,43,114,40*7B $GPGSV,3,2,12,02,40,065,42,10,10,076,00,19,10,027,00,04,07,034,31*73 $GPGSV,3,3,12,14,06,242,28,05,04,106,00,23,01,357,00,21,00,192,00*79 $GPRMC,182350,A,5409.2549,N,01926.4885,E,032.3,345.9,170610,,,A*7A $GPVTG,345.9,T,,M,032.3,N,059.9,K,A*01 $GPGGA,182405,5409.3421,N,01926.4175,E,1,06,02.3,-0008.9,M,034.4,M,00,0000*57 $GPGSA,A,3,02,12,30,04,29,31,,,,,,,04.1,02.3,03.4*0E $GPGSV,3,1,12,30,78,134,38,29,63,232,35,31,44,294,34,12,43,114,40*7C $GPGSV,3,2,12,02,40,065,45,10,10,076,39,19,10,027,00,04,07,034,38*77 $GPGSV,3,3,12,14,06,242,25,05,04,106,26,23,01,357,00,21,00,192,00*70 $GPRMC,182405,A,5409.3421,N,01926.4175,E,017.0,324.6,170610,,,A*79 $GPVTG,324.6,T,,M,017.0,N,031.5,K,A*0F $GPGGA,182420,5409.4326,N,01926.3306,E,1,06,02.3,-0004.4,M,034.4,M,00,0000*57 $GPGSA,A,3,02,12,29,31,30,04,,,,,,,04.1,02.3,03.3*09 $GPGSV,3,1,12,30,78,134,34,29,63,232,36,31,44,294,36,12,43,114,39*7F $GPGSV,3,2,12,02,40,065,42,10,10,076,20,19,10,027,00,04,07,034,22*73 $GPGSV,3,3,12,14,06,242,00,05,04,106,27,23,01,357,00,21,00,192,00*76 $GPRMC,182420,A,5409.4326,N,01926.3306,E,032.7,331.9,170610,,,A*73 $GPVTG,331.9,T,,M,032.7,N,060.7,K,A*02 $GPGGA,182435,5409.4975,N,01926.1292,E,1,05,02.3,00010.8,M,034.4,M,00,0000*46 $GPGSA,A,3,02,12,31,29,30,,,,,,,,05.1,02.3,04.6*0E $GPGSV,3,1,12,30,77,134,28,29,64,232,37,31,45,292,39,12,42,114,39*72 $GPGSV,3,2,12,02,39,064,39,04,06,034,00,14,05,241,00,10,11,075,00*7A $GPGSV,3,3,12,19,09,026,00,05,05,105,25,23,02,356,00,21,01,192,00*77 $GPRMC,182435,A,5409.4975,N,01926.1292,E,033.2,289.8,170610,,,A*72 $GPVTG,289.8,T,,M,033.2,N,061.5,K,A*06 $GPGGA,182450,5409.5054,N,01925.9007,E,1,05,02.3,00019.4,M,034.4,M,00,0000*4E $GPGSA,A,3,31,29,02,30,12,,,,,,,,05.1,02.3,04.6*0E $GPGSV,3,1,12,30,77,134,34,29,64,232,39,31,45,292,40,12,42,114,34*72 $GPGSV,3,2,12,02,39,064,38,10,11,075,00,19,09,026,00,04,06,034,15*7D $GPGSV,3,3,12,14,05,241,00,05,05,105,00,23,02,356,00,21,01,192,00*72 $GPRMC,182450,A,5409.5054,N,01925.9007,E,028.6,273.7,170610,,,A*7B $GPVTG,273.7,T,,M,028.6,N,053.0,K,A*06 $GPGGA,182511,5409.5109,N,01925.7480,E,1,05,02.3,00030.8,M,034.4,M,00,0000*41 $GPGSA,A,3,31,02,30,29,12,,,,,,,,05.1,02.3,04.6*0E $GPGSV,3,1,12,30,77,133,38,29,65,232,38,31,45,292,43,12,42,114,34*7A $GPGSV,3,2,12,02,39,063,41,04,06,034,00,14,05,241,00,10,11,075,00*72 $GPGSV,3,3,12,19,09,026,00,05,05,105,00,23,02,356,00,21,02,192,00*73 $GPRMC,182511,A,5409.5109,N,01925.7480,E,012.6,254.7,170610,,,A*7F $GPVTG,254.7,T,,M,012.6,N,023.3,K,A*0E $GPGGA,182525,5409.5165,N,01925.7510,E,1,07,01.2,00050.6,M,034.4,M,00,0000*4C $GPGSA,A,3,31,02,30,29,12,04,14,,,,,,01.7,01.2,01.2*0E $GPGSV,3,1,12,30,77,133,36,29,65,232,37,31,45,292,44,12,42,114,38*70 $GPGSV,3,2,12,02,39,063,42,04,06,034,25,14,05,241,25,10,11,075,28*7B $GPGSV,3,3,12,19,09,026,00,05,05,105,23,23,02,356,21,21,02,192,17*77 $GPRMC,182525,A,5409.5165,N,01925.7510,E,000.0,042.6,170610,,,A*7B $GPVTG,042.6,T,,M,000.0,N,000.1,K,A*0C $GPGGA,182540,5409.5167,N,01925.7504,E,1,07,01.2,00047.0,M,034.4,M,00,0000*48 $GPGSA,A,3,31,02,30,29,12,04,14,,,,,,01.7,01.2,01.2*0E $GPGSV,3,1,12,30,76,133,38,29,65,232,39,31,45,292,43,12,42,115,39*76 $GPGSV,3,2,12,02,39,063,44,10,11,075,28,19,09,025,00,04,06,034,27*79 $GPGSV,3,3,12,05,05,105,23,14,05,240,27,23,02,356,25,21,02,192,17*75 $GPRMC,182540,A,5409.5167,N,01925.7504,E,000.0,061.2,170610,,,A*7A $GPVTG,061.2,T,,M,000.0,N,000.0,K,A*08 $GPGGA,182554,5409.5172,N,01925.7500,E,1,06,01.6,00045.9,M,034.4,M,00,0000*43 $GPGSA,A,3,31,02,30,29,12,14,,,,,,,02.2,01.6,01.6*0C $GPGSV,3,1,12,30,76,133,37,29,65,232,35,31,45,292,43,12,41,115,35*7A $GPGSV,3,2,12,02,39,063,44,10,11,075,25,19,09,025,00,04,06,034,00*71 $GPGSV,3,3,12,05,05,105,19,14,05,240,26,23,02,356,25,21,02,192,17*7D $GPRMC,182554,A,5409.5172,N,01925.7500,E,000.0,033.9,170610,,,A*73 $GPVTG,033.9,T,,M,000.0,N,000.1,K,A*05 $GPGGA,182605,5409.5116,N,01925.7173,E,1,06,02.3,00047.0,M,034.4,M,00,0000*4B $GPGSA,A,3,31,02,29,12,30,04,,,,,,,04.0,02.3,03.3*08 $GPGSV,3,1,12,30,76,133,36,29,65,232,38,31,45,292,41,12,41,115,36*77 $GPGSV,3,2,12,02,39,063,40,10,11,075,22,19,09,025,00,04,06,034,31*70 $GPGSV,3,3,12,05,05,105,00,14,05,240,00,23,02,356,00,21,02,192,00*70 $GPRMC,182605,A,5409.5116,N,01925.7173,E,006.9,275.3,170610,,,A*73 $GPVTG,275.3,T,,M,006.9,N,012.8,K,A*0A $GPGGA,182620,5409.5238,N,01925.5762,E,1,05,02.3,00035.8,M,034.4,M,00,0000*49 $GPGSA,A,3,31,29,30,12,02,,,,,,,,05.1,02.3,04.5*0D $GPGSV,3,1,12,30,76,133,33,29,65,232,38,31,45,292,40,12,41,115,34*71 $GPGSV,3,2,12,02,39,063,33,10,11,075,00,19,09,025,00,04,06,034,00*76 $GPGSV,3,3,12,05,05,105,00,14,05,240,00,23,02,356,00,21,02,192,00*70 $GPRMC,182620,A,5409.5238,N,01925.5762,E,023.1,280.6,170610,,,A*7F $GPVTG,280.6,T,,M,023.1,N,042.8,K,A*0F $GPGGA,182635,5409.5294,N,01925.4082,E,1,04,02.3,00026.6,M,034.4,M,00,0000*4E $GPGSA,A,3,02,31,29,30,,,,,,,,,02.5,02.3,00.9*05 $GPGSV,3,1,12,30,76,133,36,29,65,232,39,31,45,292,36,12,41,115,00*73 $GPGSV,3,2,12,02,39,063,39,10,11,075,00,19,09,025,00,04,06,034,00*7C $GPGSV,3,3,12,05,05,105,00,14,05,240,00,23,02,356,00,21,02,192,00*70 $GPRMC,182635,A,5409.5294,N,01925.4082,E,018.5,274.1,170610,,,A*75 $GPVTG,274.1,T,,M,018.5,N,034.4,K,A*02 $GPGGA,182650,5409.5279,N,01925.3352,E,1,06,01.6,00025.8,M,034.4,M,00,0000*4E $GPGSA,A,3,29,31,12,30,02,14,,,,,,,02.2,01.6,01.6*0C $GPGSV,3,1,12,30,76,133,35,29,65,232,39,31,45,292,37,12,41,115,36*74 $GPGSV,3,2,12,02,39,063,32,10,11,075,24,19,09,025,00,04,06,034,00*71 $GPGSV,3,3,12,05,05,105,00,14,05,240,22,23,02,356,00,21,02,192,00*70 $GPRMC,182650,A,5409.5279,N,01925.3352,E,003.7,281.1,170610,,,A*7E $GPVTG,281.1,T,,M,003.7,N,006.8,K,A*0D $GPGGA,182705,5409.5402,N,01925.2375,E,1,05,02.3,00009.5,M,034.4,M,00,0000*47 $GPGSA,A,3,31,29,02,30,12,,,,,,,,05.0,02.3,04.5*0C $GPGSV,3,1,12,30,76,133,34,29,65,232,40,31,45,292,41,12,41,115,35*79 $GPGSV,3,2,12,02,39,063,37,10,11,075,23,19,09,025,00,04,06,034,00*73 $GPGSV,3,3,12,05,05,105,00,14,05,240,00,23,02,356,00,21,02,192,00*70 $GPRMC,182705,A,5409.5402,N,01925.2375,E,021.1,276.0,170610,,,A*7E $GPVTG,276.0,T,,M,021.1,N,039.1,K,A*07 $GPGGA,182720,5409.5563,N,01925.1069,E,1,05,02.2,-0020.2,M,034.4,M,00,0000*5B $GPGSA,A,3,02,31,29,12,30,,,,,,,,05.0,02.2,04.5*0D $GPGSV,3,1,12,30,76,133,24,29,65,232,38,31,45,292,37,12,41,115,33*70 $GPGSV,3,2,12,02,39,063,38,10,11,075,00,19,09,025,00,04,06,034,00*7D $GPGSV,3,3,12,05,05,105,23,14,05,240,00,23,02,356,00,21,02,192,00*71 $GPRMC,182720,A,5409.5563,N,01925.1069,E,015.9,265.4,170610,,,A*7B $GPVTG,265.4,T,,M,015.9,N,029.5,K,N*04 $GPGGA,182735,5409.6452,N,01925.1133,E,1,06,02.2,-0012.4,M,034.4,M,00,0000*55 $GPGSA,A,3,12,31,30,29,02,04,,,,,,,04.0,02.2,03.2*08 $GPGSV,3,1,12,30,76,133,33,29,65,232,37,31,45,292,37,12,41,115,42*7F $GPGSV,3,2,12,02,39,063,30,10,11,075,00,19,09,025,00,04,06,034,25*72 $GPGSV,3,3,12,05,05,105,00,14,05,240,00,23,02,356,00,21,02,192,00*70 $GPRMC,182735,A,5409.6452,N,01925.1133,E,023.1,354.3,170610,,,A*78 $GPVTG,354.3,T,,M,023.1,N,042.8,K,A*02 $GPGGA,182755,5409.7734,N,01925.2262,E,1,06,02.2,00037.3,M,034.4,M,00,0000*48 $GPGSA,A,3,30,12,02,04,29,31,,,,,,,03.9,02.2,03.2*06 $GPGSV,3,1,12,30,75,133,38,29,66,233,25,31,46,290,28,12,41,115,41*7A $GPGSV,3,2,12,02,38,062,28,04,05,033,24,14,04,240,00,10,12,074,34*7A $GPGSV,3,3,12,19,08,025,00,05,06,104,24,23,03,355,21,21,03,192,00*75 $GPRMC,182755,A,5409.7734,N,01925.2262,E,024.0,049.9,170610,,,A*7B $GPVTG,049.9,T,,M,024.0,N,044.5,K,A*0A $GPGGA,182806,5409.8261,N,01925.3139,E,1,06,02.2,00032.4,M,034.4,M,00,0000*45 $GPGSA,A,3,30,12,02,04,29,31,,,,,,,03.9,02.2,03.2*06 $GPGSV,3,1,12,30,75,133,37,29,66,233,35,31,46,290,32,12,41,115,45*7B $GPGSV,3,2,12,02,38,062,32,04,05,033,25,14,04,240,17,10,12,074,00*71 $GPGSV,3,3,12,19,08,025,00,05,06,104,00,23,03,355,12,21,03,192,07*74 $GPRMC,182806,A,5409.8261,N,01925.3139,E,023.8,042.6,170610,,,A*7F $GPVTG,042.6,T,,M,023.8,N,044.1,K,A*05 $GPGGA,182821,5409.8907,N,01925.4467,E,1,06,02.2,00038.2,M,034.4,M,00,0000*4E $GPGSA,A,3,12,30,31,29,02,04,,,,,,,03.9,02.2,03.2*06 $GPGSV,3,1,12,30,75,133,37,29,66,233,29,31,46,290,32,12,41,115,35*71 $GPGSV,3,2,12,02,38,062,35,10,12,074,24,19,08,025,00,05,06,104,30*75 $GPGSV,3,3,12,04,05,033,30,14,04,240,00,23,03,355,00,21,03,192,00*74 $GPRMC,182821,A,5409.8907,N,01925.4467,E,024.5,044.5,170610,,,A*77 $GPVTG,044.5,T,,M,024.5,N,045.3,K,A*09 $GPGGA,182836,5409.9558,N,01925.4782,E,1,06,02.2,00039.9,M,034.4,M,00,0000*4D $GPGSA,A,3,12,02,31,29,30,04,,,,,,,03.9,02.2,03.2*06 $GPGSV,3,1,12,30,75,133,34,29,66,233,37,31,46,290,36,12,41,115,41*7A $GPGSV,3,2,12,02,38,062,39,10,12,074,23,19,08,025,00,05,06,104,37*79 $GPGSV,3,3,12,04,05,033,24,14,04,240,00,23,03,355,00,21,03,192,00*71 $GPRMC,182836,A,5409.9558,N,01925.4782,E,020.3,000.2,170610,,,A*7B $GPVTG,000.2,T,,M,020.3,N,037.6,K,A*0C $GPGGA,182851,5410.0479,N,01925.4502,E,1,06,02.2,00032.9,M,034.4,M,00,0000*4E $GPGSA,A,3,12,30,02,29,31,04,,,,,,,03.9,02.2,03.2*06 $GPGSV,3,1,12,30,75,133,33,29,66,233,33,31,46,290,32,12,40,115,41*7C $GPGSV,3,2,12,02,38,062,35,04,05,033,26,14,04,240,28,10,12,074,27*7C $GPGSV,3,3,12,19,08,025,00,05,06,104,26,21,03,192,00,23,03,355,00*74 $GPRMC,182851,A,5410.0479,N,01925.4502,E,022.8,351.9,170610,,,A*76 $GPVTG,351.9,T,,M,022.8,N,042.3,K,A*0E $GPGGA,182906,5410.1466,N,01925.4433,E,1,05,02.2,00009.2,M,034.4,M,00,0000*41 $GPGSA,A,3,12,29,31,30,02,,,,,,,,05.0,02.2,04.4*0C $GPGSV,3,1,12,30,75,133,36,29,66,233,40,31,46,290,36,12,40,115,42*7A $GPGSV,3,2,12,02,38,062,30,10,12,074,30,19,08,025,00,05,06,104,00*76 $GPGSV,3,3,12,04,05,033,00,14,04,240,00,21,03,192,00,23,03,355,00*77 $GPRMC,182906,A,5410.1466,N,01925.4433,E,024.8,002.3,170610,,,A*70 $GPVTG,002.3,T,,M,024.8,N,046.0,K,A*00 $GPGGA,182921,5410.2290,N,01925.4390,E,1,06,02.2,-0007.6,M,034.4,M,00,0000*52 $GPGSA,A,3,12,02,31,29,30,04,,,,,,,03.9,02.2,03.2*06 $GPGSV,3,1,12,30,75,133,33,29,66,233,37,31,46,290,34,12,40,115,42*7D $GPGSV,3,2,12,02,38,062,36,10,12,074,34,19,08,025,00,05,06,104,28*7E $GPGSV,3,3,12,04,05,033,27,14,04,240,00,21,03,192,00,23,03,355,00*72 $GPRMC,182921,A,5410.2290,N,01925.4390,E,023.6,000.6,170610,,,A*79 $GPVTG,000.6,T,,M,023.6,N,043.7,K,A*0C $GPGGA,182936,5410.3424,N,01925.4414,E,1,05,02.2,00015.0,M,034.4,M,00,0000*4C $GPGSA,A,3,12,02,29,30,31,,,,,,,,04.9,02.2,04.4*04 $GPGSV,3,1,12,30,75,133,36,29,66,233,36,31,46,290,27,12,40,115,41*78 $GPGSV,3,2,12,02,38,062,39,10,12,074,23,19,08,025,00,05,06,104,13*7F $GPGSV,3,3,12,04,05,033,00,14,04,240,00,21,03,192,00,23,03,355,00*77 $GPRMC,182936,A,5410.3424,N,01925.4414,E,031.0,354.4,170610,,,A*79 $GPVTG,354.4,T,,M,031.0,N,057.4,K,A*0F $GPGGA,182951,5410.4644,N,01925.5031,E,1,06,02.2,00015.4,M,034.4,M,00,0000*4B $GPGSA,A,3,04,12,29,31,30,02,,,,,,,03.9,02.2,03.1*05 $GPGSV,3,1,12,30,75,133,33,29,66,233,32,31,46,290,29,12,40,115,38*79 $GPGSV,3,2,12,02,38,062,29,10,12,074,21,19,08,025,00,05,06,104,21*7D $GPGSV,3,3,12,04,05,033,37,14,04,240,00,21,03,192,00,23,03,355,00*73 $GPRMC,182951,A,5410.4644,N,01925.5031,E,028.2,021.4,170610,,,A*72 $GPVTG,021.4,T,,M,028.2,N,052.2,K,A*07 $GPGGA,183006,5410.5716,N,01925.5762,E,1,05,02.2,00013.3,M,034.4,M,00,0000*45 $GPGSA,A,3,12,29,30,31,02,,,,,,,,04.9,02.2,04.4*04 $GPGSV,3,1,12,30,75,133,34,29,66,233,38,31,46,290,37,12,40,115,41*75 $GPGSV,3,2,12,02,38,062,35,10,12,074,37,19,08,025,00,05,06,104,30*77 $GPGSV,3,3,12,04,05,033,00,14,04,240,00,21,03,192,26,23,03,355,33*73 $GPRMC,183006,A,5410.5716,N,01925.5762,E,025.9,002.4,170610,,,A*79 $GPVTG,002.4,T,,M,025.9,N,048.1,K,A*08 $GPGGA,183021,5410.6571,N,01925.5719,E,1,06,02.2,00014.7,M,034.4,M,00,0000*4C $GPGSA,A,3,12,30,02,29,31,04,,,,,,,03.8,02.2,03.1*04 $GPGSV,3,1,12,30,75,133,38,29,66,233,36,31,46,290,36,12,40,115,45*72 $GPGSV,3,2,12,02,38,062,38,10,12,074,35,19,08,025,00,05,06,104,38*70 $GPGSV,3,3,12,04,05,033,32,14,04,240,00,21,03,192,00,23,03,355,34*71 $GPRMC,183021,A,5410.6571,N,01925.5719,E,018.1,007.1,170610,,,A*76 $GPVTG,007.1,T,,M,018.1,N,033.6,K,A*05 $GPGGA,183036,5410.7232,N,01925.5732,E,1,06,02.2,00023.0,M,034.4,M,00,0000*41 $GPGSA,A,3,02,12,30,04,31,29,,,,,,,03.8,02.2,03.1*04 $GPGSV,3,1,12,30,75,133,39,29,66,233,34,31,46,290,35,12,40,115,41*76 $GPGSV,3,2,12,02,38,062,44,10,12,074,40,19,08,025,00,05,06,104,33*72 $GPGSV,3,3,12,04,05,033,38,14,04,240,26,21,03,192,00,23,03,355,22*78 $GPRMC,183036,A,5410.7232,N,01925.5732,E,012.6,352.6,170610,,,A*71 $GPVTG,352.6,T,,M,012.6,N,023.4,K,A*0F $GPGGA,183051,5410.7059,N,01925.4765,E,1,05,02.2,00045.2,M,034.4,M,00,0000*4D $GPGSA,A,3,29,31,02,12,30,,,,,,,,04.9,02.2,04.3*03 $GPGSV,3,1,12,30,75,133,27,29,66,233,41,31,46,290,37,12,40,115,36*79 $GPGSV,3,2,12,02,38,062,39,10,12,074,21,19,08,025,00,05,06,104,34*78 $GPGSV,3,3,12,04,05,033,00,14,04,240,30,21,03,192,24,23,03,355,00*72 $GPRMC,183051,A,5410.7059,N,01925.4765,E,017.6,241.6,170610,,,A*7A $GPVTG,241.6,T,,M,017.6,N,032.6,K,A*0B $GPGGA,183106,5410.6702,N,01925.3625,E,1,05,02.2,00056.9,M,034.4,M,00,0000*4D $GPGSA,A,3,31,30,12,02,29,,,,,,,,04.9,02.2,04.3*03 $GPGSV,3,1,12,30,75,133,39,29,66,233,28,31,46,290,40,12,40,115,38*77 $GPGSV,3,2,12,02,38,062,40,10,12,074,37,19,08,025,00,05,06,104,30*75 $GPGSV,3,3,12,04,05,033,00,14,04,240,00,21,03,192,26,23,03,355,27*76 $GPRMC,183106,A,5410.6702,N,01925.3625,E,016.3,260.3,170610,,,A*71 $GPVTG,260.3,T,,M,016.3,N,030.2,K,A*0F $GPGGA,183121,5410.7653,N,01925.3290,E,1,05,02.2,00047.2,M,034.4,M,00,0000*4D $GPGSA,A,3,12,02,31,30,29,,,,,,,,04.8,02.2,04.3*02 $GPGSV,3,1,12,30,75,133,35,29,66,233,34,31,46,290,34,12,40,115,44*7E $GPGSV,3,2,12,02,38,062,35,10,12,074,29,19,08,025,00,05,06,104,00*7B $GPGSV,3,3,12,04,05,033,29,14,04,240,00,21,03,192,27,23,03,355,35*7F $GPRMC,183121,A,5410.7653,N,01925.3290,E,028.9,002.9,170610,,,A*71 $GPVTG,002.9,T,,M,028.9,N,053.6,K,A*05 $GPGGA,183136,5410.9216,N,01925.3651,E,1,05,02.2,00033.5,M,034.4,M,00,0000*4D $GPGSA,A,3,12,02,31,29,30,,,,,,,,04.8,02.2,04.3*02 $GPGSV,3,1,12,30,75,133,22,29,66,233,36,31,46,290,37,12,40,115,42*7F $GPGSV,3,2,12,02,38,062,39,10,12,074,32,19,08,025,00,05,06,104,24*7B $GPGSV,3,3,12,04,05,033,00,14,04,240,00,21,03,192,00,23,03,355,00*77 $GPRMC,183136,A,5410.9216,N,01925.3651,E,037.6,008.9,170610,,,A*7E $GPVTG,008.9,T,,M,037.6,N,069.6,K,A*07 $GPGGA,183151,5411.0249,N,01925.4236,E,1,05,02.2,00027.5,M,034.4,M,00,0000*49 $GPGSA,A,3,12,30,31,02,29,,,,,,,,04.8,02.2,04.3*02 $GPGSV,3,1,12,30,73,133,39,29,68,233,26,31,47,288,36,12,39,116,44*7E $GPGSV,3,2,12,02,37,061,31,04,04,033,29,14,02,239,26,10,13,072,38*75 $GPGSV,3,3,12,05,07,103,37,19,07,024,00,21,04,192,28,23,04,354,00*77 $GPRMC,183151,A,5411.0249,N,01925.4236,E,026.8,021.1,170610,,,A*72 $GPVTG,021.1,T,,M,026.8,N,049.7,K,N*06 $GPGGA,183206,5411.1078,N,01925.4900,E,1,05,02.2,00052.5,M,034.4,M,00,0000*45 $GPGSA,A,3,12,31,02,30,29,,,,,,,,04.8,02.2,04.3*02 $GPGSV,3,1,12,30,73,133,35,29,68,233,34,31,47,288,38,12,39,116,41*7A $GPGSV,3,2,12,02,37,061,35,10,13,072,00,05,07,103,25,19,07,024,00*74 $GPGSV,3,3,12,21,04,192,00,04,04,033,33,23,04,354,00,14,02,239,00*7F $GPRMC,183206,A,5411.1078,N,01925.4900,E,034.0,024.1,170610,,,A*72 $GPVTG,024.1,T,,M,034.0,N,063.0,K,A*08 $GPGGA,183221,5411.2053,N,01925.5629,E,1,05,02.2,00064.7,M,034.4,M,00,0000*48 $GPGSA,A,3,12,30,31,29,02,,,,,,,,04.8,02.2,04.3*02 $GPGSV,3,1,12,30,73,133,39,29,68,233,37,31,47,288,38,12,39,116,43*77 $GPGSV,3,2,12,02,37,061,29,10,13,072,35,05,07,103,24,19,07,024,00*7E $GPGSV,3,3,12,21,04,192,30,04,04,033,42,23,04,354,00,14,02,239,00*7A $GPRMC,183221,A,5411.2053,N,01925.5629,E,025.9,025.2,170610,,,A*73 $GPVTG,025.2,T,,M,025.9,N,048.1,K,A*0B $GPGGA,183236,5411.2276,N,01925.5907,E,1,05,02.2,00092.7,M,034.4,M,00,0000*41 $GPGSA,A,3,12,30,29,31,02,,,,,,,,04.8,02.2,04.2*03 $GPGSV,3,1,12,30,73,133,40,29,68,233,39,31,47,288,36,12,39,116,43*79 $GPGSV,3,2,12,02,37,061,26,10,13,072,39,05,07,103,30,19,07,024,00*78 $GPGSV,3,3,12,21,04,192,30,04,04,033,39,23,04,354,29,14,02,239,23*7C $GPRMC,183236,A,5411.2276,N,01925.5907,E,007.2,011.8,170610,,,A*75 $GPVTG,011.8,T,,M,007.2,N,013.3,K,A*01 $GPGGA,183251,5411.2173,N,01925.5876,E,1,05,02.2,00103.0,M,034.4,M,00,0000*4F $GPGSA,A,3,12,30,29,02,31,,,,,,,,04.8,02.2,04.2*03 $GPGSV,3,1,12,30,73,133,40,29,68,233,36,31,47,288,34,12,39,116,43*74 $GPGSV,3,2,12,02,37,061,36,10,13,072,39,05,07,103,27,19,07,024,00*7F $GPGSV,3,3,12,21,04,192,31,04,04,033,38,23,04,354,32,14,02,239,28*7D $GPRMC,183251,A,5411.2173,N,01925.5876,E,001.4,140.1,170610,,,A*79 $GPVTG,140.1,T,,M,001.4,N,002.6,K,A*08 $GPGGA,183306,5411.2128,N,01925.5876,E,1,05,02.2,00096.2,M,034.4,M,00,0000*4D $GPGSA,A,3,12,30,31,29,02,,,,,,,,04.8,02.2,04.2*03 $GPGSV,3,1,12,30,73,133,39,29,68,233,35,31,47,288,38,12,39,116,44*72 $GPGSV,3,2,12,02,37,061,33,10,13,072,38,05,07,103,25,19,07,024,00*79 $GPGSV,3,3,12,21,04,192,29,04,04,033,39,23,04,354,28,14,02,239,00*74 $GPRMC,183306,A,5411.2128,N,01925.5876,E,002.0,122.0,170610,,,A*76 $GPVTG,122.0,T,,M,002.0,N,003.7,K,A*0A $GPGGA,183321,5411.2327,N,01925.5326,E,1,05,02.2,00080.9,M,034.4,M,00,0000*47 $GPGSA,A,3,12,29,02,30,31,,,,,,,,04.7,02.2,04.2*0C $GPGSV,3,1,12,30,73,133,32,29,68,233,37,31,47,288,33,12,39,116,39*7A $GPGSV,3,2,12,02,37,061,35,10,13,072,32,05,07,103,38,19,07,024,00*79 $GPGSV,3,3,12,21,04,192,32,04,04,033,19,23,04,354,00,14,02,239,00*76 $GPRMC,183321,A,5411.2327,N,01925.5326,E,003.5,257.4,170610,,,A*71 $GPVTG,257.4,T,,M,003.5,N,006.5,K,A*0C $GPGGA,183341,5411.1754,N,01925.2596,E,1,05,02.1,00069.1,M,034.4,M,00,0000*44 $GPGSA,A,3,31,29,12,30,02,,,,,,,,04.7,02.1,04.2*0F $GPGSV,3,1,12,30,72,133,21,29,69,234,39,31,47,287,41,12,38,117,36*74 $GPGSV,3,2,12,02,37,060,21,04,03,033,00,14,02,238,00,10,13,072,35*71 $GPGSV,3,3,12,05,08,102,34,19,06,023,00,21,05,192,00,23,04,353,00*70 $GPRMC,183341,A,5411.1754,N,01925.2596,E,030.9,257.5,170610,,,A*73 $GPVTG,257.5,T,,M,030.9,N,057.3,K,A*03 $GPGGA,183353,5411.1984,N,01925.2092,E,1,05,02.1,00059.9,M,034.4,M,00,0000*4E $GPGSA,A,3,31,29,12,30,02,,,,,,,,04.7,02.1,04.2*0F $GPGSV,3,1,12,30,72,133,43,29,69,234,34,31,47,287,36,12,38,117,42*7E $GPGSV,3,2,12,02,37,060,48,04,03,033,31,14,02,238,28,10,13,072,44*70 $GPGSV,3,3,12,05,08,102,35,19,06,023,00,21,05,192,35,23,04,353,40*73 $GPRMC,183353,A,5411.1984,N,01925.2092,E,005.0,342.8,170610,,,A*75 $GPVTG,342.8,T,,M,005.0,N,009.2,K,A*0E $GPGGA,183404,5411.2384,N,01925.1980,E,1,05,02.1,00059.6,M,034.4,M,00,0000*44 $GPGSA,A,3,12,29,31,02,30,,,,,,,,04.7,02.1,04.2*0F $GPGSV,3,1,12,30,72,133,34,29,69,234,37,31,47,287,36,12,38,117,45*7A $GPGSV,3,2,12,02,37,060,35,10,13,072,00,05,08,102,32,19,06,023,00*7B $GPGSV,3,3,12,21,05,192,29,23,04,353,36,04,03,033,29,14,02,238,00*7A $GPRMC,183404,A,5411.2384,N,01925.1980,E,017.7,353.8,170610,,,A*74 $GPVTG,353.8,T,,M,017.7,N,032.8,K,A*08 $GPGGA,183419,5411.3137,N,01925.2297,E,1,04,02.3,00062.1,M,034.4,M,00,0000*41 $GPGSA,A,3,02,31,30,29,,,,,,,,,02.5,02.3,00.9*05 $GPGSV,3,1,12,30,72,133,37,29,69,234,37,31,47,287,37,12,38,117,00*79 $GPGSV,3,2,12,02,37,060,40,10,13,072,30,05,08,102,26,19,06,023,00*7F $GPGSV,3,3,12,21,05,192,00,23,04,353,00,04,03,033,00,14,02,238,00*7F $GPRMC,183419,A,5411.3137,N,01925.2297,E,011.2,022.4,170610,,,A*77 $GPVTG,022.4,T,,M,011.2,N,020.8,K,A*01 $GPGGA,183434,5411.3018,N,01925.3365,E,1,05,02.1,00067.2,M,034.4,M,00,0000*4A $GPGSA,A,3,31,12,29,30,02,,,,,,,,04.7,02.1,04.1*0C $GPGSV,3,1,12,30,72,133,33,29,69,234,37,31,47,287,40,12,38,117,38*76 $GPGSV,3,2,12,02,37,060,33,10,13,072,34,05,08,102,00,19,06,023,00*7B $GPGSV,3,3,12,21,05,192,00,23,04,353,30,04,03,033,00,14,02,238,00*7C $GPRMC,183434,A,5411.3018,N,01925.3365,E,016.0,098.4,170610,,,A*7D $GPVTG,098.4,T,,M,016.0,N,029.6,K,A*02 $GPGGA,183449,5411.2942,N,01925.4098,E,1,04,02.3,00090.1,M,034.4,M,00,0000*49 $GPGSA,A,3,31,02,29,12,,,,,,,,,06.8,02.3,06.4*07 $GPGSV,3,1,12,30,72,133,00,29,69,234,35,31,47,287,42,12,38,117,34*7A $GPGSV,3,2,12,02,37,060,39,10,13,072,27,05,08,102,30,19,06,023,00*70 $GPGSV,3,3,12,21,05,192,28,23,04,353,27,04,03,033,00,14,02,238,00*70 $GPRMC,183449,A,5411.2942,N,01925.4098,E,001.7,096.4,170610,,,A*79 $GPVTG,096.4,T,,M,001.7,N,003.2,K,N*0E $GPGGA,183511,5411.2930,N,01925.4036,E,1,05,02.1,00039.9,M,034.4,M,00,0000*4C $GPGSA,A,3,31,02,29,12,30,,,,,,,,04.6,02.1,04.1*0D $GPGSV,3,1,12,30,72,133,25,29,69,234,39,31,47,286,44,12,37,117,40*7A $GPGSV,3,2,12,02,36,059,42,04,03,033,00,14,01,238,00,10,13,071,00*79 $GPGSV,3,3,12,05,08,102,27,19,06,023,00,21,06,192,00,23,04,353,25*76 $GPRMC,183511,A,5411.2930,N,01925.4036,E,000.1,292.7,170610,,,A*76 $GPVTG,292.7,T,,M,000.1,N,000.2,K,A*00 $GPGGA,183526,5411.2915,N,01925.4010,E,1,05,02.1,00012.3,M,034.4,M,00,0000*48 $GPGSA,A,3,31,02,29,12,30,,,,,,,,04.6,02.1,04.1*0D $GPGSV,3,1,12,30,72,133,38,29,69,234,40,31,47,286,42,12,37,117,31*78 $GPGSV,3,2,12,02,36,059,42,04,03,033,00,14,01,238,00,10,13,071,25*7E $GPGSV,3,3,12,05,08,102,26,19,06,023,00,21,06,192,27,23,04,353,26*71 $GPRMC,183526,A,5411.2915,N,01925.4010,E,000.2,197.4,170610,,,A*77 $GPVTG,197.4,T,,M,000.2,N,000.4,K,A*00 $GPGGA,183541,5411.2989,N,01925.3970,E,1,04,02.3,00021.1,M,034.4,M,00,0000*45 $GPGSA,A,3,31,02,29,30,,,,,,,,,02.5,02.3,00.9*05 $GPGSV,3,1,12,30,71,133,36,29,69,234,35,31,47,286,41,12,37,117,10*77 $GPGSV,3,2,12,02,36,059,19,10,13,071,16,05,08,102,14,19,06,023,00*7E $GPGSV,3,3,12,21,06,192,30,23,04,353,00,04,02,033,00,14,01,238,20*7F $GPRMC,183541,A,5411.2989,N,01925.3970,E,009.4,330.1,170610,,,A*7E $GPVTG,330.1,T,,M,009.4,N,017.4,K,A*03 $GPGGA,183556,5411.3329,N,01925.4404,E,1,05,02.1,00048.6,M,034.4,M,00,0000*40 $GPGSA,A,3,31,02,12,30,29,,,,,,,,04.6,02.1,04.1*0D $GPGSV,3,1,12,30,71,133,43,29,69,234,42,31,47,286,46,12,37,117,39*79 $GPGSV,3,2,12,02,36,059,29,10,13,071,23,05,08,102,00,19,06,023,00*7E $GPGSV,3,3,12,21,06,192,27,23,04,353,27,04,02,033,00,14,01,238,00*7E $GPRMC,183556,A,5411.3329,N,01925.4404,E,003.2,137.7,170610,,,A*7F $GPVTG,137.7,T,,M,003.2,N,006.0,K,A*08 $GPGGA,183604,5411.3338,N,01925.4491,E,1,05,02.1,00056.6,M,034.4,M,00,0000*47 $GPGSA,A,3,12,30,29,02,31,,,,,,,,04.6,02.1,04.1*0D $GPGSV,3,1,12,30,71,133,39,29,69,234,37,31,47,286,37,12,37,117,42*7C $GPGSV,3,2,12,02,36,059,37,10,13,071,00,05,08,102,25,19,06,023,00*77 $GPGSV,3,3,12,21,06,192,25,23,04,353,00,04,02,033,00,14,01,238,00*79 $GPRMC,183604,A,5411.3338,N,01925.4491,E,001.2,220.4,170610,,,A*73 $GPVTG,220.4,T,,M,001.2,N,002.2,K,A*0A $GPGGA,183619,5411.3356,N,01925.4454,E,1,04,02.1,00057.3,M,034.4,M,00,0000*4F $GPGSA,A,3,02,31,12,30,,,,,,,,,04.8,02.1,04.3*0A $GPGSV,3,1,12,30,71,133,34,29,69,234,00,31,47,286,38,12,37,117,35*7A $GPGSV,3,2,12,02,36,059,40,10,13,071,00,05,08,102,00,19,06,023,00*70 $GPGSV,3,3,12,21,06,192,25,23,04,353,00,04,02,033,00,14,01,238,00*79 $GPRMC,183619,A,5411.3356,N,01925.4454,E,001.0,168.0,170610,,,A*77 $GPVTG,168.0,T,,M,001.0,N,001.9,K,A*0B $GPGGA,183634,5411.3339,N,01925.4374,E,1,04,07.4,00043.3,M,034.4,M,00,0000*49 $GPGSA,A,3,31,30,29,12,,,,,,,,,08.8,07.4,04.7*0B $GPGSV,3,1,12,30,71,133,31,29,69,234,33,31,47,286,35,12,37,117,28*7E $GPGSV,3,2,12,02,36,059,00,10,13,071,00,05,08,102,00,19,06,023,00*74 $GPGSV,3,3,12,21,06,192,00,23,04,353,00,04,02,033,00,14,01,238,00*7E $GPRMC,183634,A,5411.3339,N,01925.4374,E,000.7,253.9,170610,,,A*70 $GPVTG,253.9,T,,M,000.7,N,001.4,K,A*02 $GPGGA,183656,5411.3384,N,01925.4466,E,1,05,02.1,00067.7,M,034.4,M,00,0000*4C $GPGSA,A,3,29,31,12,02,30,,,,,,,,04.5,02.1,04.0*0F $GPGSV,3,1,12,30,71,133,39,29,70,234,40,31,47,285,37,12,37,117,40*75 $GPGSV,3,2,12,02,36,059,34,04,02,033,00,14,01,238,00,10,14,070,00*7F $GPGSV,3,3,12,05,09,101,00,21,06,192,27,19,05,023,00,23,04,352,00*71 $GPRMC,183656,A,5411.3384,N,01925.4466,E,000.1,076.6,170610,,,A*7A $GPVTG,076.6,T,,M,000.1,N,000.2,K,A*09 $GPGGA,183703,5411.3400,N,01925.4479,E,1,05,02.1,00068.4,M,034.4,M,00,0000*44 $GPGSA,A,3,29,31,12,02,30,,,,,,,,04.5,02.1,04.0*0F $GPGSV,3,1,12,30,71,133,34,29,70,234,44,31,47,285,33,12,37,117,41*79 $GPGSV,3,2,12,02,36,059,27,04,02,033,00,14,01,238,00,10,14,070,00*7D $GPGSV,3,3,12,05,09,101,00,21,06,192,30,19,05,023,00,23,04,352,20*75 $GPRMC,183703,A,5411.3400,N,01925.4479,E,000.3,039.1,170610,,,A*70 $GPVTG,039.1,T,,M,000.3,N,000.6,K,A*03 $GPGGA,183718,5411.3415,N,01925.4476,E,1,05,02.1,00066.5,M,034.4,M,00,0000*4A $GPGSA,A,3,12,29,02,30,31,,,,,,,,04.5,02.1,04.0*0F $GPGSV,3,1,12,30,71,133,38,29,70,234,39,31,47,285,29,12,37,117,40*75 $GPGSV,3,2,12,02,36,059,35,10,14,070,00,05,09,101,00,21,06,192,30*75 $GPGSV,3,3,12,19,05,023,00,23,04,352,00,04,02,033,00,14,01,238,00*7C $GPRMC,183718,A,5411.3415,N,01925.4476,E,002.6,006.6,170610,,,A*7D $GPVTG,006.6,T,,M,002.6,N,004.9,K,A*04 $GPGGA,183733,5411.3417,N,01925.4441,E,1,05,02.1,00059.0,M,034.4,M,00,0000*4C $GPGSA,A,3,30,12,31,02,29,,,,,,,,04.5,02.1,04.0*0F $GPGSV,3,1,12,30,71,133,41,29,70,234,29,31,47,285,34,12,37,117,39*78 $GPGSV,3,2,12,02,36,059,32,10,14,070,00,05,09,101,00,21,06,192,30*72 $GPGSV,3,3,12,19,05,023,00,23,04,352,00,04,02,033,00,14,01,238,00*7C $GPRMC,183733,A,5411.3417,N,01925.4441,E,001.7,304.7,170610,,,A*70 $GPVTG,304.7,T,,M,001.7,N,003.1,K,A*09 $GPGGA,183748,5411.3286,N,01925.4224,E,1,05,02.1,00059.7,M,034.4,M,00,0000*4C $GPGSA,A,3,02,12,30,31,29,,,,,,,,04.5,02.1,04.0*0F $GPGSV,3,1,12,30,71,133,38,29,70,234,28,31,47,285,37,12,37,117,40*7A $GPGSV,3,2,12,02,36,059,42,10,14,070,00,05,09,101,00,21,06,192,24*70 $GPGSV,3,3,12,19,05,023,00,23,04,352,24,04,02,033,19,14,01,238,00*72 $GPRMC,183748,A,5411.3286,N,01925.4224,E,005.2,212.3,170610,,,A*74 $GPVTG,212.3,T,,M,005.2,N,009.6,K,A*07 $GPGGA,183811,5411.3230,N,01925.4387,E,1,05,02.1,00075.4,M,034.4,M,00,0000*47 $GPGSA,A,3,12,02,30,29,31,,,,,,,,04.5,02.1,04.0*0F $GPGSV,3,1,12,29,71,234,26,30,70,133,41,31,47,284,28,12,36,118,42*79 $GPGSV,3,2,12,02,36,058,38,04,02,032,00,14,00,237,20,10,14,070,31*7D $GPGSV,3,3,12,05,09,101,38,21,07,192,29,19,05,023,00,23,05,352,23*75 $GPRMC,183811,A,5411.3230,N,01925.4387,E,002.2,002.1,170610,,,A*74 $GPVTG,002.1,T,,M,002.2,N,004.2,K,A*08 $GPGGA,183826,5411.3267,N,01925.4517,E,1,03,03.3,00090.1,M,034.4,M,00,0000*45 $GPGSA,A,2,12,02,30,,,,,,,,,,03.5,03.3,01.0*06 $GPGSV,3,1,12,29,71,234,00,30,70,133,23,31,47,284,00,12,36,118,29*7E $GPGSV,3,2,12,02,36,058,22,04,02,032,00,14,00,237,00,10,14,070,14*73 $GPGSV,3,3,12,05,09,101,35,21,07,192,13,19,05,023,00,23,05,352,00*70 $GPRMC,183826,A,5411.3267,N,01925.4517,E,000.8,131.3,170610,,,A*76 $GPVTG,131.3,T,,M,000.8,N,001.5,K,N*0E $GPGGA,183835,5411.3254,N,01925.4612,E,1,03,03.3,00080.5,M,034.4,M,00,0000*44 $GPGSA,A,2,12,02,30,,,,,,,,,,03.5,03.3,00.9*0E $GPGSV,3,1,12,29,71,234,00,30,70,133,18,31,48,284,00,12,36,118,22*72 $GPGSV,3,2,12,02,35,058,20,10,14,070,00,05,09,101,19,21,07,192,00*79 $GPGSV,3,3,12,19,05,022,00,23,05,352,00,04,01,032,00,14,00,237,00*70 $GPRMC,183835,A,5411.3254,N,01925.4612,E,001.4,114.6,170610,,,A*7D $GPVTG,114.6,T,,M,001.4,N,002.7,K,N*00